<?xml version="1.0" encoding="UTF-8" standalone="no" ?>
<gpx xmlns="http://www.topografix.com/GPX/1/1" xmlns:xsi="http://www.w3.org/2001/XMLSchema-instance" xsi:schemaLocation="http://www.topografix.com/GPX/1/1 http://www.topografix.com/GPX/1/1/gpx.xsd" version="1.1" creator="VisuGPX - https://www.visugpx.com">
  <metadata>
    <name>Rando VTT Treillières 2014</name>
    <desc><![CDATA[Trace 50km de la randonnée VTT de Treillières (44) de 2014]]></desc>
  </metadata>
  <trk>
    <name><![CDATA[Randonnée Treillières]]></name>
    <trkseg>
      <trkpt lat="47.32725" lon="-1.62138">
        <ele>28.5</ele>
        <time>2014-05-18T06:09:37Z</time>
      </trkpt>
      <trkpt lat="47.32715" lon="-1.62127">
        <ele>51.5</ele>
        <time>2014-05-18T06:09:41Z</time>
      </trkpt>
      <trkpt lat="47.32713" lon="-1.62148">
        <ele>62.5</ele>
        <time>2014-05-18T06:11:33Z</time>
      </trkpt>
      <trkpt lat="47.32714" lon="-1.62166">
        <ele>60.5</ele>
        <time>2014-05-18T06:11:38Z</time>
      </trkpt>
      <trkpt lat="47.32705" lon="-1.62167">
        <ele>59.5</ele>
        <time>2014-05-18T06:11:50Z</time>
      </trkpt>
      <trkpt lat="47.32695" lon="-1.62163">
        <ele>61.5</ele>
        <time>2014-05-18T06:11:58Z</time>
      </trkpt>
      <trkpt lat="47.32694" lon="-1.62205">
        <ele>55.5</ele>
        <time>2014-05-18T06:12:09Z</time>
      </trkpt>
      <trkpt lat="47.32699" lon="-1.62227">
        <ele>53.5</ele>
        <time>2014-05-18T06:12:13Z</time>
      </trkpt>
      <trkpt lat="47.32701" lon="-1.62248">
        <ele>53.5</ele>
        <time>2014-05-18T06:12:17Z</time>
      </trkpt>
      <trkpt lat="47.32702" lon="-1.62268">
        <ele>52.5</ele>
        <time>2014-05-18T06:12:21Z</time>
      </trkpt>
      <trkpt lat="47.327" lon="-1.62282">
        <ele>51.5</ele>
        <time>2014-05-18T06:12:38Z</time>
      </trkpt>
      <trkpt lat="47.32696" lon="-1.62257">
        <ele>54.5</ele>
        <time>2014-05-18T06:24:17Z</time>
      </trkpt>
      <trkpt lat="47.32698" lon="-1.62238">
        <ele>54.5</ele>
        <time>2014-05-18T06:24:21Z</time>
      </trkpt>
      <trkpt lat="47.3271" lon="-1.6223">
        <ele>54.5</ele>
        <time>2014-05-18T06:24:25Z</time>
      </trkpt>
      <trkpt lat="47.32712" lon="-1.62215">
        <ele>55.5</ele>
        <time>2014-05-18T06:24:29Z</time>
      </trkpt>
      <trkpt lat="47.32704" lon="-1.62199">
        <ele>55.5</ele>
        <time>2014-05-18T06:24:34Z</time>
      </trkpt>
      <trkpt lat="47.32697" lon="-1.62179">
        <ele>55.5</ele>
        <time>2014-05-18T06:24:38Z</time>
      </trkpt>
      <trkpt lat="47.32692" lon="-1.62161">
        <ele>56.5</ele>
        <time>2014-05-18T06:24:42Z</time>
      </trkpt>
      <trkpt lat="47.32686" lon="-1.62147">
        <ele>57.5</ele>
        <time>2014-05-18T06:24:50Z</time>
      </trkpt>
      <trkpt lat="47.32681" lon="-1.6213">
        <ele>56.5</ele>
        <time>2014-05-18T06:24:54Z</time>
      </trkpt>
      <trkpt lat="47.32676" lon="-1.62118">
        <ele>57.5</ele>
        <time>2014-05-18T06:24:57Z</time>
      </trkpt>
      <trkpt lat="47.3267" lon="-1.62101">
        <ele>57.5</ele>
        <time>2014-05-18T06:25:01Z</time>
      </trkpt>
      <trkpt lat="47.32665" lon="-1.62087">
        <ele>58.5</ele>
        <time>2014-05-18T06:25:05Z</time>
      </trkpt>
      <trkpt lat="47.3266" lon="-1.62072">
        <ele>59.5</ele>
        <time>2014-05-18T06:25:09Z</time>
      </trkpt>
      <trkpt lat="47.32655" lon="-1.62052">
        <ele>57.5</ele>
        <time>2014-05-18T06:25:13Z</time>
      </trkpt>
      <trkpt lat="47.32652" lon="-1.62035">
        <ele>56.5</ele>
        <time>2014-05-18T06:25:17Z</time>
      </trkpt>
      <trkpt lat="47.32649" lon="-1.62022">
        <ele>55.5</ele>
        <time>2014-05-18T06:25:22Z</time>
      </trkpt>
      <trkpt lat="47.32644" lon="-1.61997">
        <ele>55.5</ele>
        <time>2014-05-18T06:25:26Z</time>
      </trkpt>
      <trkpt lat="47.32652" lon="-1.61985">
        <ele>56.5</ele>
        <time>2014-05-18T06:25:30Z</time>
      </trkpt>
      <trkpt lat="47.32667" lon="-1.61984">
        <ele>57.5</ele>
        <time>2014-05-18T06:25:38Z</time>
      </trkpt>
      <trkpt lat="47.32681" lon="-1.61982">
        <ele>59.5</ele>
        <time>2014-05-18T06:25:46Z</time>
      </trkpt>
      <trkpt lat="47.32698" lon="-1.61979">
        <ele>62.5</ele>
        <time>2014-05-18T06:28:06Z</time>
      </trkpt>
      <trkpt lat="47.32718" lon="-1.61979">
        <ele>61.5</ele>
        <time>2014-05-18T06:28:13Z</time>
      </trkpt>
      <trkpt lat="47.3273" lon="-1.61981">
        <ele>62.5</ele>
        <time>2014-05-18T06:28:17Z</time>
      </trkpt>
      <trkpt lat="47.32743" lon="-1.61983">
        <ele>62.5</ele>
        <time>2014-05-18T06:28:21Z</time>
      </trkpt>
      <trkpt lat="47.3276" lon="-1.61982">
        <ele>62.5</ele>
        <time>2014-05-18T06:28:25Z</time>
      </trkpt>
      <trkpt lat="47.32771" lon="-1.61979">
        <ele>62.5</ele>
        <time>2014-05-18T06:28:29Z</time>
      </trkpt>
      <trkpt lat="47.32789" lon="-1.61971">
        <ele>62.5</ele>
        <time>2014-05-18T06:28:33Z</time>
      </trkpt>
      <trkpt lat="47.32803" lon="-1.61964">
        <ele>61.5</ele>
        <time>2014-05-18T06:28:38Z</time>
      </trkpt>
      <trkpt lat="47.32818" lon="-1.61956">
        <ele>64.5</ele>
        <time>2014-05-18T06:28:42Z</time>
      </trkpt>
      <trkpt lat="47.3283" lon="-1.61943">
        <ele>63.5</ele>
        <time>2014-05-18T06:28:46Z</time>
      </trkpt>
      <trkpt lat="47.32841" lon="-1.61928">
        <ele>65.5</ele>
        <time>2014-05-18T06:28:50Z</time>
      </trkpt>
      <trkpt lat="47.32851" lon="-1.61911">
        <ele>66.5</ele>
        <time>2014-05-18T06:28:54Z</time>
      </trkpt>
      <trkpt lat="47.32863" lon="-1.61898">
        <ele>66.5</ele>
        <time>2014-05-18T06:28:58Z</time>
      </trkpt>
      <trkpt lat="47.32871" lon="-1.61887">
        <ele>66.5</ele>
        <time>2014-05-18T06:29:01Z</time>
      </trkpt>
      <trkpt lat="47.32877" lon="-1.61871">
        <ele>68.5</ele>
        <time>2014-05-18T06:29:05Z</time>
      </trkpt>
      <trkpt lat="47.32869" lon="-1.61851">
        <ele>67.5</ele>
        <time>2014-05-18T06:29:09Z</time>
      </trkpt>
      <trkpt lat="47.32862" lon="-1.61832">
        <ele>66.5</ele>
        <time>2014-05-18T06:29:13Z</time>
      </trkpt>
      <trkpt lat="47.32854" lon="-1.61806">
        <ele>64.5</ele>
        <time>2014-05-18T06:29:17Z</time>
      </trkpt>
      <trkpt lat="47.32847" lon="-1.61785">
        <ele>63.5</ele>
        <time>2014-05-18T06:29:21Z</time>
      </trkpt>
      <trkpt lat="47.32839" lon="-1.61763">
        <ele>62.5</ele>
        <time>2014-05-18T06:29:26Z</time>
      </trkpt>
      <trkpt lat="47.32828" lon="-1.61734">
        <ele>61.5</ele>
        <time>2014-05-18T06:29:30Z</time>
      </trkpt>
      <trkpt lat="47.32819" lon="-1.61711">
        <ele>60.5</ele>
        <time>2014-05-18T06:29:34Z</time>
      </trkpt>
      <trkpt lat="47.32808" lon="-1.61688">
        <ele>59.5</ele>
        <time>2014-05-18T06:29:38Z</time>
      </trkpt>
      <trkpt lat="47.32798" lon="-1.61664">
        <ele>59.5</ele>
        <time>2014-05-18T06:29:42Z</time>
      </trkpt>
      <trkpt lat="47.32788" lon="-1.61643">
        <ele>58.5</ele>
        <time>2014-05-18T06:29:46Z</time>
      </trkpt>
      <trkpt lat="47.32783" lon="-1.6162">
        <ele>58.5</ele>
        <time>2014-05-18T06:29:50Z</time>
      </trkpt>
      <trkpt lat="47.32786" lon="-1.61602">
        <ele>58.5</ele>
        <time>2014-05-18T06:29:53Z</time>
      </trkpt>
      <trkpt lat="47.32787" lon="-1.61573">
        <ele>57.5</ele>
        <time>2014-05-18T06:29:57Z</time>
      </trkpt>
      <trkpt lat="47.32787" lon="-1.61543">
        <ele>56.5</ele>
        <time>2014-05-18T06:30:01Z</time>
      </trkpt>
      <trkpt lat="47.32788" lon="-1.61512">
        <ele>56.5</ele>
        <time>2014-05-18T06:30:05Z</time>
      </trkpt>
      <trkpt lat="47.32789" lon="-1.61472">
        <ele>55.5</ele>
        <time>2014-05-18T06:30:09Z</time>
      </trkpt>
      <trkpt lat="47.3279" lon="-1.61437">
        <ele>54.5</ele>
        <time>2014-05-18T06:30:13Z</time>
      </trkpt>
      <trkpt lat="47.32794" lon="-1.61403">
        <ele>53.5</ele>
        <time>2014-05-18T06:30:17Z</time>
      </trkpt>
      <trkpt lat="47.32804" lon="-1.61369">
        <ele>53.5</ele>
        <time>2014-05-18T06:30:22Z</time>
      </trkpt>
      <trkpt lat="47.32816" lon="-1.61337">
        <ele>53.5</ele>
        <time>2014-05-18T06:30:26Z</time>
      </trkpt>
      <trkpt lat="47.32828" lon="-1.61306">
        <ele>53.5</ele>
        <time>2014-05-18T06:30:30Z</time>
      </trkpt>
      <trkpt lat="47.32841" lon="-1.61273">
        <ele>52.5</ele>
        <time>2014-05-18T06:30:34Z</time>
      </trkpt>
      <trkpt lat="47.32854" lon="-1.6124">
        <ele>50.5</ele>
        <time>2014-05-18T06:30:38Z</time>
      </trkpt>
      <trkpt lat="47.32866" lon="-1.61205">
        <ele>49.5</ele>
        <time>2014-05-18T06:30:42Z</time>
      </trkpt>
      <trkpt lat="47.32877" lon="-1.61174">
        <ele>49.5</ele>
        <time>2014-05-18T06:30:46Z</time>
      </trkpt>
      <trkpt lat="47.32882" lon="-1.61149">
        <ele>48.5</ele>
        <time>2014-05-18T06:30:49Z</time>
      </trkpt>
      <trkpt lat="47.32882" lon="-1.61116">
        <ele>46.5</ele>
        <time>2014-05-18T06:30:53Z</time>
      </trkpt>
      <trkpt lat="47.32881" lon="-1.61087">
        <ele>46.5</ele>
        <time>2014-05-18T06:30:57Z</time>
      </trkpt>
      <trkpt lat="47.32884" lon="-1.61069">
        <ele>47.5</ele>
        <time>2014-05-18T06:31:01Z</time>
      </trkpt>
      <trkpt lat="47.32886" lon="-1.61049">
        <ele>53.5</ele>
        <time>2014-05-18T06:31:09Z</time>
      </trkpt>
      <trkpt lat="47.32885" lon="-1.61034">
        <ele>53.5</ele>
        <time>2014-05-18T06:31:14Z</time>
      </trkpt>
      <trkpt lat="47.3288" lon="-1.61022">
        <ele>56.5</ele>
        <time>2014-05-18T06:31:18Z</time>
      </trkpt>
      <trkpt lat="47.32876" lon="-1.61005">
        <ele>59.5</ele>
        <time>2014-05-18T06:31:22Z</time>
      </trkpt>
      <trkpt lat="47.32873" lon="-1.60982">
        <ele>61.5</ele>
        <time>2014-05-18T06:31:26Z</time>
      </trkpt>
      <trkpt lat="47.3287" lon="-1.6096">
        <ele>62.5</ele>
        <time>2014-05-18T06:31:30Z</time>
      </trkpt>
      <trkpt lat="47.32865" lon="-1.60933">
        <ele>59.5</ele>
        <time>2014-05-18T06:31:34Z</time>
      </trkpt>
      <trkpt lat="47.32863" lon="-1.60901">
        <ele>53.5</ele>
        <time>2014-05-18T06:31:37Z</time>
      </trkpt>
      <trkpt lat="47.32858" lon="-1.60874">
        <ele>52.5</ele>
        <time>2014-05-18T06:31:41Z</time>
      </trkpt>
      <trkpt lat="47.32854" lon="-1.60858">
        <ele>59.5</ele>
        <time>2014-05-18T06:31:45Z</time>
      </trkpt>
      <trkpt lat="47.32846" lon="-1.60835">
        <ele>58.5</ele>
        <time>2014-05-18T06:31:49Z</time>
      </trkpt>
      <trkpt lat="47.32839" lon="-1.60803">
        <ele>57.5</ele>
        <time>2014-05-18T06:31:53Z</time>
      </trkpt>
      <trkpt lat="47.32835" lon="-1.60777">
        <ele>57.5</ele>
        <time>2014-05-18T06:31:57Z</time>
      </trkpt>
      <trkpt lat="47.32829" lon="-1.60743">
        <ele>54.5</ele>
        <time>2014-05-18T06:32:02Z</time>
      </trkpt>
      <trkpt lat="47.32822" lon="-1.60718">
        <ele>55.5</ele>
        <time>2014-05-18T06:32:06Z</time>
      </trkpt>
      <trkpt lat="47.32814" lon="-1.60692">
        <ele>56.5</ele>
        <time>2014-05-18T06:32:10Z</time>
      </trkpt>
      <trkpt lat="47.3281" lon="-1.60668">
        <ele>59.5</ele>
        <time>2014-05-18T06:32:14Z</time>
      </trkpt>
      <trkpt lat="47.32804" lon="-1.60644">
        <ele>58.5</ele>
        <time>2014-05-18T06:32:18Z</time>
      </trkpt>
      <trkpt lat="47.32798" lon="-1.60618">
        <ele>56.5</ele>
        <time>2014-05-18T06:32:22Z</time>
      </trkpt>
      <trkpt lat="47.32799" lon="-1.60598">
        <ele>57.5</ele>
        <time>2014-05-18T06:32:26Z</time>
      </trkpt>
      <trkpt lat="47.32796" lon="-1.60579">
        <ele>58.5</ele>
        <time>2014-05-18T06:32:30Z</time>
      </trkpt>
      <trkpt lat="47.32794" lon="-1.60563">
        <ele>60.5</ele>
        <time>2014-05-18T06:32:33Z</time>
      </trkpt>
      <trkpt lat="47.3279" lon="-1.60548">
        <ele>64.5</ele>
        <time>2014-05-18T06:32:37Z</time>
      </trkpt>
      <trkpt lat="47.3278" lon="-1.60521">
        <ele>60.5</ele>
        <time>2014-05-18T06:32:41Z</time>
      </trkpt>
      <trkpt lat="47.32776" lon="-1.60475">
        <ele>62.5</ele>
        <time>2014-05-18T06:32:45Z</time>
      </trkpt>
      <trkpt lat="47.32767" lon="-1.60453">
        <ele>53.5</ele>
        <time>2014-05-18T06:32:49Z</time>
      </trkpt>
      <trkpt lat="47.32761" lon="-1.60428">
        <ele>55.5</ele>
        <time>2014-05-18T06:32:54Z</time>
      </trkpt>
      <trkpt lat="47.32759" lon="-1.60402">
        <ele>57.5</ele>
        <time>2014-05-18T06:32:58Z</time>
      </trkpt>
      <trkpt lat="47.32754" lon="-1.60369">
        <ele>56.5</ele>
        <time>2014-05-18T06:33:02Z</time>
      </trkpt>
      <trkpt lat="47.32748" lon="-1.60343">
        <ele>56.5</ele>
        <time>2014-05-18T06:33:06Z</time>
      </trkpt>
      <trkpt lat="47.32744" lon="-1.60318">
        <ele>55.5</ele>
        <time>2014-05-18T06:33:10Z</time>
      </trkpt>
      <trkpt lat="47.32739" lon="-1.60291">
        <ele>57.5</ele>
        <time>2014-05-18T06:33:14Z</time>
      </trkpt>
      <trkpt lat="47.32736" lon="-1.60272">
        <ele>56.5</ele>
        <time>2014-05-18T06:33:17Z</time>
      </trkpt>
      <trkpt lat="47.32733" lon="-1.60244">
        <ele>60.5</ele>
        <time>2014-05-18T06:33:21Z</time>
      </trkpt>
      <trkpt lat="47.32733" lon="-1.60216">
        <ele>58.5</ele>
        <time>2014-05-18T06:33:25Z</time>
      </trkpt>
      <trkpt lat="47.32749" lon="-1.60206">
        <ele>59.5</ele>
        <time>2014-05-18T06:33:29Z</time>
      </trkpt>
      <trkpt lat="47.32766" lon="-1.60203">
        <ele>57.5</ele>
        <time>2014-05-18T06:33:33Z</time>
      </trkpt>
      <trkpt lat="47.32784" lon="-1.60199">
        <ele>55.5</ele>
        <time>2014-05-18T06:33:38Z</time>
      </trkpt>
      <trkpt lat="47.32804" lon="-1.60195">
        <ele>56.5</ele>
        <time>2014-05-18T06:33:42Z</time>
      </trkpt>
      <trkpt lat="47.32825" lon="-1.60188">
        <ele>56.5</ele>
        <time>2014-05-18T06:33:46Z</time>
      </trkpt>
      <trkpt lat="47.32844" lon="-1.60185">
        <ele>56.5</ele>
        <time>2014-05-18T06:33:50Z</time>
      </trkpt>
      <trkpt lat="47.32865" lon="-1.6018">
        <ele>56.5</ele>
        <time>2014-05-18T06:33:54Z</time>
      </trkpt>
      <trkpt lat="47.32885" lon="-1.60176">
        <ele>57.5</ele>
        <time>2014-05-18T06:33:58Z</time>
      </trkpt>
      <trkpt lat="47.32911" lon="-1.60173">
        <ele>53.5</ele>
        <time>2014-05-18T06:34:02Z</time>
      </trkpt>
      <trkpt lat="47.32933" lon="-1.6017">
        <ele>53.5</ele>
        <time>2014-05-18T06:34:06Z</time>
      </trkpt>
      <trkpt lat="47.32951" lon="-1.60167">
        <ele>52.5</ele>
        <time>2014-05-18T06:34:09Z</time>
      </trkpt>
      <trkpt lat="47.32965" lon="-1.60167">
        <ele>50.5</ele>
        <time>2014-05-18T06:34:13Z</time>
      </trkpt>
      <trkpt lat="47.32982" lon="-1.6016">
        <ele>49.5</ele>
        <time>2014-05-18T06:34:17Z</time>
      </trkpt>
      <trkpt lat="47.33004" lon="-1.6016">
        <ele>51.5</ele>
        <time>2014-05-18T06:34:21Z</time>
      </trkpt>
      <trkpt lat="47.3303" lon="-1.60153">
        <ele>52.5</ele>
        <time>2014-05-18T06:34:25Z</time>
      </trkpt>
      <trkpt lat="47.33052" lon="-1.60149">
        <ele>52.5</ele>
        <time>2014-05-18T06:34:29Z</time>
      </trkpt>
      <trkpt lat="47.33074" lon="-1.60146">
        <ele>58.5</ele>
        <time>2014-05-18T06:34:34Z</time>
      </trkpt>
      <trkpt lat="47.33098" lon="-1.60141">
        <ele>60.5</ele>
        <time>2014-05-18T06:34:38Z</time>
      </trkpt>
      <trkpt lat="47.33122" lon="-1.60136">
        <ele>60.5</ele>
        <time>2014-05-18T06:34:42Z</time>
      </trkpt>
      <trkpt lat="47.33154" lon="-1.60131">
        <ele>59.5</ele>
        <time>2014-05-18T06:34:46Z</time>
      </trkpt>
      <trkpt lat="47.33181" lon="-1.60127">
        <ele>57.5</ele>
        <time>2014-05-18T06:34:50Z</time>
      </trkpt>
      <trkpt lat="47.33228" lon="-1.60121">
        <ele>57.5</ele>
        <time>2014-05-18T06:34:54Z</time>
      </trkpt>
      <trkpt lat="47.33263" lon="-1.60115">
        <ele>57.5</ele>
        <time>2014-05-18T06:34:58Z</time>
      </trkpt>
      <trkpt lat="47.33289" lon="-1.60112">
        <ele>56.5</ele>
        <time>2014-05-18T06:35:01Z</time>
      </trkpt>
      <trkpt lat="47.33304" lon="-1.60109">
        <ele>56.5</ele>
        <time>2014-05-18T06:35:05Z</time>
      </trkpt>
      <trkpt lat="47.3334" lon="-1.60105">
        <ele>56.5</ele>
        <time>2014-05-18T06:35:09Z</time>
      </trkpt>
      <trkpt lat="47.33364" lon="-1.60105">
        <ele>54.5</ele>
        <time>2014-05-18T06:35:13Z</time>
      </trkpt>
      <trkpt lat="47.33372" lon="-1.60096">
        <ele>51.5</ele>
        <time>2014-05-18T06:35:17Z</time>
      </trkpt>
      <trkpt lat="47.33379" lon="-1.60083">
        <ele>51.5</ele>
        <time>2014-05-18T06:35:21Z</time>
      </trkpt>
      <trkpt lat="47.33385" lon="-1.6007">
        <ele>51.5</ele>
        <time>2014-05-18T06:35:26Z</time>
      </trkpt>
      <trkpt lat="47.33403" lon="-1.60037">
        <ele>53.5</ele>
        <time>2014-05-18T06:35:34Z</time>
      </trkpt>
      <trkpt lat="47.33411" lon="-1.60019">
        <ele>53.5</ele>
        <time>2014-05-18T06:35:38Z</time>
      </trkpt>
      <trkpt lat="47.3342" lon="-1.60003">
        <ele>53.5</ele>
        <time>2014-05-18T06:35:42Z</time>
      </trkpt>
      <trkpt lat="47.33429" lon="-1.59985">
        <ele>53.5</ele>
        <time>2014-05-18T06:35:46Z</time>
      </trkpt>
      <trkpt lat="47.33438" lon="-1.59966">
        <ele>51.5</ele>
        <time>2014-05-18T06:35:50Z</time>
      </trkpt>
      <trkpt lat="47.33449" lon="-1.59945">
        <ele>51.5</ele>
        <time>2014-05-18T06:35:54Z</time>
      </trkpt>
      <trkpt lat="47.3346" lon="-1.59925">
        <ele>52.5</ele>
        <time>2014-05-18T06:35:58Z</time>
      </trkpt>
      <trkpt lat="47.33467" lon="-1.59908">
        <ele>54.5</ele>
        <time>2014-05-18T06:36:01Z</time>
      </trkpt>
      <trkpt lat="47.33478" lon="-1.59884">
        <ele>55.5</ele>
        <time>2014-05-18T06:36:05Z</time>
      </trkpt>
      <trkpt lat="47.33487" lon="-1.5986">
        <ele>56.5</ele>
        <time>2014-05-18T06:36:09Z</time>
      </trkpt>
      <trkpt lat="47.33498" lon="-1.5983">
        <ele>56.5</ele>
        <time>2014-05-18T06:36:13Z</time>
      </trkpt>
      <trkpt lat="47.33503" lon="-1.59819">
        <ele>57.5</ele>
        <time>2014-05-18T06:36:17Z</time>
      </trkpt>
      <trkpt lat="47.3352" lon="-1.59786">
        <ele>59.5</ele>
        <time>2014-05-18T06:36:21Z</time>
      </trkpt>
      <trkpt lat="47.33534" lon="-1.59765">
        <ele>59.5</ele>
        <time>2014-05-18T06:36:25Z</time>
      </trkpt>
      <trkpt lat="47.33549" lon="-1.59745">
        <ele>60.5</ele>
        <time>2014-05-18T06:36:30Z</time>
      </trkpt>
      <trkpt lat="47.33564" lon="-1.59726">
        <ele>59.5</ele>
        <time>2014-05-18T06:36:34Z</time>
      </trkpt>
      <trkpt lat="47.33579" lon="-1.59707">
        <ele>58.5</ele>
        <time>2014-05-18T06:36:38Z</time>
      </trkpt>
      <trkpt lat="47.33596" lon="-1.59686">
        <ele>57.5</ele>
        <time>2014-05-18T06:36:42Z</time>
      </trkpt>
      <trkpt lat="47.33612" lon="-1.59663">
        <ele>56.5</ele>
        <time>2014-05-18T06:36:46Z</time>
      </trkpt>
      <trkpt lat="47.33622" lon="-1.59642">
        <ele>57.5</ele>
        <time>2014-05-18T06:36:50Z</time>
      </trkpt>
      <trkpt lat="47.33635" lon="-1.59606">
        <ele>57.5</ele>
        <time>2014-05-18T06:36:54Z</time>
      </trkpt>
      <trkpt lat="47.33639" lon="-1.59582">
        <ele>57.5</ele>
        <time>2014-05-18T06:36:57Z</time>
      </trkpt>
      <trkpt lat="47.33642" lon="-1.59549">
        <ele>56.5</ele>
        <time>2014-05-18T06:37:01Z</time>
      </trkpt>
      <trkpt lat="47.33646" lon="-1.59512">
        <ele>57.5</ele>
        <time>2014-05-18T06:37:05Z</time>
      </trkpt>
      <trkpt lat="47.33649" lon="-1.59486">
        <ele>56.5</ele>
        <time>2014-05-18T06:37:09Z</time>
      </trkpt>
      <trkpt lat="47.33652" lon="-1.59461">
        <ele>56.5</ele>
        <time>2014-05-18T06:37:13Z</time>
      </trkpt>
      <trkpt lat="47.33663" lon="-1.59456">
        <ele>56.5</ele>
        <time>2014-05-18T06:37:18Z</time>
      </trkpt>
      <trkpt lat="47.33674" lon="-1.5944">
        <ele>57.5</ele>
        <time>2014-05-18T06:37:22Z</time>
      </trkpt>
      <trkpt lat="47.33693" lon="-1.59417">
        <ele>55.5</ele>
        <time>2014-05-18T06:37:26Z</time>
      </trkpt>
      <trkpt lat="47.33704" lon="-1.59393">
        <ele>55.5</ele>
        <time>2014-05-18T06:37:30Z</time>
      </trkpt>
      <trkpt lat="47.33724" lon="-1.59368">
        <ele>50.5</ele>
        <time>2014-05-18T06:37:34Z</time>
      </trkpt>
      <trkpt lat="47.33739" lon="-1.59346">
        <ele>50.5</ele>
        <time>2014-05-18T06:37:38Z</time>
      </trkpt>
      <trkpt lat="47.33752" lon="-1.59326">
        <ele>52.5</ele>
        <time>2014-05-18T06:37:41Z</time>
      </trkpt>
      <trkpt lat="47.33769" lon="-1.59296">
        <ele>54.5</ele>
        <time>2014-05-18T06:37:45Z</time>
      </trkpt>
      <trkpt lat="47.33787" lon="-1.59269">
        <ele>54.5</ele>
        <time>2014-05-18T06:37:49Z</time>
      </trkpt>
      <trkpt lat="47.33808" lon="-1.59237">
        <ele>56.5</ele>
        <time>2014-05-18T06:37:53Z</time>
      </trkpt>
      <trkpt lat="47.33815" lon="-1.59225">
        <ele>56.5</ele>
        <time>2014-05-18T06:37:57Z</time>
      </trkpt>
      <trkpt lat="47.33839" lon="-1.59187">
        <ele>55.5</ele>
        <time>2014-05-18T06:38:01Z</time>
      </trkpt>
      <trkpt lat="47.33855" lon="-1.59163">
        <ele>54.5</ele>
        <time>2014-05-18T06:38:06Z</time>
      </trkpt>
      <trkpt lat="47.33873" lon="-1.59142">
        <ele>55.5</ele>
        <time>2014-05-18T06:38:10Z</time>
      </trkpt>
      <trkpt lat="47.33888" lon="-1.59119">
        <ele>55.5</ele>
        <time>2014-05-18T06:38:14Z</time>
      </trkpt>
      <trkpt lat="47.33904" lon="-1.59086">
        <ele>52.5</ele>
        <time>2014-05-18T06:38:18Z</time>
      </trkpt>
      <trkpt lat="47.33924" lon="-1.59062">
        <ele>51.5</ele>
        <time>2014-05-18T06:38:22Z</time>
      </trkpt>
      <trkpt lat="47.33938" lon="-1.59036">
        <ele>48.5</ele>
        <time>2014-05-18T06:38:26Z</time>
      </trkpt>
      <trkpt lat="47.33957" lon="-1.59013">
        <ele>47.5</ele>
        <time>2014-05-18T06:38:30Z</time>
      </trkpt>
      <trkpt lat="47.33969" lon="-1.5899">
        <ele>46.5</ele>
        <time>2014-05-18T06:38:33Z</time>
      </trkpt>
      <trkpt lat="47.33983" lon="-1.5897">
        <ele>46.5</ele>
        <time>2014-05-18T06:38:37Z</time>
      </trkpt>
      <trkpt lat="47.33997" lon="-1.58948">
        <ele>42.5</ele>
        <time>2014-05-18T06:38:41Z</time>
      </trkpt>
      <trkpt lat="47.34015" lon="-1.58926">
        <ele>45.5</ele>
        <time>2014-05-18T06:38:45Z</time>
      </trkpt>
      <trkpt lat="47.34027" lon="-1.58903">
        <ele>47.5</ele>
        <time>2014-05-18T06:38:49Z</time>
      </trkpt>
      <trkpt lat="47.34042" lon="-1.58883">
        <ele>49.5</ele>
        <time>2014-05-18T06:38:53Z</time>
      </trkpt>
      <trkpt lat="47.34054" lon="-1.58864">
        <ele>49.5</ele>
        <time>2014-05-18T06:38:58Z</time>
      </trkpt>
      <trkpt lat="47.34068" lon="-1.58843">
        <ele>47.5</ele>
        <time>2014-05-18T06:39:02Z</time>
      </trkpt>
      <trkpt lat="47.34079" lon="-1.58826">
        <ele>48.5</ele>
        <time>2014-05-18T06:39:06Z</time>
      </trkpt>
      <trkpt lat="47.34092" lon="-1.58807">
        <ele>46.5</ele>
        <time>2014-05-18T06:39:10Z</time>
      </trkpt>
      <trkpt lat="47.34105" lon="-1.58785">
        <ele>47.5</ele>
        <time>2014-05-18T06:39:14Z</time>
      </trkpt>
      <trkpt lat="47.3412" lon="-1.58765">
        <ele>45.5</ele>
        <time>2014-05-18T06:39:18Z</time>
      </trkpt>
      <trkpt lat="47.34129" lon="-1.58756">
        <ele>47.5</ele>
        <time>2014-05-18T06:39:21Z</time>
      </trkpt>
      <trkpt lat="47.3414" lon="-1.58741">
        <ele>48.5</ele>
        <time>2014-05-18T06:39:25Z</time>
      </trkpt>
      <trkpt lat="47.34153" lon="-1.58721">
        <ele>48.5</ele>
        <time>2014-05-18T06:39:29Z</time>
      </trkpt>
      <trkpt lat="47.3417" lon="-1.58694">
        <ele>45.5</ele>
        <time>2014-05-18T06:39:33Z</time>
      </trkpt>
      <trkpt lat="47.34183" lon="-1.58674">
        <ele>44.5</ele>
        <time>2014-05-18T06:39:37Z</time>
      </trkpt>
      <trkpt lat="47.342" lon="-1.58649">
        <ele>43.5</ele>
        <time>2014-05-18T06:39:41Z</time>
      </trkpt>
      <trkpt lat="47.34215" lon="-1.58626">
        <ele>44.5</ele>
        <time>2014-05-18T06:39:46Z</time>
      </trkpt>
      <trkpt lat="47.3423" lon="-1.586">
        <ele>47.5</ele>
        <time>2014-05-18T06:39:50Z</time>
      </trkpt>
      <trkpt lat="47.34243" lon="-1.5858">
        <ele>46.5</ele>
        <time>2014-05-18T06:39:54Z</time>
      </trkpt>
      <trkpt lat="47.34266" lon="-1.58549">
        <ele>45.5</ele>
        <time>2014-05-18T06:39:58Z</time>
      </trkpt>
      <trkpt lat="47.34283" lon="-1.58524">
        <ele>47.5</ele>
        <time>2014-05-18T06:40:02Z</time>
      </trkpt>
      <trkpt lat="47.343" lon="-1.58498">
        <ele>46.5</ele>
        <time>2014-05-18T06:40:06Z</time>
      </trkpt>
      <trkpt lat="47.34311" lon="-1.58478">
        <ele>47.5</ele>
        <time>2014-05-18T06:40:09Z</time>
      </trkpt>
      <trkpt lat="47.34323" lon="-1.58461">
        <ele>48.5</ele>
        <time>2014-05-18T06:40:13Z</time>
      </trkpt>
      <trkpt lat="47.34338" lon="-1.58441">
        <ele>47.5</ele>
        <time>2014-05-18T06:40:17Z</time>
      </trkpt>
      <trkpt lat="47.34352" lon="-1.58424">
        <ele>50.5</ele>
        <time>2014-05-18T06:40:21Z</time>
      </trkpt>
      <trkpt lat="47.34373" lon="-1.58392">
        <ele>42.5</ele>
        <time>2014-05-18T06:40:25Z</time>
      </trkpt>
      <trkpt lat="47.34387" lon="-1.58368">
        <ele>43.5</ele>
        <time>2014-05-18T06:40:29Z</time>
      </trkpt>
      <trkpt lat="47.34398" lon="-1.5835">
        <ele>44.5</ele>
        <time>2014-05-18T06:40:34Z</time>
      </trkpt>
      <trkpt lat="47.34417" lon="-1.58318">
        <ele>43.5</ele>
        <time>2014-05-18T06:40:38Z</time>
      </trkpt>
      <trkpt lat="47.34436" lon="-1.58297">
        <ele>44.5</ele>
        <time>2014-05-18T06:40:42Z</time>
      </trkpt>
      <trkpt lat="47.3445" lon="-1.58272">
        <ele>42.5</ele>
        <time>2014-05-18T06:40:46Z</time>
      </trkpt>
      <trkpt lat="47.34467" lon="-1.58247">
        <ele>41.5</ele>
        <time>2014-05-18T06:40:50Z</time>
      </trkpt>
      <trkpt lat="47.34484" lon="-1.58221">
        <ele>42.5</ele>
        <time>2014-05-18T06:40:54Z</time>
      </trkpt>
      <trkpt lat="47.345" lon="-1.58198">
        <ele>41.5</ele>
        <time>2014-05-18T06:40:58Z</time>
      </trkpt>
      <trkpt lat="47.34513" lon="-1.58179">
        <ele>40.5</ele>
        <time>2014-05-18T06:41:01Z</time>
      </trkpt>
      <trkpt lat="47.34532" lon="-1.58155">
        <ele>43.5</ele>
        <time>2014-05-18T06:41:05Z</time>
      </trkpt>
      <trkpt lat="47.34555" lon="-1.58121">
        <ele>45.5</ele>
        <time>2014-05-18T06:41:09Z</time>
      </trkpt>
      <trkpt lat="47.34573" lon="-1.5809">
        <ele>42.5</ele>
        <time>2014-05-18T06:41:13Z</time>
      </trkpt>
      <trkpt lat="47.34581" lon="-1.58079">
        <ele>41.5</ele>
        <time>2014-05-18T06:41:17Z</time>
      </trkpt>
      <trkpt lat="47.34609" lon="-1.58039">
        <ele>37.5</ele>
        <time>2014-05-18T06:41:22Z</time>
      </trkpt>
      <trkpt lat="47.34622" lon="-1.58016">
        <ele>38.5</ele>
        <time>2014-05-18T06:41:26Z</time>
      </trkpt>
      <trkpt lat="47.34634" lon="-1.57999">
        <ele>39.5</ele>
        <time>2014-05-18T06:41:30Z</time>
      </trkpt>
      <trkpt lat="47.34636" lon="-1.58013">
        <ele>40.5</ele>
        <time>2014-05-18T06:41:34Z</time>
      </trkpt>
      <trkpt lat="47.34627" lon="-1.5803">
        <ele>38.5</ele>
        <time>2014-05-18T06:41:38Z</time>
      </trkpt>
      <trkpt lat="47.34619" lon="-1.58052">
        <ele>42.5</ele>
        <time>2014-05-18T06:41:42Z</time>
      </trkpt>
      <trkpt lat="47.34613" lon="-1.58075">
        <ele>44.5</ele>
        <time>2014-05-18T06:41:46Z</time>
      </trkpt>
      <trkpt lat="47.34607" lon="-1.58092">
        <ele>45.5</ele>
        <time>2014-05-18T06:41:49Z</time>
      </trkpt>
      <trkpt lat="47.34604" lon="-1.58116">
        <ele>44.5</ele>
        <time>2014-05-18T06:41:53Z</time>
      </trkpt>
      <trkpt lat="47.34623" lon="-1.58128">
        <ele>44.5</ele>
        <time>2014-05-18T06:41:57Z</time>
      </trkpt>
      <trkpt lat="47.34648" lon="-1.58131">
        <ele>47.5</ele>
        <time>2014-05-18T06:42:01Z</time>
      </trkpt>
      <trkpt lat="47.34669" lon="-1.58138">
        <ele>48.5</ele>
        <time>2014-05-18T06:42:05Z</time>
      </trkpt>
      <trkpt lat="47.34685" lon="-1.58144">
        <ele>48.5</ele>
        <time>2014-05-18T06:42:09Z</time>
      </trkpt>
      <trkpt lat="47.34696" lon="-1.58165">
        <ele>44.5</ele>
        <time>2014-05-18T06:42:14Z</time>
      </trkpt>
      <trkpt lat="47.34703" lon="-1.58186">
        <ele>44.5</ele>
        <time>2014-05-18T06:42:18Z</time>
      </trkpt>
      <trkpt lat="47.34713" lon="-1.58218">
        <ele>45.5</ele>
        <time>2014-05-18T06:42:22Z</time>
      </trkpt>
      <trkpt lat="47.34729" lon="-1.58264">
        <ele>46.5</ele>
        <time>2014-05-18T06:42:26Z</time>
      </trkpt>
      <trkpt lat="47.34741" lon="-1.58309">
        <ele>42.5</ele>
        <time>2014-05-18T06:42:30Z</time>
      </trkpt>
      <trkpt lat="47.34756" lon="-1.58347">
        <ele>42.5</ele>
        <time>2014-05-18T06:42:34Z</time>
      </trkpt>
      <trkpt lat="47.34763" lon="-1.58381">
        <ele>40.5</ele>
        <time>2014-05-18T06:42:38Z</time>
      </trkpt>
      <trkpt lat="47.34771" lon="-1.58404">
        <ele>38.5</ele>
        <time>2014-05-18T06:42:41Z</time>
      </trkpt>
      <trkpt lat="47.34781" lon="-1.58432">
        <ele>40.5</ele>
        <time>2014-05-18T06:42:45Z</time>
      </trkpt>
      <trkpt lat="47.34804" lon="-1.58463">
        <ele>38.5</ele>
        <time>2014-05-18T06:42:49Z</time>
      </trkpt>
      <trkpt lat="47.34825" lon="-1.58488">
        <ele>37.5</ele>
        <time>2014-05-18T06:42:53Z</time>
      </trkpt>
      <trkpt lat="47.34844" lon="-1.58506">
        <ele>36.5</ele>
        <time>2014-05-18T06:42:57Z</time>
      </trkpt>
      <trkpt lat="47.3486" lon="-1.58529">
        <ele>35.5</ele>
        <time>2014-05-18T06:43:01Z</time>
      </trkpt>
      <trkpt lat="47.34876" lon="-1.58551">
        <ele>36.5</ele>
        <time>2014-05-18T06:43:06Z</time>
      </trkpt>
      <trkpt lat="47.34892" lon="-1.58576">
        <ele>37.5</ele>
        <time>2014-05-18T06:43:10Z</time>
      </trkpt>
      <trkpt lat="47.34907" lon="-1.58601">
        <ele>39.5</ele>
        <time>2014-05-18T06:43:14Z</time>
      </trkpt>
      <trkpt lat="47.34921" lon="-1.58622">
        <ele>39.5</ele>
        <time>2014-05-18T06:43:18Z</time>
      </trkpt>
      <trkpt lat="47.34935" lon="-1.58642">
        <ele>41.5</ele>
        <time>2014-05-18T06:43:22Z</time>
      </trkpt>
      <trkpt lat="47.34949" lon="-1.58664">
        <ele>41.5</ele>
        <time>2014-05-18T06:43:26Z</time>
      </trkpt>
      <trkpt lat="47.34974" lon="-1.58697">
        <ele>44.5</ele>
        <time>2014-05-18T06:43:33Z</time>
      </trkpt>
      <trkpt lat="47.34988" lon="-1.58715">
        <ele>45.5</ele>
        <time>2014-05-18T06:43:37Z</time>
      </trkpt>
      <trkpt lat="47.35001" lon="-1.58735">
        <ele>44.5</ele>
        <time>2014-05-18T06:43:41Z</time>
      </trkpt>
      <trkpt lat="47.35011" lon="-1.58754">
        <ele>44.5</ele>
        <time>2014-05-18T06:43:45Z</time>
      </trkpt>
      <trkpt lat="47.35018" lon="-1.58777">
        <ele>44.5</ele>
        <time>2014-05-18T06:43:49Z</time>
      </trkpt>
      <trkpt lat="47.35027" lon="-1.58802">
        <ele>45.5</ele>
        <time>2014-05-18T06:43:53Z</time>
      </trkpt>
      <trkpt lat="47.35034" lon="-1.58832">
        <ele>45.5</ele>
        <time>2014-05-18T06:43:58Z</time>
      </trkpt>
      <trkpt lat="47.35043" lon="-1.58865">
        <ele>44.5</ele>
        <time>2014-05-18T06:44:02Z</time>
      </trkpt>
      <trkpt lat="47.35053" lon="-1.58903">
        <ele>42.5</ele>
        <time>2014-05-18T06:44:06Z</time>
      </trkpt>
      <trkpt lat="47.35062" lon="-1.58945">
        <ele>40.5</ele>
        <time>2014-05-18T06:44:10Z</time>
      </trkpt>
      <trkpt lat="47.35067" lon="-1.58982">
        <ele>39.5</ele>
        <time>2014-05-18T06:44:14Z</time>
      </trkpt>
      <trkpt lat="47.35073" lon="-1.59021">
        <ele>38.5</ele>
        <time>2014-05-18T06:44:18Z</time>
      </trkpt>
      <trkpt lat="47.35079" lon="-1.5905">
        <ele>37.5</ele>
        <time>2014-05-18T06:44:21Z</time>
      </trkpt>
      <trkpt lat="47.35084" lon="-1.59088">
        <ele>37.5</ele>
        <time>2014-05-18T06:44:25Z</time>
      </trkpt>
      <trkpt lat="47.35083" lon="-1.59125">
        <ele>32.5</ele>
        <time>2014-05-18T06:44:29Z</time>
      </trkpt>
      <trkpt lat="47.35076" lon="-1.59167">
        <ele>31.5</ele>
        <time>2014-05-18T06:44:33Z</time>
      </trkpt>
      <trkpt lat="47.35074" lon="-1.59186">
        <ele>33.5</ele>
        <time>2014-05-18T06:44:37Z</time>
      </trkpt>
      <trkpt lat="47.35066" lon="-1.59201">
        <ele>36.5</ele>
        <time>2014-05-18T06:44:46Z</time>
      </trkpt>
      <trkpt lat="47.35058" lon="-1.59186">
        <ele>33.5</ele>
        <time>2014-05-18T06:44:50Z</time>
      </trkpt>
      <trkpt lat="47.35056" lon="-1.59169">
        <ele>32.5</ele>
        <time>2014-05-18T06:44:54Z</time>
      </trkpt>
      <trkpt lat="47.35061" lon="-1.59156">
        <ele>37.5</ele>
        <time>2014-05-18T06:45:06Z</time>
      </trkpt>
      <trkpt lat="47.35057" lon="-1.59143">
        <ele>35.5</ele>
        <time>2014-05-18T06:45:13Z</time>
      </trkpt>
      <trkpt lat="47.35055" lon="-1.59126">
        <ele>34.5</ele>
        <time>2014-05-18T06:45:21Z</time>
      </trkpt>
      <trkpt lat="47.3505" lon="-1.59113">
        <ele>34.5</ele>
        <time>2014-05-18T06:45:34Z</time>
      </trkpt>
      <trkpt lat="47.35039" lon="-1.59103">
        <ele>34.5</ele>
        <time>2014-05-18T06:45:53Z</time>
      </trkpt>
      <trkpt lat="47.3503" lon="-1.59104">
        <ele>32.5</ele>
        <time>2014-05-18T06:45:57Z</time>
      </trkpt>
      <trkpt lat="47.35014" lon="-1.59113">
        <ele>31.5</ele>
        <time>2014-05-18T06:46:01Z</time>
      </trkpt>
      <trkpt lat="47.35007" lon="-1.59123">
        <ele>32.5</ele>
        <time>2014-05-18T06:46:05Z</time>
      </trkpt>
      <trkpt lat="47.35" lon="-1.59136">
        <ele>32.5</ele>
        <time>2014-05-18T06:46:13Z</time>
      </trkpt>
      <trkpt lat="47.34989" lon="-1.59143">
        <ele>34.5</ele>
        <time>2014-05-18T06:46:22Z</time>
      </trkpt>
      <trkpt lat="47.34982" lon="-1.5913">
        <ele>32.5</ele>
        <time>2014-05-18T06:46:26Z</time>
      </trkpt>
      <trkpt lat="47.3499" lon="-1.59115">
        <ele>30.5</ele>
        <time>2014-05-18T06:46:30Z</time>
      </trkpt>
      <trkpt lat="47.35005" lon="-1.59107">
        <ele>28.5</ele>
        <time>2014-05-18T06:46:34Z</time>
      </trkpt>
      <trkpt lat="47.35023" lon="-1.59095">
        <ele>29.5</ele>
        <time>2014-05-18T06:46:42Z</time>
      </trkpt>
      <trkpt lat="47.35032" lon="-1.59092">
        <ele>30.5</ele>
        <time>2014-05-18T06:46:46Z</time>
      </trkpt>
      <trkpt lat="47.35043" lon="-1.59077">
        <ele>27.5</ele>
        <time>2014-05-18T06:46:53Z</time>
      </trkpt>
      <trkpt lat="47.35036" lon="-1.59066">
        <ele>29.5</ele>
        <time>2014-05-18T06:46:57Z</time>
      </trkpt>
      <trkpt lat="47.35028" lon="-1.59071">
        <ele>33.5</ele>
        <time>2014-05-18T06:47:05Z</time>
      </trkpt>
      <trkpt lat="47.35016" lon="-1.5908">
        <ele>40.5</ele>
        <time>2014-05-18T06:47:14Z</time>
      </trkpt>
      <trkpt lat="47.35002" lon="-1.59087">
        <ele>45.5</ele>
        <time>2014-05-18T06:47:26Z</time>
      </trkpt>
      <trkpt lat="47.34991" lon="-1.59091">
        <ele>45.5</ele>
        <time>2014-05-18T06:47:38Z</time>
      </trkpt>
      <trkpt lat="47.34981" lon="-1.59098">
        <ele>48.5</ele>
        <time>2014-05-18T06:47:57Z</time>
      </trkpt>
      <trkpt lat="47.34974" lon="-1.59114">
        <ele>50.5</ele>
        <time>2014-05-18T06:48:18Z</time>
      </trkpt>
      <trkpt lat="47.34976" lon="-1.59133">
        <ele>46.5</ele>
        <time>2014-05-18T06:48:26Z</time>
      </trkpt>
      <trkpt lat="47.34975" lon="-1.59146">
        <ele>43.5</ele>
        <time>2014-05-18T06:48:38Z</time>
      </trkpt>
      <trkpt lat="47.34988" lon="-1.59148">
        <ele>39.5</ele>
        <time>2014-05-18T06:48:53Z</time>
      </trkpt>
      <trkpt lat="47.35" lon="-1.59139">
        <ele>37.5</ele>
        <time>2014-05-18T06:49:01Z</time>
      </trkpt>
      <trkpt lat="47.35006" lon="-1.59152">
        <ele>33.5</ele>
        <time>2014-05-18T06:49:22Z</time>
      </trkpt>
      <trkpt lat="47.35022" lon="-1.59168">
        <ele>31.5</ele>
        <time>2014-05-18T06:49:29Z</time>
      </trkpt>
      <trkpt lat="47.35034" lon="-1.59185">
        <ele>32.5</ele>
        <time>2014-05-18T06:49:33Z</time>
      </trkpt>
      <trkpt lat="47.35051" lon="-1.59196">
        <ele>28.5</ele>
        <time>2014-05-18T06:49:37Z</time>
      </trkpt>
      <trkpt lat="47.35059" lon="-1.59209">
        <ele>29.5</ele>
        <time>2014-05-18T06:49:41Z</time>
      </trkpt>
      <trkpt lat="47.3506" lon="-1.59233">
        <ele>28.5</ele>
        <time>2014-05-18T06:49:45Z</time>
      </trkpt>
      <trkpt lat="47.35062" lon="-1.59262">
        <ele>27.5</ele>
        <time>2014-05-18T06:49:50Z</time>
      </trkpt>
      <trkpt lat="47.35063" lon="-1.59285">
        <ele>26.5</ele>
        <time>2014-05-18T06:49:54Z</time>
      </trkpt>
      <trkpt lat="47.35066" lon="-1.59318">
        <ele>25.5</ele>
        <time>2014-05-18T06:49:58Z</time>
      </trkpt>
      <trkpt lat="47.35074" lon="-1.59356">
        <ele>27.5</ele>
        <time>2014-05-18T06:50:02Z</time>
      </trkpt>
      <trkpt lat="47.35076" lon="-1.59382">
        <ele>26.5</ele>
        <time>2014-05-18T06:50:06Z</time>
      </trkpt>
      <trkpt lat="47.35074" lon="-1.59405">
        <ele>27.5</ele>
        <time>2014-05-18T06:50:10Z</time>
      </trkpt>
      <trkpt lat="47.35056" lon="-1.59403">
        <ele>29.5</ele>
        <time>2014-05-18T06:50:21Z</time>
      </trkpt>
      <trkpt lat="47.35045" lon="-1.5939">
        <ele>30.5</ele>
        <time>2014-05-18T06:50:25Z</time>
      </trkpt>
      <trkpt lat="47.35032" lon="-1.59374">
        <ele>31.5</ele>
        <time>2014-05-18T06:50:29Z</time>
      </trkpt>
      <trkpt lat="47.35019" lon="-1.59404">
        <ele>32.5</ele>
        <time>2014-05-18T06:50:33Z</time>
      </trkpt>
      <trkpt lat="47.35006" lon="-1.59429">
        <ele>33.5</ele>
        <time>2014-05-18T06:50:37Z</time>
      </trkpt>
      <trkpt lat="47.35012" lon="-1.5945">
        <ele>29.5</ele>
        <time>2014-05-18T06:50:46Z</time>
      </trkpt>
      <trkpt lat="47.35022" lon="-1.59465">
        <ele>33.5</ele>
        <time>2014-05-18T06:50:54Z</time>
      </trkpt>
      <trkpt lat="47.35032" lon="-1.59463">
        <ele>29.5</ele>
        <time>2014-05-18T06:50:58Z</time>
      </trkpt>
      <trkpt lat="47.3503" lon="-1.59445">
        <ele>28.5</ele>
        <time>2014-05-18T06:51:06Z</time>
      </trkpt>
      <trkpt lat="47.35049" lon="-1.5945">
        <ele>28.5</ele>
        <time>2014-05-18T06:51:21Z</time>
      </trkpt>
      <trkpt lat="47.35058" lon="-1.59458">
        <ele>29.5</ele>
        <time>2014-05-18T06:51:29Z</time>
      </trkpt>
      <trkpt lat="47.35049" lon="-1.59469">
        <ele>31.5</ele>
        <time>2014-05-18T06:51:34Z</time>
      </trkpt>
      <trkpt lat="47.35039" lon="-1.59479">
        <ele>34.5</ele>
        <time>2014-05-18T06:51:42Z</time>
      </trkpt>
      <trkpt lat="47.35034" lon="-1.59497">
        <ele>35.5</ele>
        <time>2014-05-18T06:51:50Z</time>
      </trkpt>
      <trkpt lat="47.35025" lon="-1.59489">
        <ele>35.5</ele>
        <time>2014-05-18T06:51:54Z</time>
      </trkpt>
      <trkpt lat="47.35007" lon="-1.59483">
        <ele>35.5</ele>
        <time>2014-05-18T06:52:01Z</time>
      </trkpt>
      <trkpt lat="47.34999" lon="-1.59478">
        <ele>34.5</ele>
        <time>2014-05-18T06:52:05Z</time>
      </trkpt>
      <trkpt lat="47.34992" lon="-1.59489">
        <ele>40.5</ele>
        <time>2014-05-18T06:52:13Z</time>
      </trkpt>
      <trkpt lat="47.34981" lon="-1.59482">
        <ele>41.5</ele>
        <time>2014-05-18T06:52:18Z</time>
      </trkpt>
      <trkpt lat="47.34967" lon="-1.59498">
        <ele>41.5</ele>
        <time>2014-05-18T06:52:26Z</time>
      </trkpt>
      <trkpt lat="47.34963" lon="-1.59517">
        <ele>34.5</ele>
        <time>2014-05-18T06:52:34Z</time>
      </trkpt>
      <trkpt lat="47.34963" lon="-1.59541">
        <ele>34.5</ele>
        <time>2014-05-18T06:52:42Z</time>
      </trkpt>
      <trkpt lat="47.34957" lon="-1.59553">
        <ele>33.5</ele>
        <time>2014-05-18T06:52:46Z</time>
      </trkpt>
      <trkpt lat="47.34968" lon="-1.59565">
        <ele>31.5</ele>
        <time>2014-05-18T06:52:54Z</time>
      </trkpt>
      <trkpt lat="47.34975" lon="-1.59578">
        <ele>30.5</ele>
        <time>2014-05-18T06:53:01Z</time>
      </trkpt>
      <trkpt lat="47.3497" lon="-1.5959">
        <ele>32.5</ele>
        <time>2014-05-18T06:53:05Z</time>
      </trkpt>
      <trkpt lat="47.34964" lon="-1.59604">
        <ele>33.5</ele>
        <time>2014-05-18T06:53:09Z</time>
      </trkpt>
      <trkpt lat="47.34955" lon="-1.59621">
        <ele>37.5</ele>
        <time>2014-05-18T06:53:17Z</time>
      </trkpt>
      <trkpt lat="47.34946" lon="-1.59631">
        <ele>39.5</ele>
        <time>2014-05-18T06:53:26Z</time>
      </trkpt>
      <trkpt lat="47.34939" lon="-1.5964">
        <ele>37.5</ele>
        <time>2014-05-18T06:53:38Z</time>
      </trkpt>
      <trkpt lat="47.34933" lon="-1.59657">
        <ele>30.5</ele>
        <time>2014-05-18T06:53:57Z</time>
      </trkpt>
      <trkpt lat="47.34918" lon="-1.59673">
        <ele>32.5</ele>
        <time>2014-05-18T06:54:05Z</time>
      </trkpt>
      <trkpt lat="47.34911" lon="-1.59682">
        <ele>36.5</ele>
        <time>2014-05-18T06:54:10Z</time>
      </trkpt>
      <trkpt lat="47.34904" lon="-1.597">
        <ele>42.5</ele>
        <time>2014-05-18T06:54:18Z</time>
      </trkpt>
      <trkpt lat="47.34899" lon="-1.59712">
        <ele>44.5</ele>
        <time>2014-05-18T06:54:22Z</time>
      </trkpt>
      <trkpt lat="47.34906" lon="-1.59726">
        <ele>32.5</ele>
        <time>2014-05-18T06:54:30Z</time>
      </trkpt>
      <trkpt lat="47.34913" lon="-1.59752">
        <ele>31.5</ele>
        <time>2014-05-18T06:54:37Z</time>
      </trkpt>
      <trkpt lat="47.34914" lon="-1.59774">
        <ele>32.5</ele>
        <time>2014-05-18T06:54:41Z</time>
      </trkpt>
      <trkpt lat="47.34917" lon="-1.5979">
        <ele>34.5</ele>
        <time>2014-05-18T06:54:45Z</time>
      </trkpt>
      <trkpt lat="47.34922" lon="-1.59805">
        <ele>34.5</ele>
        <time>2014-05-18T06:54:49Z</time>
      </trkpt>
      <trkpt lat="47.34928" lon="-1.5982">
        <ele>35.5</ele>
        <time>2014-05-18T06:54:54Z</time>
      </trkpt>
      <trkpt lat="47.34934" lon="-1.59834">
        <ele>36.5</ele>
        <time>2014-05-18T06:54:58Z</time>
      </trkpt>
      <trkpt lat="47.34937" lon="-1.59851">
        <ele>37.5</ele>
        <time>2014-05-18T06:55:02Z</time>
      </trkpt>
      <trkpt lat="47.34937" lon="-1.59868">
        <ele>38.5</ele>
        <time>2014-05-18T06:55:06Z</time>
      </trkpt>
      <trkpt lat="47.34923" lon="-1.59859">
        <ele>36.5</ele>
        <time>2014-05-18T06:55:14Z</time>
      </trkpt>
      <trkpt lat="47.34923" lon="-1.59842">
        <ele>35.5</ele>
        <time>2014-05-18T06:55:18Z</time>
      </trkpt>
      <trkpt lat="47.34913" lon="-1.59824">
        <ele>33.5</ele>
        <time>2014-05-18T06:55:25Z</time>
      </trkpt>
      <trkpt lat="47.34904" lon="-1.59816">
        <ele>31.5</ele>
        <time>2014-05-18T06:55:29Z</time>
      </trkpt>
      <trkpt lat="47.34906" lon="-1.59801">
        <ele>30.5</ele>
        <time>2014-05-18T06:55:33Z</time>
      </trkpt>
      <trkpt lat="47.34915" lon="-1.5979">
        <ele>28.5</ele>
        <time>2014-05-18T06:55:37Z</time>
      </trkpt>
      <trkpt lat="47.34906" lon="-1.59781">
        <ele>29.5</ele>
        <time>2014-05-18T06:55:41Z</time>
      </trkpt>
      <trkpt lat="47.34892" lon="-1.59786">
        <ele>30.5</ele>
        <time>2014-05-18T06:55:46Z</time>
      </trkpt>
      <trkpt lat="47.3488" lon="-1.59792">
        <ele>27.5</ele>
        <time>2014-05-18T06:55:50Z</time>
      </trkpt>
      <trkpt lat="47.34871" lon="-1.59794">
        <ele>25.5</ele>
        <time>2014-05-18T06:55:54Z</time>
      </trkpt>
      <trkpt lat="47.3486" lon="-1.59817">
        <ele>28.5</ele>
        <time>2014-05-18T06:56:02Z</time>
      </trkpt>
      <trkpt lat="47.34853" lon="-1.59831">
        <ele>27.5</ele>
        <time>2014-05-18T06:56:06Z</time>
      </trkpt>
      <trkpt lat="47.34845" lon="-1.59844">
        <ele>26.5</ele>
        <time>2014-05-18T06:56:10Z</time>
      </trkpt>
      <trkpt lat="47.34837" lon="-1.59855">
        <ele>24.5</ele>
        <time>2014-05-18T06:56:14Z</time>
      </trkpt>
      <trkpt lat="47.34827" lon="-1.59875">
        <ele>26.5</ele>
        <time>2014-05-18T06:56:21Z</time>
      </trkpt>
      <trkpt lat="47.34813" lon="-1.59889">
        <ele>28.5</ele>
        <time>2014-05-18T06:56:29Z</time>
      </trkpt>
      <trkpt lat="47.34807" lon="-1.59903">
        <ele>30.5</ele>
        <time>2014-05-18T06:56:37Z</time>
      </trkpt>
      <trkpt lat="47.34802" lon="-1.59915">
        <ele>29.5</ele>
        <time>2014-05-18T06:56:41Z</time>
      </trkpt>
      <trkpt lat="47.34793" lon="-1.59928">
        <ele>30.5</ele>
        <time>2014-05-18T06:56:50Z</time>
      </trkpt>
      <trkpt lat="47.34786" lon="-1.59938">
        <ele>32.5</ele>
        <time>2014-05-18T06:56:54Z</time>
      </trkpt>
      <trkpt lat="47.34773" lon="-1.59954">
        <ele>31.5</ele>
        <time>2014-05-18T06:57:02Z</time>
      </trkpt>
      <trkpt lat="47.34764" lon="-1.59968">
        <ele>32.5</ele>
        <time>2014-05-18T06:57:09Z</time>
      </trkpt>
      <trkpt lat="47.34758" lon="-1.59979">
        <ele>32.5</ele>
        <time>2014-05-18T06:57:13Z</time>
      </trkpt>
      <trkpt lat="47.34753" lon="-1.59998">
        <ele>33.5</ele>
        <time>2014-05-18T06:57:21Z</time>
      </trkpt>
      <trkpt lat="47.34751" lon="-1.60013">
        <ele>34.5</ele>
        <time>2014-05-18T06:57:25Z</time>
      </trkpt>
      <trkpt lat="47.34744" lon="-1.60023">
        <ele>35.5</ele>
        <time>2014-05-18T06:57:42Z</time>
      </trkpt>
      <trkpt lat="47.3474" lon="-1.60037">
        <ele>34.5</ele>
        <time>2014-05-18T06:57:50Z</time>
      </trkpt>
      <trkpt lat="47.34731" lon="-1.60044">
        <ele>37.5</ele>
        <time>2014-05-18T06:58:09Z</time>
      </trkpt>
      <trkpt lat="47.34731" lon="-1.60027">
        <ele>37.5</ele>
        <time>2014-05-18T06:58:26Z</time>
      </trkpt>
      <trkpt lat="47.34732" lon="-1.60013">
        <ele>38.5</ele>
        <time>2014-05-18T06:58:41Z</time>
      </trkpt>
      <trkpt lat="47.34729" lon="-1.60032">
        <ele>53.5</ele>
        <time>2014-05-18T06:59:37Z</time>
      </trkpt>
      <trkpt lat="47.34725" lon="-1.6005">
        <ele>51.5</ele>
        <time>2014-05-18T06:59:49Z</time>
      </trkpt>
      <trkpt lat="47.34726" lon="-1.60074">
        <ele>47.5</ele>
        <time>2014-05-18T07:00:06Z</time>
      </trkpt>
      <trkpt lat="47.34722" lon="-1.60088">
        <ele>45.5</ele>
        <time>2014-05-18T07:00:10Z</time>
      </trkpt>
      <trkpt lat="47.34714" lon="-1.60108">
        <ele>44.5</ele>
        <time>2014-05-18T07:00:18Z</time>
      </trkpt>
      <trkpt lat="47.34711" lon="-1.60135">
        <ele>48.5</ele>
        <time>2014-05-18T07:00:25Z</time>
      </trkpt>
      <trkpt lat="47.34709" lon="-1.60157">
        <ele>54.5</ele>
        <time>2014-05-18T07:00:29Z</time>
      </trkpt>
      <trkpt lat="47.34704" lon="-1.60169">
        <ele>58.5</ele>
        <time>2014-05-18T07:00:33Z</time>
      </trkpt>
      <trkpt lat="47.34699" lon="-1.60183">
        <ele>56.5</ele>
        <time>2014-05-18T07:00:37Z</time>
      </trkpt>
      <trkpt lat="47.34694" lon="-1.60195">
        <ele>63.5</ele>
        <time>2014-05-18T07:00:41Z</time>
      </trkpt>
      <trkpt lat="47.34682" lon="-1.60205">
        <ele>53.5</ele>
        <time>2014-05-18T07:00:50Z</time>
      </trkpt>
      <trkpt lat="47.34672" lon="-1.60214">
        <ele>48.5</ele>
        <time>2014-05-18T07:00:54Z</time>
      </trkpt>
      <trkpt lat="47.34659" lon="-1.60231">
        <ele>47.5</ele>
        <time>2014-05-18T07:01:02Z</time>
      </trkpt>
      <trkpt lat="47.34659" lon="-1.60247">
        <ele>55.5</ele>
        <time>2014-05-18T07:01:06Z</time>
      </trkpt>
      <trkpt lat="47.34648" lon="-1.60264">
        <ele>50.5</ele>
        <time>2014-05-18T07:01:17Z</time>
      </trkpt>
      <trkpt lat="47.34636" lon="-1.6027">
        <ele>47.5</ele>
        <time>2014-05-18T07:01:25Z</time>
      </trkpt>
      <trkpt lat="47.34623" lon="-1.60272">
        <ele>51.5</ele>
        <time>2014-05-18T07:01:34Z</time>
      </trkpt>
      <trkpt lat="47.34618" lon="-1.60259">
        <ele>50.5</ele>
        <time>2014-05-18T07:01:46Z</time>
      </trkpt>
      <trkpt lat="47.34618" lon="-1.60246">
        <ele>48.5</ele>
        <time>2014-05-18T07:02:01Z</time>
      </trkpt>
      <trkpt lat="47.34634" lon="-1.60231">
        <ele>54.5</ele>
        <time>2014-05-18T07:02:22Z</time>
      </trkpt>
      <trkpt lat="47.34644" lon="-1.6021">
        <ele>55.5</ele>
        <time>2014-05-18T07:02:30Z</time>
      </trkpt>
      <trkpt lat="47.34655" lon="-1.60194">
        <ele>55.5</ele>
        <time>2014-05-18T07:02:38Z</time>
      </trkpt>
      <trkpt lat="47.34668" lon="-1.60171">
        <ele>55.5</ele>
        <time>2014-05-18T07:02:46Z</time>
      </trkpt>
      <trkpt lat="47.34673" lon="-1.60156">
        <ele>54.5</ele>
        <time>2014-05-18T07:02:50Z</time>
      </trkpt>
      <trkpt lat="47.34684" lon="-1.60141">
        <ele>44.5</ele>
        <time>2014-05-18T07:02:53Z</time>
      </trkpt>
      <trkpt lat="47.3469" lon="-1.60126">
        <ele>45.5</ele>
        <time>2014-05-18T07:02:57Z</time>
      </trkpt>
      <trkpt lat="47.34691" lon="-1.60107">
        <ele>49.5</ele>
        <time>2014-05-18T07:03:05Z</time>
      </trkpt>
      <trkpt lat="47.34675" lon="-1.60116">
        <ele>39.5</ele>
        <time>2014-05-18T07:03:26Z</time>
      </trkpt>
      <trkpt lat="47.34666" lon="-1.60123">
        <ele>46.5</ele>
        <time>2014-05-18T07:03:33Z</time>
      </trkpt>
      <trkpt lat="47.34654" lon="-1.60122">
        <ele>54.5</ele>
        <time>2014-05-18T07:03:41Z</time>
      </trkpt>
      <trkpt lat="47.34642" lon="-1.6012">
        <ele>54.5</ele>
        <time>2014-05-18T07:03:49Z</time>
      </trkpt>
      <trkpt lat="47.34633" lon="-1.6012">
        <ele>51.5</ele>
        <time>2014-05-18T07:03:53Z</time>
      </trkpt>
      <trkpt lat="47.34622" lon="-1.60119">
        <ele>49.5</ele>
        <time>2014-05-18T07:04:02Z</time>
      </trkpt>
      <trkpt lat="47.3463" lon="-1.60131">
        <ele>44.5</ele>
        <time>2014-05-18T07:04:10Z</time>
      </trkpt>
      <trkpt lat="47.34624" lon="-1.60144">
        <ele>52.5</ele>
        <time>2014-05-18T07:04:22Z</time>
      </trkpt>
      <trkpt lat="47.34615" lon="-1.60142">
        <ele>55.5</ele>
        <time>2014-05-18T07:04:41Z</time>
      </trkpt>
      <trkpt lat="47.34608" lon="-1.60127">
        <ele>58.5</ele>
        <time>2014-05-18T07:04:49Z</time>
      </trkpt>
      <trkpt lat="47.34594" lon="-1.60127">
        <ele>59.5</ele>
        <time>2014-05-18T07:05:01Z</time>
      </trkpt>
      <trkpt lat="47.34593" lon="-1.60149">
        <ele>54.5</ele>
        <time>2014-05-18T07:05:22Z</time>
      </trkpt>
      <trkpt lat="47.34593" lon="-1.6017">
        <ele>46.5</ele>
        <time>2014-05-18T07:05:29Z</time>
      </trkpt>
      <trkpt lat="47.34602" lon="-1.60177">
        <ele>48.5</ele>
        <time>2014-05-18T07:05:33Z</time>
      </trkpt>
      <trkpt lat="47.34609" lon="-1.60167">
        <ele>48.5</ele>
        <time>2014-05-18T07:05:37Z</time>
      </trkpt>
      <trkpt lat="47.3461" lon="-1.60147">
        <ele>50.5</ele>
        <time>2014-05-18T07:05:45Z</time>
      </trkpt>
      <trkpt lat="47.34621" lon="-1.60149">
        <ele>41.5</ele>
        <time>2014-05-18T07:05:54Z</time>
      </trkpt>
      <trkpt lat="47.34631" lon="-1.60141">
        <ele>41.5</ele>
        <time>2014-05-18T07:05:58Z</time>
      </trkpt>
      <trkpt lat="47.34627" lon="-1.60155">
        <ele>46.5</ele>
        <time>2014-05-18T07:06:06Z</time>
      </trkpt>
      <trkpt lat="47.34617" lon="-1.60159">
        <ele>48.5</ele>
        <time>2014-05-18T07:06:10Z</time>
      </trkpt>
      <trkpt lat="47.34616" lon="-1.60176">
        <ele>51.5</ele>
        <time>2014-05-18T07:06:17Z</time>
      </trkpt>
      <trkpt lat="47.34607" lon="-1.60177">
        <ele>51.5</ele>
        <time>2014-05-18T07:06:21Z</time>
      </trkpt>
      <trkpt lat="47.34598" lon="-1.60195">
        <ele>53.5</ele>
        <time>2014-05-18T07:06:29Z</time>
      </trkpt>
      <trkpt lat="47.34602" lon="-1.60226">
        <ele>53.5</ele>
        <time>2014-05-18T07:06:38Z</time>
      </trkpt>
      <trkpt lat="47.34609" lon="-1.60278">
        <ele>54.5</ele>
        <time>2014-05-18T07:06:42Z</time>
      </trkpt>
      <trkpt lat="47.34618" lon="-1.60292">
        <ele>42.5</ele>
        <time>2014-05-18T07:06:50Z</time>
      </trkpt>
      <trkpt lat="47.34628" lon="-1.60282">
        <ele>36.5</ele>
        <time>2014-05-18T07:06:58Z</time>
      </trkpt>
      <trkpt lat="47.34627" lon="-1.60297">
        <ele>33.5</ele>
        <time>2014-05-18T07:07:05Z</time>
      </trkpt>
      <trkpt lat="47.34619" lon="-1.60308">
        <ele>33.5</ele>
        <time>2014-05-18T07:07:13Z</time>
      </trkpt>
      <trkpt lat="47.34622" lon="-1.60327">
        <ele>33.5</ele>
        <time>2014-05-18T07:07:18Z</time>
      </trkpt>
      <trkpt lat="47.34621" lon="-1.60349">
        <ele>36.5</ele>
        <time>2014-05-18T07:07:26Z</time>
      </trkpt>
      <trkpt lat="47.34618" lon="-1.60375">
        <ele>36.5</ele>
        <time>2014-05-18T07:07:30Z</time>
      </trkpt>
      <trkpt lat="47.34615" lon="-1.60399">
        <ele>37.5</ele>
        <time>2014-05-18T07:07:34Z</time>
      </trkpt>
      <trkpt lat="47.34615" lon="-1.60419">
        <ele>32.5</ele>
        <time>2014-05-18T07:07:38Z</time>
      </trkpt>
      <trkpt lat="47.3462" lon="-1.60432">
        <ele>32.5</ele>
        <time>2014-05-18T07:07:42Z</time>
      </trkpt>
      <trkpt lat="47.34629" lon="-1.60446">
        <ele>37.5</ele>
        <time>2014-05-18T07:07:46Z</time>
      </trkpt>
      <trkpt lat="47.34635" lon="-1.60458">
        <ele>30.5</ele>
        <time>2014-05-18T07:07:49Z</time>
      </trkpt>
      <trkpt lat="47.3463" lon="-1.60473">
        <ele>34.5</ele>
        <time>2014-05-18T07:07:57Z</time>
      </trkpt>
      <trkpt lat="47.34636" lon="-1.60488">
        <ele>34.5</ele>
        <time>2014-05-18T07:08:01Z</time>
      </trkpt>
      <trkpt lat="47.34641" lon="-1.605">
        <ele>33.5</ele>
        <time>2014-05-18T07:08:06Z</time>
      </trkpt>
      <trkpt lat="47.34646" lon="-1.60514">
        <ele>33.5</ele>
        <time>2014-05-18T07:08:10Z</time>
      </trkpt>
      <trkpt lat="47.34652" lon="-1.60526">
        <ele>34.5</ele>
        <time>2014-05-18T07:08:14Z</time>
      </trkpt>
      <trkpt lat="47.34661" lon="-1.60536">
        <ele>36.5</ele>
        <time>2014-05-18T07:08:18Z</time>
      </trkpt>
      <trkpt lat="47.34669" lon="-1.60545">
        <ele>38.5</ele>
        <time>2014-05-18T07:08:22Z</time>
      </trkpt>
      <trkpt lat="47.34682" lon="-1.60554">
        <ele>42.5</ele>
        <time>2014-05-18T07:08:29Z</time>
      </trkpt>
      <trkpt lat="47.34693" lon="-1.60564">
        <ele>46.5</ele>
        <time>2014-05-18T07:08:33Z</time>
      </trkpt>
      <trkpt lat="47.34711" lon="-1.60566">
        <ele>43.5</ele>
        <time>2014-05-18T07:08:45Z</time>
      </trkpt>
      <trkpt lat="47.34726" lon="-1.60576">
        <ele>41.5</ele>
        <time>2014-05-18T07:08:58Z</time>
      </trkpt>
      <trkpt lat="47.34741" lon="-1.60595">
        <ele>38.5</ele>
        <time>2014-05-18T07:09:02Z</time>
      </trkpt>
      <trkpt lat="47.34754" lon="-1.6061">
        <ele>45.5</ele>
        <time>2014-05-18T07:09:06Z</time>
      </trkpt>
      <trkpt lat="47.3477" lon="-1.60623">
        <ele>46.5</ele>
        <time>2014-05-18T07:09:14Z</time>
      </trkpt>
      <trkpt lat="47.34779" lon="-1.60634">
        <ele>47.5</ele>
        <time>2014-05-18T07:09:18Z</time>
      </trkpt>
      <trkpt lat="47.34788" lon="-1.60648">
        <ele>48.5</ele>
        <time>2014-05-18T07:09:22Z</time>
      </trkpt>
      <trkpt lat="47.34795" lon="-1.60659">
        <ele>49.5</ele>
        <time>2014-05-18T07:09:29Z</time>
      </trkpt>
      <trkpt lat="47.34799" lon="-1.60674">
        <ele>47.5</ele>
        <time>2014-05-18T07:09:33Z</time>
      </trkpt>
      <trkpt lat="47.34803" lon="-1.60687">
        <ele>47.5</ele>
        <time>2014-05-18T07:09:37Z</time>
      </trkpt>
      <trkpt lat="47.34803" lon="-1.6071">
        <ele>45.5</ele>
        <time>2014-05-18T07:09:46Z</time>
      </trkpt>
      <trkpt lat="47.34801" lon="-1.60725">
        <ele>43.5</ele>
        <time>2014-05-18T07:09:50Z</time>
      </trkpt>
      <trkpt lat="47.34798" lon="-1.60753">
        <ele>43.5</ele>
        <time>2014-05-18T07:09:58Z</time>
      </trkpt>
      <trkpt lat="47.34798" lon="-1.60767">
        <ele>47.5</ele>
        <time>2014-05-18T07:10:02Z</time>
      </trkpt>
      <trkpt lat="47.34796" lon="-1.60783">
        <ele>45.5</ele>
        <time>2014-05-18T07:10:06Z</time>
      </trkpt>
      <trkpt lat="47.34794" lon="-1.60799">
        <ele>47.5</ele>
        <time>2014-05-18T07:10:10Z</time>
      </trkpt>
      <trkpt lat="47.34792" lon="-1.60812">
        <ele>45.5</ele>
        <time>2014-05-18T07:10:13Z</time>
      </trkpt>
      <trkpt lat="47.34791" lon="-1.6083">
        <ele>47.5</ele>
        <time>2014-05-18T07:10:17Z</time>
      </trkpt>
      <trkpt lat="47.34793" lon="-1.60846">
        <ele>52.5</ele>
        <time>2014-05-18T07:10:21Z</time>
      </trkpt>
      <trkpt lat="47.34796" lon="-1.60864">
        <ele>52.5</ele>
        <time>2014-05-18T07:10:25Z</time>
      </trkpt>
      <trkpt lat="47.34802" lon="-1.60883">
        <ele>54.5</ele>
        <time>2014-05-18T07:10:29Z</time>
      </trkpt>
      <trkpt lat="47.34808" lon="-1.60901">
        <ele>53.5</ele>
        <time>2014-05-18T07:10:33Z</time>
      </trkpt>
      <trkpt lat="47.34811" lon="-1.60917">
        <ele>52.5</ele>
        <time>2014-05-18T07:10:38Z</time>
      </trkpt>
      <trkpt lat="47.34816" lon="-1.60934">
        <ele>52.5</ele>
        <time>2014-05-18T07:10:42Z</time>
      </trkpt>
      <trkpt lat="47.34824" lon="-1.60949">
        <ele>52.5</ele>
        <time>2014-05-18T07:10:46Z</time>
      </trkpt>
      <trkpt lat="47.34833" lon="-1.60962">
        <ele>54.5</ele>
        <time>2014-05-18T07:10:50Z</time>
      </trkpt>
      <trkpt lat="47.34843" lon="-1.60974">
        <ele>56.5</ele>
        <time>2014-05-18T07:10:54Z</time>
      </trkpt>
      <trkpt lat="47.34852" lon="-1.60982">
        <ele>54.5</ele>
        <time>2014-05-18T07:10:58Z</time>
      </trkpt>
      <trkpt lat="47.34863" lon="-1.60991">
        <ele>57.5</ele>
        <time>2014-05-18T07:11:02Z</time>
      </trkpt>
      <trkpt lat="47.34873" lon="-1.61">
        <ele>58.5</ele>
        <time>2014-05-18T07:11:06Z</time>
      </trkpt>
      <trkpt lat="47.34885" lon="-1.61011">
        <ele>58.5</ele>
        <time>2014-05-18T07:11:10Z</time>
      </trkpt>
      <trkpt lat="47.34894" lon="-1.61021">
        <ele>59.5</ele>
        <time>2014-05-18T07:11:14Z</time>
      </trkpt>
      <trkpt lat="47.34904" lon="-1.61032">
        <ele>59.5</ele>
        <time>2014-05-18T07:11:17Z</time>
      </trkpt>
      <trkpt lat="47.34926" lon="-1.61054">
        <ele>55.5</ele>
        <time>2014-05-18T07:11:21Z</time>
      </trkpt>
      <trkpt lat="47.34939" lon="-1.61067">
        <ele>54.5</ele>
        <time>2014-05-18T07:11:25Z</time>
      </trkpt>
      <trkpt lat="47.34942" lon="-1.61086">
        <ele>53.5</ele>
        <time>2014-05-18T07:11:29Z</time>
      </trkpt>
      <trkpt lat="47.34936" lon="-1.61108">
        <ele>51.5</ele>
        <time>2014-05-18T07:11:33Z</time>
      </trkpt>
      <trkpt lat="47.34928" lon="-1.61131">
        <ele>50.5</ele>
        <time>2014-05-18T07:11:37Z</time>
      </trkpt>
      <trkpt lat="47.34923" lon="-1.61143">
        <ele>51.5</ele>
        <time>2014-05-18T07:11:42Z</time>
      </trkpt>
      <trkpt lat="47.34908" lon="-1.61184">
        <ele>52.5</ele>
        <time>2014-05-18T07:11:46Z</time>
      </trkpt>
      <trkpt lat="47.34902" lon="-1.61211">
        <ele>51.5</ele>
        <time>2014-05-18T07:11:50Z</time>
      </trkpt>
      <trkpt lat="47.34892" lon="-1.61234">
        <ele>53.5</ele>
        <time>2014-05-18T07:11:54Z</time>
      </trkpt>
      <trkpt lat="47.34881" lon="-1.61263">
        <ele>53.5</ele>
        <time>2014-05-18T07:11:58Z</time>
      </trkpt>
      <trkpt lat="47.34872" lon="-1.6129">
        <ele>53.5</ele>
        <time>2014-05-18T07:12:02Z</time>
      </trkpt>
      <trkpt lat="47.34867" lon="-1.61308">
        <ele>51.5</ele>
        <time>2014-05-18T07:12:05Z</time>
      </trkpt>
      <trkpt lat="47.34853" lon="-1.61343">
        <ele>52.5</ele>
        <time>2014-05-18T07:12:09Z</time>
      </trkpt>
      <trkpt lat="47.34844" lon="-1.61373">
        <ele>51.5</ele>
        <time>2014-05-18T07:12:13Z</time>
      </trkpt>
      <trkpt lat="47.34839" lon="-1.61392">
        <ele>50.5</ele>
        <time>2014-05-18T07:12:17Z</time>
      </trkpt>
      <trkpt lat="47.34833" lon="-1.61425">
        <ele>52.5</ele>
        <time>2014-05-18T07:12:21Z</time>
      </trkpt>
      <trkpt lat="47.34835" lon="-1.61448">
        <ele>52.5</ele>
        <time>2014-05-18T07:12:25Z</time>
      </trkpt>
      <trkpt lat="47.34838" lon="-1.61477">
        <ele>53.5</ele>
        <time>2014-05-18T07:12:29Z</time>
      </trkpt>
      <trkpt lat="47.34841" lon="-1.61499">
        <ele>54.5</ele>
        <time>2014-05-18T07:12:34Z</time>
      </trkpt>
      <trkpt lat="47.34841" lon="-1.61521">
        <ele>54.5</ele>
        <time>2014-05-18T07:12:38Z</time>
      </trkpt>
      <trkpt lat="47.34843" lon="-1.61547">
        <ele>55.5</ele>
        <time>2014-05-18T07:12:42Z</time>
      </trkpt>
      <trkpt lat="47.34847" lon="-1.61577">
        <ele>55.5</ele>
        <time>2014-05-18T07:12:46Z</time>
      </trkpt>
      <trkpt lat="47.34848" lon="-1.61603">
        <ele>54.5</ele>
        <time>2014-05-18T07:12:50Z</time>
      </trkpt>
      <trkpt lat="47.3485" lon="-1.61625">
        <ele>54.5</ele>
        <time>2014-05-18T07:12:54Z</time>
      </trkpt>
      <trkpt lat="47.34854" lon="-1.61649">
        <ele>52.5</ele>
        <time>2014-05-18T07:12:57Z</time>
      </trkpt>
      <trkpt lat="47.34856" lon="-1.61678">
        <ele>53.5</ele>
        <time>2014-05-18T07:13:01Z</time>
      </trkpt>
      <trkpt lat="47.34857" lon="-1.61701">
        <ele>55.5</ele>
        <time>2014-05-18T07:13:05Z</time>
      </trkpt>
      <trkpt lat="47.34857" lon="-1.61723">
        <ele>55.5</ele>
        <time>2014-05-18T07:13:09Z</time>
      </trkpt>
      <trkpt lat="47.34859" lon="-1.61751">
        <ele>56.5</ele>
        <time>2014-05-18T07:13:13Z</time>
      </trkpt>
      <trkpt lat="47.3486" lon="-1.61777">
        <ele>56.5</ele>
        <time>2014-05-18T07:13:17Z</time>
      </trkpt>
      <trkpt lat="47.34862" lon="-1.61799">
        <ele>55.5</ele>
        <time>2014-05-18T07:13:21Z</time>
      </trkpt>
      <trkpt lat="47.34863" lon="-1.61822">
        <ele>56.5</ele>
        <time>2014-05-18T07:13:25Z</time>
      </trkpt>
      <trkpt lat="47.34864" lon="-1.61843">
        <ele>56.5</ele>
        <time>2014-05-18T07:13:30Z</time>
      </trkpt>
      <trkpt lat="47.34865" lon="-1.61864">
        <ele>56.5</ele>
        <time>2014-05-18T07:13:34Z</time>
      </trkpt>
      <trkpt lat="47.34866" lon="-1.61885">
        <ele>57.5</ele>
        <time>2014-05-18T07:13:38Z</time>
      </trkpt>
      <trkpt lat="47.34869" lon="-1.61905">
        <ele>58.5</ele>
        <time>2014-05-18T07:13:42Z</time>
      </trkpt>
      <trkpt lat="47.3487" lon="-1.61927">
        <ele>59.5</ele>
        <time>2014-05-18T07:13:46Z</time>
      </trkpt>
      <trkpt lat="47.34871" lon="-1.61949">
        <ele>59.5</ele>
        <time>2014-05-18T07:13:50Z</time>
      </trkpt>
      <trkpt lat="47.34873" lon="-1.61969">
        <ele>60.5</ele>
        <time>2014-05-18T07:13:53Z</time>
      </trkpt>
      <trkpt lat="47.34876" lon="-1.61991">
        <ele>61.5</ele>
        <time>2014-05-18T07:13:57Z</time>
      </trkpt>
      <trkpt lat="47.34876" lon="-1.62012">
        <ele>61.5</ele>
        <time>2014-05-18T07:14:01Z</time>
      </trkpt>
      <trkpt lat="47.34878" lon="-1.62028">
        <ele>63.5</ele>
        <time>2014-05-18T07:14:05Z</time>
      </trkpt>
      <trkpt lat="47.34881" lon="-1.62044">
        <ele>60.5</ele>
        <time>2014-05-18T07:14:09Z</time>
      </trkpt>
      <trkpt lat="47.34893" lon="-1.62053">
        <ele>60.5</ele>
        <time>2014-05-18T07:14:14Z</time>
      </trkpt>
      <trkpt lat="47.34905" lon="-1.62064">
        <ele>61.5</ele>
        <time>2014-05-18T07:14:18Z</time>
      </trkpt>
      <trkpt lat="47.34917" lon="-1.62077">
        <ele>58.5</ele>
        <time>2014-05-18T07:14:22Z</time>
      </trkpt>
      <trkpt lat="47.34929" lon="-1.62088">
        <ele>60.5</ele>
        <time>2014-05-18T07:14:26Z</time>
      </trkpt>
      <trkpt lat="47.34944" lon="-1.621">
        <ele>59.5</ele>
        <time>2014-05-18T07:14:30Z</time>
      </trkpt>
      <trkpt lat="47.3496" lon="-1.62109">
        <ele>61.5</ele>
        <time>2014-05-18T07:14:34Z</time>
      </trkpt>
      <trkpt lat="47.34977" lon="-1.62115">
        <ele>61.5</ele>
        <time>2014-05-18T07:14:38Z</time>
      </trkpt>
      <trkpt lat="47.34994" lon="-1.6212">
        <ele>60.5</ele>
        <time>2014-05-18T07:14:41Z</time>
      </trkpt>
      <trkpt lat="47.35027" lon="-1.62134">
        <ele>61.5</ele>
        <time>2014-05-18T07:14:49Z</time>
      </trkpt>
      <trkpt lat="47.3504" lon="-1.62143">
        <ele>61.5</ele>
        <time>2014-05-18T07:14:53Z</time>
      </trkpt>
      <trkpt lat="47.35053" lon="-1.62158">
        <ele>61.5</ele>
        <time>2014-05-18T07:14:57Z</time>
      </trkpt>
      <trkpt lat="47.3507" lon="-1.62168">
        <ele>62.5</ele>
        <time>2014-05-18T07:15:01Z</time>
      </trkpt>
      <trkpt lat="47.35088" lon="-1.62158">
        <ele>61.5</ele>
        <time>2014-05-18T07:15:06Z</time>
      </trkpt>
      <trkpt lat="47.35108" lon="-1.62147">
        <ele>60.5</ele>
        <time>2014-05-18T07:15:10Z</time>
      </trkpt>
      <trkpt lat="47.35131" lon="-1.62138">
        <ele>60.5</ele>
        <time>2014-05-18T07:15:14Z</time>
      </trkpt>
      <trkpt lat="47.35148" lon="-1.62133">
        <ele>61.5</ele>
        <time>2014-05-18T07:15:18Z</time>
      </trkpt>
      <trkpt lat="47.35158" lon="-1.62152">
        <ele>57.5</ele>
        <time>2014-05-18T07:15:22Z</time>
      </trkpt>
      <trkpt lat="47.35164" lon="-1.6218">
        <ele>56.5</ele>
        <time>2014-05-18T07:15:26Z</time>
      </trkpt>
      <trkpt lat="47.35168" lon="-1.62202">
        <ele>57.5</ele>
        <time>2014-05-18T07:15:29Z</time>
      </trkpt>
      <trkpt lat="47.35174" lon="-1.62237">
        <ele>57.5</ele>
        <time>2014-05-18T07:15:33Z</time>
      </trkpt>
      <trkpt lat="47.35182" lon="-1.62261">
        <ele>59.5</ele>
        <time>2014-05-18T07:15:37Z</time>
      </trkpt>
      <trkpt lat="47.35184" lon="-1.62292">
        <ele>60.5</ele>
        <time>2014-05-18T07:15:41Z</time>
      </trkpt>
      <trkpt lat="47.35179" lon="-1.62316">
        <ele>63.5</ele>
        <time>2014-05-18T07:15:45Z</time>
      </trkpt>
      <trkpt lat="47.35176" lon="-1.62369">
        <ele>67.5</ele>
        <time>2014-05-18T07:15:54Z</time>
      </trkpt>
      <trkpt lat="47.35171" lon="-1.62392">
        <ele>69.5</ele>
        <time>2014-05-18T07:15:58Z</time>
      </trkpt>
      <trkpt lat="47.35165" lon="-1.62421">
        <ele>69.5</ele>
        <time>2014-05-18T07:16:02Z</time>
      </trkpt>
      <trkpt lat="47.35154" lon="-1.62439">
        <ele>68.5</ele>
        <time>2014-05-18T07:16:06Z</time>
      </trkpt>
      <trkpt lat="47.35151" lon="-1.62464">
        <ele>67.5</ele>
        <time>2014-05-18T07:16:09Z</time>
      </trkpt>
      <trkpt lat="47.35148" lon="-1.62499">
        <ele>68.5</ele>
        <time>2014-05-18T07:16:13Z</time>
      </trkpt>
      <trkpt lat="47.35143" lon="-1.62518">
        <ele>66.5</ele>
        <time>2014-05-18T07:16:17Z</time>
      </trkpt>
      <trkpt lat="47.35158" lon="-1.62514">
        <ele>67.5</ele>
        <time>2014-05-18T07:16:25Z</time>
      </trkpt>
      <trkpt lat="47.35166" lon="-1.62532">
        <ele>70.5</ele>
        <time>2014-05-18T07:16:33Z</time>
      </trkpt>
      <trkpt lat="47.3516" lon="-1.62549">
        <ele>73.5</ele>
        <time>2014-05-18T07:16:46Z</time>
      </trkpt>
      <trkpt lat="47.35169" lon="-1.62553">
        <ele>65.5</ele>
        <time>2014-05-18T07:16:58Z</time>
      </trkpt>
      <trkpt lat="47.35183" lon="-1.62547">
        <ele>58.5</ele>
        <time>2014-05-18T07:17:13Z</time>
      </trkpt>
      <trkpt lat="47.352" lon="-1.62543">
        <ele>60.5</ele>
        <time>2014-05-18T07:17:21Z</time>
      </trkpt>
      <trkpt lat="47.35212" lon="-1.6255">
        <ele>56.5</ele>
        <time>2014-05-18T07:17:30Z</time>
      </trkpt>
      <trkpt lat="47.35208" lon="-1.62564">
        <ele>59.5</ele>
        <time>2014-05-18T07:17:38Z</time>
      </trkpt>
      <trkpt lat="47.35201" lon="-1.6259">
        <ele>72.5</ele>
        <time>2014-05-18T07:17:49Z</time>
      </trkpt>
      <trkpt lat="47.35194" lon="-1.62615">
        <ele>69.5</ele>
        <time>2014-05-18T07:17:57Z</time>
      </trkpt>
      <trkpt lat="47.35187" lon="-1.62623">
        <ele>71.5</ele>
        <time>2014-05-18T07:18:01Z</time>
      </trkpt>
      <trkpt lat="47.35192" lon="-1.62643">
        <ele>64.5</ele>
        <time>2014-05-18T07:18:09Z</time>
      </trkpt>
      <trkpt lat="47.3521" lon="-1.62646">
        <ele>71.5</ele>
        <time>2014-05-18T07:18:26Z</time>
      </trkpt>
      <trkpt lat="47.35219" lon="-1.62643">
        <ele>58.5</ele>
        <time>2014-05-18T07:18:30Z</time>
      </trkpt>
      <trkpt lat="47.35227" lon="-1.6265">
        <ele>53.5</ele>
        <time>2014-05-18T07:18:34Z</time>
      </trkpt>
      <trkpt lat="47.35234" lon="-1.62668">
        <ele>59.5</ele>
        <time>2014-05-18T07:18:45Z</time>
      </trkpt>
      <trkpt lat="47.35241" lon="-1.62678">
        <ele>59.5</ele>
        <time>2014-05-18T07:18:53Z</time>
      </trkpt>
      <trkpt lat="47.35229" lon="-1.62674">
        <ele>58.5</ele>
        <time>2014-05-18T07:18:57Z</time>
      </trkpt>
      <trkpt lat="47.3522" lon="-1.62676">
        <ele>58.5</ele>
        <time>2014-05-18T07:19:01Z</time>
      </trkpt>
      <trkpt lat="47.35206" lon="-1.6268">
        <ele>61.5</ele>
        <time>2014-05-18T07:19:09Z</time>
      </trkpt>
      <trkpt lat="47.35206" lon="-1.62665">
        <ele>59.5</ele>
        <time>2014-05-18T07:19:18Z</time>
      </trkpt>
      <trkpt lat="47.35195" lon="-1.62668">
        <ele>65.5</ele>
        <time>2014-05-18T07:19:22Z</time>
      </trkpt>
      <trkpt lat="47.35185" lon="-1.62661">
        <ele>61.5</ele>
        <time>2014-05-18T07:19:30Z</time>
      </trkpt>
      <trkpt lat="47.35175" lon="-1.62661">
        <ele>65.5</ele>
        <time>2014-05-18T07:19:34Z</time>
      </trkpt>
      <trkpt lat="47.35161" lon="-1.62656">
        <ele>67.5</ele>
        <time>2014-05-18T07:19:38Z</time>
      </trkpt>
      <trkpt lat="47.35148" lon="-1.62651">
        <ele>60.5</ele>
        <time>2014-05-18T07:19:41Z</time>
      </trkpt>
      <trkpt lat="47.35138" lon="-1.62651">
        <ele>63.5</ele>
        <time>2014-05-18T07:19:45Z</time>
      </trkpt>
      <trkpt lat="47.35127" lon="-1.62655">
        <ele>68.5</ele>
        <time>2014-05-18T07:19:49Z</time>
      </trkpt>
      <trkpt lat="47.35117" lon="-1.62672">
        <ele>68.5</ele>
        <time>2014-05-18T07:19:53Z</time>
      </trkpt>
      <trkpt lat="47.35112" lon="-1.6271">
        <ele>65.5</ele>
        <time>2014-05-18T07:19:57Z</time>
      </trkpt>
      <trkpt lat="47.35104" lon="-1.6274">
        <ele>65.5</ele>
        <time>2014-05-18T07:20:02Z</time>
      </trkpt>
      <trkpt lat="47.35102" lon="-1.62753">
        <ele>63.5</ele>
        <time>2014-05-18T07:20:06Z</time>
      </trkpt>
      <trkpt lat="47.35086" lon="-1.62753">
        <ele>59.5</ele>
        <time>2014-05-18T07:20:22Z</time>
      </trkpt>
      <trkpt lat="47.35075" lon="-1.62752">
        <ele>55.5</ele>
        <time>2014-05-18T07:20:26Z</time>
      </trkpt>
      <trkpt lat="47.35066" lon="-1.6275">
        <ele>51.5</ele>
        <time>2014-05-18T07:20:30Z</time>
      </trkpt>
      <trkpt lat="47.35016" lon="-1.62731">
        <ele>56.5</ele>
        <time>2014-05-18T07:20:37Z</time>
      </trkpt>
      <trkpt lat="47.34997" lon="-1.62724">
        <ele>58.5</ele>
        <time>2014-05-18T07:20:41Z</time>
      </trkpt>
      <trkpt lat="47.34979" lon="-1.62716">
        <ele>63.5</ele>
        <time>2014-05-18T07:20:45Z</time>
      </trkpt>
      <trkpt lat="47.34962" lon="-1.6272">
        <ele>63.5</ele>
        <time>2014-05-18T07:20:49Z</time>
      </trkpt>
      <trkpt lat="47.3495" lon="-1.62736">
        <ele>63.5</ele>
        <time>2014-05-18T07:20:53Z</time>
      </trkpt>
      <trkpt lat="47.34941" lon="-1.62755">
        <ele>65.5</ele>
        <time>2014-05-18T07:20:57Z</time>
      </trkpt>
      <trkpt lat="47.34938" lon="-1.6277">
        <ele>67.5</ele>
        <time>2014-05-18T07:21:02Z</time>
      </trkpt>
      <trkpt lat="47.34928" lon="-1.62783">
        <ele>68.5</ele>
        <time>2014-05-18T07:21:06Z</time>
      </trkpt>
      <trkpt lat="47.34913" lon="-1.62806">
        <ele>65.5</ele>
        <time>2014-05-18T07:21:14Z</time>
      </trkpt>
      <trkpt lat="47.34905" lon="-1.62822">
        <ele>58.5</ele>
        <time>2014-05-18T07:21:18Z</time>
      </trkpt>
      <trkpt lat="47.34898" lon="-1.62837">
        <ele>56.5</ele>
        <time>2014-05-18T07:21:22Z</time>
      </trkpt>
      <trkpt lat="47.34883" lon="-1.62861">
        <ele>52.5</ele>
        <time>2014-05-18T07:21:25Z</time>
      </trkpt>
      <trkpt lat="47.34872" lon="-1.62876">
        <ele>51.5</ele>
        <time>2014-05-18T07:21:29Z</time>
      </trkpt>
      <trkpt lat="47.34858" lon="-1.62888">
        <ele>54.5</ele>
        <time>2014-05-18T07:21:33Z</time>
      </trkpt>
      <trkpt lat="47.34847" lon="-1.62907">
        <ele>54.5</ele>
        <time>2014-05-18T07:21:37Z</time>
      </trkpt>
      <trkpt lat="47.34838" lon="-1.62924">
        <ele>54.5</ele>
        <time>2014-05-18T07:21:41Z</time>
      </trkpt>
      <trkpt lat="47.34829" lon="-1.62941">
        <ele>57.5</ele>
        <time>2014-05-18T07:21:46Z</time>
      </trkpt>
      <trkpt lat="47.34813" lon="-1.62957">
        <ele>59.5</ele>
        <time>2014-05-18T07:21:50Z</time>
      </trkpt>
      <trkpt lat="47.348" lon="-1.62969">
        <ele>60.5</ele>
        <time>2014-05-18T07:21:54Z</time>
      </trkpt>
      <trkpt lat="47.34787" lon="-1.62985">
        <ele>59.5</ele>
        <time>2014-05-18T07:21:58Z</time>
      </trkpt>
      <trkpt lat="47.34771" lon="-1.63006">
        <ele>60.5</ele>
        <time>2014-05-18T07:22:02Z</time>
      </trkpt>
      <trkpt lat="47.34758" lon="-1.63024">
        <ele>59.5</ele>
        <time>2014-05-18T07:22:06Z</time>
      </trkpt>
      <trkpt lat="47.34747" lon="-1.63034">
        <ele>61.5</ele>
        <time>2014-05-18T07:22:10Z</time>
      </trkpt>
      <trkpt lat="47.34733" lon="-1.63056">
        <ele>65.5</ele>
        <time>2014-05-18T07:22:13Z</time>
      </trkpt>
      <trkpt lat="47.34722" lon="-1.63077">
        <ele>66.5</ele>
        <time>2014-05-18T07:22:17Z</time>
      </trkpt>
      <trkpt lat="47.34708" lon="-1.63095">
        <ele>68.5</ele>
        <time>2014-05-18T07:22:21Z</time>
      </trkpt>
      <trkpt lat="47.34695" lon="-1.63114">
        <ele>68.5</ele>
        <time>2014-05-18T07:22:25Z</time>
      </trkpt>
      <trkpt lat="47.34684" lon="-1.63136">
        <ele>65.5</ele>
        <time>2014-05-18T07:22:29Z</time>
      </trkpt>
      <trkpt lat="47.34669" lon="-1.63157">
        <ele>63.5</ele>
        <time>2014-05-18T07:22:33Z</time>
      </trkpt>
      <trkpt lat="47.34663" lon="-1.63173">
        <ele>66.5</ele>
        <time>2014-05-18T07:22:37Z</time>
      </trkpt>
      <trkpt lat="47.34651" lon="-1.63186">
        <ele>64.5</ele>
        <time>2014-05-18T07:22:41Z</time>
      </trkpt>
      <trkpt lat="47.34635" lon="-1.63202">
        <ele>62.5</ele>
        <time>2014-05-18T07:22:46Z</time>
      </trkpt>
      <trkpt lat="47.34616" lon="-1.63227">
        <ele>65.5</ele>
        <time>2014-05-18T07:22:50Z</time>
      </trkpt>
      <trkpt lat="47.346" lon="-1.63254">
        <ele>67.5</ele>
        <time>2014-05-18T07:22:54Z</time>
      </trkpt>
      <trkpt lat="47.34587" lon="-1.63278">
        <ele>68.5</ele>
        <time>2014-05-18T07:22:58Z</time>
      </trkpt>
      <trkpt lat="47.34571" lon="-1.63301">
        <ele>67.5</ele>
        <time>2014-05-18T07:23:02Z</time>
      </trkpt>
      <trkpt lat="47.34554" lon="-1.63329">
        <ele>66.5</ele>
        <time>2014-05-18T07:23:06Z</time>
      </trkpt>
      <trkpt lat="47.34544" lon="-1.63344">
        <ele>67.5</ele>
        <time>2014-05-18T07:23:09Z</time>
      </trkpt>
      <trkpt lat="47.34529" lon="-1.63357">
        <ele>70.5</ele>
        <time>2014-05-18T07:23:13Z</time>
      </trkpt>
      <trkpt lat="47.34513" lon="-1.63349">
        <ele>70.5</ele>
        <time>2014-05-18T07:23:17Z</time>
      </trkpt>
      <trkpt lat="47.34495" lon="-1.63331">
        <ele>71.5</ele>
        <time>2014-05-18T07:23:21Z</time>
      </trkpt>
      <trkpt lat="47.34478" lon="-1.63317">
        <ele>73.5</ele>
        <time>2014-05-18T07:23:25Z</time>
      </trkpt>
      <trkpt lat="47.34458" lon="-1.6331">
        <ele>74.5</ele>
        <time>2014-05-18T07:23:30Z</time>
      </trkpt>
      <trkpt lat="47.34441" lon="-1.63297">
        <ele>74.5</ele>
        <time>2014-05-18T07:23:34Z</time>
      </trkpt>
      <trkpt lat="47.3442" lon="-1.63285">
        <ele>73.5</ele>
        <time>2014-05-18T07:23:38Z</time>
      </trkpt>
      <trkpt lat="47.34401" lon="-1.63273">
        <ele>74.5</ele>
        <time>2014-05-18T07:23:42Z</time>
      </trkpt>
      <trkpt lat="47.34383" lon="-1.63255">
        <ele>75.5</ele>
        <time>2014-05-18T07:23:46Z</time>
      </trkpt>
      <trkpt lat="47.34364" lon="-1.63236">
        <ele>75.5</ele>
        <time>2014-05-18T07:23:50Z</time>
      </trkpt>
      <trkpt lat="47.34322" lon="-1.63201">
        <ele>71.5</ele>
        <time>2014-05-18T07:23:57Z</time>
      </trkpt>
      <trkpt lat="47.34299" lon="-1.63186">
        <ele>75.5</ele>
        <time>2014-05-18T07:24:01Z</time>
      </trkpt>
      <trkpt lat="47.34281" lon="-1.63164">
        <ele>73.5</ele>
        <time>2014-05-18T07:24:05Z</time>
      </trkpt>
      <trkpt lat="47.34258" lon="-1.63151">
        <ele>76.5</ele>
        <time>2014-05-18T07:24:09Z</time>
      </trkpt>
      <trkpt lat="47.34236" lon="-1.63143">
        <ele>76.5</ele>
        <time>2014-05-18T07:24:13Z</time>
      </trkpt>
      <trkpt lat="47.34216" lon="-1.63136">
        <ele>69.5</ele>
        <time>2014-05-18T07:24:17Z</time>
      </trkpt>
      <trkpt lat="47.34199" lon="-1.63131">
        <ele>74.5</ele>
        <time>2014-05-18T07:24:22Z</time>
      </trkpt>
      <trkpt lat="47.34176" lon="-1.63127">
        <ele>75.5</ele>
        <time>2014-05-18T07:24:26Z</time>
      </trkpt>
      <trkpt lat="47.34156" lon="-1.63121">
        <ele>76.5</ele>
        <time>2014-05-18T07:24:30Z</time>
      </trkpt>
      <trkpt lat="47.3413" lon="-1.63116">
        <ele>73.5</ele>
        <time>2014-05-18T07:24:34Z</time>
      </trkpt>
      <trkpt lat="47.34112" lon="-1.63109">
        <ele>70.5</ele>
        <time>2014-05-18T07:24:38Z</time>
      </trkpt>
      <trkpt lat="47.34093" lon="-1.63093">
        <ele>68.5</ele>
        <time>2014-05-18T07:24:42Z</time>
      </trkpt>
      <trkpt lat="47.34074" lon="-1.63083">
        <ele>68.5</ele>
        <time>2014-05-18T07:24:45Z</time>
      </trkpt>
      <trkpt lat="47.34055" lon="-1.63074">
        <ele>69.5</ele>
        <time>2014-05-18T07:24:49Z</time>
      </trkpt>
      <trkpt lat="47.34039" lon="-1.63077">
        <ele>73.5</ele>
        <time>2014-05-18T07:24:53Z</time>
      </trkpt>
      <trkpt lat="47.34019" lon="-1.6306">
        <ele>76.5</ele>
        <time>2014-05-18T07:24:57Z</time>
      </trkpt>
      <trkpt lat="47.33997" lon="-1.63048">
        <ele>74.5</ele>
        <time>2014-05-18T07:25:01Z</time>
      </trkpt>
      <trkpt lat="47.33977" lon="-1.63037">
        <ele>69.5</ele>
        <time>2014-05-18T07:25:05Z</time>
      </trkpt>
      <trkpt lat="47.3396" lon="-1.63024">
        <ele>70.5</ele>
        <time>2014-05-18T07:25:09Z</time>
      </trkpt>
      <trkpt lat="47.33943" lon="-1.63011">
        <ele>70.5</ele>
        <time>2014-05-18T07:25:14Z</time>
      </trkpt>
      <trkpt lat="47.33925" lon="-1.63002">
        <ele>72.5</ele>
        <time>2014-05-18T07:25:18Z</time>
      </trkpt>
      <trkpt lat="47.33906" lon="-1.62991">
        <ele>71.5</ele>
        <time>2014-05-18T07:25:22Z</time>
      </trkpt>
      <trkpt lat="47.33889" lon="-1.62986">
        <ele>74.5</ele>
        <time>2014-05-18T07:25:26Z</time>
      </trkpt>
      <trkpt lat="47.33871" lon="-1.62979">
        <ele>76.5</ele>
        <time>2014-05-18T07:25:30Z</time>
      </trkpt>
      <trkpt lat="47.33856" lon="-1.62977">
        <ele>78.5</ele>
        <time>2014-05-18T07:25:34Z</time>
      </trkpt>
      <trkpt lat="47.33827" lon="-1.62966">
        <ele>79.5</ele>
        <time>2014-05-18T07:25:41Z</time>
      </trkpt>
      <trkpt lat="47.33813" lon="-1.6296">
        <ele>79.5</ele>
        <time>2014-05-18T07:25:45Z</time>
      </trkpt>
      <trkpt lat="47.33794" lon="-1.62951">
        <ele>76.5</ele>
        <time>2014-05-18T07:25:49Z</time>
      </trkpt>
      <trkpt lat="47.33779" lon="-1.62947">
        <ele>78.5</ele>
        <time>2014-05-18T07:25:53Z</time>
      </trkpt>
      <trkpt lat="47.33759" lon="-1.62945">
        <ele>76.5</ele>
        <time>2014-05-18T07:25:57Z</time>
      </trkpt>
      <trkpt lat="47.33739" lon="-1.62939">
        <ele>78.5</ele>
        <time>2014-05-18T07:26:01Z</time>
      </trkpt>
      <trkpt lat="47.33721" lon="-1.62937">
        <ele>78.5</ele>
        <time>2014-05-18T07:26:05Z</time>
      </trkpt>
      <trkpt lat="47.33702" lon="-1.62931">
        <ele>70.5</ele>
        <time>2014-05-18T07:26:09Z</time>
      </trkpt>
      <trkpt lat="47.33691" lon="-1.62934">
        <ele>73.5</ele>
        <time>2014-05-18T07:26:14Z</time>
      </trkpt>
      <trkpt lat="47.33708" lon="-1.62935">
        <ele>69.5</ele>
        <time>2014-05-18T07:26:26Z</time>
      </trkpt>
      <trkpt lat="47.33723" lon="-1.62939">
        <ele>68.5</ele>
        <time>2014-05-18T07:26:30Z</time>
      </trkpt>
      <trkpt lat="47.33743" lon="-1.62946">
        <ele>73.5</ele>
        <time>2014-05-18T07:26:34Z</time>
      </trkpt>
      <trkpt lat="47.33754" lon="-1.62948">
        <ele>74.5</ele>
        <time>2014-05-18T07:26:37Z</time>
      </trkpt>
      <trkpt lat="47.33775" lon="-1.62951">
        <ele>71.5</ele>
        <time>2014-05-18T07:26:41Z</time>
      </trkpt>
      <trkpt lat="47.33794" lon="-1.62957">
        <ele>72.5</ele>
        <time>2014-05-18T07:26:45Z</time>
      </trkpt>
      <trkpt lat="47.33813" lon="-1.62964">
        <ele>71.5</ele>
        <time>2014-05-18T07:26:49Z</time>
      </trkpt>
      <trkpt lat="47.33833" lon="-1.62968">
        <ele>70.5</ele>
        <time>2014-05-18T07:26:53Z</time>
      </trkpt>
      <trkpt lat="47.33851" lon="-1.62975">
        <ele>71.5</ele>
        <time>2014-05-18T07:26:57Z</time>
      </trkpt>
      <trkpt lat="47.33872" lon="-1.62982">
        <ele>70.5</ele>
        <time>2014-05-18T07:27:01Z</time>
      </trkpt>
      <trkpt lat="47.3389" lon="-1.6299">
        <ele>71.5</ele>
        <time>2014-05-18T07:27:06Z</time>
      </trkpt>
      <trkpt lat="47.33907" lon="-1.62993">
        <ele>71.5</ele>
        <time>2014-05-18T07:27:10Z</time>
      </trkpt>
      <trkpt lat="47.33924" lon="-1.63001">
        <ele>73.5</ele>
        <time>2014-05-18T07:27:14Z</time>
      </trkpt>
      <trkpt lat="47.3394" lon="-1.6301">
        <ele>75.5</ele>
        <time>2014-05-18T07:27:18Z</time>
      </trkpt>
      <trkpt lat="47.33959" lon="-1.63022">
        <ele>76.5</ele>
        <time>2014-05-18T07:27:22Z</time>
      </trkpt>
      <trkpt lat="47.33972" lon="-1.63029">
        <ele>73.5</ele>
        <time>2014-05-18T07:27:26Z</time>
      </trkpt>
      <trkpt lat="47.33984" lon="-1.63036">
        <ele>74.5</ele>
        <time>2014-05-18T07:27:29Z</time>
      </trkpt>
      <trkpt lat="47.33996" lon="-1.6304">
        <ele>71.5</ele>
        <time>2014-05-18T07:27:33Z</time>
      </trkpt>
      <trkpt lat="47.34004" lon="-1.63027">
        <ele>69.5</ele>
        <time>2014-05-18T07:27:37Z</time>
      </trkpt>
      <trkpt lat="47.34012" lon="-1.62998">
        <ele>69.5</ele>
        <time>2014-05-18T07:27:41Z</time>
      </trkpt>
      <trkpt lat="47.34019" lon="-1.62971">
        <ele>68.5</ele>
        <time>2014-05-18T07:27:45Z</time>
      </trkpt>
      <trkpt lat="47.34027" lon="-1.62943">
        <ele>67.5</ele>
        <time>2014-05-18T07:27:49Z</time>
      </trkpt>
      <trkpt lat="47.34024" lon="-1.62916">
        <ele>68.5</ele>
        <time>2014-05-18T07:27:54Z</time>
      </trkpt>
      <trkpt lat="47.3401" lon="-1.62892">
        <ele>68.5</ele>
        <time>2014-05-18T07:27:58Z</time>
      </trkpt>
      <trkpt lat="47.33991" lon="-1.62867">
        <ele>68.5</ele>
        <time>2014-05-18T07:28:02Z</time>
      </trkpt>
      <trkpt lat="47.33977" lon="-1.62837">
        <ele>70.5</ele>
        <time>2014-05-18T07:28:06Z</time>
      </trkpt>
      <trkpt lat="47.33961" lon="-1.62814">
        <ele>69.5</ele>
        <time>2014-05-18T07:28:10Z</time>
      </trkpt>
      <trkpt lat="47.33945" lon="-1.62791">
        <ele>71.5</ele>
        <time>2014-05-18T07:28:14Z</time>
      </trkpt>
      <trkpt lat="47.33924" lon="-1.62758">
        <ele>72.5</ele>
        <time>2014-05-18T07:28:18Z</time>
      </trkpt>
      <trkpt lat="47.33911" lon="-1.62734">
        <ele>74.5</ele>
        <time>2014-05-18T07:28:21Z</time>
      </trkpt>
      <trkpt lat="47.33893" lon="-1.62705">
        <ele>75.5</ele>
        <time>2014-05-18T07:28:25Z</time>
      </trkpt>
      <trkpt lat="47.33872" lon="-1.62674">
        <ele>73.5</ele>
        <time>2014-05-18T07:28:29Z</time>
      </trkpt>
      <trkpt lat="47.33855" lon="-1.62635">
        <ele>73.5</ele>
        <time>2014-05-18T07:28:33Z</time>
      </trkpt>
      <trkpt lat="47.33835" lon="-1.62607">
        <ele>74.5</ele>
        <time>2014-05-18T07:28:37Z</time>
      </trkpt>
      <trkpt lat="47.33815" lon="-1.62575">
        <ele>75.5</ele>
        <time>2014-05-18T07:28:41Z</time>
      </trkpt>
      <trkpt lat="47.33786" lon="-1.62556">
        <ele>71.5</ele>
        <time>2014-05-18T07:28:45Z</time>
      </trkpt>
      <trkpt lat="47.3376" lon="-1.62543">
        <ele>67.5</ele>
        <time>2014-05-18T07:28:49Z</time>
      </trkpt>
      <trkpt lat="47.33732" lon="-1.62557">
        <ele>65.5</ele>
        <time>2014-05-18T07:28:54Z</time>
      </trkpt>
      <trkpt lat="47.33703" lon="-1.62571">
        <ele>63.5</ele>
        <time>2014-05-18T07:28:58Z</time>
      </trkpt>
      <trkpt lat="47.33673" lon="-1.6258">
        <ele>70.5</ele>
        <time>2014-05-18T07:29:02Z</time>
      </trkpt>
      <trkpt lat="47.33643" lon="-1.62591">
        <ele>71.5</ele>
        <time>2014-05-18T07:29:06Z</time>
      </trkpt>
      <trkpt lat="47.33612" lon="-1.62603">
        <ele>73.5</ele>
        <time>2014-05-18T07:29:10Z</time>
      </trkpt>
      <trkpt lat="47.33582" lon="-1.62616">
        <ele>74.5</ele>
        <time>2014-05-18T07:29:14Z</time>
      </trkpt>
      <trkpt lat="47.33568" lon="-1.62621">
        <ele>75.5</ele>
        <time>2014-05-18T07:29:18Z</time>
      </trkpt>
      <trkpt lat="47.33523" lon="-1.62636">
        <ele>73.5</ele>
        <time>2014-05-18T07:29:21Z</time>
      </trkpt>
      <trkpt lat="47.33496" lon="-1.62645">
        <ele>72.5</ele>
        <time>2014-05-18T07:29:25Z</time>
      </trkpt>
      <trkpt lat="47.33467" lon="-1.62656">
        <ele>72.5</ele>
        <time>2014-05-18T07:29:29Z</time>
      </trkpt>
      <trkpt lat="47.33442" lon="-1.62666">
        <ele>70.5</ele>
        <time>2014-05-18T07:29:33Z</time>
      </trkpt>
      <trkpt lat="47.33414" lon="-1.62678">
        <ele>70.5</ele>
        <time>2014-05-18T07:29:37Z</time>
      </trkpt>
      <trkpt lat="47.3339" lon="-1.62695">
        <ele>70.5</ele>
        <time>2014-05-18T07:29:41Z</time>
      </trkpt>
      <trkpt lat="47.3337" lon="-1.62724">
        <ele>70.5</ele>
        <time>2014-05-18T07:29:46Z</time>
      </trkpt>
      <trkpt lat="47.33349" lon="-1.62754">
        <ele>72.5</ele>
        <time>2014-05-18T07:29:50Z</time>
      </trkpt>
      <trkpt lat="47.33335" lon="-1.62778">
        <ele>70.5</ele>
        <time>2014-05-18T07:29:54Z</time>
      </trkpt>
      <trkpt lat="47.33318" lon="-1.62786">
        <ele>68.5</ele>
        <time>2014-05-18T07:29:58Z</time>
      </trkpt>
      <trkpt lat="47.33294" lon="-1.62775">
        <ele>67.5</ele>
        <time>2014-05-18T07:30:02Z</time>
      </trkpt>
      <trkpt lat="47.33272" lon="-1.62762">
        <ele>67.5</ele>
        <time>2014-05-18T07:30:06Z</time>
      </trkpt>
      <trkpt lat="47.33247" lon="-1.62752">
        <ele>67.5</ele>
        <time>2014-05-18T07:30:09Z</time>
      </trkpt>
      <trkpt lat="47.33235" lon="-1.62746">
        <ele>67.5</ele>
        <time>2014-05-18T07:30:13Z</time>
      </trkpt>
      <trkpt lat="47.33195" lon="-1.6275">
        <ele>67.5</ele>
        <time>2014-05-18T07:30:17Z</time>
      </trkpt>
      <trkpt lat="47.33172" lon="-1.62768">
        <ele>66.5</ele>
        <time>2014-05-18T07:30:21Z</time>
      </trkpt>
      <trkpt lat="47.3315" lon="-1.62781">
        <ele>66.5</ele>
        <time>2014-05-18T07:30:25Z</time>
      </trkpt>
      <trkpt lat="47.33122" lon="-1.62782">
        <ele>66.5</ele>
        <time>2014-05-18T07:30:30Z</time>
      </trkpt>
      <trkpt lat="47.33119" lon="-1.62744">
        <ele>65.5</ele>
        <time>2014-05-18T07:30:34Z</time>
      </trkpt>
      <trkpt lat="47.33115" lon="-1.62712">
        <ele>64.5</ele>
        <time>2014-05-18T07:30:38Z</time>
      </trkpt>
      <trkpt lat="47.3311" lon="-1.62675">
        <ele>64.5</ele>
        <time>2014-05-18T07:30:42Z</time>
      </trkpt>
      <trkpt lat="47.33105" lon="-1.62635">
        <ele>65.5</ele>
        <time>2014-05-18T07:30:46Z</time>
      </trkpt>
      <trkpt lat="47.33095" lon="-1.62587">
        <ele>65.5</ele>
        <time>2014-05-18T07:30:50Z</time>
      </trkpt>
      <trkpt lat="47.33088" lon="-1.62558">
        <ele>64.5</ele>
        <time>2014-05-18T07:30:53Z</time>
      </trkpt>
      <trkpt lat="47.33079" lon="-1.62517">
        <ele>63.5</ele>
        <time>2014-05-18T07:30:57Z</time>
      </trkpt>
      <trkpt lat="47.33064" lon="-1.6249">
        <ele>66.5</ele>
        <time>2014-05-18T07:31:01Z</time>
      </trkpt>
      <trkpt lat="47.33037" lon="-1.62492">
        <ele>64.5</ele>
        <time>2014-05-18T07:31:05Z</time>
      </trkpt>
      <trkpt lat="47.33012" lon="-1.62494">
        <ele>65.5</ele>
        <time>2014-05-18T07:31:09Z</time>
      </trkpt>
      <trkpt lat="47.32987" lon="-1.62486">
        <ele>66.5</ele>
        <time>2014-05-18T07:31:14Z</time>
      </trkpt>
      <trkpt lat="47.3296" lon="-1.62475">
        <ele>66.5</ele>
        <time>2014-05-18T07:31:18Z</time>
      </trkpt>
      <trkpt lat="47.32935" lon="-1.62459">
        <ele>67.5</ele>
        <time>2014-05-18T07:31:22Z</time>
      </trkpt>
      <trkpt lat="47.32912" lon="-1.6244">
        <ele>59.5</ele>
        <time>2014-05-18T07:31:26Z</time>
      </trkpt>
      <trkpt lat="47.32892" lon="-1.62427">
        <ele>54.5</ele>
        <time>2014-05-18T07:31:30Z</time>
      </trkpt>
      <trkpt lat="47.32884" lon="-1.624">
        <ele>56.5</ele>
        <time>2014-05-18T07:31:34Z</time>
      </trkpt>
      <trkpt lat="47.32873" lon="-1.62363">
        <ele>58.5</ele>
        <time>2014-05-18T07:31:38Z</time>
      </trkpt>
      <trkpt lat="47.32859" lon="-1.62357">
        <ele>61.5</ele>
        <time>2014-05-18T07:31:41Z</time>
      </trkpt>
      <trkpt lat="47.32839" lon="-1.62368">
        <ele>64.5</ele>
        <time>2014-05-18T07:31:45Z</time>
      </trkpt>
      <trkpt lat="47.32817" lon="-1.62382">
        <ele>64.5</ele>
        <time>2014-05-18T07:31:49Z</time>
      </trkpt>
      <trkpt lat="47.32795" lon="-1.62397">
        <ele>62.5</ele>
        <time>2014-05-18T07:31:53Z</time>
      </trkpt>
      <trkpt lat="47.32773" lon="-1.62416">
        <ele>62.5</ele>
        <time>2014-05-18T07:31:57Z</time>
      </trkpt>
      <trkpt lat="47.3276" lon="-1.62418">
        <ele>60.5</ele>
        <time>2014-05-18T07:32:02Z</time>
      </trkpt>
      <trkpt lat="47.32721" lon="-1.62423">
        <ele>60.5</ele>
        <time>2014-05-18T07:32:06Z</time>
      </trkpt>
      <trkpt lat="47.32692" lon="-1.62428">
        <ele>58.5</ele>
        <time>2014-05-18T07:32:10Z</time>
      </trkpt>
      <trkpt lat="47.32662" lon="-1.62427">
        <ele>58.5</ele>
        <time>2014-05-18T07:32:14Z</time>
      </trkpt>
      <trkpt lat="47.32631" lon="-1.62425">
        <ele>60.5</ele>
        <time>2014-05-18T07:32:18Z</time>
      </trkpt>
      <trkpt lat="47.32593" lon="-1.62422">
        <ele>61.5</ele>
        <time>2014-05-18T07:32:22Z</time>
      </trkpt>
      <trkpt lat="47.32571" lon="-1.62421">
        <ele>61.5</ele>
        <time>2014-05-18T07:32:25Z</time>
      </trkpt>
      <trkpt lat="47.32544" lon="-1.62415">
        <ele>61.5</ele>
        <time>2014-05-18T07:32:29Z</time>
      </trkpt>
      <trkpt lat="47.3252" lon="-1.62401">
        <ele>60.5</ele>
        <time>2014-05-18T07:32:33Z</time>
      </trkpt>
      <trkpt lat="47.32502" lon="-1.62369">
        <ele>61.5</ele>
        <time>2014-05-18T07:32:37Z</time>
      </trkpt>
      <trkpt lat="47.32482" lon="-1.62337">
        <ele>60.5</ele>
        <time>2014-05-18T07:32:41Z</time>
      </trkpt>
      <trkpt lat="47.32466" lon="-1.623">
        <ele>58.5</ele>
        <time>2014-05-18T07:32:46Z</time>
      </trkpt>
      <trkpt lat="47.32444" lon="-1.62266">
        <ele>60.5</ele>
        <time>2014-05-18T07:32:50Z</time>
      </trkpt>
      <trkpt lat="47.32426" lon="-1.62239">
        <ele>60.5</ele>
        <time>2014-05-18T07:32:54Z</time>
      </trkpt>
      <trkpt lat="47.32404" lon="-1.62208">
        <ele>63.5</ele>
        <time>2014-05-18T07:32:58Z</time>
      </trkpt>
      <trkpt lat="47.32389" lon="-1.62186">
        <ele>65.5</ele>
        <time>2014-05-18T07:33:02Z</time>
      </trkpt>
      <trkpt lat="47.32383" lon="-1.62145">
        <ele>60.5</ele>
        <time>2014-05-18T07:33:06Z</time>
      </trkpt>
      <trkpt lat="47.32383" lon="-1.62124">
        <ele>60.5</ele>
        <time>2014-05-18T07:33:09Z</time>
      </trkpt>
      <trkpt lat="47.32383" lon="-1.62097">
        <ele>58.5</ele>
        <time>2014-05-18T07:33:13Z</time>
      </trkpt>
      <trkpt lat="47.32397" lon="-1.62072">
        <ele>51.5</ele>
        <time>2014-05-18T07:33:17Z</time>
      </trkpt>
      <trkpt lat="47.3241" lon="-1.6205">
        <ele>53.5</ele>
        <time>2014-05-18T07:33:21Z</time>
      </trkpt>
      <trkpt lat="47.32407" lon="-1.62037">
        <ele>56.5</ele>
        <time>2014-05-18T07:33:29Z</time>
      </trkpt>
      <trkpt lat="47.32383" lon="-1.6204">
        <ele>63.5</ele>
        <time>2014-05-18T07:34:13Z</time>
      </trkpt>
      <trkpt lat="47.32353" lon="-1.6203">
        <ele>61.5</ele>
        <time>2014-05-18T07:34:18Z</time>
      </trkpt>
      <trkpt lat="47.32336" lon="-1.6203">
        <ele>63.5</ele>
        <time>2014-05-18T07:34:22Z</time>
      </trkpt>
      <trkpt lat="47.32338" lon="-1.61999">
        <ele>67.5</ele>
        <time>2014-05-18T07:34:30Z</time>
      </trkpt>
      <trkpt lat="47.32343" lon="-1.61979">
        <ele>62.5</ele>
        <time>2014-05-18T07:34:34Z</time>
      </trkpt>
      <trkpt lat="47.32349" lon="-1.61966">
        <ele>51.5</ele>
        <time>2014-05-18T07:34:41Z</time>
      </trkpt>
      <trkpt lat="47.32359" lon="-1.61977">
        <ele>56.5</ele>
        <time>2014-05-18T07:34:45Z</time>
      </trkpt>
      <trkpt lat="47.32368" lon="-1.6198">
        <ele>58.5</ele>
        <time>2014-05-18T07:34:49Z</time>
      </trkpt>
      <trkpt lat="47.32382" lon="-1.61988">
        <ele>61.5</ele>
        <time>2014-05-18T07:34:53Z</time>
      </trkpt>
      <trkpt lat="47.32396" lon="-1.61995">
        <ele>59.5</ele>
        <time>2014-05-18T07:34:57Z</time>
      </trkpt>
      <trkpt lat="47.32409" lon="-1.61998">
        <ele>55.5</ele>
        <time>2014-05-18T07:35:02Z</time>
      </trkpt>
      <trkpt lat="47.32421" lon="-1.61998">
        <ele>57.5</ele>
        <time>2014-05-18T07:35:06Z</time>
      </trkpt>
      <trkpt lat="47.32442" lon="-1.62001">
        <ele>57.5</ele>
        <time>2014-05-18T07:35:14Z</time>
      </trkpt>
      <trkpt lat="47.32462" lon="-1.62008">
        <ele>52.5</ele>
        <time>2014-05-18T07:35:18Z</time>
      </trkpt>
      <trkpt lat="47.32471" lon="-1.62012">
        <ele>52.5</ele>
        <time>2014-05-18T07:35:22Z</time>
      </trkpt>
      <trkpt lat="47.32488" lon="-1.62014">
        <ele>57.5</ele>
        <time>2014-05-18T07:35:29Z</time>
      </trkpt>
      <trkpt lat="47.32482" lon="-1.61996">
        <ele>62.5</ele>
        <time>2014-05-18T07:35:45Z</time>
      </trkpt>
      <trkpt lat="47.32473" lon="-1.61985">
        <ele>62.5</ele>
        <time>2014-05-18T07:35:54Z</time>
      </trkpt>
      <trkpt lat="47.32465" lon="-1.61996">
        <ele>58.5</ele>
        <time>2014-05-18T07:36:06Z</time>
      </trkpt>
      <trkpt lat="47.32455" lon="-1.61998">
        <ele>61.5</ele>
        <time>2014-05-18T07:36:09Z</time>
      </trkpt>
      <trkpt lat="47.32447" lon="-1.61991">
        <ele>60.5</ele>
        <time>2014-05-18T07:36:17Z</time>
      </trkpt>
      <trkpt lat="47.32444" lon="-1.61974">
        <ele>65.5</ele>
        <time>2014-05-18T07:36:34Z</time>
      </trkpt>
      <trkpt lat="47.32431" lon="-1.61973">
        <ele>64.5</ele>
        <time>2014-05-18T07:36:46Z</time>
      </trkpt>
      <trkpt lat="47.32418" lon="-1.61977">
        <ele>64.5</ele>
        <time>2014-05-18T07:36:54Z</time>
      </trkpt>
      <trkpt lat="47.32418" lon="-1.61962">
        <ele>62.5</ele>
        <time>2014-05-18T07:37:21Z</time>
      </trkpt>
      <trkpt lat="47.32401" lon="-1.6195">
        <ele>65.5</ele>
        <time>2014-05-18T07:37:30Z</time>
      </trkpt>
      <trkpt lat="47.32389" lon="-1.61941">
        <ele>63.5</ele>
        <time>2014-05-18T07:37:34Z</time>
      </trkpt>
      <trkpt lat="47.32372" lon="-1.61935">
        <ele>65.5</ele>
        <time>2014-05-18T07:37:42Z</time>
      </trkpt>
      <trkpt lat="47.3238" lon="-1.6193">
        <ele>57.5</ele>
        <time>2014-05-18T07:37:49Z</time>
      </trkpt>
      <trkpt lat="47.32391" lon="-1.61927">
        <ele>56.5</ele>
        <time>2014-05-18T07:37:57Z</time>
      </trkpt>
      <trkpt lat="47.324" lon="-1.61916">
        <ele>55.5</ele>
        <time>2014-05-18T07:38:05Z</time>
      </trkpt>
      <trkpt lat="47.3241" lon="-1.61907">
        <ele>59.5</ele>
        <time>2014-05-18T07:38:18Z</time>
      </trkpt>
      <trkpt lat="47.32419" lon="-1.6191">
        <ele>58.5</ele>
        <time>2014-05-18T07:38:26Z</time>
      </trkpt>
      <trkpt lat="47.32427" lon="-1.61918">
        <ele>62.5</ele>
        <time>2014-05-18T07:38:34Z</time>
      </trkpt>
      <trkpt lat="47.32435" lon="-1.61935">
        <ele>62.5</ele>
        <time>2014-05-18T07:38:38Z</time>
      </trkpt>
      <trkpt lat="47.32446" lon="-1.61941">
        <ele>64.5</ele>
        <time>2014-05-18T07:38:45Z</time>
      </trkpt>
      <trkpt lat="47.32456" lon="-1.61943">
        <ele>65.5</ele>
        <time>2014-05-18T07:38:49Z</time>
      </trkpt>
      <trkpt lat="47.32465" lon="-1.61944">
        <ele>66.5</ele>
        <time>2014-05-18T07:38:53Z</time>
      </trkpt>
      <trkpt lat="47.32456" lon="-1.61931">
        <ele>65.5</ele>
        <time>2014-05-18T07:39:05Z</time>
      </trkpt>
      <trkpt lat="47.32452" lon="-1.61917">
        <ele>67.5</ele>
        <time>2014-05-18T07:39:14Z</time>
      </trkpt>
      <trkpt lat="47.32448" lon="-1.61903">
        <ele>66.5</ele>
        <time>2014-05-18T07:39:18Z</time>
      </trkpt>
      <trkpt lat="47.32436" lon="-1.61887">
        <ele>67.5</ele>
        <time>2014-05-18T07:39:22Z</time>
      </trkpt>
      <trkpt lat="47.3241" lon="-1.61891">
        <ele>67.5</ele>
        <time>2014-05-18T07:39:26Z</time>
      </trkpt>
      <trkpt lat="47.32391" lon="-1.61903">
        <ele>64.5</ele>
        <time>2014-05-18T07:39:30Z</time>
      </trkpt>
      <trkpt lat="47.32368" lon="-1.61924">
        <ele>56.5</ele>
        <time>2014-05-18T07:39:37Z</time>
      </trkpt>
      <trkpt lat="47.32358" lon="-1.61935">
        <ele>55.5</ele>
        <time>2014-05-18T07:39:41Z</time>
      </trkpt>
      <trkpt lat="47.32348" lon="-1.61931">
        <ele>56.5</ele>
        <time>2014-05-18T07:39:45Z</time>
      </trkpt>
      <trkpt lat="47.32331" lon="-1.61919">
        <ele>53.5</ele>
        <time>2014-05-18T07:39:50Z</time>
      </trkpt>
      <trkpt lat="47.32303" lon="-1.61901">
        <ele>51.5</ele>
        <time>2014-05-18T07:39:54Z</time>
      </trkpt>
      <trkpt lat="47.32283" lon="-1.61889">
        <ele>51.5</ele>
        <time>2014-05-18T07:39:58Z</time>
      </trkpt>
      <trkpt lat="47.32265" lon="-1.61869">
        <ele>50.5</ele>
        <time>2014-05-18T07:40:02Z</time>
      </trkpt>
      <trkpt lat="47.32256" lon="-1.61853">
        <ele>53.5</ele>
        <time>2014-05-18T07:40:06Z</time>
      </trkpt>
      <trkpt lat="47.32247" lon="-1.61854">
        <ele>50.5</ele>
        <time>2014-05-18T07:40:10Z</time>
      </trkpt>
      <trkpt lat="47.32252" lon="-1.6188">
        <ele>46.5</ele>
        <time>2014-05-18T07:40:18Z</time>
      </trkpt>
      <trkpt lat="47.32249" lon="-1.61899">
        <ele>48.5</ele>
        <time>2014-05-18T07:40:22Z</time>
      </trkpt>
      <trkpt lat="47.32263" lon="-1.61904">
        <ele>48.5</ele>
        <time>2014-05-18T07:40:29Z</time>
      </trkpt>
      <trkpt lat="47.32273" lon="-1.61909">
        <ele>44.5</ele>
        <time>2014-05-18T07:40:33Z</time>
      </trkpt>
      <trkpt lat="47.32288" lon="-1.61915">
        <ele>41.5</ele>
        <time>2014-05-18T07:40:37Z</time>
      </trkpt>
      <trkpt lat="47.32301" lon="-1.61923">
        <ele>42.5</ele>
        <time>2014-05-18T07:40:41Z</time>
      </trkpt>
      <trkpt lat="47.32313" lon="-1.61933">
        <ele>44.5</ele>
        <time>2014-05-18T07:40:50Z</time>
      </trkpt>
      <trkpt lat="47.32308" lon="-1.61949">
        <ele>47.5</ele>
        <time>2014-05-18T07:40:58Z</time>
      </trkpt>
      <trkpt lat="47.32308" lon="-1.61966">
        <ele>51.5</ele>
        <time>2014-05-18T07:41:06Z</time>
      </trkpt>
      <trkpt lat="47.32304" lon="-1.61979">
        <ele>55.5</ele>
        <time>2014-05-18T07:41:10Z</time>
      </trkpt>
      <trkpt lat="47.3231" lon="-1.61995">
        <ele>38.5</ele>
        <time>2014-05-18T07:41:21Z</time>
      </trkpt>
      <trkpt lat="47.32313" lon="-1.6201">
        <ele>47.5</ele>
        <time>2014-05-18T07:41:29Z</time>
      </trkpt>
      <trkpt lat="47.32308" lon="-1.62025">
        <ele>56.5</ele>
        <time>2014-05-18T07:41:38Z</time>
      </trkpt>
      <trkpt lat="47.32292" lon="-1.6205">
        <ele>54.5</ele>
        <time>2014-05-18T07:41:46Z</time>
      </trkpt>
      <trkpt lat="47.32276" lon="-1.62062">
        <ele>55.5</ele>
        <time>2014-05-18T07:41:50Z</time>
      </trkpt>
      <trkpt lat="47.32262" lon="-1.62072">
        <ele>51.5</ele>
        <time>2014-05-18T07:41:54Z</time>
      </trkpt>
      <trkpt lat="47.32257" lon="-1.62084">
        <ele>56.5</ele>
        <time>2014-05-18T07:41:58Z</time>
      </trkpt>
      <trkpt lat="47.32265" lon="-1.62096">
        <ele>48.5</ele>
        <time>2014-05-18T07:42:05Z</time>
      </trkpt>
      <trkpt lat="47.32277" lon="-1.62098">
        <ele>50.5</ele>
        <time>2014-05-18T07:42:13Z</time>
      </trkpt>
      <trkpt lat="47.32293" lon="-1.62106">
        <ele>51.5</ele>
        <time>2014-05-18T07:42:21Z</time>
      </trkpt>
      <trkpt lat="47.32298" lon="-1.62127">
        <ele>52.5</ele>
        <time>2014-05-18T07:42:30Z</time>
      </trkpt>
      <trkpt lat="47.32292" lon="-1.62148">
        <ele>54.5</ele>
        <time>2014-05-18T07:42:38Z</time>
      </trkpt>
      <trkpt lat="47.32283" lon="-1.62158">
        <ele>53.5</ele>
        <time>2014-05-18T07:42:46Z</time>
      </trkpt>
      <trkpt lat="47.32271" lon="-1.62168">
        <ele>51.5</ele>
        <time>2014-05-18T07:42:53Z</time>
      </trkpt>
      <trkpt lat="47.32271" lon="-1.62181">
        <ele>51.5</ele>
        <time>2014-05-18T07:43:01Z</time>
      </trkpt>
      <trkpt lat="47.3226" lon="-1.62202">
        <ele>58.5</ele>
        <time>2014-05-18T07:43:09Z</time>
      </trkpt>
      <trkpt lat="47.32242" lon="-1.62206">
        <ele>57.5</ele>
        <time>2014-05-18T07:43:17Z</time>
      </trkpt>
      <trkpt lat="47.32223" lon="-1.62202">
        <ele>50.5</ele>
        <time>2014-05-18T07:43:21Z</time>
      </trkpt>
      <trkpt lat="47.3222" lon="-1.62218">
        <ele>45.5</ele>
        <time>2014-05-18T07:43:30Z</time>
      </trkpt>
      <trkpt lat="47.32227" lon="-1.62228">
        <ele>40.5</ele>
        <time>2014-05-18T07:43:38Z</time>
      </trkpt>
      <trkpt lat="47.32238" lon="-1.62232">
        <ele>43.5</ele>
        <time>2014-05-18T07:43:46Z</time>
      </trkpt>
      <trkpt lat="47.32232" lon="-1.62258">
        <ele>57.5</ele>
        <time>2014-05-18T07:43:57Z</time>
      </trkpt>
      <trkpt lat="47.32219" lon="-1.62254">
        <ele>57.5</ele>
        <time>2014-05-18T07:44:09Z</time>
      </trkpt>
      <trkpt lat="47.32211" lon="-1.62245">
        <ele>56.5</ele>
        <time>2014-05-18T07:44:13Z</time>
      </trkpt>
      <trkpt lat="47.32201" lon="-1.62256">
        <ele>52.5</ele>
        <time>2014-05-18T07:44:22Z</time>
      </trkpt>
      <trkpt lat="47.32198" lon="-1.62269">
        <ele>47.5</ele>
        <time>2014-05-18T07:44:26Z</time>
      </trkpt>
      <trkpt lat="47.3219" lon="-1.62282">
        <ele>53.5</ele>
        <time>2014-05-18T07:44:30Z</time>
      </trkpt>
      <trkpt lat="47.32159" lon="-1.62301">
        <ele>49.5</ele>
        <time>2014-05-18T07:44:34Z</time>
      </trkpt>
      <trkpt lat="47.32137" lon="-1.62312">
        <ele>47.5</ele>
        <time>2014-05-18T07:44:38Z</time>
      </trkpt>
      <trkpt lat="47.32118" lon="-1.6233">
        <ele>42.5</ele>
        <time>2014-05-18T07:44:42Z</time>
      </trkpt>
      <trkpt lat="47.32118" lon="-1.62348">
        <ele>42.5</ele>
        <time>2014-05-18T07:44:45Z</time>
      </trkpt>
      <trkpt lat="47.32112" lon="-1.62361">
        <ele>46.5</ele>
        <time>2014-05-18T07:44:49Z</time>
      </trkpt>
      <trkpt lat="47.32093" lon="-1.6237">
        <ele>41.5</ele>
        <time>2014-05-18T07:44:53Z</time>
      </trkpt>
      <trkpt lat="47.32066" lon="-1.62382">
        <ele>39.5</ele>
        <time>2014-05-18T07:44:57Z</time>
      </trkpt>
      <trkpt lat="47.32047" lon="-1.62392">
        <ele>38.5</ele>
        <time>2014-05-18T07:45:01Z</time>
      </trkpt>
      <trkpt lat="47.32031" lon="-1.62399">
        <ele>37.5</ele>
        <time>2014-05-18T07:45:06Z</time>
      </trkpt>
      <trkpt lat="47.3202" lon="-1.62392">
        <ele>35.5</ele>
        <time>2014-05-18T07:45:10Z</time>
      </trkpt>
      <trkpt lat="47.32013" lon="-1.62373">
        <ele>34.5</ele>
        <time>2014-05-18T07:45:14Z</time>
      </trkpt>
      <trkpt lat="47.32009" lon="-1.62351">
        <ele>34.5</ele>
        <time>2014-05-18T07:45:18Z</time>
      </trkpt>
      <trkpt lat="47.31999" lon="-1.62338">
        <ele>33.5</ele>
        <time>2014-05-18T07:45:22Z</time>
      </trkpt>
      <trkpt lat="47.31985" lon="-1.62324">
        <ele>37.5</ele>
        <time>2014-05-18T07:45:26Z</time>
      </trkpt>
      <trkpt lat="47.31975" lon="-1.62306">
        <ele>41.5</ele>
        <time>2014-05-18T07:45:34Z</time>
      </trkpt>
      <trkpt lat="47.3197" lon="-1.62291">
        <ele>43.5</ele>
        <time>2014-05-18T07:45:38Z</time>
      </trkpt>
      <trkpt lat="47.3196" lon="-1.62265">
        <ele>41.5</ele>
        <time>2014-05-18T07:45:45Z</time>
      </trkpt>
      <trkpt lat="47.31953" lon="-1.62251">
        <ele>41.5</ele>
        <time>2014-05-18T07:45:49Z</time>
      </trkpt>
      <trkpt lat="47.31946" lon="-1.62236">
        <ele>42.5</ele>
        <time>2014-05-18T07:45:53Z</time>
      </trkpt>
      <trkpt lat="47.3195" lon="-1.62212">
        <ele>45.5</ele>
        <time>2014-05-18T07:45:57Z</time>
      </trkpt>
      <trkpt lat="47.31948" lon="-1.62199">
        <ele>46.5</ele>
        <time>2014-05-18T07:46:01Z</time>
      </trkpt>
      <trkpt lat="47.31938" lon="-1.62204">
        <ele>54.5</ele>
        <time>2014-05-18T07:46:18Z</time>
      </trkpt>
      <trkpt lat="47.31929" lon="-1.62203">
        <ele>54.5</ele>
        <time>2014-05-18T07:46:33Z</time>
      </trkpt>
      <trkpt lat="47.31922" lon="-1.62186">
        <ele>60.5</ele>
        <time>2014-05-18T07:46:41Z</time>
      </trkpt>
      <trkpt lat="47.31915" lon="-1.62174">
        <ele>58.5</ele>
        <time>2014-05-18T07:46:45Z</time>
      </trkpt>
      <trkpt lat="47.31909" lon="-1.62145">
        <ele>57.5</ele>
        <time>2014-05-18T07:46:53Z</time>
      </trkpt>
      <trkpt lat="47.31905" lon="-1.62128">
        <ele>56.5</ele>
        <time>2014-05-18T07:46:58Z</time>
      </trkpt>
      <trkpt lat="47.31894" lon="-1.62117">
        <ele>52.5</ele>
        <time>2014-05-18T07:47:06Z</time>
      </trkpt>
      <trkpt lat="47.3188" lon="-1.62117">
        <ele>54.5</ele>
        <time>2014-05-18T07:47:18Z</time>
      </trkpt>
      <trkpt lat="47.31866" lon="-1.6211">
        <ele>56.5</ele>
        <time>2014-05-18T07:47:29Z</time>
      </trkpt>
      <trkpt lat="47.31865" lon="-1.62094">
        <ele>55.5</ele>
        <time>2014-05-18T07:47:33Z</time>
      </trkpt>
      <trkpt lat="47.31865" lon="-1.62077">
        <ele>50.5</ele>
        <time>2014-05-18T07:47:37Z</time>
      </trkpt>
      <trkpt lat="47.31855" lon="-1.62075">
        <ele>46.5</ele>
        <time>2014-05-18T07:48:02Z</time>
      </trkpt>
      <trkpt lat="47.31848" lon="-1.62089">
        <ele>48.5</ele>
        <time>2014-05-18T07:48:10Z</time>
      </trkpt>
      <trkpt lat="47.31844" lon="-1.62103">
        <ele>49.5</ele>
        <time>2014-05-18T07:48:14Z</time>
      </trkpt>
      <trkpt lat="47.3185" lon="-1.62118">
        <ele>46.5</ele>
        <time>2014-05-18T07:48:25Z</time>
      </trkpt>
      <trkpt lat="47.31859" lon="-1.62138">
        <ele>49.5</ele>
        <time>2014-05-18T07:48:33Z</time>
      </trkpt>
      <trkpt lat="47.31874" lon="-1.62153">
        <ele>51.5</ele>
        <time>2014-05-18T07:48:41Z</time>
      </trkpt>
      <trkpt lat="47.31872" lon="-1.62181">
        <ele>57.5</ele>
        <time>2014-05-18T07:48:50Z</time>
      </trkpt>
      <trkpt lat="47.31871" lon="-1.62199">
        <ele>59.5</ele>
        <time>2014-05-18T07:48:54Z</time>
      </trkpt>
      <trkpt lat="47.3187" lon="-1.62218">
        <ele>58.5</ele>
        <time>2014-05-18T07:48:58Z</time>
      </trkpt>
      <trkpt lat="47.31869" lon="-1.62235">
        <ele>60.5</ele>
        <time>2014-05-18T07:49:02Z</time>
      </trkpt>
      <trkpt lat="47.31869" lon="-1.62253">
        <ele>63.5</ele>
        <time>2014-05-18T07:49:06Z</time>
      </trkpt>
      <trkpt lat="47.31871" lon="-1.62272">
        <ele>62.5</ele>
        <time>2014-05-18T07:49:10Z</time>
      </trkpt>
      <trkpt lat="47.31872" lon="-1.62287">
        <ele>65.5</ele>
        <time>2014-05-18T07:49:13Z</time>
      </trkpt>
      <trkpt lat="47.31874" lon="-1.62308">
        <ele>66.5</ele>
        <time>2014-05-18T07:49:17Z</time>
      </trkpt>
      <trkpt lat="47.31872" lon="-1.62323">
        <ele>62.5</ele>
        <time>2014-05-18T07:49:21Z</time>
      </trkpt>
      <trkpt lat="47.31874" lon="-1.62345">
        <ele>61.5</ele>
        <time>2014-05-18T07:49:25Z</time>
      </trkpt>
      <trkpt lat="47.3188" lon="-1.62362">
        <ele>53.5</ele>
        <time>2014-05-18T07:49:29Z</time>
      </trkpt>
      <trkpt lat="47.31882" lon="-1.62348">
        <ele>48.5</ele>
        <time>2014-05-18T07:49:37Z</time>
      </trkpt>
      <trkpt lat="47.31879" lon="-1.62334">
        <ele>47.5</ele>
        <time>2014-05-18T07:49:46Z</time>
      </trkpt>
      <trkpt lat="47.31897" lon="-1.62325">
        <ele>56.5</ele>
        <time>2014-05-18T07:49:54Z</time>
      </trkpt>
      <trkpt lat="47.3192" lon="-1.62307">
        <ele>54.5</ele>
        <time>2014-05-18T07:50:02Z</time>
      </trkpt>
      <trkpt lat="47.3193" lon="-1.62297">
        <ele>49.5</ele>
        <time>2014-05-18T07:50:06Z</time>
      </trkpt>
      <trkpt lat="47.31939" lon="-1.62301">
        <ele>48.5</ele>
        <time>2014-05-18T07:50:10Z</time>
      </trkpt>
      <trkpt lat="47.31945" lon="-1.6232">
        <ele>53.5</ele>
        <time>2014-05-18T07:50:17Z</time>
      </trkpt>
      <trkpt lat="47.31945" lon="-1.62338">
        <ele>53.5</ele>
        <time>2014-05-18T07:50:25Z</time>
      </trkpt>
      <trkpt lat="47.31934" lon="-1.62348">
        <ele>58.5</ele>
        <time>2014-05-18T07:50:34Z</time>
      </trkpt>
      <trkpt lat="47.31918" lon="-1.62364">
        <ele>63.5</ele>
        <time>2014-05-18T07:50:42Z</time>
      </trkpt>
      <trkpt lat="47.31907" lon="-1.62377">
        <ele>57.5</ele>
        <time>2014-05-18T07:50:46Z</time>
      </trkpt>
      <trkpt lat="47.31896" lon="-1.62388">
        <ele>60.5</ele>
        <time>2014-05-18T07:50:50Z</time>
      </trkpt>
      <trkpt lat="47.31884" lon="-1.62395">
        <ele>56.5</ele>
        <time>2014-05-18T07:50:54Z</time>
      </trkpt>
      <trkpt lat="47.31874" lon="-1.62408">
        <ele>55.5</ele>
        <time>2014-05-18T07:51:01Z</time>
      </trkpt>
      <trkpt lat="47.31874" lon="-1.62421">
        <ele>36.5</ele>
        <time>2014-05-18T07:53:41Z</time>
      </trkpt>
      <trkpt lat="47.31875" lon="-1.62436">
        <ele>37.5</ele>
        <time>2014-05-18T07:55:09Z</time>
      </trkpt>
      <trkpt lat="47.3187" lon="-1.62423">
        <ele>38.5</ele>
        <time>2014-05-18T07:55:42Z</time>
      </trkpt>
      <trkpt lat="47.31863" lon="-1.62412">
        <ele>36.5</ele>
        <time>2014-05-18T07:58:22Z</time>
      </trkpt>
      <trkpt lat="47.31871" lon="-1.62397">
        <ele>33.5</ele>
        <time>2014-05-18T07:58:37Z</time>
      </trkpt>
      <trkpt lat="47.31865" lon="-1.62382">
        <ele>39.5</ele>
        <time>2014-05-18T07:58:45Z</time>
      </trkpt>
      <trkpt lat="47.31863" lon="-1.62368">
        <ele>45.5</ele>
        <time>2014-05-18T07:58:54Z</time>
      </trkpt>
      <trkpt lat="47.31861" lon="-1.6235">
        <ele>47.5</ele>
        <time>2014-05-18T07:59:02Z</time>
      </trkpt>
      <trkpt lat="47.31857" lon="-1.62336">
        <ele>49.5</ele>
        <time>2014-05-18T07:59:10Z</time>
      </trkpt>
      <trkpt lat="47.3185" lon="-1.62322">
        <ele>54.5</ele>
        <time>2014-05-18T07:59:17Z</time>
      </trkpt>
      <trkpt lat="47.31843" lon="-1.62306">
        <ele>57.5</ele>
        <time>2014-05-18T07:59:25Z</time>
      </trkpt>
      <trkpt lat="47.3184" lon="-1.62286">
        <ele>57.5</ele>
        <time>2014-05-18T07:59:38Z</time>
      </trkpt>
      <trkpt lat="47.31836" lon="-1.62273">
        <ele>59.5</ele>
        <time>2014-05-18T07:59:42Z</time>
      </trkpt>
      <trkpt lat="47.31831" lon="-1.62258">
        <ele>62.5</ele>
        <time>2014-05-18T07:59:46Z</time>
      </trkpt>
      <trkpt lat="47.31826" lon="-1.62228">
        <ele>61.5</ele>
        <time>2014-05-18T07:59:50Z</time>
      </trkpt>
      <trkpt lat="47.31823" lon="-1.62214">
        <ele>61.5</ele>
        <time>2014-05-18T07:59:54Z</time>
      </trkpt>
      <trkpt lat="47.31819" lon="-1.62194">
        <ele>60.5</ele>
        <time>2014-05-18T07:59:58Z</time>
      </trkpt>
      <trkpt lat="47.31815" lon="-1.62171">
        <ele>58.5</ele>
        <time>2014-05-18T08:00:01Z</time>
      </trkpt>
      <trkpt lat="47.31809" lon="-1.62151">
        <ele>56.5</ele>
        <time>2014-05-18T08:00:05Z</time>
      </trkpt>
      <trkpt lat="47.31806" lon="-1.62127">
        <ele>52.5</ele>
        <time>2014-05-18T08:00:09Z</time>
      </trkpt>
      <trkpt lat="47.318" lon="-1.62106">
        <ele>49.5</ele>
        <time>2014-05-18T08:00:13Z</time>
      </trkpt>
      <trkpt lat="47.31796" lon="-1.62088">
        <ele>46.5</ele>
        <time>2014-05-18T08:00:17Z</time>
      </trkpt>
      <trkpt lat="47.31795" lon="-1.62066">
        <ele>44.5</ele>
        <time>2014-05-18T08:00:34Z</time>
      </trkpt>
      <trkpt lat="47.31791" lon="-1.62042">
        <ele>46.5</ele>
        <time>2014-05-18T08:00:42Z</time>
      </trkpt>
      <trkpt lat="47.31794" lon="-1.62024">
        <ele>40.5</ele>
        <time>2014-05-18T08:00:50Z</time>
      </trkpt>
      <trkpt lat="47.31801" lon="-1.62009">
        <ele>39.5</ele>
        <time>2014-05-18T08:01:05Z</time>
      </trkpt>
      <trkpt lat="47.31812" lon="-1.61999">
        <ele>41.5</ele>
        <time>2014-05-18T08:01:13Z</time>
      </trkpt>
      <trkpt lat="47.31821" lon="-1.61985">
        <ele>40.5</ele>
        <time>2014-05-18T08:01:17Z</time>
      </trkpt>
      <trkpt lat="47.31825" lon="-1.61969">
        <ele>41.5</ele>
        <time>2014-05-18T08:01:21Z</time>
      </trkpt>
      <trkpt lat="47.31825" lon="-1.61956">
        <ele>41.5</ele>
        <time>2014-05-18T08:01:30Z</time>
      </trkpt>
      <trkpt lat="47.31817" lon="-1.61945">
        <ele>48.5</ele>
        <time>2014-05-18T08:01:49Z</time>
      </trkpt>
      <trkpt lat="47.31812" lon="-1.61934">
        <ele>49.5</ele>
        <time>2014-05-18T08:02:01Z</time>
      </trkpt>
      <trkpt lat="47.31821" lon="-1.61923">
        <ele>46.5</ele>
        <time>2014-05-18T08:02:18Z</time>
      </trkpt>
      <trkpt lat="47.31838" lon="-1.61916">
        <ele>46.5</ele>
        <time>2014-05-18T08:02:30Z</time>
      </trkpt>
      <trkpt lat="47.31844" lon="-1.619">
        <ele>45.5</ele>
        <time>2014-05-18T08:02:37Z</time>
      </trkpt>
      <trkpt lat="47.31849" lon="-1.61889">
        <ele>42.5</ele>
        <time>2014-05-18T08:02:41Z</time>
      </trkpt>
      <trkpt lat="47.31851" lon="-1.61875">
        <ele>41.5</ele>
        <time>2014-05-18T08:02:45Z</time>
      </trkpt>
      <trkpt lat="47.31855" lon="-1.61862">
        <ele>37.5</ele>
        <time>2014-05-18T08:03:25Z</time>
      </trkpt>
      <trkpt lat="47.31858" lon="-1.6184">
        <ele>39.5</ele>
        <time>2014-05-18T08:03:33Z</time>
      </trkpt>
      <trkpt lat="47.31856" lon="-1.61823">
        <ele>40.5</ele>
        <time>2014-05-18T08:03:41Z</time>
      </trkpt>
      <trkpt lat="47.31854" lon="-1.61846">
        <ele>43.5</ele>
        <time>2014-05-18T08:04:02Z</time>
      </trkpt>
      <trkpt lat="47.31844" lon="-1.61864">
        <ele>49.5</ele>
        <time>2014-05-18T08:04:10Z</time>
      </trkpt>
      <trkpt lat="47.31839" lon="-1.61878">
        <ele>53.5</ele>
        <time>2014-05-18T08:04:14Z</time>
      </trkpt>
      <trkpt lat="47.31833" lon="-1.61892">
        <ele>58.5</ele>
        <time>2014-05-18T08:04:18Z</time>
      </trkpt>
      <trkpt lat="47.31826" lon="-1.61873">
        <ele>55.5</ele>
        <time>2014-05-18T08:04:41Z</time>
      </trkpt>
      <trkpt lat="47.3184" lon="-1.61863">
        <ele>56.5</ele>
        <time>2014-05-18T08:04:50Z</time>
      </trkpt>
      <trkpt lat="47.31845" lon="-1.6185">
        <ele>54.5</ele>
        <time>2014-05-18T08:04:54Z</time>
      </trkpt>
      <trkpt lat="47.31851" lon="-1.61823">
        <ele>52.5</ele>
        <time>2014-05-18T08:05:02Z</time>
      </trkpt>
      <trkpt lat="47.31864" lon="-1.61794">
        <ele>49.5</ele>
        <time>2014-05-18T08:05:06Z</time>
      </trkpt>
      <trkpt lat="47.31867" lon="-1.61772">
        <ele>48.5</ele>
        <time>2014-05-18T08:05:09Z</time>
      </trkpt>
      <trkpt lat="47.31874" lon="-1.6174">
        <ele>50.5</ele>
        <time>2014-05-18T08:05:13Z</time>
      </trkpt>
      <trkpt lat="47.31889" lon="-1.61704">
        <ele>49.5</ele>
        <time>2014-05-18T08:05:17Z</time>
      </trkpt>
      <trkpt lat="47.31908" lon="-1.61671">
        <ele>45.5</ele>
        <time>2014-05-18T08:05:21Z</time>
      </trkpt>
      <trkpt lat="47.31935" lon="-1.61651">
        <ele>40.5</ele>
        <time>2014-05-18T08:05:25Z</time>
      </trkpt>
      <trkpt lat="47.31966" lon="-1.61636">
        <ele>35.5</ele>
        <time>2014-05-18T08:05:29Z</time>
      </trkpt>
      <trkpt lat="47.32" lon="-1.61622">
        <ele>32.5</ele>
        <time>2014-05-18T08:05:33Z</time>
      </trkpt>
      <trkpt lat="47.3203" lon="-1.61612">
        <ele>30.5</ele>
        <time>2014-05-18T08:05:38Z</time>
      </trkpt>
      <trkpt lat="47.32053" lon="-1.61605">
        <ele>31.5</ele>
        <time>2014-05-18T08:05:42Z</time>
      </trkpt>
      <trkpt lat="47.32076" lon="-1.61605">
        <ele>30.5</ele>
        <time>2014-05-18T08:05:46Z</time>
      </trkpt>
      <trkpt lat="47.32088" lon="-1.61606">
        <ele>31.5</ele>
        <time>2014-05-18T08:05:50Z</time>
      </trkpt>
      <trkpt lat="47.32099" lon="-1.61614">
        <ele>30.5</ele>
        <time>2014-05-18T08:05:54Z</time>
      </trkpt>
      <trkpt lat="47.3211" lon="-1.61625">
        <ele>31.5</ele>
        <time>2014-05-18T08:05:58Z</time>
      </trkpt>
      <trkpt lat="47.32117" lon="-1.61632">
        <ele>32.5</ele>
        <time>2014-05-18T08:06:01Z</time>
      </trkpt>
      <trkpt lat="47.32127" lon="-1.61643">
        <ele>32.5</ele>
        <time>2014-05-18T08:06:05Z</time>
      </trkpt>
      <trkpt lat="47.32136" lon="-1.61655">
        <ele>32.5</ele>
        <time>2014-05-18T08:06:09Z</time>
      </trkpt>
      <trkpt lat="47.32147" lon="-1.61667">
        <ele>32.5</ele>
        <time>2014-05-18T08:06:13Z</time>
      </trkpt>
      <trkpt lat="47.32158" lon="-1.61679">
        <ele>34.5</ele>
        <time>2014-05-18T08:06:17Z</time>
      </trkpt>
      <trkpt lat="47.32169" lon="-1.61692">
        <ele>34.5</ele>
        <time>2014-05-18T08:06:21Z</time>
      </trkpt>
      <trkpt lat="47.32181" lon="-1.61704">
        <ele>36.5</ele>
        <time>2014-05-18T08:06:25Z</time>
      </trkpt>
      <trkpt lat="47.32192" lon="-1.61717">
        <ele>36.5</ele>
        <time>2014-05-18T08:06:30Z</time>
      </trkpt>
      <trkpt lat="47.32204" lon="-1.61729">
        <ele>36.5</ele>
        <time>2014-05-18T08:06:34Z</time>
      </trkpt>
      <trkpt lat="47.32217" lon="-1.61736">
        <ele>38.5</ele>
        <time>2014-05-18T08:06:38Z</time>
      </trkpt>
      <trkpt lat="47.32231" lon="-1.61736">
        <ele>39.5</ele>
        <time>2014-05-18T08:06:42Z</time>
      </trkpt>
      <trkpt lat="47.32242" lon="-1.61735">
        <ele>41.5</ele>
        <time>2014-05-18T08:06:46Z</time>
      </trkpt>
      <trkpt lat="47.32255" lon="-1.61729">
        <ele>41.5</ele>
        <time>2014-05-18T08:06:50Z</time>
      </trkpt>
      <trkpt lat="47.32266" lon="-1.61721">
        <ele>42.5</ele>
        <time>2014-05-18T08:06:54Z</time>
      </trkpt>
      <trkpt lat="47.32275" lon="-1.61713">
        <ele>41.5</ele>
        <time>2014-05-18T08:06:57Z</time>
      </trkpt>
      <trkpt lat="47.32281" lon="-1.61698">
        <ele>42.5</ele>
        <time>2014-05-18T08:07:01Z</time>
      </trkpt>
      <trkpt lat="47.32292" lon="-1.61687">
        <ele>41.5</ele>
        <time>2014-05-18T08:07:05Z</time>
      </trkpt>
      <trkpt lat="47.32303" lon="-1.61677">
        <ele>42.5</ele>
        <time>2014-05-18T08:07:09Z</time>
      </trkpt>
      <trkpt lat="47.32314" lon="-1.61667">
        <ele>42.5</ele>
        <time>2014-05-18T08:07:13Z</time>
      </trkpt>
      <trkpt lat="47.32325" lon="-1.61657">
        <ele>43.5</ele>
        <time>2014-05-18T08:07:17Z</time>
      </trkpt>
      <trkpt lat="47.32335" lon="-1.61646">
        <ele>44.5</ele>
        <time>2014-05-18T08:07:22Z</time>
      </trkpt>
      <trkpt lat="47.32347" lon="-1.61637">
        <ele>44.5</ele>
        <time>2014-05-18T08:07:26Z</time>
      </trkpt>
      <trkpt lat="47.32359" lon="-1.61627">
        <ele>45.5</ele>
        <time>2014-05-18T08:07:30Z</time>
      </trkpt>
      <trkpt lat="47.32371" lon="-1.61616">
        <ele>50.5</ele>
        <time>2014-05-18T08:07:34Z</time>
      </trkpt>
      <trkpt lat="47.3238" lon="-1.61606">
        <ele>50.5</ele>
        <time>2014-05-18T08:07:38Z</time>
      </trkpt>
      <trkpt lat="47.32391" lon="-1.61597">
        <ele>53.5</ele>
        <time>2014-05-18T08:07:42Z</time>
      </trkpt>
      <trkpt lat="47.324" lon="-1.61587">
        <ele>58.5</ele>
        <time>2014-05-18T08:07:46Z</time>
      </trkpt>
      <trkpt lat="47.32411" lon="-1.61578">
        <ele>57.5</ele>
        <time>2014-05-18T08:07:53Z</time>
      </trkpt>
      <trkpt lat="47.32428" lon="-1.6156">
        <ele>57.5</ele>
        <time>2014-05-18T08:07:57Z</time>
      </trkpt>
      <trkpt lat="47.3244" lon="-1.61548">
        <ele>56.5</ele>
        <time>2014-05-18T08:08:01Z</time>
      </trkpt>
      <trkpt lat="47.3245" lon="-1.61539">
        <ele>56.5</ele>
        <time>2014-05-18T08:08:05Z</time>
      </trkpt>
      <trkpt lat="47.3246" lon="-1.6153">
        <ele>56.5</ele>
        <time>2014-05-18T08:08:09Z</time>
      </trkpt>
      <trkpt lat="47.32468" lon="-1.61522">
        <ele>56.5</ele>
        <time>2014-05-18T08:08:14Z</time>
      </trkpt>
      <trkpt lat="47.32452" lon="-1.61508">
        <ele>56.5</ele>
        <time>2014-05-18T08:08:22Z</time>
      </trkpt>
      <trkpt lat="47.32439" lon="-1.61504">
        <ele>56.5</ele>
        <time>2014-05-18T08:08:26Z</time>
      </trkpt>
      <trkpt lat="47.32426" lon="-1.61498">
        <ele>57.5</ele>
        <time>2014-05-18T08:08:30Z</time>
      </trkpt>
      <trkpt lat="47.32411" lon="-1.61492">
        <ele>58.5</ele>
        <time>2014-05-18T08:08:34Z</time>
      </trkpt>
      <trkpt lat="47.32401" lon="-1.61487">
        <ele>59.5</ele>
        <time>2014-05-18T08:08:37Z</time>
      </trkpt>
      <trkpt lat="47.32388" lon="-1.61478">
        <ele>59.5</ele>
        <time>2014-05-18T08:08:41Z</time>
      </trkpt>
      <trkpt lat="47.32374" lon="-1.61473">
        <ele>57.5</ele>
        <time>2014-05-18T08:08:53Z</time>
      </trkpt>
      <trkpt lat="47.32365" lon="-1.61468">
        <ele>57.5</ele>
        <time>2014-05-18T08:09:02Z</time>
      </trkpt>
      <trkpt lat="47.32362" lon="-1.61448">
        <ele>57.5</ele>
        <time>2014-05-18T08:09:06Z</time>
      </trkpt>
      <trkpt lat="47.3235" lon="-1.61423">
        <ele>56.5</ele>
        <time>2014-05-18T08:09:10Z</time>
      </trkpt>
      <trkpt lat="47.32334" lon="-1.61408">
        <ele>55.5</ele>
        <time>2014-05-18T08:09:14Z</time>
      </trkpt>
      <trkpt lat="47.32316" lon="-1.61393">
        <ele>54.5</ele>
        <time>2014-05-18T08:09:18Z</time>
      </trkpt>
      <trkpt lat="47.32299" lon="-1.61366">
        <ele>53.5</ele>
        <time>2014-05-18T08:09:22Z</time>
      </trkpt>
      <trkpt lat="47.3229" lon="-1.61342">
        <ele>52.5</ele>
        <time>2014-05-18T08:09:25Z</time>
      </trkpt>
      <trkpt lat="47.32276" lon="-1.61308">
        <ele>50.5</ele>
        <time>2014-05-18T08:09:29Z</time>
      </trkpt>
      <trkpt lat="47.3226" lon="-1.61273">
        <ele>49.5</ele>
        <time>2014-05-18T08:09:33Z</time>
      </trkpt>
      <trkpt lat="47.32245" lon="-1.61237">
        <ele>48.5</ele>
        <time>2014-05-18T08:09:37Z</time>
      </trkpt>
      <trkpt lat="47.3223" lon="-1.61199">
        <ele>47.5</ele>
        <time>2014-05-18T08:09:41Z</time>
      </trkpt>
      <trkpt lat="47.32212" lon="-1.61164">
        <ele>46.5</ele>
        <time>2014-05-18T08:09:46Z</time>
      </trkpt>
      <trkpt lat="47.3219" lon="-1.61132">
        <ele>44.5</ele>
        <time>2014-05-18T08:09:50Z</time>
      </trkpt>
      <trkpt lat="47.32162" lon="-1.61101">
        <ele>43.5</ele>
        <time>2014-05-18T08:09:54Z</time>
      </trkpt>
      <trkpt lat="47.32129" lon="-1.61052">
        <ele>39.5</ele>
        <time>2014-05-18T08:09:58Z</time>
      </trkpt>
      <trkpt lat="47.32119" lon="-1.61002">
        <ele>38.5</ele>
        <time>2014-05-18T08:10:02Z</time>
      </trkpt>
      <trkpt lat="47.32109" lon="-1.60957">
        <ele>36.5</ele>
        <time>2014-05-18T08:10:06Z</time>
      </trkpt>
      <trkpt lat="47.32102" lon="-1.60913">
        <ele>35.5</ele>
        <time>2014-05-18T08:10:10Z</time>
      </trkpt>
      <trkpt lat="47.3208" lon="-1.60896">
        <ele>33.5</ele>
        <time>2014-05-18T08:10:14Z</time>
      </trkpt>
      <trkpt lat="47.32061" lon="-1.60908">
        <ele>34.5</ele>
        <time>2014-05-18T08:10:18Z</time>
      </trkpt>
      <trkpt lat="47.32037" lon="-1.60917">
        <ele>33.5</ele>
        <time>2014-05-18T08:10:21Z</time>
      </trkpt>
      <trkpt lat="47.32023" lon="-1.60902">
        <ele>34.5</ele>
        <time>2014-05-18T08:10:25Z</time>
      </trkpt>
      <trkpt lat="47.3201" lon="-1.60872">
        <ele>32.5</ele>
        <time>2014-05-18T08:10:29Z</time>
      </trkpt>
      <trkpt lat="47.31997" lon="-1.60839">
        <ele>30.5</ele>
        <time>2014-05-18T08:10:33Z</time>
      </trkpt>
      <trkpt lat="47.31984" lon="-1.60802">
        <ele>28.5</ele>
        <time>2014-05-18T08:10:37Z</time>
      </trkpt>
      <trkpt lat="47.31968" lon="-1.60766">
        <ele>24.5</ele>
        <time>2014-05-18T08:10:41Z</time>
      </trkpt>
      <trkpt lat="47.31948" lon="-1.60734">
        <ele>24.5</ele>
        <time>2014-05-18T08:10:46Z</time>
      </trkpt>
      <trkpt lat="47.31939" lon="-1.60707">
        <ele>24.5</ele>
        <time>2014-05-18T08:10:50Z</time>
      </trkpt>
      <trkpt lat="47.31934" lon="-1.60677">
        <ele>27.5</ele>
        <time>2014-05-18T08:10:54Z</time>
      </trkpt>
      <trkpt lat="47.3193" lon="-1.6066">
        <ele>27.5</ele>
        <time>2014-05-18T08:10:58Z</time>
      </trkpt>
      <trkpt lat="47.31931" lon="-1.60642">
        <ele>29.5</ele>
        <time>2014-05-18T08:11:02Z</time>
      </trkpt>
      <trkpt lat="47.31931" lon="-1.60626">
        <ele>30.5</ele>
        <time>2014-05-18T08:11:06Z</time>
      </trkpt>
      <trkpt lat="47.31933" lon="-1.60611">
        <ele>29.5</ele>
        <time>2014-05-18T08:11:10Z</time>
      </trkpt>
      <trkpt lat="47.31931" lon="-1.60586">
        <ele>30.5</ele>
        <time>2014-05-18T08:11:17Z</time>
      </trkpt>
      <trkpt lat="47.31928" lon="-1.60572">
        <ele>31.5</ele>
        <time>2014-05-18T08:11:21Z</time>
      </trkpt>
      <trkpt lat="47.31925" lon="-1.60558">
        <ele>31.5</ele>
        <time>2014-05-18T08:11:25Z</time>
      </trkpt>
      <trkpt lat="47.31924" lon="-1.60544">
        <ele>33.5</ele>
        <time>2014-05-18T08:11:29Z</time>
      </trkpt>
      <trkpt lat="47.3192" lon="-1.60531">
        <ele>34.5</ele>
        <time>2014-05-18T08:11:33Z</time>
      </trkpt>
      <trkpt lat="47.31912" lon="-1.6052">
        <ele>40.5</ele>
        <time>2014-05-18T08:11:42Z</time>
      </trkpt>
      <trkpt lat="47.31905" lon="-1.60501">
        <ele>44.5</ele>
        <time>2014-05-18T08:11:50Z</time>
      </trkpt>
      <trkpt lat="47.31893" lon="-1.60475">
        <ele>49.5</ele>
        <time>2014-05-18T08:12:01Z</time>
      </trkpt>
      <trkpt lat="47.31888" lon="-1.60457">
        <ele>47.5</ele>
        <time>2014-05-18T08:12:09Z</time>
      </trkpt>
      <trkpt lat="47.31883" lon="-1.60438">
        <ele>48.5</ele>
        <time>2014-05-18T08:12:17Z</time>
      </trkpt>
      <trkpt lat="47.31877" lon="-1.60416">
        <ele>49.5</ele>
        <time>2014-05-18T08:12:26Z</time>
      </trkpt>
      <trkpt lat="47.31873" lon="-1.60397">
        <ele>49.5</ele>
        <time>2014-05-18T08:12:30Z</time>
      </trkpt>
      <trkpt lat="47.3187" lon="-1.60383">
        <ele>50.5</ele>
        <time>2014-05-18T08:12:34Z</time>
      </trkpt>
      <trkpt lat="47.31862" lon="-1.6036">
        <ele>52.5</ele>
        <time>2014-05-18T08:12:42Z</time>
      </trkpt>
      <trkpt lat="47.31856" lon="-1.60349">
        <ele>52.5</ele>
        <time>2014-05-18T08:12:46Z</time>
      </trkpt>
      <trkpt lat="47.31859" lon="-1.60335">
        <ele>52.5</ele>
        <time>2014-05-18T08:12:50Z</time>
      </trkpt>
      <trkpt lat="47.31873" lon="-1.60311">
        <ele>52.5</ele>
        <time>2014-05-18T08:12:57Z</time>
      </trkpt>
      <trkpt lat="47.31878" lon="-1.60293">
        <ele>53.5</ele>
        <time>2014-05-18T08:13:01Z</time>
      </trkpt>
      <trkpt lat="47.31883" lon="-1.60274">
        <ele>52.5</ele>
        <time>2014-05-18T08:13:05Z</time>
      </trkpt>
      <trkpt lat="47.31885" lon="-1.60255">
        <ele>52.5</ele>
        <time>2014-05-18T08:13:09Z</time>
      </trkpt>
      <trkpt lat="47.31887" lon="-1.60235">
        <ele>52.5</ele>
        <time>2014-05-18T08:13:13Z</time>
      </trkpt>
      <trkpt lat="47.31888" lon="-1.60214">
        <ele>52.5</ele>
        <time>2014-05-18T08:13:17Z</time>
      </trkpt>
      <trkpt lat="47.31885" lon="-1.60191">
        <ele>53.5</ele>
        <time>2014-05-18T08:13:22Z</time>
      </trkpt>
      <trkpt lat="47.31882" lon="-1.60163">
        <ele>53.5</ele>
        <time>2014-05-18T08:13:26Z</time>
      </trkpt>
      <trkpt lat="47.3188" lon="-1.60136">
        <ele>51.5</ele>
        <time>2014-05-18T08:13:30Z</time>
      </trkpt>
      <trkpt lat="47.31876" lon="-1.60109">
        <ele>51.5</ele>
        <time>2014-05-18T08:13:34Z</time>
      </trkpt>
      <trkpt lat="47.31871" lon="-1.6008">
        <ele>50.5</ele>
        <time>2014-05-18T08:13:38Z</time>
      </trkpt>
      <trkpt lat="47.31866" lon="-1.6005">
        <ele>50.5</ele>
        <time>2014-05-18T08:13:42Z</time>
      </trkpt>
      <trkpt lat="47.31859" lon="-1.60017">
        <ele>48.5</ele>
        <time>2014-05-18T08:13:46Z</time>
      </trkpt>
      <trkpt lat="47.31853" lon="-1.5999">
        <ele>48.5</ele>
        <time>2014-05-18T08:13:49Z</time>
      </trkpt>
      <trkpt lat="47.31846" lon="-1.59959">
        <ele>47.5</ele>
        <time>2014-05-18T08:13:53Z</time>
      </trkpt>
      <trkpt lat="47.31846" lon="-1.59944">
        <ele>46.5</ele>
        <time>2014-05-18T08:13:57Z</time>
      </trkpt>
      <trkpt lat="47.31863" lon="-1.59936">
        <ele>49.5</ele>
        <time>2014-05-18T08:14:41Z</time>
      </trkpt>
      <trkpt lat="47.31876" lon="-1.59933">
        <ele>49.5</ele>
        <time>2014-05-18T08:14:45Z</time>
      </trkpt>
      <trkpt lat="47.3189" lon="-1.59932">
        <ele>49.5</ele>
        <time>2014-05-18T08:14:49Z</time>
      </trkpt>
      <trkpt lat="47.31904" lon="-1.59934">
        <ele>50.5</ele>
        <time>2014-05-18T08:14:53Z</time>
      </trkpt>
      <trkpt lat="47.31915" lon="-1.59936">
        <ele>51.5</ele>
        <time>2014-05-18T08:14:57Z</time>
      </trkpt>
      <trkpt lat="47.31934" lon="-1.59944">
        <ele>49.5</ele>
        <time>2014-05-18T08:15:01Z</time>
      </trkpt>
      <trkpt lat="47.31948" lon="-1.59951">
        <ele>49.5</ele>
        <time>2014-05-18T08:15:06Z</time>
      </trkpt>
      <trkpt lat="47.31961" lon="-1.5996">
        <ele>51.5</ele>
        <time>2014-05-18T08:15:10Z</time>
      </trkpt>
      <trkpt lat="47.31974" lon="-1.59976">
        <ele>51.5</ele>
        <time>2014-05-18T08:15:14Z</time>
      </trkpt>
      <trkpt lat="47.31985" lon="-1.59988">
        <ele>58.5</ele>
        <time>2014-05-18T08:15:18Z</time>
      </trkpt>
      <trkpt lat="47.32001" lon="-1.59999">
        <ele>58.5</ele>
        <time>2014-05-18T08:15:22Z</time>
      </trkpt>
      <trkpt lat="47.32014" lon="-1.60005">
        <ele>58.5</ele>
        <time>2014-05-18T08:15:26Z</time>
      </trkpt>
      <trkpt lat="47.3204" lon="-1.60007">
        <ele>57.5</ele>
        <time>2014-05-18T08:15:30Z</time>
      </trkpt>
      <trkpt lat="47.3206" lon="-1.60004">
        <ele>57.5</ele>
        <time>2014-05-18T08:15:34Z</time>
      </trkpt>
      <trkpt lat="47.32078" lon="-1.60001">
        <ele>53.5</ele>
        <time>2014-05-18T08:15:38Z</time>
      </trkpt>
      <trkpt lat="47.32093" lon="-1.59999">
        <ele>52.5</ele>
        <time>2014-05-18T08:15:41Z</time>
      </trkpt>
      <trkpt lat="47.32108" lon="-1.59997">
        <ele>51.5</ele>
        <time>2014-05-18T08:15:45Z</time>
      </trkpt>
      <trkpt lat="47.32135" lon="-1.5999">
        <ele>50.5</ele>
        <time>2014-05-18T08:15:49Z</time>
      </trkpt>
      <trkpt lat="47.32154" lon="-1.59988">
        <ele>53.5</ele>
        <time>2014-05-18T08:15:53Z</time>
      </trkpt>
      <trkpt lat="47.32172" lon="-1.59989">
        <ele>54.5</ele>
        <time>2014-05-18T08:15:57Z</time>
      </trkpt>
      <trkpt lat="47.32191" lon="-1.59989">
        <ele>56.5</ele>
        <time>2014-05-18T08:16:01Z</time>
      </trkpt>
      <trkpt lat="47.32211" lon="-1.59985">
        <ele>55.5</ele>
        <time>2014-05-18T08:16:05Z</time>
      </trkpt>
      <trkpt lat="47.32232" lon="-1.59983">
        <ele>55.5</ele>
        <time>2014-05-18T08:16:09Z</time>
      </trkpt>
      <trkpt lat="47.32252" lon="-1.59982">
        <ele>54.5</ele>
        <time>2014-05-18T08:16:13Z</time>
      </trkpt>
      <trkpt lat="47.32272" lon="-1.59976">
        <ele>54.5</ele>
        <time>2014-05-18T08:16:17Z</time>
      </trkpt>
      <trkpt lat="47.3229" lon="-1.5997">
        <ele>55.5</ele>
        <time>2014-05-18T08:16:22Z</time>
      </trkpt>
      <trkpt lat="47.32307" lon="-1.59973">
        <ele>54.5</ele>
        <time>2014-05-18T08:16:26Z</time>
      </trkpt>
      <trkpt lat="47.32327" lon="-1.59961">
        <ele>49.5</ele>
        <time>2014-05-18T08:16:30Z</time>
      </trkpt>
      <trkpt lat="47.32344" lon="-1.59952">
        <ele>47.5</ele>
        <time>2014-05-18T08:16:34Z</time>
      </trkpt>
      <trkpt lat="47.3236" lon="-1.59951">
        <ele>44.5</ele>
        <time>2014-05-18T08:16:38Z</time>
      </trkpt>
      <trkpt lat="47.32379" lon="-1.59939">
        <ele>45.5</ele>
        <time>2014-05-18T08:16:42Z</time>
      </trkpt>
      <trkpt lat="47.324" lon="-1.59926">
        <ele>45.5</ele>
        <time>2014-05-18T08:16:46Z</time>
      </trkpt>
      <trkpt lat="47.32415" lon="-1.59915">
        <ele>44.5</ele>
        <time>2014-05-18T08:16:49Z</time>
      </trkpt>
      <trkpt lat="47.32431" lon="-1.59903">
        <ele>51.5</ele>
        <time>2014-05-18T08:16:53Z</time>
      </trkpt>
      <trkpt lat="47.32439" lon="-1.59886">
        <ele>52.5</ele>
        <time>2014-05-18T08:16:57Z</time>
      </trkpt>
      <trkpt lat="47.32453" lon="-1.59865">
        <ele>49.5</ele>
        <time>2014-05-18T08:17:01Z</time>
      </trkpt>
      <trkpt lat="47.32466" lon="-1.59847">
        <ele>52.5</ele>
        <time>2014-05-18T08:17:05Z</time>
      </trkpt>
      <trkpt lat="47.32482" lon="-1.59832">
        <ele>54.5</ele>
        <time>2014-05-18T08:17:10Z</time>
      </trkpt>
      <trkpt lat="47.32496" lon="-1.59817">
        <ele>54.5</ele>
        <time>2014-05-18T08:17:14Z</time>
      </trkpt>
      <trkpt lat="47.32516" lon="-1.59799">
        <ele>54.5</ele>
        <time>2014-05-18T08:17:18Z</time>
      </trkpt>
      <trkpt lat="47.32533" lon="-1.59784">
        <ele>53.5</ele>
        <time>2014-05-18T08:17:22Z</time>
      </trkpt>
      <trkpt lat="47.32552" lon="-1.59763">
        <ele>50.5</ele>
        <time>2014-05-18T08:17:26Z</time>
      </trkpt>
      <trkpt lat="47.32582" lon="-1.59737">
        <ele>50.5</ele>
        <time>2014-05-18T08:17:33Z</time>
      </trkpt>
      <trkpt lat="47.3258" lon="-1.59706">
        <ele>50.5</ele>
        <time>2014-05-18T08:17:37Z</time>
      </trkpt>
      <trkpt lat="47.3257" lon="-1.59682">
        <ele>50.5</ele>
        <time>2014-05-18T08:17:41Z</time>
      </trkpt>
      <trkpt lat="47.32562" lon="-1.59649">
        <ele>45.5</ele>
        <time>2014-05-18T08:17:45Z</time>
      </trkpt>
      <trkpt lat="47.32558" lon="-1.59611">
        <ele>46.5</ele>
        <time>2014-05-18T08:17:49Z</time>
      </trkpt>
      <trkpt lat="47.32548" lon="-1.59577">
        <ele>47.5</ele>
        <time>2014-05-18T08:17:53Z</time>
      </trkpt>
      <trkpt lat="47.32541" lon="-1.59544">
        <ele>46.5</ele>
        <time>2014-05-18T08:17:58Z</time>
      </trkpt>
      <trkpt lat="47.32524" lon="-1.59516">
        <ele>41.5</ele>
        <time>2014-05-18T08:18:02Z</time>
      </trkpt>
      <trkpt lat="47.32491" lon="-1.59511">
        <ele>45.5</ele>
        <time>2014-05-18T08:18:06Z</time>
      </trkpt>
      <trkpt lat="47.32467" lon="-1.59507">
        <ele>47.5</ele>
        <time>2014-05-18T08:18:10Z</time>
      </trkpt>
      <trkpt lat="47.32443" lon="-1.59501">
        <ele>46.5</ele>
        <time>2014-05-18T08:18:14Z</time>
      </trkpt>
      <trkpt lat="47.32425" lon="-1.59497">
        <ele>47.5</ele>
        <time>2014-05-18T08:18:18Z</time>
      </trkpt>
      <trkpt lat="47.32395" lon="-1.59487">
        <ele>45.5</ele>
        <time>2014-05-18T08:18:22Z</time>
      </trkpt>
      <trkpt lat="47.32371" lon="-1.5948">
        <ele>46.5</ele>
        <time>2014-05-18T08:18:26Z</time>
      </trkpt>
      <trkpt lat="47.32354" lon="-1.59475">
        <ele>48.5</ele>
        <time>2014-05-18T08:18:29Z</time>
      </trkpt>
      <trkpt lat="47.32329" lon="-1.59468">
        <ele>47.5</ele>
        <time>2014-05-18T08:18:33Z</time>
      </trkpt>
      <trkpt lat="47.32306" lon="-1.59456">
        <ele>48.5</ele>
        <time>2014-05-18T08:18:37Z</time>
      </trkpt>
      <trkpt lat="47.3229" lon="-1.59426">
        <ele>47.5</ele>
        <time>2014-05-18T08:18:41Z</time>
      </trkpt>
      <trkpt lat="47.32271" lon="-1.59395">
        <ele>46.5</ele>
        <time>2014-05-18T08:18:45Z</time>
      </trkpt>
      <trkpt lat="47.32257" lon="-1.59362">
        <ele>43.5</ele>
        <time>2014-05-18T08:18:50Z</time>
      </trkpt>
      <trkpt lat="47.32238" lon="-1.59339">
        <ele>44.5</ele>
        <time>2014-05-18T08:18:54Z</time>
      </trkpt>
      <trkpt lat="47.32212" lon="-1.59337">
        <ele>45.5</ele>
        <time>2014-05-18T08:18:58Z</time>
      </trkpt>
      <trkpt lat="47.32194" lon="-1.59348">
        <ele>48.5</ele>
        <time>2014-05-18T08:19:02Z</time>
      </trkpt>
      <trkpt lat="47.3218" lon="-1.5936">
        <ele>48.5</ele>
        <time>2014-05-18T08:19:06Z</time>
      </trkpt>
      <trkpt lat="47.32166" lon="-1.59362">
        <ele>51.5</ele>
        <time>2014-05-18T08:19:10Z</time>
      </trkpt>
      <trkpt lat="47.32165" lon="-1.59343">
        <ele>49.5</ele>
        <time>2014-05-18T08:19:14Z</time>
      </trkpt>
      <trkpt lat="47.32163" lon="-1.59312">
        <ele>47.5</ele>
        <time>2014-05-18T08:19:18Z</time>
      </trkpt>
      <trkpt lat="47.32162" lon="-1.59287">
        <ele>44.5</ele>
        <time>2014-05-18T08:19:21Z</time>
      </trkpt>
      <trkpt lat="47.32161" lon="-1.5925">
        <ele>42.5</ele>
        <time>2014-05-18T08:19:25Z</time>
      </trkpt>
      <trkpt lat="47.32161" lon="-1.59216">
        <ele>41.5</ele>
        <time>2014-05-18T08:19:29Z</time>
      </trkpt>
      <trkpt lat="47.32147" lon="-1.59188">
        <ele>41.5</ele>
        <time>2014-05-18T08:19:33Z</time>
      </trkpt>
      <trkpt lat="47.32125" lon="-1.59179">
        <ele>40.5</ele>
        <time>2014-05-18T08:19:37Z</time>
      </trkpt>
      <trkpt lat="47.32103" lon="-1.59167">
        <ele>39.5</ele>
        <time>2014-05-18T08:19:41Z</time>
      </trkpt>
      <trkpt lat="47.3208" lon="-1.59158">
        <ele>39.5</ele>
        <time>2014-05-18T08:19:46Z</time>
      </trkpt>
      <trkpt lat="47.32055" lon="-1.59147">
        <ele>37.5</ele>
        <time>2014-05-18T08:19:50Z</time>
      </trkpt>
      <trkpt lat="47.32031" lon="-1.59137">
        <ele>37.5</ele>
        <time>2014-05-18T08:19:54Z</time>
      </trkpt>
      <trkpt lat="47.32004" lon="-1.59125">
        <ele>37.5</ele>
        <time>2014-05-18T08:19:58Z</time>
      </trkpt>
      <trkpt lat="47.31982" lon="-1.59115">
        <ele>37.5</ele>
        <time>2014-05-18T08:20:02Z</time>
      </trkpt>
      <trkpt lat="47.31959" lon="-1.59106">
        <ele>37.5</ele>
        <time>2014-05-18T08:20:06Z</time>
      </trkpt>
      <trkpt lat="47.31938" lon="-1.59095">
        <ele>37.5</ele>
        <time>2014-05-18T08:20:10Z</time>
      </trkpt>
      <trkpt lat="47.319" lon="-1.59078">
        <ele>38.5</ele>
        <time>2014-05-18T08:20:17Z</time>
      </trkpt>
      <trkpt lat="47.31877" lon="-1.59068">
        <ele>36.5</ele>
        <time>2014-05-18T08:20:21Z</time>
      </trkpt>
      <trkpt lat="47.31855" lon="-1.59061">
        <ele>36.5</ele>
        <time>2014-05-18T08:20:25Z</time>
      </trkpt>
      <trkpt lat="47.31826" lon="-1.59054">
        <ele>34.5</ele>
        <time>2014-05-18T08:20:29Z</time>
      </trkpt>
      <trkpt lat="47.31797" lon="-1.5905">
        <ele>33.5</ele>
        <time>2014-05-18T08:20:33Z</time>
      </trkpt>
      <trkpt lat="47.31768" lon="-1.59044">
        <ele>31.5</ele>
        <time>2014-05-18T08:20:38Z</time>
      </trkpt>
      <trkpt lat="47.31737" lon="-1.59039">
        <ele>31.5</ele>
        <time>2014-05-18T08:20:42Z</time>
      </trkpt>
      <trkpt lat="47.31708" lon="-1.59037">
        <ele>31.5</ele>
        <time>2014-05-18T08:20:46Z</time>
      </trkpt>
      <trkpt lat="47.31669" lon="-1.59041">
        <ele>26.5</ele>
        <time>2014-05-18T08:20:50Z</time>
      </trkpt>
      <trkpt lat="47.31633" lon="-1.59026">
        <ele>22.5</ele>
        <time>2014-05-18T08:20:54Z</time>
      </trkpt>
      <trkpt lat="47.31598" lon="-1.59005">
        <ele>20.5</ele>
        <time>2014-05-18T08:20:58Z</time>
      </trkpt>
      <trkpt lat="47.31573" lon="-1.58989">
        <ele>16.5</ele>
        <time>2014-05-18T08:21:01Z</time>
      </trkpt>
      <trkpt lat="47.31541" lon="-1.58969">
        <ele>14.5</ele>
        <time>2014-05-18T08:21:05Z</time>
      </trkpt>
      <trkpt lat="47.31519" lon="-1.58979">
        <ele>12.5</ele>
        <time>2014-05-18T08:21:09Z</time>
      </trkpt>
      <trkpt lat="47.31519" lon="-1.59013">
        <ele>14.5</ele>
        <time>2014-05-18T08:21:13Z</time>
      </trkpt>
      <trkpt lat="47.31517" lon="-1.59046">
        <ele>15.5</ele>
        <time>2014-05-18T08:21:17Z</time>
      </trkpt>
      <trkpt lat="47.31514" lon="-1.59079">
        <ele>16.5</ele>
        <time>2014-05-18T08:21:21Z</time>
      </trkpt>
      <trkpt lat="47.31511" lon="-1.59114">
        <ele>17.5</ele>
        <time>2014-05-18T08:21:26Z</time>
      </trkpt>
      <trkpt lat="47.31513" lon="-1.59148">
        <ele>18.5</ele>
        <time>2014-05-18T08:21:30Z</time>
      </trkpt>
      <trkpt lat="47.31522" lon="-1.59188">
        <ele>19.5</ele>
        <time>2014-05-18T08:21:34Z</time>
      </trkpt>
      <trkpt lat="47.31529" lon="-1.59221">
        <ele>19.5</ele>
        <time>2014-05-18T08:21:38Z</time>
      </trkpt>
      <trkpt lat="47.31537" lon="-1.59257">
        <ele>19.5</ele>
        <time>2014-05-18T08:21:42Z</time>
      </trkpt>
      <trkpt lat="47.31542" lon="-1.5929">
        <ele>18.5</ele>
        <time>2014-05-18T08:21:46Z</time>
      </trkpt>
      <trkpt lat="47.31548" lon="-1.59323">
        <ele>18.5</ele>
        <time>2014-05-18T08:21:50Z</time>
      </trkpt>
      <trkpt lat="47.31554" lon="-1.59353">
        <ele>18.5</ele>
        <time>2014-05-18T08:21:54Z</time>
      </trkpt>
      <trkpt lat="47.3155" lon="-1.59376">
        <ele>18.5</ele>
        <time>2014-05-18T08:21:57Z</time>
      </trkpt>
      <trkpt lat="47.31541" lon="-1.59402">
        <ele>21.5</ele>
        <time>2014-05-18T08:22:01Z</time>
      </trkpt>
      <trkpt lat="47.3153" lon="-1.59427">
        <ele>23.5</ele>
        <time>2014-05-18T08:22:05Z</time>
      </trkpt>
      <trkpt lat="47.31519" lon="-1.59455">
        <ele>23.5</ele>
        <time>2014-05-18T08:22:09Z</time>
      </trkpt>
      <trkpt lat="47.31511" lon="-1.59487">
        <ele>24.5</ele>
        <time>2014-05-18T08:22:13Z</time>
      </trkpt>
      <trkpt lat="47.31504" lon="-1.59516">
        <ele>23.5</ele>
        <time>2014-05-18T08:22:17Z</time>
      </trkpt>
      <trkpt lat="47.31501" lon="-1.59555">
        <ele>20.5</ele>
        <time>2014-05-18T08:22:22Z</time>
      </trkpt>
      <trkpt lat="47.31501" lon="-1.59594">
        <ele>21.5</ele>
        <time>2014-05-18T08:22:26Z</time>
      </trkpt>
      <trkpt lat="47.31497" lon="-1.59628">
        <ele>22.5</ele>
        <time>2014-05-18T08:22:30Z</time>
      </trkpt>
      <trkpt lat="47.31493" lon="-1.5966">
        <ele>24.5</ele>
        <time>2014-05-18T08:22:34Z</time>
      </trkpt>
      <trkpt lat="47.31486" lon="-1.59692">
        <ele>25.5</ele>
        <time>2014-05-18T08:22:38Z</time>
      </trkpt>
      <trkpt lat="47.31478" lon="-1.59728">
        <ele>25.5</ele>
        <time>2014-05-18T08:22:42Z</time>
      </trkpt>
      <trkpt lat="47.31474" lon="-1.59751">
        <ele>27.5</ele>
        <time>2014-05-18T08:22:45Z</time>
      </trkpt>
      <trkpt lat="47.31467" lon="-1.59781">
        <ele>31.5</ele>
        <time>2014-05-18T08:22:49Z</time>
      </trkpt>
      <trkpt lat="47.31462" lon="-1.59816">
        <ele>30.5</ele>
        <time>2014-05-18T08:22:53Z</time>
      </trkpt>
      <trkpt lat="47.31456" lon="-1.59851">
        <ele>32.5</ele>
        <time>2014-05-18T08:22:57Z</time>
      </trkpt>
      <trkpt lat="47.31447" lon="-1.59879">
        <ele>31.5</ele>
        <time>2014-05-18T08:23:01Z</time>
      </trkpt>
      <trkpt lat="47.31442" lon="-1.59914">
        <ele>31.5</ele>
        <time>2014-05-18T08:23:05Z</time>
      </trkpt>
      <trkpt lat="47.31438" lon="-1.59947">
        <ele>29.5</ele>
        <time>2014-05-18T08:23:09Z</time>
      </trkpt>
      <trkpt lat="47.31427" lon="-1.59965">
        <ele>29.5</ele>
        <time>2014-05-18T08:23:18Z</time>
      </trkpt>
      <trkpt lat="47.31408" lon="-1.59965">
        <ele>23.5</ele>
        <time>2014-05-18T08:23:22Z</time>
      </trkpt>
      <trkpt lat="47.3139" lon="-1.59963">
        <ele>21.5</ele>
        <time>2014-05-18T08:23:26Z</time>
      </trkpt>
      <trkpt lat="47.31376" lon="-1.5996">
        <ele>21.5</ele>
        <time>2014-05-18T08:23:30Z</time>
      </trkpt>
      <trkpt lat="47.31366" lon="-1.59964">
        <ele>22.5</ele>
        <time>2014-05-18T08:23:34Z</time>
      </trkpt>
      <trkpt lat="47.31356" lon="-1.59969">
        <ele>23.5</ele>
        <time>2014-05-18T08:23:38Z</time>
      </trkpt>
      <trkpt lat="47.3134" lon="-1.59972">
        <ele>23.5</ele>
        <time>2014-05-18T08:23:45Z</time>
      </trkpt>
      <trkpt lat="47.31336" lon="-1.59953">
        <ele>22.5</ele>
        <time>2014-05-18T08:23:49Z</time>
      </trkpt>
      <trkpt lat="47.31334" lon="-1.59934">
        <ele>22.5</ele>
        <time>2014-05-18T08:23:53Z</time>
      </trkpt>
      <trkpt lat="47.31334" lon="-1.59907">
        <ele>20.5</ele>
        <time>2014-05-18T08:23:57Z</time>
      </trkpt>
      <trkpt lat="47.31336" lon="-1.59881">
        <ele>18.5</ele>
        <time>2014-05-18T08:24:02Z</time>
      </trkpt>
      <trkpt lat="47.31338" lon="-1.59851">
        <ele>19.5</ele>
        <time>2014-05-18T08:24:06Z</time>
      </trkpt>
      <trkpt lat="47.31341" lon="-1.59836">
        <ele>21.5</ele>
        <time>2014-05-18T08:24:10Z</time>
      </trkpt>
      <trkpt lat="47.31338" lon="-1.59805">
        <ele>24.5</ele>
        <time>2014-05-18T08:24:18Z</time>
      </trkpt>
      <trkpt lat="47.31331" lon="-1.59781">
        <ele>28.5</ele>
        <time>2014-05-18T08:24:26Z</time>
      </trkpt>
      <trkpt lat="47.31326" lon="-1.59748">
        <ele>27.5</ele>
        <time>2014-05-18T08:24:33Z</time>
      </trkpt>
      <trkpt lat="47.31324" lon="-1.59728">
        <ele>34.5</ele>
        <time>2014-05-18T08:24:37Z</time>
      </trkpt>
      <trkpt lat="47.31321" lon="-1.59709">
        <ele>37.5</ele>
        <time>2014-05-18T08:24:41Z</time>
      </trkpt>
      <trkpt lat="47.31317" lon="-1.59692">
        <ele>40.5</ele>
        <time>2014-05-18T08:24:45Z</time>
      </trkpt>
      <trkpt lat="47.31315" lon="-1.59674">
        <ele>40.5</ele>
        <time>2014-05-18T08:24:50Z</time>
      </trkpt>
      <trkpt lat="47.31307" lon="-1.59659">
        <ele>39.5</ele>
        <time>2014-05-18T08:24:54Z</time>
      </trkpt>
      <trkpt lat="47.31298" lon="-1.59633">
        <ele>37.5</ele>
        <time>2014-05-18T08:24:58Z</time>
      </trkpt>
      <trkpt lat="47.31293" lon="-1.59611">
        <ele>39.5</ele>
        <time>2014-05-18T08:25:02Z</time>
      </trkpt>
      <trkpt lat="47.31289" lon="-1.5959">
        <ele>40.5</ele>
        <time>2014-05-18T08:25:06Z</time>
      </trkpt>
      <trkpt lat="47.31282" lon="-1.59568">
        <ele>41.5</ele>
        <time>2014-05-18T08:25:10Z</time>
      </trkpt>
      <trkpt lat="47.31276" lon="-1.5955">
        <ele>43.5</ele>
        <time>2014-05-18T08:25:14Z</time>
      </trkpt>
      <trkpt lat="47.31272" lon="-1.59535">
        <ele>42.5</ele>
        <time>2014-05-18T08:25:18Z</time>
      </trkpt>
      <trkpt lat="47.31255" lon="-1.5952">
        <ele>42.5</ele>
        <time>2014-05-18T08:25:25Z</time>
      </trkpt>
      <trkpt lat="47.31242" lon="-1.59515">
        <ele>53.5</ele>
        <time>2014-05-18T08:25:33Z</time>
      </trkpt>
      <trkpt lat="47.31224" lon="-1.59522">
        <ele>53.5</ele>
        <time>2014-05-18T08:25:41Z</time>
      </trkpt>
      <trkpt lat="47.31215" lon="-1.59529">
        <ele>55.5</ele>
        <time>2014-05-18T08:25:46Z</time>
      </trkpt>
      <trkpt lat="47.31207" lon="-1.5954">
        <ele>57.5</ele>
        <time>2014-05-18T08:25:50Z</time>
      </trkpt>
      <trkpt lat="47.31188" lon="-1.59555">
        <ele>40.5</ele>
        <time>2014-05-18T08:25:58Z</time>
      </trkpt>
      <trkpt lat="47.31178" lon="-1.59558">
        <ele>41.5</ele>
        <time>2014-05-18T08:26:02Z</time>
      </trkpt>
      <trkpt lat="47.31171" lon="-1.59567">
        <ele>36.5</ele>
        <time>2014-05-18T08:26:06Z</time>
      </trkpt>
      <trkpt lat="47.31169" lon="-1.59581">
        <ele>36.5</ele>
        <time>2014-05-18T08:26:13Z</time>
      </trkpt>
      <trkpt lat="47.31181" lon="-1.59576">
        <ele>34.5</ele>
        <time>2014-05-18T08:26:21Z</time>
      </trkpt>
      <trkpt lat="47.31194" lon="-1.59571">
        <ele>35.5</ele>
        <time>2014-05-18T08:26:29Z</time>
      </trkpt>
      <trkpt lat="47.31204" lon="-1.5957">
        <ele>32.5</ele>
        <time>2014-05-18T08:26:38Z</time>
      </trkpt>
      <trkpt lat="47.31198" lon="-1.59558">
        <ele>30.5</ele>
        <time>2014-05-18T08:26:42Z</time>
      </trkpt>
      <trkpt lat="47.31215" lon="-1.59544">
        <ele>26.5</ele>
        <time>2014-05-18T08:26:46Z</time>
      </trkpt>
      <trkpt lat="47.31231" lon="-1.59535">
        <ele>25.5</ele>
        <time>2014-05-18T08:26:50Z</time>
      </trkpt>
      <trkpt lat="47.31249" lon="-1.59525">
        <ele>28.5</ele>
        <time>2014-05-18T08:26:54Z</time>
      </trkpt>
      <trkpt lat="47.31263" lon="-1.5953">
        <ele>29.5</ele>
        <time>2014-05-18T08:26:58Z</time>
      </trkpt>
      <trkpt lat="47.31269" lon="-1.59541">
        <ele>32.5</ele>
        <time>2014-05-18T08:27:02Z</time>
      </trkpt>
      <trkpt lat="47.31272" lon="-1.59557">
        <ele>36.5</ele>
        <time>2014-05-18T08:27:10Z</time>
      </trkpt>
      <trkpt lat="47.3128" lon="-1.59574">
        <ele>35.5</ele>
        <time>2014-05-18T08:27:17Z</time>
      </trkpt>
      <trkpt lat="47.31283" lon="-1.59589">
        <ele>33.5</ele>
        <time>2014-05-18T08:27:21Z</time>
      </trkpt>
      <trkpt lat="47.31294" lon="-1.59625">
        <ele>31.5</ele>
        <time>2014-05-18T08:27:29Z</time>
      </trkpt>
      <trkpt lat="47.313" lon="-1.5964">
        <ele>27.5</ele>
        <time>2014-05-18T08:27:34Z</time>
      </trkpt>
      <trkpt lat="47.31305" lon="-1.59665">
        <ele>30.5</ele>
        <time>2014-05-18T08:27:38Z</time>
      </trkpt>
      <trkpt lat="47.31306" lon="-1.59681">
        <ele>30.5</ele>
        <time>2014-05-18T08:27:42Z</time>
      </trkpt>
      <trkpt lat="47.31313" lon="-1.59705">
        <ele>27.5</ele>
        <time>2014-05-18T08:27:46Z</time>
      </trkpt>
      <trkpt lat="47.31317" lon="-1.59728">
        <ele>29.5</ele>
        <time>2014-05-18T08:27:50Z</time>
      </trkpt>
      <trkpt lat="47.3132" lon="-1.59748">
        <ele>29.5</ele>
        <time>2014-05-18T08:27:54Z</time>
      </trkpt>
      <trkpt lat="47.31322" lon="-1.59768">
        <ele>30.5</ele>
        <time>2014-05-18T08:27:58Z</time>
      </trkpt>
      <trkpt lat="47.31321" lon="-1.59782">
        <ele>35.5</ele>
        <time>2014-05-18T08:28:05Z</time>
      </trkpt>
      <trkpt lat="47.31323" lon="-1.59802">
        <ele>35.5</ele>
        <time>2014-05-18T08:28:13Z</time>
      </trkpt>
      <trkpt lat="47.31323" lon="-1.59818">
        <ele>44.5</ele>
        <time>2014-05-18T08:28:22Z</time>
      </trkpt>
      <trkpt lat="47.31322" lon="-1.59834">
        <ele>43.5</ele>
        <time>2014-05-18T08:28:26Z</time>
      </trkpt>
      <trkpt lat="47.31321" lon="-1.59847">
        <ele>44.5</ele>
        <time>2014-05-18T08:28:30Z</time>
      </trkpt>
      <trkpt lat="47.3132" lon="-1.59871">
        <ele>48.5</ele>
        <time>2014-05-18T08:28:38Z</time>
      </trkpt>
      <trkpt lat="47.31317" lon="-1.59888">
        <ele>50.5</ele>
        <time>2014-05-18T08:28:45Z</time>
      </trkpt>
      <trkpt lat="47.31317" lon="-1.59905">
        <ele>50.5</ele>
        <time>2014-05-18T08:28:53Z</time>
      </trkpt>
      <trkpt lat="47.31314" lon="-1.59925">
        <ele>48.5</ele>
        <time>2014-05-18T08:29:01Z</time>
      </trkpt>
      <trkpt lat="47.31315" lon="-1.59939">
        <ele>48.5</ele>
        <time>2014-05-18T08:29:05Z</time>
      </trkpt>
      <trkpt lat="47.31314" lon="-1.59957">
        <ele>46.5</ele>
        <time>2014-05-18T08:29:10Z</time>
      </trkpt>
      <trkpt lat="47.31298" lon="-1.59955">
        <ele>41.5</ele>
        <time>2014-05-18T08:29:34Z</time>
      </trkpt>
      <trkpt lat="47.3129" lon="-1.59938">
        <ele>42.5</ele>
        <time>2014-05-18T08:29:45Z</time>
      </trkpt>
      <trkpt lat="47.31282" lon="-1.59923">
        <ele>46.5</ele>
        <time>2014-05-18T08:29:57Z</time>
      </trkpt>
      <trkpt lat="47.3128" lon="-1.59909">
        <ele>41.5</ele>
        <time>2014-05-18T08:30:06Z</time>
      </trkpt>
      <trkpt lat="47.31278" lon="-1.59889">
        <ele>37.5</ele>
        <time>2014-05-18T08:30:14Z</time>
      </trkpt>
      <trkpt lat="47.31284" lon="-1.59875">
        <ele>37.5</ele>
        <time>2014-05-18T08:30:18Z</time>
      </trkpt>
      <trkpt lat="47.31297" lon="-1.59851">
        <ele>42.5</ele>
        <time>2014-05-18T08:30:26Z</time>
      </trkpt>
      <trkpt lat="47.31301" lon="-1.59834">
        <ele>45.5</ele>
        <time>2014-05-18T08:30:30Z</time>
      </trkpt>
      <trkpt lat="47.31299" lon="-1.59808">
        <ele>43.5</ele>
        <time>2014-05-18T08:30:33Z</time>
      </trkpt>
      <trkpt lat="47.31295" lon="-1.59794">
        <ele>45.5</ele>
        <time>2014-05-18T08:30:37Z</time>
      </trkpt>
      <trkpt lat="47.31292" lon="-1.59775">
        <ele>43.5</ele>
        <time>2014-05-18T08:30:41Z</time>
      </trkpt>
      <trkpt lat="47.31284" lon="-1.5976">
        <ele>42.5</ele>
        <time>2014-05-18T08:30:45Z</time>
      </trkpt>
      <trkpt lat="47.31283" lon="-1.59741">
        <ele>38.5</ele>
        <time>2014-05-18T08:30:49Z</time>
      </trkpt>
      <trkpt lat="47.3128" lon="-1.59726">
        <ele>37.5</ele>
        <time>2014-05-18T08:30:53Z</time>
      </trkpt>
      <trkpt lat="47.31283" lon="-1.59699">
        <ele>33.5</ele>
        <time>2014-05-18T08:30:58Z</time>
      </trkpt>
      <trkpt lat="47.31279" lon="-1.5968">
        <ele>35.5</ele>
        <time>2014-05-18T08:31:02Z</time>
      </trkpt>
      <trkpt lat="47.31274" lon="-1.59666">
        <ele>33.5</ele>
        <time>2014-05-18T08:31:06Z</time>
      </trkpt>
      <trkpt lat="47.31277" lon="-1.59647">
        <ele>33.5</ele>
        <time>2014-05-18T08:31:10Z</time>
      </trkpt>
      <trkpt lat="47.31278" lon="-1.59621">
        <ele>33.5</ele>
        <time>2014-05-18T08:31:14Z</time>
      </trkpt>
      <trkpt lat="47.31276" lon="-1.59596">
        <ele>37.5</ele>
        <time>2014-05-18T08:31:18Z</time>
      </trkpt>
      <trkpt lat="47.31274" lon="-1.5958">
        <ele>35.5</ele>
        <time>2014-05-18T08:31:22Z</time>
      </trkpt>
      <trkpt lat="47.31265" lon="-1.59566">
        <ele>40.5</ele>
        <time>2014-05-18T08:31:29Z</time>
      </trkpt>
      <trkpt lat="47.31253" lon="-1.59564">
        <ele>43.5</ele>
        <time>2014-05-18T08:31:37Z</time>
      </trkpt>
      <trkpt lat="47.31242" lon="-1.59576">
        <ele>46.5</ele>
        <time>2014-05-18T08:31:45Z</time>
      </trkpt>
      <trkpt lat="47.31234" lon="-1.59583">
        <ele>47.5</ele>
        <time>2014-05-18T08:31:50Z</time>
      </trkpt>
      <trkpt lat="47.31225" lon="-1.5959">
        <ele>52.5</ele>
        <time>2014-05-18T08:31:54Z</time>
      </trkpt>
      <trkpt lat="47.31213" lon="-1.59607">
        <ele>49.5</ele>
        <time>2014-05-18T08:32:02Z</time>
      </trkpt>
      <trkpt lat="47.31188" lon="-1.59613">
        <ele>46.5</ele>
        <time>2014-05-18T08:32:06Z</time>
      </trkpt>
      <trkpt lat="47.31171" lon="-1.59623">
        <ele>45.5</ele>
        <time>2014-05-18T08:32:10Z</time>
      </trkpt>
      <trkpt lat="47.31156" lon="-1.59627">
        <ele>40.5</ele>
        <time>2014-05-18T08:32:13Z</time>
      </trkpt>
      <trkpt lat="47.3116" lon="-1.59603">
        <ele>31.5</ele>
        <time>2014-05-18T08:32:21Z</time>
      </trkpt>
      <trkpt lat="47.31164" lon="-1.5958">
        <ele>32.5</ele>
        <time>2014-05-18T08:32:25Z</time>
      </trkpt>
      <trkpt lat="47.31178" lon="-1.59551">
        <ele>29.5</ele>
        <time>2014-05-18T08:32:29Z</time>
      </trkpt>
      <trkpt lat="47.312" lon="-1.59527">
        <ele>26.5</ele>
        <time>2014-05-18T08:32:34Z</time>
      </trkpt>
      <trkpt lat="47.31216" lon="-1.59506">
        <ele>25.5</ele>
        <time>2014-05-18T08:32:38Z</time>
      </trkpt>
      <trkpt lat="47.312" lon="-1.59502">
        <ele>26.5</ele>
        <time>2014-05-18T08:32:46Z</time>
      </trkpt>
      <trkpt lat="47.31188" lon="-1.59506">
        <ele>33.5</ele>
        <time>2014-05-18T08:32:54Z</time>
      </trkpt>
      <trkpt lat="47.31171" lon="-1.5951">
        <ele>37.5</ele>
        <time>2014-05-18T08:33:01Z</time>
      </trkpt>
      <trkpt lat="47.31159" lon="-1.59516">
        <ele>40.5</ele>
        <time>2014-05-18T08:33:05Z</time>
      </trkpt>
      <trkpt lat="47.31151" lon="-1.59523">
        <ele>39.5</ele>
        <time>2014-05-18T08:33:09Z</time>
      </trkpt>
      <trkpt lat="47.31137" lon="-1.59534">
        <ele>39.5</ele>
        <time>2014-05-18T08:33:13Z</time>
      </trkpt>
      <trkpt lat="47.31125" lon="-1.59538">
        <ele>32.5</ele>
        <time>2014-05-18T08:33:18Z</time>
      </trkpt>
      <trkpt lat="47.31115" lon="-1.59545">
        <ele>33.5</ele>
        <time>2014-05-18T08:33:22Z</time>
      </trkpt>
      <trkpt lat="47.31101" lon="-1.59549">
        <ele>38.5</ele>
        <time>2014-05-18T08:33:30Z</time>
      </trkpt>
      <trkpt lat="47.31087" lon="-1.59546">
        <ele>38.5</ele>
        <time>2014-05-18T08:33:38Z</time>
      </trkpt>
      <trkpt lat="47.31073" lon="-1.59545">
        <ele>38.5</ele>
        <time>2014-05-18T08:33:45Z</time>
      </trkpt>
      <trkpt lat="47.31057" lon="-1.59545">
        <ele>38.5</ele>
        <time>2014-05-18T08:33:53Z</time>
      </trkpt>
      <trkpt lat="47.31048" lon="-1.59541">
        <ele>38.5</ele>
        <time>2014-05-18T08:33:57Z</time>
      </trkpt>
      <trkpt lat="47.31032" lon="-1.59534">
        <ele>40.5</ele>
        <time>2014-05-18T08:34:06Z</time>
      </trkpt>
      <trkpt lat="47.3102" lon="-1.59526">
        <ele>41.5</ele>
        <time>2014-05-18T08:34:14Z</time>
      </trkpt>
      <trkpt lat="47.31011" lon="-1.59519">
        <ele>41.5</ele>
        <time>2014-05-18T08:34:18Z</time>
      </trkpt>
      <trkpt lat="47.31001" lon="-1.59507">
        <ele>42.5</ele>
        <time>2014-05-18T08:34:26Z</time>
      </trkpt>
      <trkpt lat="47.30998" lon="-1.59488">
        <ele>37.5</ele>
        <time>2014-05-18T08:34:33Z</time>
      </trkpt>
      <trkpt lat="47.31001" lon="-1.59467">
        <ele>39.5</ele>
        <time>2014-05-18T08:34:41Z</time>
      </trkpt>
      <trkpt lat="47.31003" lon="-1.59446">
        <ele>39.5</ele>
        <time>2014-05-18T08:34:49Z</time>
      </trkpt>
      <trkpt lat="47.31011" lon="-1.59425">
        <ele>42.5</ele>
        <time>2014-05-18T08:34:58Z</time>
      </trkpt>
      <trkpt lat="47.31016" lon="-1.59407">
        <ele>47.5</ele>
        <time>2014-05-18T08:35:06Z</time>
      </trkpt>
      <trkpt lat="47.31025" lon="-1.594">
        <ele>53.5</ele>
        <time>2014-05-18T08:35:14Z</time>
      </trkpt>
      <trkpt lat="47.31031" lon="-1.59389">
        <ele>53.5</ele>
        <time>2014-05-18T08:35:18Z</time>
      </trkpt>
      <trkpt lat="47.31034" lon="-1.59376">
        <ele>50.5</ele>
        <time>2014-05-18T08:35:22Z</time>
      </trkpt>
      <trkpt lat="47.31037" lon="-1.59358">
        <ele>52.5</ele>
        <time>2014-05-18T08:35:29Z</time>
      </trkpt>
      <trkpt lat="47.31031" lon="-1.59336">
        <ele>52.5</ele>
        <time>2014-05-18T08:35:37Z</time>
      </trkpt>
      <trkpt lat="47.31023" lon="-1.59329">
        <ele>54.5</ele>
        <time>2014-05-18T08:35:41Z</time>
      </trkpt>
      <trkpt lat="47.31016" lon="-1.59337">
        <ele>55.5</ele>
        <time>2014-05-18T08:35:54Z</time>
      </trkpt>
      <trkpt lat="47.31016" lon="-1.59357">
        <ele>59.5</ele>
        <time>2014-05-18T08:36:06Z</time>
      </trkpt>
      <trkpt lat="47.31021" lon="-1.59372">
        <ele>58.5</ele>
        <time>2014-05-18T08:36:14Z</time>
      </trkpt>
      <trkpt lat="47.31008" lon="-1.59377">
        <ele>54.5</ele>
        <time>2014-05-18T08:36:21Z</time>
      </trkpt>
      <trkpt lat="47.31001" lon="-1.59388">
        <ele>56.5</ele>
        <time>2014-05-18T08:36:25Z</time>
      </trkpt>
      <trkpt lat="47.30998" lon="-1.59403">
        <ele>57.5</ele>
        <time>2014-05-18T08:36:29Z</time>
      </trkpt>
      <trkpt lat="47.31002" lon="-1.59419">
        <ele>52.5</ele>
        <time>2014-05-18T08:36:37Z</time>
      </trkpt>
      <trkpt lat="47.30997" lon="-1.59431">
        <ele>54.5</ele>
        <time>2014-05-18T08:36:42Z</time>
      </trkpt>
      <trkpt lat="47.30985" lon="-1.59423">
        <ele>55.5</ele>
        <time>2014-05-18T08:36:54Z</time>
      </trkpt>
      <trkpt lat="47.30978" lon="-1.59408">
        <ele>53.5</ele>
        <time>2014-05-18T08:37:06Z</time>
      </trkpt>
      <trkpt lat="47.30975" lon="-1.59393">
        <ele>58.5</ele>
        <time>2014-05-18T08:37:17Z</time>
      </trkpt>
      <trkpt lat="47.30966" lon="-1.59401">
        <ele>64.5</ele>
        <time>2014-05-18T08:37:29Z</time>
      </trkpt>
      <trkpt lat="47.30966" lon="-1.59416">
        <ele>59.5</ele>
        <time>2014-05-18T08:37:38Z</time>
      </trkpt>
      <trkpt lat="47.30953" lon="-1.59423">
        <ele>57.5</ele>
        <time>2014-05-18T08:37:46Z</time>
      </trkpt>
      <trkpt lat="47.3094" lon="-1.59444">
        <ele>54.5</ele>
        <time>2014-05-18T08:37:50Z</time>
      </trkpt>
      <trkpt lat="47.30941" lon="-1.59459">
        <ele>51.5</ele>
        <time>2014-05-18T08:37:54Z</time>
      </trkpt>
      <trkpt lat="47.30949" lon="-1.59466">
        <ele>49.5</ele>
        <time>2014-05-18T08:37:57Z</time>
      </trkpt>
      <trkpt lat="47.30966" lon="-1.59481">
        <ele>47.5</ele>
        <time>2014-05-18T08:38:01Z</time>
      </trkpt>
      <trkpt lat="47.30982" lon="-1.59493">
        <ele>45.5</ele>
        <time>2014-05-18T08:38:05Z</time>
      </trkpt>
      <trkpt lat="47.30989" lon="-1.59547">
        <ele>42.5</ele>
        <time>2014-05-18T08:38:09Z</time>
      </trkpt>
      <trkpt lat="47.30985" lon="-1.59598">
        <ele>40.5</ele>
        <time>2014-05-18T08:38:13Z</time>
      </trkpt>
      <trkpt lat="47.30982" lon="-1.5965">
        <ele>38.5</ele>
        <time>2014-05-18T08:38:17Z</time>
      </trkpt>
      <trkpt lat="47.30988" lon="-1.59703">
        <ele>39.5</ele>
        <time>2014-05-18T08:38:22Z</time>
      </trkpt>
      <trkpt lat="47.30993" lon="-1.59737">
        <ele>39.5</ele>
        <time>2014-05-18T08:38:26Z</time>
      </trkpt>
      <trkpt lat="47.30996" lon="-1.59765">
        <ele>38.5</ele>
        <time>2014-05-18T08:38:30Z</time>
      </trkpt>
      <trkpt lat="47.30984" lon="-1.59779">
        <ele>38.5</ele>
        <time>2014-05-18T08:38:34Z</time>
      </trkpt>
      <trkpt lat="47.30972" lon="-1.59789">
        <ele>39.5</ele>
        <time>2014-05-18T08:38:38Z</time>
      </trkpt>
      <trkpt lat="47.30961" lon="-1.59795">
        <ele>40.5</ele>
        <time>2014-05-18T08:38:42Z</time>
      </trkpt>
      <trkpt lat="47.30951" lon="-1.59802">
        <ele>42.5</ele>
        <time>2014-05-18T08:38:46Z</time>
      </trkpt>
      <trkpt lat="47.30941" lon="-1.59808">
        <ele>45.5</ele>
        <time>2014-05-18T08:38:50Z</time>
      </trkpt>
      <trkpt lat="47.30923" lon="-1.59817">
        <ele>45.5</ele>
        <time>2014-05-18T08:38:57Z</time>
      </trkpt>
      <trkpt lat="47.30911" lon="-1.5982">
        <ele>44.5</ele>
        <time>2014-05-18T08:39:01Z</time>
      </trkpt>
      <trkpt lat="47.309" lon="-1.59823">
        <ele>45.5</ele>
        <time>2014-05-18T08:39:05Z</time>
      </trkpt>
      <trkpt lat="47.3089" lon="-1.59834">
        <ele>48.5</ele>
        <time>2014-05-18T08:39:13Z</time>
      </trkpt>
      <trkpt lat="47.30875" lon="-1.59845">
        <ele>51.5</ele>
        <time>2014-05-18T08:39:22Z</time>
      </trkpt>
      <trkpt lat="47.30862" lon="-1.59855">
        <ele>53.5</ele>
        <time>2014-05-18T08:39:30Z</time>
      </trkpt>
      <trkpt lat="47.30847" lon="-1.59862">
        <ele>53.5</ele>
        <time>2014-05-18T08:39:38Z</time>
      </trkpt>
      <trkpt lat="47.30834" lon="-1.5987">
        <ele>53.5</ele>
        <time>2014-05-18T08:39:45Z</time>
      </trkpt>
      <trkpt lat="47.30822" lon="-1.59876">
        <ele>54.5</ele>
        <time>2014-05-18T08:39:53Z</time>
      </trkpt>
      <trkpt lat="47.30808" lon="-1.59884">
        <ele>57.5</ele>
        <time>2014-05-18T08:40:01Z</time>
      </trkpt>
      <trkpt lat="47.30795" lon="-1.59891">
        <ele>58.5</ele>
        <time>2014-05-18T08:40:10Z</time>
      </trkpt>
      <trkpt lat="47.30784" lon="-1.59897">
        <ele>59.5</ele>
        <time>2014-05-18T08:40:14Z</time>
      </trkpt>
      <trkpt lat="47.30769" lon="-1.59905">
        <ele>61.5</ele>
        <time>2014-05-18T08:40:22Z</time>
      </trkpt>
      <trkpt lat="47.30754" lon="-1.59913">
        <ele>61.5</ele>
        <time>2014-05-18T08:40:30Z</time>
      </trkpt>
      <trkpt lat="47.30744" lon="-1.59916">
        <ele>59.5</ele>
        <time>2014-05-18T08:40:37Z</time>
      </trkpt>
      <trkpt lat="47.30735" lon="-1.59923">
        <ele>59.5</ele>
        <time>2014-05-18T08:43:53Z</time>
      </trkpt>
      <trkpt lat="47.3072" lon="-1.59929">
        <ele>59.5</ele>
        <time>2014-05-18T08:44:01Z</time>
      </trkpt>
      <trkpt lat="47.30707" lon="-1.59935">
        <ele>59.5</ele>
        <time>2014-05-18T08:44:06Z</time>
      </trkpt>
      <trkpt lat="47.30693" lon="-1.59942">
        <ele>59.5</ele>
        <time>2014-05-18T08:44:10Z</time>
      </trkpt>
      <trkpt lat="47.30678" lon="-1.59949">
        <ele>58.5</ele>
        <time>2014-05-18T08:44:14Z</time>
      </trkpt>
      <trkpt lat="47.30661" lon="-1.59958">
        <ele>58.5</ele>
        <time>2014-05-18T08:44:18Z</time>
      </trkpt>
      <trkpt lat="47.30643" lon="-1.59966">
        <ele>59.5</ele>
        <time>2014-05-18T08:44:22Z</time>
      </trkpt>
      <trkpt lat="47.30626" lon="-1.59974">
        <ele>58.5</ele>
        <time>2014-05-18T08:44:26Z</time>
      </trkpt>
      <trkpt lat="47.3061" lon="-1.59981">
        <ele>58.5</ele>
        <time>2014-05-18T08:44:30Z</time>
      </trkpt>
      <trkpt lat="47.30597" lon="-1.59988">
        <ele>59.5</ele>
        <time>2014-05-18T08:44:33Z</time>
      </trkpt>
      <trkpt lat="47.30582" lon="-1.59994">
        <ele>61.5</ele>
        <time>2014-05-18T08:44:37Z</time>
      </trkpt>
      <trkpt lat="47.30567" lon="-1.60001">
        <ele>61.5</ele>
        <time>2014-05-18T08:44:41Z</time>
      </trkpt>
      <trkpt lat="47.30553" lon="-1.60007">
        <ele>62.5</ele>
        <time>2014-05-18T08:44:45Z</time>
      </trkpt>
      <trkpt lat="47.30539" lon="-1.60008">
        <ele>63.5</ele>
        <time>2014-05-18T08:44:49Z</time>
      </trkpt>
      <trkpt lat="47.30524" lon="-1.60008">
        <ele>64.5</ele>
        <time>2014-05-18T08:44:53Z</time>
      </trkpt>
      <trkpt lat="47.30505" lon="-1.60009">
        <ele>65.5</ele>
        <time>2014-05-18T08:44:58Z</time>
      </trkpt>
      <trkpt lat="47.30491" lon="-1.60011">
        <ele>66.5</ele>
        <time>2014-05-18T08:45:02Z</time>
      </trkpt>
      <trkpt lat="47.30478" lon="-1.60013">
        <ele>67.5</ele>
        <time>2014-05-18T08:45:06Z</time>
      </trkpt>
      <trkpt lat="47.30467" lon="-1.60016">
        <ele>68.5</ele>
        <time>2014-05-18T08:45:10Z</time>
      </trkpt>
      <trkpt lat="47.30454" lon="-1.60017">
        <ele>68.5</ele>
        <time>2014-05-18T08:45:14Z</time>
      </trkpt>
      <trkpt lat="47.30436" lon="-1.6003">
        <ele>68.5</ele>
        <time>2014-05-18T08:45:21Z</time>
      </trkpt>
      <trkpt lat="47.30426" lon="-1.60052">
        <ele>68.5</ele>
        <time>2014-05-18T08:45:25Z</time>
      </trkpt>
      <trkpt lat="47.30419" lon="-1.60071">
        <ele>69.5</ele>
        <time>2014-05-18T08:45:29Z</time>
      </trkpt>
      <trkpt lat="47.30409" lon="-1.60089">
        <ele>69.5</ele>
        <time>2014-05-18T08:45:33Z</time>
      </trkpt>
      <trkpt lat="47.30397" lon="-1.60108">
        <ele>69.5</ele>
        <time>2014-05-18T08:45:37Z</time>
      </trkpt>
      <trkpt lat="47.30381" lon="-1.60134">
        <ele>69.5</ele>
        <time>2014-05-18T08:45:42Z</time>
      </trkpt>
      <trkpt lat="47.30371" lon="-1.6015">
        <ele>69.5</ele>
        <time>2014-05-18T08:45:46Z</time>
      </trkpt>
      <trkpt lat="47.30356" lon="-1.60179">
        <ele>70.5</ele>
        <time>2014-05-18T08:45:50Z</time>
      </trkpt>
      <trkpt lat="47.30343" lon="-1.60201">
        <ele>70.5</ele>
        <time>2014-05-18T08:45:54Z</time>
      </trkpt>
      <trkpt lat="47.30327" lon="-1.60216">
        <ele>69.5</ele>
        <time>2014-05-18T08:45:58Z</time>
      </trkpt>
      <trkpt lat="47.30308" lon="-1.60229">
        <ele>69.5</ele>
        <time>2014-05-18T08:46:02Z</time>
      </trkpt>
      <trkpt lat="47.30289" lon="-1.60242">
        <ele>68.5</ele>
        <time>2014-05-18T08:46:06Z</time>
      </trkpt>
      <trkpt lat="47.30255" lon="-1.60266">
        <ele>69.5</ele>
        <time>2014-05-18T08:46:13Z</time>
      </trkpt>
      <trkpt lat="47.30236" lon="-1.60279">
        <ele>69.5</ele>
        <time>2014-05-18T08:46:17Z</time>
      </trkpt>
      <trkpt lat="47.30216" lon="-1.6029">
        <ele>68.5</ele>
        <time>2014-05-18T08:46:21Z</time>
      </trkpt>
      <trkpt lat="47.302" lon="-1.60302">
        <ele>69.5</ele>
        <time>2014-05-18T08:46:25Z</time>
      </trkpt>
      <trkpt lat="47.30182" lon="-1.60317">
        <ele>70.5</ele>
        <time>2014-05-18T08:46:29Z</time>
      </trkpt>
      <trkpt lat="47.30166" lon="-1.60332">
        <ele>70.5</ele>
        <time>2014-05-18T08:46:33Z</time>
      </trkpt>
      <trkpt lat="47.30142" lon="-1.60345">
        <ele>69.5</ele>
        <time>2014-05-18T08:46:38Z</time>
      </trkpt>
      <trkpt lat="47.30124" lon="-1.60355">
        <ele>70.5</ele>
        <time>2014-05-18T08:46:42Z</time>
      </trkpt>
      <trkpt lat="47.30106" lon="-1.60365">
        <ele>69.5</ele>
        <time>2014-05-18T08:46:46Z</time>
      </trkpt>
      <trkpt lat="47.30088" lon="-1.60375">
        <ele>69.5</ele>
        <time>2014-05-18T08:46:50Z</time>
      </trkpt>
      <trkpt lat="47.3007" lon="-1.60384">
        <ele>69.5</ele>
        <time>2014-05-18T08:46:54Z</time>
      </trkpt>
      <trkpt lat="47.30052" lon="-1.60392">
        <ele>70.5</ele>
        <time>2014-05-18T08:46:58Z</time>
      </trkpt>
      <trkpt lat="47.30034" lon="-1.604">
        <ele>71.5</ele>
        <time>2014-05-18T08:47:02Z</time>
      </trkpt>
      <trkpt lat="47.30021" lon="-1.60406">
        <ele>71.5</ele>
        <time>2014-05-18T08:47:05Z</time>
      </trkpt>
      <trkpt lat="47.30015" lon="-1.60429">
        <ele>71.5</ele>
        <time>2014-05-18T08:47:09Z</time>
      </trkpt>
      <trkpt lat="47.3003" lon="-1.60448">
        <ele>69.5</ele>
        <time>2014-05-18T08:47:13Z</time>
      </trkpt>
      <trkpt lat="47.30047" lon="-1.60471">
        <ele>70.5</ele>
        <time>2014-05-18T08:47:17Z</time>
      </trkpt>
      <trkpt lat="47.30065" lon="-1.60495">
        <ele>70.5</ele>
        <time>2014-05-18T08:47:21Z</time>
      </trkpt>
      <trkpt lat="47.30085" lon="-1.60523">
        <ele>71.5</ele>
        <time>2014-05-18T08:47:26Z</time>
      </trkpt>
      <trkpt lat="47.30102" lon="-1.60544">
        <ele>73.5</ele>
        <time>2014-05-18T08:47:30Z</time>
      </trkpt>
      <trkpt lat="47.30121" lon="-1.60568">
        <ele>71.5</ele>
        <time>2014-05-18T08:47:34Z</time>
      </trkpt>
      <trkpt lat="47.30137" lon="-1.60593">
        <ele>72.5</ele>
        <time>2014-05-18T08:47:38Z</time>
      </trkpt>
      <trkpt lat="47.30153" lon="-1.60622">
        <ele>67.5</ele>
        <time>2014-05-18T08:47:42Z</time>
      </trkpt>
      <trkpt lat="47.30172" lon="-1.60645">
        <ele>68.5</ele>
        <time>2014-05-18T08:47:46Z</time>
      </trkpt>
      <trkpt lat="47.30191" lon="-1.60668">
        <ele>67.5</ele>
        <time>2014-05-18T08:47:50Z</time>
      </trkpt>
      <trkpt lat="47.30205" lon="-1.60687">
        <ele>67.5</ele>
        <time>2014-05-18T08:47:53Z</time>
      </trkpt>
      <trkpt lat="47.30213" lon="-1.60699">
        <ele>67.5</ele>
        <time>2014-05-18T08:47:57Z</time>
      </trkpt>
      <trkpt lat="47.3024" lon="-1.60737">
        <ele>67.5</ele>
        <time>2014-05-18T08:48:01Z</time>
      </trkpt>
      <trkpt lat="47.30257" lon="-1.6076">
        <ele>67.5</ele>
        <time>2014-05-18T08:48:05Z</time>
      </trkpt>
      <trkpt lat="47.30275" lon="-1.60785">
        <ele>66.5</ele>
        <time>2014-05-18T08:48:09Z</time>
      </trkpt>
      <trkpt lat="47.30297" lon="-1.60815">
        <ele>63.5</ele>
        <time>2014-05-18T08:48:14Z</time>
      </trkpt>
      <trkpt lat="47.30312" lon="-1.60837">
        <ele>59.5</ele>
        <time>2014-05-18T08:48:18Z</time>
      </trkpt>
      <trkpt lat="47.3032" lon="-1.60857">
        <ele>59.5</ele>
        <time>2014-05-18T08:48:22Z</time>
      </trkpt>
      <trkpt lat="47.30322" lon="-1.60877">
        <ele>59.5</ele>
        <time>2014-05-18T08:48:26Z</time>
      </trkpt>
      <trkpt lat="47.30322" lon="-1.60902">
        <ele>61.5</ele>
        <time>2014-05-18T08:48:30Z</time>
      </trkpt>
      <trkpt lat="47.3032" lon="-1.60917">
        <ele>61.5</ele>
        <time>2014-05-18T08:48:34Z</time>
      </trkpt>
      <trkpt lat="47.30332" lon="-1.6092">
        <ele>69.5</ele>
        <time>2014-05-18T08:48:42Z</time>
      </trkpt>
      <trkpt lat="47.30346" lon="-1.60939">
        <ele>66.5</ele>
        <time>2014-05-18T08:48:49Z</time>
      </trkpt>
      <trkpt lat="47.30349" lon="-1.60959">
        <ele>66.5</ele>
        <time>2014-05-18T08:48:53Z</time>
      </trkpt>
      <trkpt lat="47.30348" lon="-1.60977">
        <ele>64.5</ele>
        <time>2014-05-18T08:48:57Z</time>
      </trkpt>
      <trkpt lat="47.3036" lon="-1.60985">
        <ele>64.5</ele>
        <time>2014-05-18T08:49:01Z</time>
      </trkpt>
      <trkpt lat="47.30373" lon="-1.60992">
        <ele>63.5</ele>
        <time>2014-05-18T08:49:06Z</time>
      </trkpt>
      <trkpt lat="47.30382" lon="-1.61006">
        <ele>62.5</ele>
        <time>2014-05-18T08:49:10Z</time>
      </trkpt>
      <trkpt lat="47.30388" lon="-1.61024">
        <ele>62.5</ele>
        <time>2014-05-18T08:49:14Z</time>
      </trkpt>
      <trkpt lat="47.30393" lon="-1.61004">
        <ele>62.5</ele>
        <time>2014-05-18T08:49:22Z</time>
      </trkpt>
      <trkpt lat="47.3039" lon="-1.60986">
        <ele>61.5</ele>
        <time>2014-05-18T08:49:26Z</time>
      </trkpt>
      <trkpt lat="47.30384" lon="-1.6097">
        <ele>60.5</ele>
        <time>2014-05-18T08:49:30Z</time>
      </trkpt>
      <trkpt lat="47.30379" lon="-1.60959">
        <ele>61.5</ele>
        <time>2014-05-18T08:49:33Z</time>
      </trkpt>
      <trkpt lat="47.30389" lon="-1.6096">
        <ele>62.5</ele>
        <time>2014-05-18T08:49:41Z</time>
      </trkpt>
      <trkpt lat="47.30398" lon="-1.6097">
        <ele>64.5</ele>
        <time>2014-05-18T08:49:45Z</time>
      </trkpt>
      <trkpt lat="47.30405" lon="-1.60984">
        <ele>63.5</ele>
        <time>2014-05-18T08:49:49Z</time>
      </trkpt>
      <trkpt lat="47.30415" lon="-1.60991">
        <ele>63.5</ele>
        <time>2014-05-18T08:49:54Z</time>
      </trkpt>
      <trkpt lat="47.30412" lon="-1.61005">
        <ele>63.5</ele>
        <time>2014-05-18T08:49:58Z</time>
      </trkpt>
      <trkpt lat="47.30404" lon="-1.61021">
        <ele>65.5</ele>
        <time>2014-05-18T08:50:06Z</time>
      </trkpt>
      <trkpt lat="47.30414" lon="-1.61023">
        <ele>62.5</ele>
        <time>2014-05-18T08:50:10Z</time>
      </trkpt>
      <trkpt lat="47.30425" lon="-1.61027">
        <ele>62.5</ele>
        <time>2014-05-18T08:50:14Z</time>
      </trkpt>
      <trkpt lat="47.30437" lon="-1.61028">
        <ele>61.5</ele>
        <time>2014-05-18T08:50:18Z</time>
      </trkpt>
      <trkpt lat="47.30457" lon="-1.61024">
        <ele>61.5</ele>
        <time>2014-05-18T08:50:25Z</time>
      </trkpt>
      <trkpt lat="47.30466" lon="-1.61031">
        <ele>61.5</ele>
        <time>2014-05-18T08:50:29Z</time>
      </trkpt>
      <trkpt lat="47.30469" lon="-1.61047">
        <ele>64.5</ele>
        <time>2014-05-18T08:50:33Z</time>
      </trkpt>
      <trkpt lat="47.30465" lon="-1.61065">
        <ele>65.5</ele>
        <time>2014-05-18T08:50:37Z</time>
      </trkpt>
      <trkpt lat="47.30479" lon="-1.61074">
        <ele>65.5</ele>
        <time>2014-05-18T08:50:42Z</time>
      </trkpt>
      <trkpt lat="47.30489" lon="-1.61084">
        <ele>65.5</ele>
        <time>2014-05-18T08:50:46Z</time>
      </trkpt>
      <trkpt lat="47.30471" lon="-1.611">
        <ele>74.5</ele>
        <time>2014-05-18T08:50:54Z</time>
      </trkpt>
      <trkpt lat="47.3048" lon="-1.61101">
        <ele>67.5</ele>
        <time>2014-05-18T08:51:02Z</time>
      </trkpt>
      <trkpt lat="47.30485" lon="-1.61114">
        <ele>66.5</ele>
        <time>2014-05-18T08:51:06Z</time>
      </trkpt>
      <trkpt lat="47.3049" lon="-1.61128">
        <ele>65.5</ele>
        <time>2014-05-18T08:51:10Z</time>
      </trkpt>
      <trkpt lat="47.3048" lon="-1.61138">
        <ele>59.5</ele>
        <time>2014-05-18T08:51:17Z</time>
      </trkpt>
      <trkpt lat="47.30469" lon="-1.61143">
        <ele>55.5</ele>
        <time>2014-05-18T08:51:21Z</time>
      </trkpt>
      <trkpt lat="47.30478" lon="-1.61131">
        <ele>56.5</ele>
        <time>2014-05-18T08:51:50Z</time>
      </trkpt>
      <trkpt lat="47.30464" lon="-1.61129">
        <ele>61.5</ele>
        <time>2014-05-18T08:52:02Z</time>
      </trkpt>
      <trkpt lat="47.30458" lon="-1.61143">
        <ele>60.5</ele>
        <time>2014-05-18T08:52:09Z</time>
      </trkpt>
      <trkpt lat="47.30467" lon="-1.61161">
        <ele>56.5</ele>
        <time>2014-05-18T08:52:13Z</time>
      </trkpt>
      <trkpt lat="47.30464" lon="-1.61181">
        <ele>54.5</ele>
        <time>2014-05-18T08:52:21Z</time>
      </trkpt>
      <trkpt lat="47.30472" lon="-1.61175">
        <ele>47.5</ele>
        <time>2014-05-18T08:52:26Z</time>
      </trkpt>
      <trkpt lat="47.30483" lon="-1.6116">
        <ele>48.5</ele>
        <time>2014-05-18T08:52:34Z</time>
      </trkpt>
      <trkpt lat="47.3049" lon="-1.61149">
        <ele>55.5</ele>
        <time>2014-05-18T08:52:42Z</time>
      </trkpt>
      <trkpt lat="47.30498" lon="-1.61136">
        <ele>60.5</ele>
        <time>2014-05-18T08:52:49Z</time>
      </trkpt>
      <trkpt lat="47.30501" lon="-1.6112">
        <ele>63.5</ele>
        <time>2014-05-18T08:52:57Z</time>
      </trkpt>
      <trkpt lat="47.30505" lon="-1.61103">
        <ele>62.5</ele>
        <time>2014-05-18T08:53:05Z</time>
      </trkpt>
      <trkpt lat="47.30511" lon="-1.61118">
        <ele>58.5</ele>
        <time>2014-05-18T08:53:14Z</time>
      </trkpt>
      <trkpt lat="47.30504" lon="-1.61135">
        <ele>58.5</ele>
        <time>2014-05-18T08:53:22Z</time>
      </trkpt>
      <trkpt lat="47.30509" lon="-1.61156">
        <ele>50.5</ele>
        <time>2014-05-18T08:53:26Z</time>
      </trkpt>
      <trkpt lat="47.3052" lon="-1.61146">
        <ele>53.5</ele>
        <time>2014-05-18T08:53:30Z</time>
      </trkpt>
      <trkpt lat="47.30516" lon="-1.61128">
        <ele>52.5</ele>
        <time>2014-05-18T08:53:37Z</time>
      </trkpt>
      <trkpt lat="47.3052" lon="-1.61111">
        <ele>52.5</ele>
        <time>2014-05-18T08:53:45Z</time>
      </trkpt>
      <trkpt lat="47.30521" lon="-1.61092">
        <ele>54.5</ele>
        <time>2014-05-18T08:53:58Z</time>
      </trkpt>
      <trkpt lat="47.30521" lon="-1.61073">
        <ele>55.5</ele>
        <time>2014-05-18T08:54:06Z</time>
      </trkpt>
      <trkpt lat="47.30524" lon="-1.61056">
        <ele>55.5</ele>
        <time>2014-05-18T08:54:14Z</time>
      </trkpt>
      <trkpt lat="47.30527" lon="-1.6104">
        <ele>54.5</ele>
        <time>2014-05-18T08:54:21Z</time>
      </trkpt>
      <trkpt lat="47.30524" lon="-1.61024">
        <ele>57.5</ele>
        <time>2014-05-18T08:54:29Z</time>
      </trkpt>
      <trkpt lat="47.30521" lon="-1.61003">
        <ele>58.5</ele>
        <time>2014-05-18T08:54:37Z</time>
      </trkpt>
      <trkpt lat="47.3052" lon="-1.60989">
        <ele>59.5</ele>
        <time>2014-05-18T08:54:41Z</time>
      </trkpt>
      <trkpt lat="47.30519" lon="-1.60976">
        <ele>59.5</ele>
        <time>2014-05-18T08:54:45Z</time>
      </trkpt>
      <trkpt lat="47.30517" lon="-1.60959">
        <ele>59.5</ele>
        <time>2014-05-18T08:54:49Z</time>
      </trkpt>
      <trkpt lat="47.30514" lon="-1.60945">
        <ele>61.5</ele>
        <time>2014-05-18T08:54:54Z</time>
      </trkpt>
      <trkpt lat="47.30511" lon="-1.60929">
        <ele>62.5</ele>
        <time>2014-05-18T08:54:58Z</time>
      </trkpt>
      <trkpt lat="47.30506" lon="-1.60899">
        <ele>59.5</ele>
        <time>2014-05-18T08:55:06Z</time>
      </trkpt>
      <trkpt lat="47.30504" lon="-1.60884">
        <ele>60.5</ele>
        <time>2014-05-18T08:55:10Z</time>
      </trkpt>
      <trkpt lat="47.30501" lon="-1.60869">
        <ele>57.5</ele>
        <time>2014-05-18T08:55:14Z</time>
      </trkpt>
      <trkpt lat="47.3051" lon="-1.60854">
        <ele>58.5</ele>
        <time>2014-05-18T08:55:18Z</time>
      </trkpt>
      <trkpt lat="47.30525" lon="-1.60849">
        <ele>67.5</ele>
        <time>2014-05-18T08:55:22Z</time>
      </trkpt>
      <trkpt lat="47.3054" lon="-1.60844">
        <ele>68.5</ele>
        <time>2014-05-18T08:55:25Z</time>
      </trkpt>
      <trkpt lat="47.30565" lon="-1.6083">
        <ele>67.5</ele>
        <time>2014-05-18T08:55:29Z</time>
      </trkpt>
      <trkpt lat="47.30586" lon="-1.60821">
        <ele>65.5</ele>
        <time>2014-05-18T08:55:33Z</time>
      </trkpt>
      <trkpt lat="47.30609" lon="-1.60817">
        <ele>59.5</ele>
        <time>2014-05-18T08:55:37Z</time>
      </trkpt>
      <trkpt lat="47.30635" lon="-1.60814">
        <ele>57.5</ele>
        <time>2014-05-18T08:55:41Z</time>
      </trkpt>
      <trkpt lat="47.30658" lon="-1.60799">
        <ele>57.5</ele>
        <time>2014-05-18T08:55:45Z</time>
      </trkpt>
      <trkpt lat="47.30687" lon="-1.60775">
        <ele>53.5</ele>
        <time>2014-05-18T08:55:50Z</time>
      </trkpt>
      <trkpt lat="47.30709" lon="-1.60751">
        <ele>54.5</ele>
        <time>2014-05-18T08:55:54Z</time>
      </trkpt>
      <trkpt lat="47.30731" lon="-1.60724">
        <ele>54.5</ele>
        <time>2014-05-18T08:55:58Z</time>
      </trkpt>
      <trkpt lat="47.30748" lon="-1.60707">
        <ele>54.5</ele>
        <time>2014-05-18T08:56:02Z</time>
      </trkpt>
      <trkpt lat="47.30765" lon="-1.60719">
        <ele>53.5</ele>
        <time>2014-05-18T08:56:06Z</time>
      </trkpt>
      <trkpt lat="47.30783" lon="-1.60742">
        <ele>50.5</ele>
        <time>2014-05-18T08:56:10Z</time>
      </trkpt>
      <trkpt lat="47.30798" lon="-1.60782">
        <ele>48.5</ele>
        <time>2014-05-18T08:56:14Z</time>
      </trkpt>
      <trkpt lat="47.30805" lon="-1.60812">
        <ele>47.5</ele>
        <time>2014-05-18T08:56:17Z</time>
      </trkpt>
      <trkpt lat="47.30812" lon="-1.60835">
        <ele>46.5</ele>
        <time>2014-05-18T08:56:21Z</time>
      </trkpt>
      <trkpt lat="47.30828" lon="-1.60842">
        <ele>41.5</ele>
        <time>2014-05-18T08:56:25Z</time>
      </trkpt>
      <trkpt lat="47.30846" lon="-1.60826">
        <ele>42.5</ele>
        <time>2014-05-18T08:56:29Z</time>
      </trkpt>
      <trkpt lat="47.30871" lon="-1.60808">
        <ele>43.5</ele>
        <time>2014-05-18T08:56:33Z</time>
      </trkpt>
      <trkpt lat="47.30893" lon="-1.60791">
        <ele>42.5</ele>
        <time>2014-05-18T08:56:37Z</time>
      </trkpt>
      <trkpt lat="47.3092" lon="-1.60772">
        <ele>42.5</ele>
        <time>2014-05-18T08:56:41Z</time>
      </trkpt>
      <trkpt lat="47.3094" lon="-1.60759">
        <ele>46.5</ele>
        <time>2014-05-18T08:56:46Z</time>
      </trkpt>
      <trkpt lat="47.3095" lon="-1.60756">
        <ele>46.5</ele>
        <time>2014-05-18T08:56:50Z</time>
      </trkpt>
      <trkpt lat="47.30976" lon="-1.60755">
        <ele>46.5</ele>
        <time>2014-05-18T08:56:54Z</time>
      </trkpt>
      <trkpt lat="47.3099" lon="-1.60753">
        <ele>48.5</ele>
        <time>2014-05-18T08:56:58Z</time>
      </trkpt>
      <trkpt lat="47.31001" lon="-1.60752">
        <ele>51.5</ele>
        <time>2014-05-18T08:57:02Z</time>
      </trkpt>
      <trkpt lat="47.31012" lon="-1.60749">
        <ele>53.5</ele>
        <time>2014-05-18T08:57:06Z</time>
      </trkpt>
      <trkpt lat="47.31023" lon="-1.60747">
        <ele>52.5</ele>
        <time>2014-05-18T08:57:10Z</time>
      </trkpt>
      <trkpt lat="47.31032" lon="-1.60743">
        <ele>52.5</ele>
        <time>2014-05-18T08:57:13Z</time>
      </trkpt>
      <trkpt lat="47.31046" lon="-1.60738">
        <ele>54.5</ele>
        <time>2014-05-18T08:57:17Z</time>
      </trkpt>
      <trkpt lat="47.3106" lon="-1.60732">
        <ele>54.5</ele>
        <time>2014-05-18T08:57:21Z</time>
      </trkpt>
      <trkpt lat="47.31074" lon="-1.60725">
        <ele>54.5</ele>
        <time>2014-05-18T08:57:25Z</time>
      </trkpt>
      <trkpt lat="47.31089" lon="-1.60721">
        <ele>55.5</ele>
        <time>2014-05-18T08:57:29Z</time>
      </trkpt>
      <trkpt lat="47.31108" lon="-1.60718">
        <ele>53.5</ele>
        <time>2014-05-18T08:57:33Z</time>
      </trkpt>
      <trkpt lat="47.31123" lon="-1.60718">
        <ele>52.5</ele>
        <time>2014-05-18T08:57:38Z</time>
      </trkpt>
      <trkpt lat="47.31138" lon="-1.60717">
        <ele>50.5</ele>
        <time>2014-05-18T08:57:42Z</time>
      </trkpt>
      <trkpt lat="47.3115" lon="-1.60715">
        <ele>49.5</ele>
        <time>2014-05-18T08:57:46Z</time>
      </trkpt>
      <trkpt lat="47.31169" lon="-1.60714">
        <ele>50.5</ele>
        <time>2014-05-18T08:57:50Z</time>
      </trkpt>
      <trkpt lat="47.31185" lon="-1.60716">
        <ele>52.5</ele>
        <time>2014-05-18T08:57:54Z</time>
      </trkpt>
      <trkpt lat="47.31201" lon="-1.60722">
        <ele>49.5</ele>
        <time>2014-05-18T08:57:58Z</time>
      </trkpt>
      <trkpt lat="47.3122" lon="-1.60727">
        <ele>49.5</ele>
        <time>2014-05-18T08:58:02Z</time>
      </trkpt>
      <trkpt lat="47.31239" lon="-1.6073">
        <ele>52.5</ele>
        <time>2014-05-18T08:58:06Z</time>
      </trkpt>
      <trkpt lat="47.31258" lon="-1.6072">
        <ele>51.5</ele>
        <time>2014-05-18T08:58:10Z</time>
      </trkpt>
      <trkpt lat="47.31274" lon="-1.60716">
        <ele>48.5</ele>
        <time>2014-05-18T08:58:13Z</time>
      </trkpt>
      <trkpt lat="47.31294" lon="-1.6071">
        <ele>51.5</ele>
        <time>2014-05-18T08:58:17Z</time>
      </trkpt>
      <trkpt lat="47.31312" lon="-1.60707">
        <ele>49.5</ele>
        <time>2014-05-18T08:58:21Z</time>
      </trkpt>
      <trkpt lat="47.31335" lon="-1.60703">
        <ele>48.5</ele>
        <time>2014-05-18T08:58:25Z</time>
      </trkpt>
      <trkpt lat="47.31352" lon="-1.60688">
        <ele>52.5</ele>
        <time>2014-05-18T08:58:29Z</time>
      </trkpt>
      <trkpt lat="47.31384" lon="-1.60667">
        <ele>51.5</ele>
        <time>2014-05-18T08:58:33Z</time>
      </trkpt>
      <trkpt lat="47.31411" lon="-1.60651">
        <ele>52.5</ele>
        <time>2014-05-18T08:58:38Z</time>
      </trkpt>
      <trkpt lat="47.31439" lon="-1.60636">
        <ele>52.5</ele>
        <time>2014-05-18T08:58:42Z</time>
      </trkpt>
      <trkpt lat="47.31469" lon="-1.60629">
        <ele>58.5</ele>
        <time>2014-05-18T08:58:46Z</time>
      </trkpt>
      <trkpt lat="47.31495" lon="-1.60649">
        <ele>56.5</ele>
        <time>2014-05-18T08:58:50Z</time>
      </trkpt>
      <trkpt lat="47.31524" lon="-1.60646">
        <ele>52.5</ele>
        <time>2014-05-18T08:58:54Z</time>
      </trkpt>
      <trkpt lat="47.31547" lon="-1.60655">
        <ele>47.5</ele>
        <time>2014-05-18T08:58:58Z</time>
      </trkpt>
      <trkpt lat="47.31555" lon="-1.60676">
        <ele>45.5</ele>
        <time>2014-05-18T08:59:01Z</time>
      </trkpt>
      <trkpt lat="47.31556" lon="-1.60714">
        <ele>42.5</ele>
        <time>2014-05-18T08:59:05Z</time>
      </trkpt>
      <trkpt lat="47.31553" lon="-1.60755">
        <ele>38.5</ele>
        <time>2014-05-18T08:59:09Z</time>
      </trkpt>
      <trkpt lat="47.31552" lon="-1.60792">
        <ele>35.5</ele>
        <time>2014-05-18T08:59:13Z</time>
      </trkpt>
      <trkpt lat="47.31555" lon="-1.60838">
        <ele>32.5</ele>
        <time>2014-05-18T08:59:17Z</time>
      </trkpt>
      <trkpt lat="47.31558" lon="-1.60863">
        <ele>30.5</ele>
        <time>2014-05-18T08:59:21Z</time>
      </trkpt>
      <trkpt lat="47.31562" lon="-1.60885">
        <ele>31.5</ele>
        <time>2014-05-18T08:59:26Z</time>
      </trkpt>
      <trkpt lat="47.31566" lon="-1.60905">
        <ele>29.5</ele>
        <time>2014-05-18T08:59:30Z</time>
      </trkpt>
      <trkpt lat="47.31568" lon="-1.60923">
        <ele>29.5</ele>
        <time>2014-05-18T08:59:34Z</time>
      </trkpt>
      <trkpt lat="47.3157" lon="-1.60941">
        <ele>30.5</ele>
        <time>2014-05-18T08:59:38Z</time>
      </trkpt>
      <trkpt lat="47.31573" lon="-1.60955">
        <ele>29.5</ele>
        <time>2014-05-18T08:59:42Z</time>
      </trkpt>
      <trkpt lat="47.31577" lon="-1.6097">
        <ele>28.5</ele>
        <time>2014-05-18T08:59:46Z</time>
      </trkpt>
      <trkpt lat="47.31578" lon="-1.60983">
        <ele>31.5</ele>
        <time>2014-05-18T08:59:50Z</time>
      </trkpt>
      <trkpt lat="47.31582" lon="-1.60998">
        <ele>32.5</ele>
        <time>2014-05-18T08:59:54Z</time>
      </trkpt>
      <trkpt lat="47.31589" lon="-1.61022">
        <ele>35.5</ele>
        <time>2014-05-18T09:00:01Z</time>
      </trkpt>
      <trkpt lat="47.31591" lon="-1.61035">
        <ele>31.5</ele>
        <time>2014-05-18T09:00:05Z</time>
      </trkpt>
      <trkpt lat="47.31591" lon="-1.61051">
        <ele>30.5</ele>
        <time>2014-05-18T09:00:09Z</time>
      </trkpt>
      <trkpt lat="47.31594" lon="-1.61065">
        <ele>31.5</ele>
        <time>2014-05-18T09:00:13Z</time>
      </trkpt>
      <trkpt lat="47.31597" lon="-1.6108">
        <ele>30.5</ele>
        <time>2014-05-18T09:00:17Z</time>
      </trkpt>
      <trkpt lat="47.31599" lon="-1.61112">
        <ele>32.5</ele>
        <time>2014-05-18T09:00:25Z</time>
      </trkpt>
      <trkpt lat="47.31588" lon="-1.61116">
        <ele>35.5</ele>
        <time>2014-05-18T09:00:30Z</time>
      </trkpt>
      <trkpt lat="47.31577" lon="-1.61118">
        <ele>37.5</ele>
        <time>2014-05-18T09:00:34Z</time>
      </trkpt>
      <trkpt lat="47.31568" lon="-1.61123">
        <ele>38.5</ele>
        <time>2014-05-18T09:00:38Z</time>
      </trkpt>
      <trkpt lat="47.31559" lon="-1.6113">
        <ele>39.5</ele>
        <time>2014-05-18T09:00:42Z</time>
      </trkpt>
      <trkpt lat="47.31554" lon="-1.61143">
        <ele>38.5</ele>
        <time>2014-05-18T09:00:46Z</time>
      </trkpt>
      <trkpt lat="47.31555" lon="-1.61158">
        <ele>39.5</ele>
        <time>2014-05-18T09:00:50Z</time>
      </trkpt>
      <trkpt lat="47.3156" lon="-1.61185">
        <ele>39.5</ele>
        <time>2014-05-18T09:00:57Z</time>
      </trkpt>
      <trkpt lat="47.31563" lon="-1.612">
        <ele>41.5</ele>
        <time>2014-05-18T09:01:01Z</time>
      </trkpt>
      <trkpt lat="47.31566" lon="-1.6122">
        <ele>41.5</ele>
        <time>2014-05-18T09:01:05Z</time>
      </trkpt>
      <trkpt lat="47.31569" lon="-1.61237">
        <ele>41.5</ele>
        <time>2014-05-18T09:01:10Z</time>
      </trkpt>
      <trkpt lat="47.31572" lon="-1.61253">
        <ele>42.5</ele>
        <time>2014-05-18T09:01:14Z</time>
      </trkpt>
      <trkpt lat="47.31575" lon="-1.61269">
        <ele>43.5</ele>
        <time>2014-05-18T09:01:18Z</time>
      </trkpt>
      <trkpt lat="47.31577" lon="-1.61286">
        <ele>43.5</ele>
        <time>2014-05-18T09:01:22Z</time>
      </trkpt>
      <trkpt lat="47.31578" lon="-1.61303">
        <ele>44.5</ele>
        <time>2014-05-18T09:01:26Z</time>
      </trkpt>
      <trkpt lat="47.3158" lon="-1.6132">
        <ele>43.5</ele>
        <time>2014-05-18T09:01:30Z</time>
      </trkpt>
      <trkpt lat="47.3158" lon="-1.61338">
        <ele>44.5</ele>
        <time>2014-05-18T09:01:34Z</time>
      </trkpt>
      <trkpt lat="47.31578" lon="-1.61355">
        <ele>44.5</ele>
        <time>2014-05-18T09:01:38Z</time>
      </trkpt>
      <trkpt lat="47.31567" lon="-1.61365">
        <ele>45.5</ele>
        <time>2014-05-18T09:01:42Z</time>
      </trkpt>
      <trkpt lat="47.31557" lon="-1.61367">
        <ele>45.5</ele>
        <time>2014-05-18T09:01:45Z</time>
      </trkpt>
      <trkpt lat="47.31541" lon="-1.61369">
        <ele>45.5</ele>
        <time>2014-05-18T09:01:49Z</time>
      </trkpt>
      <trkpt lat="47.31526" lon="-1.61372">
        <ele>43.5</ele>
        <time>2014-05-18T09:01:53Z</time>
      </trkpt>
      <trkpt lat="47.31504" lon="-1.6138">
        <ele>42.5</ele>
        <time>2014-05-18T09:01:57Z</time>
      </trkpt>
      <trkpt lat="47.31483" lon="-1.61384">
        <ele>43.5</ele>
        <time>2014-05-18T09:02:01Z</time>
      </trkpt>
      <trkpt lat="47.31458" lon="-1.61395">
        <ele>41.5</ele>
        <time>2014-05-18T09:02:05Z</time>
      </trkpt>
      <trkpt lat="47.31457" lon="-1.61423">
        <ele>43.5</ele>
        <time>2014-05-18T09:02:10Z</time>
      </trkpt>
      <trkpt lat="47.3146" lon="-1.61453">
        <ele>42.5</ele>
        <time>2014-05-18T09:02:14Z</time>
      </trkpt>
      <trkpt lat="47.31463" lon="-1.61478">
        <ele>43.5</ele>
        <time>2014-05-18T09:02:18Z</time>
      </trkpt>
      <trkpt lat="47.31463" lon="-1.61506">
        <ele>44.5</ele>
        <time>2014-05-18T09:02:22Z</time>
      </trkpt>
      <trkpt lat="47.31445" lon="-1.61515">
        <ele>44.5</ele>
        <time>2014-05-18T09:02:26Z</time>
      </trkpt>
      <trkpt lat="47.31426" lon="-1.61518">
        <ele>46.5</ele>
        <time>2014-05-18T09:02:30Z</time>
      </trkpt>
      <trkpt lat="47.31408" lon="-1.61524">
        <ele>45.5</ele>
        <time>2014-05-18T09:02:34Z</time>
      </trkpt>
      <trkpt lat="47.31389" lon="-1.61525">
        <ele>46.5</ele>
        <time>2014-05-18T09:02:38Z</time>
      </trkpt>
      <trkpt lat="47.31369" lon="-1.61525">
        <ele>47.5</ele>
        <time>2014-05-18T09:02:42Z</time>
      </trkpt>
      <trkpt lat="47.31354" lon="-1.61525">
        <ele>47.5</ele>
        <time>2014-05-18T09:02:45Z</time>
      </trkpt>
      <trkpt lat="47.31336" lon="-1.61525">
        <ele>46.5</ele>
        <time>2014-05-18T09:02:49Z</time>
      </trkpt>
      <trkpt lat="47.31316" lon="-1.61526">
        <ele>46.5</ele>
        <time>2014-05-18T09:02:53Z</time>
      </trkpt>
      <trkpt lat="47.31293" lon="-1.61531">
        <ele>47.5</ele>
        <time>2014-05-18T09:02:57Z</time>
      </trkpt>
      <trkpt lat="47.31283" lon="-1.61533">
        <ele>47.5</ele>
        <time>2014-05-18T09:03:01Z</time>
      </trkpt>
      <trkpt lat="47.31255" lon="-1.6154">
        <ele>48.5</ele>
        <time>2014-05-18T09:03:06Z</time>
      </trkpt>
      <trkpt lat="47.31237" lon="-1.61543">
        <ele>49.5</ele>
        <time>2014-05-18T09:03:10Z</time>
      </trkpt>
      <trkpt lat="47.31217" lon="-1.61543">
        <ele>49.5</ele>
        <time>2014-05-18T09:03:14Z</time>
      </trkpt>
      <trkpt lat="47.31199" lon="-1.61539">
        <ele>49.5</ele>
        <time>2014-05-18T09:03:18Z</time>
      </trkpt>
      <trkpt lat="47.3118" lon="-1.61537">
        <ele>48.5</ele>
        <time>2014-05-18T09:03:22Z</time>
      </trkpt>
      <trkpt lat="47.31162" lon="-1.61533">
        <ele>48.5</ele>
        <time>2014-05-18T09:03:26Z</time>
      </trkpt>
      <trkpt lat="47.31142" lon="-1.61529">
        <ele>49.5</ele>
        <time>2014-05-18T09:03:30Z</time>
      </trkpt>
      <trkpt lat="47.31128" lon="-1.61529">
        <ele>50.5</ele>
        <time>2014-05-18T09:03:33Z</time>
      </trkpt>
      <trkpt lat="47.31108" lon="-1.61527">
        <ele>48.5</ele>
        <time>2014-05-18T09:03:37Z</time>
      </trkpt>
      <trkpt lat="47.31091" lon="-1.61537">
        <ele>47.5</ele>
        <time>2014-05-18T09:03:41Z</time>
      </trkpt>
      <trkpt lat="47.31069" lon="-1.61548">
        <ele>47.5</ele>
        <time>2014-05-18T09:03:45Z</time>
      </trkpt>
      <trkpt lat="47.31052" lon="-1.61558">
        <ele>48.5</ele>
        <time>2014-05-18T09:03:49Z</time>
      </trkpt>
      <trkpt lat="47.31033" lon="-1.61562">
        <ele>47.5</ele>
        <time>2014-05-18T09:03:53Z</time>
      </trkpt>
      <trkpt lat="47.31012" lon="-1.61564">
        <ele>44.5</ele>
        <time>2014-05-18T09:03:58Z</time>
      </trkpt>
      <trkpt lat="47.30995" lon="-1.61566">
        <ele>45.5</ele>
        <time>2014-05-18T09:04:02Z</time>
      </trkpt>
      <trkpt lat="47.3098" lon="-1.61554">
        <ele>46.5</ele>
        <time>2014-05-18T09:04:06Z</time>
      </trkpt>
      <trkpt lat="47.30969" lon="-1.61532">
        <ele>48.5</ele>
        <time>2014-05-18T09:04:10Z</time>
      </trkpt>
      <trkpt lat="47.30961" lon="-1.61508">
        <ele>49.5</ele>
        <time>2014-05-18T09:04:14Z</time>
      </trkpt>
      <trkpt lat="47.30952" lon="-1.61483">
        <ele>49.5</ele>
        <time>2014-05-18T09:04:18Z</time>
      </trkpt>
      <trkpt lat="47.30933" lon="-1.61469">
        <ele>52.5</ele>
        <time>2014-05-18T09:04:22Z</time>
      </trkpt>
      <trkpt lat="47.30918" lon="-1.61462">
        <ele>49.5</ele>
        <time>2014-05-18T09:04:25Z</time>
      </trkpt>
      <trkpt lat="47.30897" lon="-1.61454">
        <ele>47.5</ele>
        <time>2014-05-18T09:04:29Z</time>
      </trkpt>
      <trkpt lat="47.30872" lon="-1.61452">
        <ele>46.5</ele>
        <time>2014-05-18T09:04:33Z</time>
      </trkpt>
      <trkpt lat="47.30859" lon="-1.61448">
        <ele>48.5</ele>
        <time>2014-05-18T09:04:37Z</time>
      </trkpt>
      <trkpt lat="47.30834" lon="-1.61437">
        <ele>44.5</ele>
        <time>2014-05-18T09:04:41Z</time>
      </trkpt>
      <trkpt lat="47.3081" lon="-1.61454">
        <ele>43.5</ele>
        <time>2014-05-18T09:04:45Z</time>
      </trkpt>
      <trkpt lat="47.30789" lon="-1.61465">
        <ele>44.5</ele>
        <time>2014-05-18T09:04:50Z</time>
      </trkpt>
      <trkpt lat="47.30769" lon="-1.61478">
        <ele>47.5</ele>
        <time>2014-05-18T09:04:54Z</time>
      </trkpt>
      <trkpt lat="47.30749" lon="-1.61488">
        <ele>47.5</ele>
        <time>2014-05-18T09:04:58Z</time>
      </trkpt>
      <trkpt lat="47.30743" lon="-1.61506">
        <ele>48.5</ele>
        <time>2014-05-18T09:05:02Z</time>
      </trkpt>
      <trkpt lat="47.30744" lon="-1.61524">
        <ele>48.5</ele>
        <time>2014-05-18T09:05:06Z</time>
      </trkpt>
      <trkpt lat="47.30749" lon="-1.61539">
        <ele>51.5</ele>
        <time>2014-05-18T09:05:10Z</time>
      </trkpt>
      <trkpt lat="47.30752" lon="-1.61552">
        <ele>51.5</ele>
        <time>2014-05-18T09:05:17Z</time>
      </trkpt>
      <trkpt lat="47.30752" lon="-1.61575">
        <ele>50.5</ele>
        <time>2014-05-18T09:05:25Z</time>
      </trkpt>
      <trkpt lat="47.30756" lon="-1.61595">
        <ele>54.5</ele>
        <time>2014-05-18T09:05:34Z</time>
      </trkpt>
      <trkpt lat="47.30765" lon="-1.61609">
        <ele>62.5</ele>
        <time>2014-05-18T09:05:42Z</time>
      </trkpt>
      <trkpt lat="47.30762" lon="-1.61623">
        <ele>61.5</ele>
        <time>2014-05-18T09:05:50Z</time>
      </trkpt>
      <trkpt lat="47.30753" lon="-1.61629">
        <ele>64.5</ele>
        <time>2014-05-18T09:05:57Z</time>
      </trkpt>
      <trkpt lat="47.30763" lon="-1.61633">
        <ele>68.5</ele>
        <time>2014-05-18T09:06:05Z</time>
      </trkpt>
      <trkpt lat="47.30778" lon="-1.61632">
        <ele>73.5</ele>
        <time>2014-05-18T09:06:09Z</time>
      </trkpt>
      <trkpt lat="47.30779" lon="-1.61653">
        <ele>76.5</ele>
        <time>2014-05-18T09:06:18Z</time>
      </trkpt>
      <trkpt lat="47.30788" lon="-1.61657">
        <ele>77.5</ele>
        <time>2014-05-18T09:06:26Z</time>
      </trkpt>
      <trkpt lat="47.30797" lon="-1.61675">
        <ele>73.5</ele>
        <time>2014-05-18T09:06:38Z</time>
      </trkpt>
      <trkpt lat="47.30797" lon="-1.61694">
        <ele>70.5</ele>
        <time>2014-05-18T09:06:46Z</time>
      </trkpt>
      <trkpt lat="47.30807" lon="-1.61699">
        <ele>74.5</ele>
        <time>2014-05-18T09:06:53Z</time>
      </trkpt>
      <trkpt lat="47.30817" lon="-1.61709">
        <ele>74.5</ele>
        <time>2014-05-18T09:07:01Z</time>
      </trkpt>
      <trkpt lat="47.30829" lon="-1.61702">
        <ele>68.5</ele>
        <time>2014-05-18T09:07:05Z</time>
      </trkpt>
      <trkpt lat="47.30853" lon="-1.61706">
        <ele>68.5</ele>
        <time>2014-05-18T09:07:09Z</time>
      </trkpt>
      <trkpt lat="47.30871" lon="-1.61711">
        <ele>71.5</ele>
        <time>2014-05-18T09:07:13Z</time>
      </trkpt>
      <trkpt lat="47.30888" lon="-1.61719">
        <ele>67.5</ele>
        <time>2014-05-18T09:07:18Z</time>
      </trkpt>
      <trkpt lat="47.30902" lon="-1.61729">
        <ele>67.5</ele>
        <time>2014-05-18T09:07:22Z</time>
      </trkpt>
      <trkpt lat="47.30906" lon="-1.61741">
        <ele>65.5</ele>
        <time>2014-05-18T09:07:26Z</time>
      </trkpt>
      <trkpt lat="47.30908" lon="-1.6176">
        <ele>63.5</ele>
        <time>2014-05-18T09:07:30Z</time>
      </trkpt>
      <trkpt lat="47.30909" lon="-1.61777">
        <ele>64.5</ele>
        <time>2014-05-18T09:07:34Z</time>
      </trkpt>
      <trkpt lat="47.30909" lon="-1.61795">
        <ele>64.5</ele>
        <time>2014-05-18T09:07:38Z</time>
      </trkpt>
      <trkpt lat="47.30906" lon="-1.61825">
        <ele>65.5</ele>
        <time>2014-05-18T09:07:45Z</time>
      </trkpt>
      <trkpt lat="47.30906" lon="-1.61839">
        <ele>65.5</ele>
        <time>2014-05-18T09:07:49Z</time>
      </trkpt>
      <trkpt lat="47.30922" lon="-1.6184">
        <ele>64.5</ele>
        <time>2014-05-18T09:07:53Z</time>
      </trkpt>
      <trkpt lat="47.30943" lon="-1.6184">
        <ele>62.5</ele>
        <time>2014-05-18T09:07:57Z</time>
      </trkpt>
      <trkpt lat="47.30965" lon="-1.61839">
        <ele>62.5</ele>
        <time>2014-05-18T09:08:01Z</time>
      </trkpt>
      <trkpt lat="47.30987" lon="-1.61842">
        <ele>61.5</ele>
        <time>2014-05-18T09:08:05Z</time>
      </trkpt>
      <trkpt lat="47.31011" lon="-1.61841">
        <ele>60.5</ele>
        <time>2014-05-18T09:08:10Z</time>
      </trkpt>
      <trkpt lat="47.31036" lon="-1.61841">
        <ele>59.5</ele>
        <time>2014-05-18T09:08:14Z</time>
      </trkpt>
      <trkpt lat="47.31061" lon="-1.61845">
        <ele>58.5</ele>
        <time>2014-05-18T09:08:18Z</time>
      </trkpt>
      <trkpt lat="47.3108" lon="-1.61854">
        <ele>58.5</ele>
        <time>2014-05-18T09:08:22Z</time>
      </trkpt>
      <trkpt lat="47.311" lon="-1.61876">
        <ele>59.5</ele>
        <time>2014-05-18T09:08:26Z</time>
      </trkpt>
      <trkpt lat="47.31099" lon="-1.61897">
        <ele>55.5</ele>
        <time>2014-05-18T09:08:54Z</time>
      </trkpt>
      <trkpt lat="47.31101" lon="-1.61918">
        <ele>56.5</ele>
        <time>2014-05-18T09:08:58Z</time>
      </trkpt>
      <trkpt lat="47.31091" lon="-1.61931">
        <ele>57.5</ele>
        <time>2014-05-18T09:09:02Z</time>
      </trkpt>
      <trkpt lat="47.31076" lon="-1.61936">
        <ele>58.5</ele>
        <time>2014-05-18T09:09:06Z</time>
      </trkpt>
      <trkpt lat="47.31067" lon="-1.61944">
        <ele>56.5</ele>
        <time>2014-05-18T09:09:10Z</time>
      </trkpt>
      <trkpt lat="47.31061" lon="-1.61957">
        <ele>57.5</ele>
        <time>2014-05-18T09:09:14Z</time>
      </trkpt>
      <trkpt lat="47.31054" lon="-1.61976">
        <ele>57.5</ele>
        <time>2014-05-18T09:09:21Z</time>
      </trkpt>
      <trkpt lat="47.31052" lon="-1.6199">
        <ele>59.5</ele>
        <time>2014-05-18T09:09:25Z</time>
      </trkpt>
      <trkpt lat="47.31048" lon="-1.62011">
        <ele>56.5</ele>
        <time>2014-05-18T09:09:29Z</time>
      </trkpt>
      <trkpt lat="47.31045" lon="-1.62025">
        <ele>57.5</ele>
        <time>2014-05-18T09:09:33Z</time>
      </trkpt>
      <trkpt lat="47.31039" lon="-1.62051">
        <ele>54.5</ele>
        <time>2014-05-18T09:09:37Z</time>
      </trkpt>
      <trkpt lat="47.31037" lon="-1.62067">
        <ele>49.5</ele>
        <time>2014-05-18T09:09:41Z</time>
      </trkpt>
      <trkpt lat="47.31034" lon="-1.62085">
        <ele>52.5</ele>
        <time>2014-05-18T09:09:46Z</time>
      </trkpt>
      <trkpt lat="47.3103" lon="-1.62103">
        <ele>55.5</ele>
        <time>2014-05-18T09:09:50Z</time>
      </trkpt>
      <trkpt lat="47.31028" lon="-1.62126">
        <ele>63.5</ele>
        <time>2014-05-18T09:09:54Z</time>
      </trkpt>
      <trkpt lat="47.31026" lon="-1.62146">
        <ele>65.5</ele>
        <time>2014-05-18T09:09:58Z</time>
      </trkpt>
      <trkpt lat="47.3102" lon="-1.62167">
        <ele>63.5</ele>
        <time>2014-05-18T09:10:02Z</time>
      </trkpt>
      <trkpt lat="47.31011" lon="-1.62187">
        <ele>61.5</ele>
        <time>2014-05-18T09:10:10Z</time>
      </trkpt>
      <trkpt lat="47.31008" lon="-1.62205">
        <ele>61.5</ele>
        <time>2014-05-18T09:10:14Z</time>
      </trkpt>
      <trkpt lat="47.31001" lon="-1.62224">
        <ele>61.5</ele>
        <time>2014-05-18T09:10:18Z</time>
      </trkpt>
      <trkpt lat="47.30995" lon="-1.62238">
        <ele>58.5</ele>
        <time>2014-05-18T09:10:21Z</time>
      </trkpt>
      <trkpt lat="47.30986" lon="-1.62255">
        <ele>57.5</ele>
        <time>2014-05-18T09:10:25Z</time>
      </trkpt>
      <trkpt lat="47.30976" lon="-1.62271">
        <ele>55.5</ele>
        <time>2014-05-18T09:10:29Z</time>
      </trkpt>
      <trkpt lat="47.30961" lon="-1.623">
        <ele>54.5</ele>
        <time>2014-05-18T09:10:33Z</time>
      </trkpt>
      <trkpt lat="47.30956" lon="-1.62318">
        <ele>55.5</ele>
        <time>2014-05-18T09:10:37Z</time>
      </trkpt>
      <trkpt lat="47.30966" lon="-1.62324">
        <ele>57.5</ele>
        <time>2014-05-18T09:10:42Z</time>
      </trkpt>
      <trkpt lat="47.30977" lon="-1.62335">
        <ele>58.5</ele>
        <time>2014-05-18T09:10:46Z</time>
      </trkpt>
      <trkpt lat="47.30986" lon="-1.62353">
        <ele>56.5</ele>
        <time>2014-05-18T09:10:50Z</time>
      </trkpt>
      <trkpt lat="47.30989" lon="-1.62374">
        <ele>57.5</ele>
        <time>2014-05-18T09:10:54Z</time>
      </trkpt>
      <trkpt lat="47.30989" lon="-1.62395">
        <ele>58.5</ele>
        <time>2014-05-18T09:10:58Z</time>
      </trkpt>
      <trkpt lat="47.3099" lon="-1.62415">
        <ele>59.5</ele>
        <time>2014-05-18T09:11:02Z</time>
      </trkpt>
      <trkpt lat="47.30996" lon="-1.62433">
        <ele>58.5</ele>
        <time>2014-05-18T09:11:06Z</time>
      </trkpt>
      <trkpt lat="47.31001" lon="-1.62447">
        <ele>57.5</ele>
        <time>2014-05-18T09:11:09Z</time>
      </trkpt>
      <trkpt lat="47.31019" lon="-1.62464">
        <ele>57.5</ele>
        <time>2014-05-18T09:11:13Z</time>
      </trkpt>
      <trkpt lat="47.31042" lon="-1.6248">
        <ele>56.5</ele>
        <time>2014-05-18T09:11:17Z</time>
      </trkpt>
      <trkpt lat="47.31055" lon="-1.62512">
        <ele>54.5</ele>
        <time>2014-05-18T09:11:21Z</time>
      </trkpt>
      <trkpt lat="47.31057" lon="-1.62564">
        <ele>51.5</ele>
        <time>2014-05-18T09:11:25Z</time>
      </trkpt>
      <trkpt lat="47.31052" lon="-1.62594">
        <ele>50.5</ele>
        <time>2014-05-18T09:11:29Z</time>
      </trkpt>
      <trkpt lat="47.3104" lon="-1.62614">
        <ele>51.5</ele>
        <time>2014-05-18T09:11:33Z</time>
      </trkpt>
      <trkpt lat="47.31027" lon="-1.62631">
        <ele>50.5</ele>
        <time>2014-05-18T09:11:37Z</time>
      </trkpt>
      <trkpt lat="47.31026" lon="-1.62648">
        <ele>51.5</ele>
        <time>2014-05-18T09:11:42Z</time>
      </trkpt>
      <trkpt lat="47.31041" lon="-1.62652">
        <ele>54.5</ele>
        <time>2014-05-18T09:11:50Z</time>
      </trkpt>
      <trkpt lat="47.31053" lon="-1.62649">
        <ele>54.5</ele>
        <time>2014-05-18T09:11:54Z</time>
      </trkpt>
      <trkpt lat="47.31068" lon="-1.62649">
        <ele>54.5</ele>
        <time>2014-05-18T09:11:58Z</time>
      </trkpt>
      <trkpt lat="47.3109" lon="-1.62661">
        <ele>54.5</ele>
        <time>2014-05-18T09:12:02Z</time>
      </trkpt>
      <trkpt lat="47.31107" lon="-1.62668">
        <ele>55.5</ele>
        <time>2014-05-18T09:12:05Z</time>
      </trkpt>
      <trkpt lat="47.3113" lon="-1.62682">
        <ele>56.5</ele>
        <time>2014-05-18T09:12:09Z</time>
      </trkpt>
      <trkpt lat="47.31147" lon="-1.62704">
        <ele>57.5</ele>
        <time>2014-05-18T09:12:13Z</time>
      </trkpt>
      <trkpt lat="47.31161" lon="-1.62727">
        <ele>57.5</ele>
        <time>2014-05-18T09:12:17Z</time>
      </trkpt>
      <trkpt lat="47.31167" lon="-1.62737">
        <ele>57.5</ele>
        <time>2014-05-18T09:12:21Z</time>
      </trkpt>
      <trkpt lat="47.3118" lon="-1.62764">
        <ele>56.5</ele>
        <time>2014-05-18T09:12:26Z</time>
      </trkpt>
      <trkpt lat="47.31187" lon="-1.6278">
        <ele>59.5</ele>
        <time>2014-05-18T09:12:30Z</time>
      </trkpt>
      <trkpt lat="47.31191" lon="-1.62795">
        <ele>59.5</ele>
        <time>2014-05-18T09:12:34Z</time>
      </trkpt>
      <trkpt lat="47.31195" lon="-1.62814">
        <ele>58.5</ele>
        <time>2014-05-18T09:12:38Z</time>
      </trkpt>
      <trkpt lat="47.312" lon="-1.62832">
        <ele>59.5</ele>
        <time>2014-05-18T09:12:42Z</time>
      </trkpt>
      <trkpt lat="47.31205" lon="-1.62851">
        <ele>58.5</ele>
        <time>2014-05-18T09:12:46Z</time>
      </trkpt>
      <trkpt lat="47.31212" lon="-1.62869">
        <ele>58.5</ele>
        <time>2014-05-18T09:12:50Z</time>
      </trkpt>
      <trkpt lat="47.3122" lon="-1.62885">
        <ele>57.5</ele>
        <time>2014-05-18T09:12:53Z</time>
      </trkpt>
      <trkpt lat="47.31234" lon="-1.62908">
        <ele>57.5</ele>
        <time>2014-05-18T09:12:57Z</time>
      </trkpt>
      <trkpt lat="47.31244" lon="-1.62933">
        <ele>56.5</ele>
        <time>2014-05-18T09:13:01Z</time>
      </trkpt>
      <trkpt lat="47.31252" lon="-1.6297">
        <ele>55.5</ele>
        <time>2014-05-18T09:13:05Z</time>
      </trkpt>
      <trkpt lat="47.31261" lon="-1.6299">
        <ele>57.5</ele>
        <time>2014-05-18T09:13:09Z</time>
      </trkpt>
      <trkpt lat="47.31281" lon="-1.62984">
        <ele>57.5</ele>
        <time>2014-05-18T09:13:13Z</time>
      </trkpt>
      <trkpt lat="47.31301" lon="-1.62975">
        <ele>57.5</ele>
        <time>2014-05-18T09:13:18Z</time>
      </trkpt>
      <trkpt lat="47.31318" lon="-1.62946">
        <ele>53.5</ele>
        <time>2014-05-18T09:13:22Z</time>
      </trkpt>
      <trkpt lat="47.31333" lon="-1.62915">
        <ele>50.5</ele>
        <time>2014-05-18T09:13:26Z</time>
      </trkpt>
      <trkpt lat="47.31333" lon="-1.6288">
        <ele>49.5</ele>
        <time>2014-05-18T09:13:30Z</time>
      </trkpt>
      <trkpt lat="47.31328" lon="-1.62852">
        <ele>49.5</ele>
        <time>2014-05-18T09:13:34Z</time>
      </trkpt>
      <trkpt lat="47.31324" lon="-1.62825">
        <ele>50.5</ele>
        <time>2014-05-18T09:13:38Z</time>
      </trkpt>
      <trkpt lat="47.31317" lon="-1.628">
        <ele>50.5</ele>
        <time>2014-05-18T09:13:42Z</time>
      </trkpt>
      <trkpt lat="47.31313" lon="-1.62782">
        <ele>50.5</ele>
        <time>2014-05-18T09:13:45Z</time>
      </trkpt>
      <trkpt lat="47.31308" lon="-1.62757">
        <ele>51.5</ele>
        <time>2014-05-18T09:13:49Z</time>
      </trkpt>
      <trkpt lat="47.31302" lon="-1.62731">
        <ele>50.5</ele>
        <time>2014-05-18T09:13:53Z</time>
      </trkpt>
      <trkpt lat="47.31293" lon="-1.62694">
        <ele>50.5</ele>
        <time>2014-05-18T09:13:57Z</time>
      </trkpt>
      <trkpt lat="47.31288" lon="-1.62661">
        <ele>46.5</ele>
        <time>2014-05-18T09:14:01Z</time>
      </trkpt>
      <trkpt lat="47.31284" lon="-1.62636">
        <ele>46.5</ele>
        <time>2014-05-18T09:14:05Z</time>
      </trkpt>
      <trkpt lat="47.31277" lon="-1.62587">
        <ele>45.5</ele>
        <time>2014-05-18T09:14:09Z</time>
      </trkpt>
      <trkpt lat="47.31271" lon="-1.62547">
        <ele>45.5</ele>
        <time>2014-05-18T09:14:14Z</time>
      </trkpt>
      <trkpt lat="47.31267" lon="-1.62508">
        <ele>45.5</ele>
        <time>2014-05-18T09:14:18Z</time>
      </trkpt>
      <trkpt lat="47.31264" lon="-1.62467">
        <ele>46.5</ele>
        <time>2014-05-18T09:14:22Z</time>
      </trkpt>
      <trkpt lat="47.31261" lon="-1.62418">
        <ele>42.5</ele>
        <time>2014-05-18T09:14:26Z</time>
      </trkpt>
      <trkpt lat="47.31282" lon="-1.62382">
        <ele>42.5</ele>
        <time>2014-05-18T09:14:30Z</time>
      </trkpt>
      <trkpt lat="47.31307" lon="-1.62364">
        <ele>40.5</ele>
        <time>2014-05-18T09:14:34Z</time>
      </trkpt>
      <trkpt lat="47.3133" lon="-1.62329">
        <ele>39.5</ele>
        <time>2014-05-18T09:14:38Z</time>
      </trkpt>
      <trkpt lat="47.31342" lon="-1.62298">
        <ele>37.5</ele>
        <time>2014-05-18T09:14:41Z</time>
      </trkpt>
      <trkpt lat="47.31363" lon="-1.62259">
        <ele>35.5</ele>
        <time>2014-05-18T09:14:45Z</time>
      </trkpt>
      <trkpt lat="47.31382" lon="-1.62212">
        <ele>33.5</ele>
        <time>2014-05-18T09:14:49Z</time>
      </trkpt>
      <trkpt lat="47.31371" lon="-1.62183">
        <ele>32.5</ele>
        <time>2014-05-18T09:14:53Z</time>
      </trkpt>
      <trkpt lat="47.31355" lon="-1.62163">
        <ele>32.5</ele>
        <time>2014-05-18T09:14:57Z</time>
      </trkpt>
      <trkpt lat="47.31345" lon="-1.62143">
        <ele>34.5</ele>
        <time>2014-05-18T09:15:02Z</time>
      </trkpt>
      <trkpt lat="47.31335" lon="-1.62122">
        <ele>35.5</ele>
        <time>2014-05-18T09:15:06Z</time>
      </trkpt>
      <trkpt lat="47.31325" lon="-1.62102">
        <ele>36.5</ele>
        <time>2014-05-18T09:15:10Z</time>
      </trkpt>
      <trkpt lat="47.31315" lon="-1.62084">
        <ele>36.5</ele>
        <time>2014-05-18T09:15:14Z</time>
      </trkpt>
      <trkpt lat="47.31304" lon="-1.62069">
        <ele>37.5</ele>
        <time>2014-05-18T09:15:18Z</time>
      </trkpt>
      <trkpt lat="47.31296" lon="-1.62055">
        <ele>38.5</ele>
        <time>2014-05-18T09:15:22Z</time>
      </trkpt>
      <trkpt lat="47.31288" lon="-1.62042">
        <ele>39.5</ele>
        <time>2014-05-18T09:15:26Z</time>
      </trkpt>
      <trkpt lat="47.31277" lon="-1.62016">
        <ele>40.5</ele>
        <time>2014-05-18T09:15:33Z</time>
      </trkpt>
      <trkpt lat="47.31268" lon="-1.62004">
        <ele>40.5</ele>
        <time>2014-05-18T09:15:37Z</time>
      </trkpt>
      <trkpt lat="47.31261" lon="-1.61991">
        <ele>42.5</ele>
        <time>2014-05-18T09:15:41Z</time>
      </trkpt>
      <trkpt lat="47.31251" lon="-1.61977">
        <ele>44.5</ele>
        <time>2014-05-18T09:15:45Z</time>
      </trkpt>
      <trkpt lat="47.31242" lon="-1.61955">
        <ele>44.5</ele>
        <time>2014-05-18T09:15:53Z</time>
      </trkpt>
      <trkpt lat="47.31247" lon="-1.61934">
        <ele>43.5</ele>
        <time>2014-05-18T09:15:58Z</time>
      </trkpt>
      <trkpt lat="47.31252" lon="-1.61912">
        <ele>44.5</ele>
        <time>2014-05-18T09:16:02Z</time>
      </trkpt>
      <trkpt lat="47.31258" lon="-1.61896">
        <ele>48.5</ele>
        <time>2014-05-18T09:16:06Z</time>
      </trkpt>
      <trkpt lat="47.31283" lon="-1.6189">
        <ele>46.5</ele>
        <time>2014-05-18T09:16:10Z</time>
      </trkpt>
      <trkpt lat="47.31311" lon="-1.61871">
        <ele>43.5</ele>
        <time>2014-05-18T09:16:14Z</time>
      </trkpt>
      <trkpt lat="47.31343" lon="-1.61865">
        <ele>42.5</ele>
        <time>2014-05-18T09:16:18Z</time>
      </trkpt>
      <trkpt lat="47.31375" lon="-1.61864">
        <ele>41.5</ele>
        <time>2014-05-18T09:16:22Z</time>
      </trkpt>
      <trkpt lat="47.31407" lon="-1.61863">
        <ele>39.5</ele>
        <time>2014-05-18T09:16:26Z</time>
      </trkpt>
      <trkpt lat="47.31433" lon="-1.61867">
        <ele>37.5</ele>
        <time>2014-05-18T09:16:29Z</time>
      </trkpt>
      <trkpt lat="47.31462" lon="-1.61859">
        <ele>35.5</ele>
        <time>2014-05-18T09:16:33Z</time>
      </trkpt>
      <trkpt lat="47.31485" lon="-1.61851">
        <ele>35.5</ele>
        <time>2014-05-18T09:16:37Z</time>
      </trkpt>
      <trkpt lat="47.31518" lon="-1.61852">
        <ele>35.5</ele>
        <time>2014-05-18T09:16:41Z</time>
      </trkpt>
      <trkpt lat="47.31546" lon="-1.61851">
        <ele>35.5</ele>
        <time>2014-05-18T09:16:45Z</time>
      </trkpt>
      <trkpt lat="47.31573" lon="-1.61852">
        <ele>36.5</ele>
        <time>2014-05-18T09:16:49Z</time>
      </trkpt>
      <trkpt lat="47.31597" lon="-1.61853">
        <ele>38.5</ele>
        <time>2014-05-18T09:16:54Z</time>
      </trkpt>
      <trkpt lat="47.31612" lon="-1.61851">
        <ele>38.5</ele>
        <time>2014-05-18T09:16:58Z</time>
      </trkpt>
      <trkpt lat="47.31631" lon="-1.61863">
        <ele>39.5</ele>
        <time>2014-05-18T09:17:02Z</time>
      </trkpt>
      <trkpt lat="47.31644" lon="-1.61887">
        <ele>38.5</ele>
        <time>2014-05-18T09:17:06Z</time>
      </trkpt>
      <trkpt lat="47.31655" lon="-1.61905">
        <ele>37.5</ele>
        <time>2014-05-18T09:17:10Z</time>
      </trkpt>
      <trkpt lat="47.31673" lon="-1.61925">
        <ele>36.5</ele>
        <time>2014-05-18T09:17:14Z</time>
      </trkpt>
      <trkpt lat="47.31698" lon="-1.61941">
        <ele>36.5</ele>
        <time>2014-05-18T09:17:18Z</time>
      </trkpt>
      <trkpt lat="47.31714" lon="-1.61948">
        <ele>34.5</ele>
        <time>2014-05-18T09:17:21Z</time>
      </trkpt>
      <trkpt lat="47.31736" lon="-1.61946">
        <ele>33.5</ele>
        <time>2014-05-18T09:17:25Z</time>
      </trkpt>
      <trkpt lat="47.31755" lon="-1.61951">
        <ele>35.5</ele>
        <time>2014-05-18T09:17:29Z</time>
      </trkpt>
      <trkpt lat="47.31771" lon="-1.61991">
        <ele>34.5</ele>
        <time>2014-05-18T09:17:33Z</time>
      </trkpt>
      <trkpt lat="47.31778" lon="-1.62031">
        <ele>35.5</ele>
        <time>2014-05-18T09:17:37Z</time>
      </trkpt>
      <trkpt lat="47.31788" lon="-1.62066">
        <ele>36.5</ele>
        <time>2014-05-18T09:17:41Z</time>
      </trkpt>
      <trkpt lat="47.31795" lon="-1.62103">
        <ele>37.5</ele>
        <time>2014-05-18T09:17:46Z</time>
      </trkpt>
      <trkpt lat="47.31801" lon="-1.6214">
        <ele>39.5</ele>
        <time>2014-05-18T09:17:50Z</time>
      </trkpt>
      <trkpt lat="47.3181" lon="-1.62176">
        <ele>39.5</ele>
        <time>2014-05-18T09:17:54Z</time>
      </trkpt>
      <trkpt lat="47.31821" lon="-1.62213">
        <ele>37.5</ele>
        <time>2014-05-18T09:17:58Z</time>
      </trkpt>
      <trkpt lat="47.3183" lon="-1.62253">
        <ele>34.5</ele>
        <time>2014-05-18T09:18:02Z</time>
      </trkpt>
      <trkpt lat="47.31837" lon="-1.62289">
        <ele>34.5</ele>
        <time>2014-05-18T09:18:06Z</time>
      </trkpt>
      <trkpt lat="47.31844" lon="-1.62327">
        <ele>37.5</ele>
        <time>2014-05-18T09:18:10Z</time>
      </trkpt>
      <trkpt lat="47.3185" lon="-1.62357">
        <ele>35.5</ele>
        <time>2014-05-18T09:18:14Z</time>
      </trkpt>
      <trkpt lat="47.31862" lon="-1.62395">
        <ele>28.5</ele>
        <time>2014-05-18T09:18:18Z</time>
      </trkpt>
      <trkpt lat="47.31865" lon="-1.62418">
        <ele>28.5</ele>
        <time>2014-05-18T09:18:25Z</time>
      </trkpt>
      <trkpt lat="47.31874" lon="-1.62409">
        <ele>33.5</ele>
        <time>2014-05-18T09:21:30Z</time>
      </trkpt>
      <trkpt lat="47.31867" lon="-1.62418">
        <ele>31.5</ele>
        <time>2014-05-18T09:24:34Z</time>
      </trkpt>
      <trkpt lat="47.31873" lon="-1.62428">
        <ele>30.5</ele>
        <time>2014-05-18T09:29:41Z</time>
      </trkpt>
      <trkpt lat="47.31878" lon="-1.62451">
        <ele>26.5</ele>
        <time>2014-05-18T09:29:49Z</time>
      </trkpt>
      <trkpt lat="47.31883" lon="-1.6247">
        <ele>25.5</ele>
        <time>2014-05-18T09:29:53Z</time>
      </trkpt>
      <trkpt lat="47.31886" lon="-1.62493">
        <ele>24.5</ele>
        <time>2014-05-18T09:29:57Z</time>
      </trkpt>
      <trkpt lat="47.31892" lon="-1.62521">
        <ele>22.5</ele>
        <time>2014-05-18T09:30:01Z</time>
      </trkpt>
      <trkpt lat="47.31893" lon="-1.62549">
        <ele>23.5</ele>
        <time>2014-05-18T09:30:06Z</time>
      </trkpt>
      <trkpt lat="47.31892" lon="-1.62576">
        <ele>24.5</ele>
        <time>2014-05-18T09:30:10Z</time>
      </trkpt>
      <trkpt lat="47.31889" lon="-1.62604">
        <ele>24.5</ele>
        <time>2014-05-18T09:30:14Z</time>
      </trkpt>
      <trkpt lat="47.31887" lon="-1.62631">
        <ele>24.5</ele>
        <time>2014-05-18T09:30:18Z</time>
      </trkpt>
      <trkpt lat="47.31884" lon="-1.62656">
        <ele>25.5</ele>
        <time>2014-05-18T09:30:22Z</time>
      </trkpt>
      <trkpt lat="47.31881" lon="-1.62677">
        <ele>25.5</ele>
        <time>2014-05-18T09:30:26Z</time>
      </trkpt>
      <trkpt lat="47.3188" lon="-1.62691">
        <ele>26.5</ele>
        <time>2014-05-18T09:30:29Z</time>
      </trkpt>
      <trkpt lat="47.31875" lon="-1.62707">
        <ele>28.5</ele>
        <time>2014-05-18T09:30:33Z</time>
      </trkpt>
      <trkpt lat="47.31866" lon="-1.62724">
        <ele>29.5</ele>
        <time>2014-05-18T09:30:37Z</time>
      </trkpt>
      <trkpt lat="47.31858" lon="-1.62732">
        <ele>30.5</ele>
        <time>2014-05-18T09:30:41Z</time>
      </trkpt>
      <trkpt lat="47.31844" lon="-1.62745">
        <ele>31.5</ele>
        <time>2014-05-18T09:30:45Z</time>
      </trkpt>
      <trkpt lat="47.3183" lon="-1.62757">
        <ele>31.5</ele>
        <time>2014-05-18T09:30:49Z</time>
      </trkpt>
      <trkpt lat="47.31815" lon="-1.62771">
        <ele>31.5</ele>
        <time>2014-05-18T09:30:54Z</time>
      </trkpt>
      <trkpt lat="47.31799" lon="-1.62786">
        <ele>31.5</ele>
        <time>2014-05-18T09:30:58Z</time>
      </trkpt>
      <trkpt lat="47.31784" lon="-1.628">
        <ele>32.5</ele>
        <time>2014-05-18T09:31:02Z</time>
      </trkpt>
      <trkpt lat="47.3177" lon="-1.62813">
        <ele>32.5</ele>
        <time>2014-05-18T09:31:06Z</time>
      </trkpt>
      <trkpt lat="47.31755" lon="-1.62827">
        <ele>33.5</ele>
        <time>2014-05-18T09:31:10Z</time>
      </trkpt>
      <trkpt lat="47.31733" lon="-1.62847">
        <ele>34.5</ele>
        <time>2014-05-18T09:31:17Z</time>
      </trkpt>
      <trkpt lat="47.31721" lon="-1.62857">
        <ele>36.5</ele>
        <time>2014-05-18T09:31:21Z</time>
      </trkpt>
      <trkpt lat="47.31707" lon="-1.62869">
        <ele>37.5</ele>
        <time>2014-05-18T09:31:25Z</time>
      </trkpt>
      <trkpt lat="47.31698" lon="-1.62877">
        <ele>38.5</ele>
        <time>2014-05-18T09:31:29Z</time>
      </trkpt>
      <trkpt lat="47.31682" lon="-1.62891">
        <ele>41.5</ele>
        <time>2014-05-18T09:31:38Z</time>
      </trkpt>
      <trkpt lat="47.31674" lon="-1.62898">
        <ele>41.5</ele>
        <time>2014-05-18T09:31:42Z</time>
      </trkpt>
      <trkpt lat="47.31666" lon="-1.62907">
        <ele>42.5</ele>
        <time>2014-05-18T09:31:46Z</time>
      </trkpt>
      <trkpt lat="47.3165" lon="-1.62924">
        <ele>43.5</ele>
        <time>2014-05-18T09:31:54Z</time>
      </trkpt>
      <trkpt lat="47.31643" lon="-1.62934">
        <ele>43.5</ele>
        <time>2014-05-18T09:31:58Z</time>
      </trkpt>
      <trkpt lat="47.31629" lon="-1.6295">
        <ele>44.5</ele>
        <time>2014-05-18T09:32:05Z</time>
      </trkpt>
      <trkpt lat="47.3162" lon="-1.62963">
        <ele>45.5</ele>
        <time>2014-05-18T09:32:09Z</time>
      </trkpt>
      <trkpt lat="47.31613" lon="-1.62972">
        <ele>49.5</ele>
        <time>2014-05-18T09:32:13Z</time>
      </trkpt>
      <trkpt lat="47.31604" lon="-1.62984">
        <ele>48.5</ele>
        <time>2014-05-18T09:32:17Z</time>
      </trkpt>
      <trkpt lat="47.31594" lon="-1.62998">
        <ele>48.5</ele>
        <time>2014-05-18T09:32:21Z</time>
      </trkpt>
      <trkpt lat="47.31584" lon="-1.63011">
        <ele>48.5</ele>
        <time>2014-05-18T09:32:25Z</time>
      </trkpt>
      <trkpt lat="47.31575" lon="-1.63024">
        <ele>48.5</ele>
        <time>2014-05-18T09:32:29Z</time>
      </trkpt>
      <trkpt lat="47.31566" lon="-1.63037">
        <ele>49.5</ele>
        <time>2014-05-18T09:32:34Z</time>
      </trkpt>
      <trkpt lat="47.31556" lon="-1.6305">
        <ele>49.5</ele>
        <time>2014-05-18T09:32:38Z</time>
      </trkpt>
      <trkpt lat="47.31545" lon="-1.63064">
        <ele>49.5</ele>
        <time>2014-05-18T09:32:42Z</time>
      </trkpt>
      <trkpt lat="47.31535" lon="-1.63078">
        <ele>49.5</ele>
        <time>2014-05-18T09:32:46Z</time>
      </trkpt>
      <trkpt lat="47.31522" lon="-1.63096">
        <ele>49.5</ele>
        <time>2014-05-18T09:32:50Z</time>
      </trkpt>
      <trkpt lat="47.3151" lon="-1.63112">
        <ele>49.5</ele>
        <time>2014-05-18T09:32:54Z</time>
      </trkpt>
      <trkpt lat="47.31498" lon="-1.63127">
        <ele>50.5</ele>
        <time>2014-05-18T09:32:58Z</time>
      </trkpt>
      <trkpt lat="47.3149" lon="-1.63138">
        <ele>51.5</ele>
        <time>2014-05-18T09:33:01Z</time>
      </trkpt>
      <trkpt lat="47.31476" lon="-1.63157">
        <ele>51.5</ele>
        <time>2014-05-18T09:33:05Z</time>
      </trkpt>
      <trkpt lat="47.31453" lon="-1.63185">
        <ele>52.5</ele>
        <time>2014-05-18T09:33:13Z</time>
      </trkpt>
      <trkpt lat="47.31441" lon="-1.63199">
        <ele>52.5</ele>
        <time>2014-05-18T09:33:17Z</time>
      </trkpt>
      <trkpt lat="47.31429" lon="-1.63212">
        <ele>51.5</ele>
        <time>2014-05-18T09:33:22Z</time>
      </trkpt>
      <trkpt lat="47.31418" lon="-1.63222">
        <ele>51.5</ele>
        <time>2014-05-18T09:33:26Z</time>
      </trkpt>
      <trkpt lat="47.31406" lon="-1.63235">
        <ele>50.5</ele>
        <time>2014-05-18T09:33:30Z</time>
      </trkpt>
      <trkpt lat="47.31411" lon="-1.63257">
        <ele>50.5</ele>
        <time>2014-05-18T09:33:34Z</time>
      </trkpt>
      <trkpt lat="47.31421" lon="-1.63276">
        <ele>50.5</ele>
        <time>2014-05-18T09:33:38Z</time>
      </trkpt>
      <trkpt lat="47.31432" lon="-1.63297">
        <ele>49.5</ele>
        <time>2014-05-18T09:33:42Z</time>
      </trkpt>
      <trkpt lat="47.31442" lon="-1.63323">
        <ele>48.5</ele>
        <time>2014-05-18T09:33:46Z</time>
      </trkpt>
      <trkpt lat="47.31445" lon="-1.63342">
        <ele>48.5</ele>
        <time>2014-05-18T09:33:49Z</time>
      </trkpt>
      <trkpt lat="47.31449" lon="-1.63366">
        <ele>48.5</ele>
        <time>2014-05-18T09:33:53Z</time>
      </trkpt>
      <trkpt lat="47.31459" lon="-1.63392">
        <ele>48.5</ele>
        <time>2014-05-18T09:33:57Z</time>
      </trkpt>
      <trkpt lat="47.3146" lon="-1.63412">
        <ele>49.5</ele>
        <time>2014-05-18T09:34:01Z</time>
      </trkpt>
      <trkpt lat="47.31448" lon="-1.63423">
        <ele>49.5</ele>
        <time>2014-05-18T09:34:05Z</time>
      </trkpt>
      <trkpt lat="47.31439" lon="-1.63437">
        <ele>50.5</ele>
        <time>2014-05-18T09:34:09Z</time>
      </trkpt>
      <trkpt lat="47.31434" lon="-1.6345">
        <ele>51.5</ele>
        <time>2014-05-18T09:34:14Z</time>
      </trkpt>
      <trkpt lat="47.31424" lon="-1.63468">
        <ele>51.5</ele>
        <time>2014-05-18T09:34:18Z</time>
      </trkpt>
      <trkpt lat="47.31414" lon="-1.6348">
        <ele>50.5</ele>
        <time>2014-05-18T09:34:22Z</time>
      </trkpt>
      <trkpt lat="47.31407" lon="-1.63493">
        <ele>53.5</ele>
        <time>2014-05-18T09:34:26Z</time>
      </trkpt>
      <trkpt lat="47.31403" lon="-1.63506">
        <ele>56.5</ele>
        <time>2014-05-18T09:34:30Z</time>
      </trkpt>
      <trkpt lat="47.31398" lon="-1.63518">
        <ele>58.5</ele>
        <time>2014-05-18T09:34:34Z</time>
      </trkpt>
      <trkpt lat="47.31394" lon="-1.63532">
        <ele>59.5</ele>
        <time>2014-05-18T09:34:38Z</time>
      </trkpt>
      <trkpt lat="47.31387" lon="-1.6356">
        <ele>58.5</ele>
        <time>2014-05-18T09:34:45Z</time>
      </trkpt>
      <trkpt lat="47.31382" lon="-1.63573">
        <ele>55.5</ele>
        <time>2014-05-18T09:34:49Z</time>
      </trkpt>
      <trkpt lat="47.31379" lon="-1.63586">
        <ele>56.5</ele>
        <time>2014-05-18T09:34:53Z</time>
      </trkpt>
      <trkpt lat="47.31373" lon="-1.6361">
        <ele>56.5</ele>
        <time>2014-05-18T09:35:02Z</time>
      </trkpt>
      <trkpt lat="47.31365" lon="-1.6363">
        <ele>57.5</ele>
        <time>2014-05-18T09:35:10Z</time>
      </trkpt>
      <trkpt lat="47.31381" lon="-1.63636">
        <ele>55.5</ele>
        <time>2014-05-18T09:35:18Z</time>
      </trkpt>
      <trkpt lat="47.31395" lon="-1.63643">
        <ele>56.5</ele>
        <time>2014-05-18T09:35:26Z</time>
      </trkpt>
      <trkpt lat="47.31405" lon="-1.63647">
        <ele>58.5</ele>
        <time>2014-05-18T09:35:30Z</time>
      </trkpt>
      <trkpt lat="47.31421" lon="-1.63653">
        <ele>65.5</ele>
        <time>2014-05-18T09:35:37Z</time>
      </trkpt>
      <trkpt lat="47.31434" lon="-1.63656">
        <ele>66.5</ele>
        <time>2014-05-18T09:35:41Z</time>
      </trkpt>
      <trkpt lat="47.31446" lon="-1.63661">
        <ele>65.5</ele>
        <time>2014-05-18T09:35:45Z</time>
      </trkpt>
      <trkpt lat="47.31447" lon="-1.63678">
        <ele>63.5</ele>
        <time>2014-05-18T09:35:49Z</time>
      </trkpt>
      <trkpt lat="47.31443" lon="-1.63695">
        <ele>62.5</ele>
        <time>2014-05-18T09:35:53Z</time>
      </trkpt>
      <trkpt lat="47.31441" lon="-1.63713">
        <ele>62.5</ele>
        <time>2014-05-18T09:35:57Z</time>
      </trkpt>
      <trkpt lat="47.31443" lon="-1.63731">
        <ele>63.5</ele>
        <time>2014-05-18T09:36:02Z</time>
      </trkpt>
      <trkpt lat="47.31454" lon="-1.63757">
        <ele>63.5</ele>
        <time>2014-05-18T09:36:06Z</time>
      </trkpt>
      <trkpt lat="47.31458" lon="-1.63788">
        <ele>63.5</ele>
        <time>2014-05-18T09:36:10Z</time>
      </trkpt>
      <trkpt lat="47.31466" lon="-1.63822">
        <ele>61.5</ele>
        <time>2014-05-18T09:36:14Z</time>
      </trkpt>
      <trkpt lat="47.31474" lon="-1.63859">
        <ele>59.5</ele>
        <time>2014-05-18T09:36:18Z</time>
      </trkpt>
      <trkpt lat="47.31484" lon="-1.63896">
        <ele>56.5</ele>
        <time>2014-05-18T09:36:22Z</time>
      </trkpt>
      <trkpt lat="47.31494" lon="-1.63926">
        <ele>55.5</ele>
        <time>2014-05-18T09:36:25Z</time>
      </trkpt>
      <trkpt lat="47.31519" lon="-1.63975">
        <ele>54.5</ele>
        <time>2014-05-18T09:36:29Z</time>
      </trkpt>
      <trkpt lat="47.31543" lon="-1.64008">
        <ele>50.5</ele>
        <time>2014-05-18T09:36:33Z</time>
      </trkpt>
      <trkpt lat="47.31566" lon="-1.64039">
        <ele>45.5</ele>
        <time>2014-05-18T09:36:37Z</time>
      </trkpt>
      <trkpt lat="47.31588" lon="-1.64071">
        <ele>44.5</ele>
        <time>2014-05-18T09:36:41Z</time>
      </trkpt>
      <trkpt lat="47.31607" lon="-1.641">
        <ele>43.5</ele>
        <time>2014-05-18T09:36:45Z</time>
      </trkpt>
      <trkpt lat="47.31622" lon="-1.64122">
        <ele>44.5</ele>
        <time>2014-05-18T09:36:49Z</time>
      </trkpt>
      <trkpt lat="47.31626" lon="-1.64147">
        <ele>46.5</ele>
        <time>2014-05-18T09:36:54Z</time>
      </trkpt>
      <trkpt lat="47.31627" lon="-1.64171">
        <ele>46.5</ele>
        <time>2014-05-18T09:36:58Z</time>
      </trkpt>
      <trkpt lat="47.31626" lon="-1.64195">
        <ele>46.5</ele>
        <time>2014-05-18T09:37:02Z</time>
      </trkpt>
      <trkpt lat="47.31624" lon="-1.64219">
        <ele>47.5</ele>
        <time>2014-05-18T09:37:06Z</time>
      </trkpt>
      <trkpt lat="47.31621" lon="-1.64238">
        <ele>48.5</ele>
        <time>2014-05-18T09:37:10Z</time>
      </trkpt>
      <trkpt lat="47.31618" lon="-1.64254">
        <ele>49.5</ele>
        <time>2014-05-18T09:37:14Z</time>
      </trkpt>
      <trkpt lat="47.31615" lon="-1.64273">
        <ele>49.5</ele>
        <time>2014-05-18T09:37:21Z</time>
      </trkpt>
      <trkpt lat="47.31614" lon="-1.64289">
        <ele>48.5</ele>
        <time>2014-05-18T09:37:25Z</time>
      </trkpt>
      <trkpt lat="47.31614" lon="-1.64316">
        <ele>52.5</ele>
        <time>2014-05-18T09:37:29Z</time>
      </trkpt>
      <trkpt lat="47.31619" lon="-1.64337">
        <ele>52.5</ele>
        <time>2014-05-18T09:37:33Z</time>
      </trkpt>
      <trkpt lat="47.31628" lon="-1.64351">
        <ele>49.5</ele>
        <time>2014-05-18T09:37:37Z</time>
      </trkpt>
      <trkpt lat="47.31639" lon="-1.64362">
        <ele>50.5</ele>
        <time>2014-05-18T09:37:41Z</time>
      </trkpt>
      <trkpt lat="47.3165" lon="-1.64375">
        <ele>49.5</ele>
        <time>2014-05-18T09:37:46Z</time>
      </trkpt>
      <trkpt lat="47.31655" lon="-1.64394">
        <ele>51.5</ele>
        <time>2014-05-18T09:37:50Z</time>
      </trkpt>
      <trkpt lat="47.31646" lon="-1.64408">
        <ele>53.5</ele>
        <time>2014-05-18T09:37:54Z</time>
      </trkpt>
      <trkpt lat="47.31636" lon="-1.64413">
        <ele>54.5</ele>
        <time>2014-05-18T09:37:58Z</time>
      </trkpt>
      <trkpt lat="47.3162" lon="-1.64424">
        <ele>55.5</ele>
        <time>2014-05-18T09:38:06Z</time>
      </trkpt>
      <trkpt lat="47.31611" lon="-1.64431">
        <ele>56.5</ele>
        <time>2014-05-18T09:38:10Z</time>
      </trkpt>
      <trkpt lat="47.31595" lon="-1.64448">
        <ele>56.5</ele>
        <time>2014-05-18T09:38:17Z</time>
      </trkpt>
      <trkpt lat="47.31587" lon="-1.64457">
        <ele>57.5</ele>
        <time>2014-05-18T09:38:21Z</time>
      </trkpt>
      <trkpt lat="47.31579" lon="-1.64466">
        <ele>58.5</ele>
        <time>2014-05-18T09:38:25Z</time>
      </trkpt>
      <trkpt lat="47.31572" lon="-1.64475">
        <ele>59.5</ele>
        <time>2014-05-18T09:38:29Z</time>
      </trkpt>
      <trkpt lat="47.31564" lon="-1.64484">
        <ele>59.5</ele>
        <time>2014-05-18T09:38:33Z</time>
      </trkpt>
      <trkpt lat="47.31556" lon="-1.64493">
        <ele>59.5</ele>
        <time>2014-05-18T09:38:38Z</time>
      </trkpt>
      <trkpt lat="47.31546" lon="-1.64504">
        <ele>60.5</ele>
        <time>2014-05-18T09:38:42Z</time>
      </trkpt>
      <trkpt lat="47.31537" lon="-1.64514">
        <ele>60.5</ele>
        <time>2014-05-18T09:38:46Z</time>
      </trkpt>
      <trkpt lat="47.31526" lon="-1.64523">
        <ele>61.5</ele>
        <time>2014-05-18T09:38:50Z</time>
      </trkpt>
      <trkpt lat="47.31515" lon="-1.6453">
        <ele>61.5</ele>
        <time>2014-05-18T09:38:54Z</time>
      </trkpt>
      <trkpt lat="47.31495" lon="-1.6454">
        <ele>60.5</ele>
        <time>2014-05-18T09:39:01Z</time>
      </trkpt>
      <trkpt lat="47.3148" lon="-1.64546">
        <ele>60.5</ele>
        <time>2014-05-18T09:39:05Z</time>
      </trkpt>
      <trkpt lat="47.31468" lon="-1.64551">
        <ele>60.5</ele>
        <time>2014-05-18T09:39:09Z</time>
      </trkpt>
      <trkpt lat="47.31455" lon="-1.64554">
        <ele>61.5</ele>
        <time>2014-05-18T09:39:13Z</time>
      </trkpt>
      <trkpt lat="47.31442" lon="-1.64555">
        <ele>60.5</ele>
        <time>2014-05-18T09:39:17Z</time>
      </trkpt>
      <trkpt lat="47.31428" lon="-1.64554">
        <ele>61.5</ele>
        <time>2014-05-18T09:39:21Z</time>
      </trkpt>
      <trkpt lat="47.31414" lon="-1.64554">
        <ele>59.5</ele>
        <time>2014-05-18T09:39:26Z</time>
      </trkpt>
      <trkpt lat="47.31401" lon="-1.64557">
        <ele>60.5</ele>
        <time>2014-05-18T09:39:30Z</time>
      </trkpt>
      <trkpt lat="47.31388" lon="-1.64563">
        <ele>61.5</ele>
        <time>2014-05-18T09:39:34Z</time>
      </trkpt>
      <trkpt lat="47.31376" lon="-1.6457">
        <ele>62.5</ele>
        <time>2014-05-18T09:39:38Z</time>
      </trkpt>
      <trkpt lat="47.31364" lon="-1.64578">
        <ele>63.5</ele>
        <time>2014-05-18T09:39:42Z</time>
      </trkpt>
      <trkpt lat="47.31352" lon="-1.64587">
        <ele>64.5</ele>
        <time>2014-05-18T09:39:46Z</time>
      </trkpt>
      <trkpt lat="47.3134" lon="-1.64594">
        <ele>64.5</ele>
        <time>2014-05-18T09:39:50Z</time>
      </trkpt>
      <trkpt lat="47.31327" lon="-1.646">
        <ele>64.5</ele>
        <time>2014-05-18T09:39:54Z</time>
      </trkpt>
      <trkpt lat="47.31318" lon="-1.64604">
        <ele>64.5</ele>
        <time>2014-05-18T09:39:57Z</time>
      </trkpt>
      <trkpt lat="47.31302" lon="-1.64611">
        <ele>66.5</ele>
        <time>2014-05-18T09:40:01Z</time>
      </trkpt>
      <trkpt lat="47.3129" lon="-1.64617">
        <ele>66.5</ele>
        <time>2014-05-18T09:40:05Z</time>
      </trkpt>
      <trkpt lat="47.31278" lon="-1.64624">
        <ele>67.5</ele>
        <time>2014-05-18T09:40:09Z</time>
      </trkpt>
      <trkpt lat="47.31266" lon="-1.64631">
        <ele>67.5</ele>
        <time>2014-05-18T09:40:13Z</time>
      </trkpt>
      <trkpt lat="47.31265" lon="-1.64648">
        <ele>68.5</ele>
        <time>2014-05-18T09:40:18Z</time>
      </trkpt>
      <trkpt lat="47.31277" lon="-1.6466">
        <ele>67.5</ele>
        <time>2014-05-18T09:40:22Z</time>
      </trkpt>
      <trkpt lat="47.31289" lon="-1.6467">
        <ele>67.5</ele>
        <time>2014-05-18T09:40:26Z</time>
      </trkpt>
      <trkpt lat="47.31307" lon="-1.64687">
        <ele>67.5</ele>
        <time>2014-05-18T09:40:30Z</time>
      </trkpt>
      <trkpt lat="47.31319" lon="-1.64702">
        <ele>67.5</ele>
        <time>2014-05-18T09:40:34Z</time>
      </trkpt>
      <trkpt lat="47.31331" lon="-1.64716">
        <ele>66.5</ele>
        <time>2014-05-18T09:40:38Z</time>
      </trkpt>
      <trkpt lat="47.31342" lon="-1.64731">
        <ele>66.5</ele>
        <time>2014-05-18T09:40:42Z</time>
      </trkpt>
      <trkpt lat="47.31353" lon="-1.64747">
        <ele>66.5</ele>
        <time>2014-05-18T09:40:46Z</time>
      </trkpt>
      <trkpt lat="47.31364" lon="-1.64758">
        <ele>67.5</ele>
        <time>2014-05-18T09:40:49Z</time>
      </trkpt>
      <trkpt lat="47.31383" lon="-1.64774">
        <ele>66.5</ele>
        <time>2014-05-18T09:40:53Z</time>
      </trkpt>
      <trkpt lat="47.31398" lon="-1.64787">
        <ele>68.5</ele>
        <time>2014-05-18T09:40:57Z</time>
      </trkpt>
      <trkpt lat="47.31413" lon="-1.64798">
        <ele>70.5</ele>
        <time>2014-05-18T09:41:01Z</time>
      </trkpt>
      <trkpt lat="47.31428" lon="-1.64813">
        <ele>70.5</ele>
        <time>2014-05-18T09:41:05Z</time>
      </trkpt>
      <trkpt lat="47.31446" lon="-1.6483">
        <ele>69.5</ele>
        <time>2014-05-18T09:41:10Z</time>
      </trkpt>
      <trkpt lat="47.31464" lon="-1.64845">
        <ele>69.5</ele>
        <time>2014-05-18T09:41:14Z</time>
      </trkpt>
      <trkpt lat="47.31483" lon="-1.64857">
        <ele>71.5</ele>
        <time>2014-05-18T09:41:18Z</time>
      </trkpt>
      <trkpt lat="47.31503" lon="-1.64885">
        <ele>68.5</ele>
        <time>2014-05-18T09:41:22Z</time>
      </trkpt>
      <trkpt lat="47.31514" lon="-1.64905">
        <ele>66.5</ele>
        <time>2014-05-18T09:41:26Z</time>
      </trkpt>
      <trkpt lat="47.31506" lon="-1.64916">
        <ele>67.5</ele>
        <time>2014-05-18T09:41:30Z</time>
      </trkpt>
      <trkpt lat="47.31492" lon="-1.64914">
        <ele>68.5</ele>
        <time>2014-05-18T09:41:34Z</time>
      </trkpt>
      <trkpt lat="47.31481" lon="-1.64916">
        <ele>68.5</ele>
        <time>2014-05-18T09:41:37Z</time>
      </trkpt>
      <trkpt lat="47.31466" lon="-1.64913">
        <ele>69.5</ele>
        <time>2014-05-18T09:41:41Z</time>
      </trkpt>
      <trkpt lat="47.31448" lon="-1.64915">
        <ele>70.5</ele>
        <time>2014-05-18T09:41:45Z</time>
      </trkpt>
      <trkpt lat="47.31434" lon="-1.64916">
        <ele>70.5</ele>
        <time>2014-05-18T09:41:49Z</time>
      </trkpt>
      <trkpt lat="47.31421" lon="-1.6492">
        <ele>70.5</ele>
        <time>2014-05-18T09:41:53Z</time>
      </trkpt>
      <trkpt lat="47.31407" lon="-1.64926">
        <ele>69.5</ele>
        <time>2014-05-18T09:41:58Z</time>
      </trkpt>
      <trkpt lat="47.31392" lon="-1.64936">
        <ele>69.5</ele>
        <time>2014-05-18T09:42:02Z</time>
      </trkpt>
      <trkpt lat="47.31378" lon="-1.64945">
        <ele>69.5</ele>
        <time>2014-05-18T09:42:06Z</time>
      </trkpt>
      <trkpt lat="47.31363" lon="-1.64955">
        <ele>69.5</ele>
        <time>2014-05-18T09:42:10Z</time>
      </trkpt>
      <trkpt lat="47.31349" lon="-1.64965">
        <ele>71.5</ele>
        <time>2014-05-18T09:42:14Z</time>
      </trkpt>
      <trkpt lat="47.31334" lon="-1.64975">
        <ele>72.5</ele>
        <time>2014-05-18T09:42:18Z</time>
      </trkpt>
      <trkpt lat="47.31318" lon="-1.64984">
        <ele>73.5</ele>
        <time>2014-05-18T09:42:22Z</time>
      </trkpt>
      <trkpt lat="47.31301" lon="-1.64995">
        <ele>74.5</ele>
        <time>2014-05-18T09:42:26Z</time>
      </trkpt>
      <trkpt lat="47.31284" lon="-1.65006">
        <ele>73.5</ele>
        <time>2014-05-18T09:42:29Z</time>
      </trkpt>
      <trkpt lat="47.31266" lon="-1.65015">
        <ele>74.5</ele>
        <time>2014-05-18T09:42:33Z</time>
      </trkpt>
      <trkpt lat="47.31244" lon="-1.6503">
        <ele>72.5</ele>
        <time>2014-05-18T09:42:37Z</time>
      </trkpt>
      <trkpt lat="47.31237" lon="-1.65048">
        <ele>73.5</ele>
        <time>2014-05-18T09:42:41Z</time>
      </trkpt>
      <trkpt lat="47.3124" lon="-1.65062">
        <ele>73.5</ele>
        <time>2014-05-18T09:42:45Z</time>
      </trkpt>
      <trkpt lat="47.31243" lon="-1.65078">
        <ele>72.5</ele>
        <time>2014-05-18T09:42:50Z</time>
      </trkpt>
      <trkpt lat="47.31244" lon="-1.65099">
        <ele>71.5</ele>
        <time>2014-05-18T09:42:54Z</time>
      </trkpt>
      <trkpt lat="47.31244" lon="-1.65123">
        <ele>70.5</ele>
        <time>2014-05-18T09:42:58Z</time>
      </trkpt>
      <trkpt lat="47.31245" lon="-1.65148">
        <ele>70.5</ele>
        <time>2014-05-18T09:43:02Z</time>
      </trkpt>
      <trkpt lat="47.31245" lon="-1.65172">
        <ele>68.5</ele>
        <time>2014-05-18T09:43:06Z</time>
      </trkpt>
      <trkpt lat="47.31244" lon="-1.65188">
        <ele>70.5</ele>
        <time>2014-05-18T09:43:10Z</time>
      </trkpt>
      <trkpt lat="47.31236" lon="-1.6518">
        <ele>69.5</ele>
        <time>2014-05-18T09:43:14Z</time>
      </trkpt>
      <trkpt lat="47.31223" lon="-1.6517">
        <ele>72.5</ele>
        <time>2014-05-18T09:43:21Z</time>
      </trkpt>
      <trkpt lat="47.31222" lon="-1.65152">
        <ele>72.5</ele>
        <time>2014-05-18T09:43:25Z</time>
      </trkpt>
      <trkpt lat="47.31205" lon="-1.65151">
        <ele>71.5</ele>
        <time>2014-05-18T09:43:37Z</time>
      </trkpt>
      <trkpt lat="47.31195" lon="-1.6516">
        <ele>69.5</ele>
        <time>2014-05-18T09:43:41Z</time>
      </trkpt>
      <trkpt lat="47.31206" lon="-1.65172">
        <ele>74.5</ele>
        <time>2014-05-18T09:43:54Z</time>
      </trkpt>
      <trkpt lat="47.31217" lon="-1.65182">
        <ele>73.5</ele>
        <time>2014-05-18T09:44:06Z</time>
      </trkpt>
      <trkpt lat="47.31223" lon="-1.65195">
        <ele>73.5</ele>
        <time>2014-05-18T09:44:09Z</time>
      </trkpt>
      <trkpt lat="47.31224" lon="-1.65211">
        <ele>67.5</ele>
        <time>2014-05-18T09:44:13Z</time>
      </trkpt>
      <trkpt lat="47.31221" lon="-1.65227">
        <ele>70.5</ele>
        <time>2014-05-18T09:44:17Z</time>
      </trkpt>
      <trkpt lat="47.3121" lon="-1.65216">
        <ele>70.5</ele>
        <time>2014-05-18T09:44:25Z</time>
      </trkpt>
      <trkpt lat="47.31198" lon="-1.65218">
        <ele>72.5</ele>
        <time>2014-05-18T09:44:50Z</time>
      </trkpt>
      <trkpt lat="47.31185" lon="-1.65224">
        <ele>75.5</ele>
        <time>2014-05-18T09:45:01Z</time>
      </trkpt>
      <trkpt lat="47.31178" lon="-1.65243">
        <ele>75.5</ele>
        <time>2014-05-18T09:45:09Z</time>
      </trkpt>
      <trkpt lat="47.31167" lon="-1.65258">
        <ele>74.5</ele>
        <time>2014-05-18T09:45:17Z</time>
      </trkpt>
      <trkpt lat="47.31159" lon="-1.65274">
        <ele>76.5</ele>
        <time>2014-05-18T09:45:26Z</time>
      </trkpt>
      <trkpt lat="47.31158" lon="-1.65299">
        <ele>74.5</ele>
        <time>2014-05-18T09:45:34Z</time>
      </trkpt>
      <trkpt lat="47.31149" lon="-1.65322">
        <ele>71.5</ele>
        <time>2014-05-18T09:45:42Z</time>
      </trkpt>
      <trkpt lat="47.31143" lon="-1.65331">
        <ele>71.5</ele>
        <time>2014-05-18T09:45:46Z</time>
      </trkpt>
      <trkpt lat="47.31154" lon="-1.65354">
        <ele>70.5</ele>
        <time>2014-05-18T09:45:53Z</time>
      </trkpt>
      <trkpt lat="47.31165" lon="-1.65376">
        <ele>69.5</ele>
        <time>2014-05-18T09:45:57Z</time>
      </trkpt>
      <trkpt lat="47.31166" lon="-1.65398">
        <ele>69.5</ele>
        <time>2014-05-18T09:46:01Z</time>
      </trkpt>
      <trkpt lat="47.31168" lon="-1.6542">
        <ele>69.5</ele>
        <time>2014-05-18T09:46:05Z</time>
      </trkpt>
      <trkpt lat="47.31176" lon="-1.65439">
        <ele>69.5</ele>
        <time>2014-05-18T09:46:09Z</time>
      </trkpt>
      <trkpt lat="47.31184" lon="-1.65459">
        <ele>70</ele>
        <time>2014-05-18T09:46:13Z</time>
      </trkpt>
      <trkpt lat="47.31192" lon="-1.65479">
        <ele>70</ele>
        <time>2014-05-18T09:46:17Z</time>
      </trkpt>
      <trkpt lat="47.31201" lon="-1.65499">
        <ele>70</ele>
        <time>2014-05-18T09:46:21Z</time>
      </trkpt>
      <trkpt lat="47.3121" lon="-1.65519">
        <ele>70</ele>
        <time>2014-05-18T09:46:26Z</time>
      </trkpt>
      <trkpt lat="47.31222" lon="-1.65536">
        <ele>69</ele>
        <time>2014-05-18T09:46:30Z</time>
      </trkpt>
      <trkpt lat="47.31243" lon="-1.65531">
        <ele>68</ele>
        <time>2014-05-18T09:46:34Z</time>
      </trkpt>
      <trkpt lat="47.31265" lon="-1.65528">
        <ele>67</ele>
        <time>2014-05-18T09:46:38Z</time>
      </trkpt>
      <trkpt lat="47.31287" lon="-1.65528">
        <ele>68</ele>
        <time>2014-05-18T09:46:42Z</time>
      </trkpt>
      <trkpt lat="47.31308" lon="-1.65523">
        <ele>68</ele>
        <time>2014-05-18T09:46:46Z</time>
      </trkpt>
      <trkpt lat="47.31331" lon="-1.65516">
        <ele>67</ele>
        <time>2014-05-18T09:46:50Z</time>
      </trkpt>
      <trkpt lat="47.31381" lon="-1.65511">
        <ele>66</ele>
        <time>2014-05-18T09:46:57Z</time>
      </trkpt>
      <trkpt lat="47.31399" lon="-1.6553">
        <ele>66</ele>
        <time>2014-05-18T09:47:01Z</time>
      </trkpt>
      <trkpt lat="47.31413" lon="-1.65543">
        <ele>66</ele>
        <time>2014-05-18T09:47:05Z</time>
      </trkpt>
      <trkpt lat="47.31428" lon="-1.6556">
        <ele>67</ele>
        <time>2014-05-18T09:47:09Z</time>
      </trkpt>
      <trkpt lat="47.31443" lon="-1.65577">
        <ele>67</ele>
        <time>2014-05-18T09:47:13Z</time>
      </trkpt>
      <trkpt lat="47.31458" lon="-1.65593">
        <ele>67</ele>
        <time>2014-05-18T09:47:18Z</time>
      </trkpt>
      <trkpt lat="47.31475" lon="-1.65612">
        <ele>66</ele>
        <time>2014-05-18T09:47:22Z</time>
      </trkpt>
      <trkpt lat="47.31476" lon="-1.65643">
        <ele>66</ele>
        <time>2014-05-18T09:47:26Z</time>
      </trkpt>
      <trkpt lat="47.31474" lon="-1.65675">
        <ele>65</ele>
        <time>2014-05-18T09:47:30Z</time>
      </trkpt>
      <trkpt lat="47.31467" lon="-1.65697">
        <ele>64</ele>
        <time>2014-05-18T09:47:34Z</time>
      </trkpt>
      <trkpt lat="47.31449" lon="-1.65698">
        <ele>62</ele>
        <time>2014-05-18T09:47:38Z</time>
      </trkpt>
      <trkpt lat="47.31434" lon="-1.65703">
        <ele>60</ele>
        <time>2014-05-18T09:47:42Z</time>
      </trkpt>
      <trkpt lat="47.31429" lon="-1.65716">
        <ele>60</ele>
        <time>2014-05-18T09:47:46Z</time>
      </trkpt>
      <trkpt lat="47.31442" lon="-1.65715">
        <ele>60</ele>
        <time>2014-05-18T09:47:49Z</time>
      </trkpt>
      <trkpt lat="47.31454" lon="-1.65711">
        <ele>61</ele>
        <time>2014-05-18T09:47:53Z</time>
      </trkpt>
      <trkpt lat="47.31466" lon="-1.65714">
        <ele>60</ele>
        <time>2014-05-18T09:47:57Z</time>
      </trkpt>
      <trkpt lat="47.31479" lon="-1.65726">
        <ele>58</ele>
        <time>2014-05-18T09:48:01Z</time>
      </trkpt>
      <trkpt lat="47.31491" lon="-1.65742">
        <ele>62</ele>
        <time>2014-05-18T09:48:05Z</time>
      </trkpt>
      <trkpt lat="47.31492" lon="-1.65758">
        <ele>65</ele>
        <time>2014-05-18T09:48:09Z</time>
      </trkpt>
      <trkpt lat="47.31478" lon="-1.65768">
        <ele>66</ele>
        <time>2014-05-18T09:48:18Z</time>
      </trkpt>
      <trkpt lat="47.31472" lon="-1.65789">
        <ele>67</ele>
        <time>2014-05-18T09:48:26Z</time>
      </trkpt>
      <trkpt lat="47.31469" lon="-1.65801">
        <ele>68</ele>
        <time>2014-05-18T09:48:33Z</time>
      </trkpt>
      <trkpt lat="47.31469" lon="-1.65815">
        <ele>71</ele>
        <time>2014-05-18T09:48:41Z</time>
      </trkpt>
      <trkpt lat="47.31471" lon="-1.6583">
        <ele>73</ele>
        <time>2014-05-18T09:48:49Z</time>
      </trkpt>
      <trkpt lat="47.31467" lon="-1.65844">
        <ele>69</ele>
        <time>2014-05-18T09:48:58Z</time>
      </trkpt>
      <trkpt lat="47.31467" lon="-1.65858">
        <ele>68</ele>
        <time>2014-05-18T09:49:02Z</time>
      </trkpt>
      <trkpt lat="47.31466" lon="-1.65878">
        <ele>69</ele>
        <time>2014-05-18T09:49:10Z</time>
      </trkpt>
      <trkpt lat="47.31463" lon="-1.65897">
        <ele>71</ele>
        <time>2014-05-18T09:49:18Z</time>
      </trkpt>
      <trkpt lat="47.31467" lon="-1.65909">
        <ele>71</ele>
        <time>2014-05-18T09:49:22Z</time>
      </trkpt>
      <trkpt lat="47.31454" lon="-1.6592">
        <ele>70</ele>
        <time>2014-05-18T09:49:29Z</time>
      </trkpt>
      <trkpt lat="47.31443" lon="-1.6594">
        <ele>70</ele>
        <time>2014-05-18T09:49:41Z</time>
      </trkpt>
      <trkpt lat="47.31441" lon="-1.65954">
        <ele>68</ele>
        <time>2014-05-18T09:49:45Z</time>
      </trkpt>
      <trkpt lat="47.31438" lon="-1.65972">
        <ele>68</ele>
        <time>2014-05-18T09:49:49Z</time>
      </trkpt>
      <trkpt lat="47.31436" lon="-1.65988">
        <ele>67</ele>
        <time>2014-05-18T09:49:53Z</time>
      </trkpt>
      <trkpt lat="47.31438" lon="-1.66013">
        <ele>70</ele>
        <time>2014-05-18T09:50:02Z</time>
      </trkpt>
      <trkpt lat="47.31439" lon="-1.6603">
        <ele>71</ele>
        <time>2014-05-18T09:50:06Z</time>
      </trkpt>
      <trkpt lat="47.31455" lon="-1.66039">
        <ele>73</ele>
        <time>2014-05-18T09:50:21Z</time>
      </trkpt>
      <trkpt lat="47.31465" lon="-1.66047">
        <ele>74</ele>
        <time>2014-05-18T09:50:29Z</time>
      </trkpt>
      <trkpt lat="47.31473" lon="-1.66066">
        <ele>68</ele>
        <time>2014-05-18T09:53:30Z</time>
      </trkpt>
      <trkpt lat="47.31476" lon="-1.6605">
        <ele>69</ele>
        <time>2014-05-18T09:53:37Z</time>
      </trkpt>
      <trkpt lat="47.31482" lon="-1.6604">
        <ele>68</ele>
        <time>2014-05-18T09:53:41Z</time>
      </trkpt>
      <trkpt lat="47.31491" lon="-1.66039">
        <ele>67</ele>
        <time>2014-05-18T09:53:45Z</time>
      </trkpt>
      <trkpt lat="47.31499" lon="-1.66048">
        <ele>68</ele>
        <time>2014-05-18T09:53:53Z</time>
      </trkpt>
      <trkpt lat="47.315" lon="-1.66063">
        <ele>68</ele>
        <time>2014-05-18T09:54:10Z</time>
      </trkpt>
      <trkpt lat="47.31493" lon="-1.66074">
        <ele>70</ele>
        <time>2014-05-18T09:54:18Z</time>
      </trkpt>
      <trkpt lat="47.31499" lon="-1.66093">
        <ele>68</ele>
        <time>2014-05-18T09:54:26Z</time>
      </trkpt>
      <trkpt lat="47.31513" lon="-1.66102">
        <ele>67</ele>
        <time>2014-05-18T09:54:29Z</time>
      </trkpt>
      <trkpt lat="47.31517" lon="-1.66116">
        <ele>68</ele>
        <time>2014-05-18T09:54:37Z</time>
      </trkpt>
      <trkpt lat="47.31524" lon="-1.66135">
        <ele>68</ele>
        <time>2014-05-18T09:54:45Z</time>
      </trkpt>
      <trkpt lat="47.31522" lon="-1.66154">
        <ele>71</ele>
        <time>2014-05-18T09:54:53Z</time>
      </trkpt>
      <trkpt lat="47.31522" lon="-1.66175">
        <ele>69</ele>
        <time>2014-05-18T09:55:02Z</time>
      </trkpt>
      <trkpt lat="47.31517" lon="-1.66192">
        <ele>67</ele>
        <time>2014-05-18T09:55:10Z</time>
      </trkpt>
      <trkpt lat="47.31506" lon="-1.66201">
        <ele>69</ele>
        <time>2014-05-18T09:55:21Z</time>
      </trkpt>
      <trkpt lat="47.31502" lon="-1.66188">
        <ele>71</ele>
        <time>2014-05-18T09:55:29Z</time>
      </trkpt>
      <trkpt lat="47.31488" lon="-1.66194">
        <ele>74</ele>
        <time>2014-05-18T09:55:38Z</time>
      </trkpt>
      <trkpt lat="47.31476" lon="-1.6618">
        <ele>75</ele>
        <time>2014-05-18T09:55:46Z</time>
      </trkpt>
      <trkpt lat="47.31466" lon="-1.66162">
        <ele>74</ele>
        <time>2014-05-18T09:55:54Z</time>
      </trkpt>
      <trkpt lat="47.31451" lon="-1.6615">
        <ele>73</ele>
        <time>2014-05-18T09:56:02Z</time>
      </trkpt>
      <trkpt lat="47.31442" lon="-1.66151">
        <ele>70</ele>
        <time>2014-05-18T09:56:05Z</time>
      </trkpt>
      <trkpt lat="47.31428" lon="-1.66146">
        <ele>71</ele>
        <time>2014-05-18T09:56:13Z</time>
      </trkpt>
      <trkpt lat="47.31418" lon="-1.66146">
        <ele>71</ele>
        <time>2014-05-18T09:56:17Z</time>
      </trkpt>
      <trkpt lat="47.31424" lon="-1.6617">
        <ele>72</ele>
        <time>2014-05-18T09:56:26Z</time>
      </trkpt>
      <trkpt lat="47.31429" lon="-1.66182">
        <ele>70</ele>
        <time>2014-05-18T09:56:34Z</time>
      </trkpt>
      <trkpt lat="47.31443" lon="-1.66178">
        <ele>71</ele>
        <time>2014-05-18T09:56:42Z</time>
      </trkpt>
      <trkpt lat="47.31455" lon="-1.66196">
        <ele>71</ele>
        <time>2014-05-18T09:56:49Z</time>
      </trkpt>
      <trkpt lat="47.31448" lon="-1.66206">
        <ele>70</ele>
        <time>2014-05-18T09:57:01Z</time>
      </trkpt>
      <trkpt lat="47.31446" lon="-1.66234">
        <ele>71</ele>
        <time>2014-05-18T09:57:10Z</time>
      </trkpt>
      <trkpt lat="47.31433" lon="-1.66234">
        <ele>69</ele>
        <time>2014-05-18T09:57:18Z</time>
      </trkpt>
      <trkpt lat="47.31423" lon="-1.66234">
        <ele>69</ele>
        <time>2014-05-18T09:57:26Z</time>
      </trkpt>
      <trkpt lat="47.31419" lon="-1.66221">
        <ele>67</ele>
        <time>2014-05-18T09:57:30Z</time>
      </trkpt>
      <trkpt lat="47.31419" lon="-1.662">
        <ele>67</ele>
        <time>2014-05-18T09:57:37Z</time>
      </trkpt>
      <trkpt lat="47.31406" lon="-1.66199">
        <ele>69</ele>
        <time>2014-05-18T09:57:49Z</time>
      </trkpt>
      <trkpt lat="47.31396" lon="-1.66205">
        <ele>72</ele>
        <time>2014-05-18T09:57:58Z</time>
      </trkpt>
      <trkpt lat="47.31388" lon="-1.66225">
        <ele>74</ele>
        <time>2014-05-18T09:58:06Z</time>
      </trkpt>
      <trkpt lat="47.31391" lon="-1.6624">
        <ele>72</ele>
        <time>2014-05-18T09:58:10Z</time>
      </trkpt>
      <trkpt lat="47.31394" lon="-1.66253">
        <ele>71</ele>
        <time>2014-05-18T09:58:14Z</time>
      </trkpt>
      <trkpt lat="47.31396" lon="-1.66275">
        <ele>70</ele>
        <time>2014-05-18T09:58:21Z</time>
      </trkpt>
      <trkpt lat="47.31408" lon="-1.66275">
        <ele>70</ele>
        <time>2014-05-18T09:58:58Z</time>
      </trkpt>
      <trkpt lat="47.31418" lon="-1.6626">
        <ele>75</ele>
        <time>2014-05-18T09:59:13Z</time>
      </trkpt>
      <trkpt lat="47.31422" lon="-1.66248">
        <ele>75</ele>
        <time>2014-05-18T09:59:21Z</time>
      </trkpt>
      <trkpt lat="47.31434" lon="-1.66244">
        <ele>75</ele>
        <time>2014-05-18T09:59:29Z</time>
      </trkpt>
      <trkpt lat="47.31431" lon="-1.66259">
        <ele>72</ele>
        <time>2014-05-18T09:59:42Z</time>
      </trkpt>
      <trkpt lat="47.31447" lon="-1.66265">
        <ele>73</ele>
        <time>2014-05-18T09:59:54Z</time>
      </trkpt>
      <trkpt lat="47.3146" lon="-1.66275">
        <ele>71</ele>
        <time>2014-05-18T10:00:02Z</time>
      </trkpt>
      <trkpt lat="47.31468" lon="-1.66297">
        <ele>65</ele>
        <time>2014-05-18T10:00:06Z</time>
      </trkpt>
      <trkpt lat="47.31462" lon="-1.66315">
        <ele>61</ele>
        <time>2014-05-18T10:00:13Z</time>
      </trkpt>
      <trkpt lat="47.31458" lon="-1.6633">
        <ele>65</ele>
        <time>2014-05-18T10:00:25Z</time>
      </trkpt>
      <trkpt lat="47.31448" lon="-1.66332">
        <ele>71</ele>
        <time>2014-05-18T10:00:57Z</time>
      </trkpt>
      <trkpt lat="47.3144" lon="-1.6634">
        <ele>73</ele>
        <time>2014-05-18T10:01:13Z</time>
      </trkpt>
      <trkpt lat="47.31435" lon="-1.66354">
        <ele>74</ele>
        <time>2014-05-18T10:01:26Z</time>
      </trkpt>
      <trkpt lat="47.31451" lon="-1.66349">
        <ele>81</ele>
        <time>2014-05-18T10:01:42Z</time>
      </trkpt>
      <trkpt lat="47.31459" lon="-1.66337">
        <ele>74</ele>
        <time>2014-05-18T10:01:49Z</time>
      </trkpt>
      <trkpt lat="47.31473" lon="-1.6633">
        <ele>68</ele>
        <time>2014-05-18T10:01:57Z</time>
      </trkpt>
      <trkpt lat="47.31483" lon="-1.66321">
        <ele>67</ele>
        <time>2014-05-18T10:02:01Z</time>
      </trkpt>
      <trkpt lat="47.31493" lon="-1.6632">
        <ele>64</ele>
        <time>2014-05-18T10:02:06Z</time>
      </trkpt>
      <trkpt lat="47.31501" lon="-1.66333">
        <ele>64</ele>
        <time>2014-05-18T10:02:26Z</time>
      </trkpt>
      <trkpt lat="47.3151" lon="-1.66324">
        <ele>65</ele>
        <time>2014-05-18T10:02:45Z</time>
      </trkpt>
      <trkpt lat="47.31517" lon="-1.66334">
        <ele>63</ele>
        <time>2014-05-18T10:02:53Z</time>
      </trkpt>
      <trkpt lat="47.31506" lon="-1.66344">
        <ele>65</ele>
        <time>2014-05-18T10:03:14Z</time>
      </trkpt>
      <trkpt lat="47.31495" lon="-1.66348">
        <ele>68</ele>
        <time>2014-05-18T10:03:29Z</time>
      </trkpt>
      <trkpt lat="47.31484" lon="-1.66347">
        <ele>69</ele>
        <time>2014-05-18T10:03:37Z</time>
      </trkpt>
      <trkpt lat="47.31475" lon="-1.66341">
        <ele>70</ele>
        <time>2014-05-18T10:03:45Z</time>
      </trkpt>
      <trkpt lat="47.31469" lon="-1.66354">
        <ele>71</ele>
        <time>2014-05-18T10:04:02Z</time>
      </trkpt>
      <trkpt lat="47.31468" lon="-1.66368">
        <ele>70</ele>
        <time>2014-05-18T10:04:18Z</time>
      </trkpt>
      <trkpt lat="47.31476" lon="-1.66373">
        <ele>74</ele>
        <time>2014-05-18T10:04:25Z</time>
      </trkpt>
      <trkpt lat="47.3148" lon="-1.66386">
        <ele>77</ele>
        <time>2014-05-18T10:04:33Z</time>
      </trkpt>
      <trkpt lat="47.31477" lon="-1.66401">
        <ele>76</ele>
        <time>2014-05-18T10:04:42Z</time>
      </trkpt>
      <trkpt lat="47.31471" lon="-1.66415">
        <ele>78</ele>
        <time>2014-05-18T10:04:50Z</time>
      </trkpt>
      <trkpt lat="47.31476" lon="-1.66431">
        <ele>75</ele>
        <time>2014-05-18T10:04:58Z</time>
      </trkpt>
      <trkpt lat="47.31475" lon="-1.66453">
        <ele>74</ele>
        <time>2014-05-18T10:05:06Z</time>
      </trkpt>
      <trkpt lat="47.31459" lon="-1.66465">
        <ele>72</ele>
        <time>2014-05-18T10:05:14Z</time>
      </trkpt>
      <trkpt lat="47.3147" lon="-1.66471">
        <ele>76</ele>
        <time>2014-05-18T10:05:21Z</time>
      </trkpt>
      <trkpt lat="47.31482" lon="-1.66468">
        <ele>75</ele>
        <time>2014-05-18T10:05:25Z</time>
      </trkpt>
      <trkpt lat="47.31497" lon="-1.66461">
        <ele>72</ele>
        <time>2014-05-18T10:05:29Z</time>
      </trkpt>
      <trkpt lat="47.3152" lon="-1.66455">
        <ele>68</ele>
        <time>2014-05-18T10:05:33Z</time>
      </trkpt>
      <trkpt lat="47.3155" lon="-1.66465">
        <ele>63</ele>
        <time>2014-05-18T10:05:37Z</time>
      </trkpt>
      <trkpt lat="47.31585" lon="-1.66485">
        <ele>58</ele>
        <time>2014-05-18T10:05:41Z</time>
      </trkpt>
      <trkpt lat="47.31625" lon="-1.66509">
        <ele>53</ele>
        <time>2014-05-18T10:05:46Z</time>
      </trkpt>
      <trkpt lat="47.31665" lon="-1.66512">
        <ele>51</ele>
        <time>2014-05-18T10:05:50Z</time>
      </trkpt>
      <trkpt lat="47.3168" lon="-1.6652">
        <ele>51</ele>
        <time>2014-05-18T10:05:54Z</time>
      </trkpt>
      <trkpt lat="47.31693" lon="-1.66568">
        <ele>50</ele>
        <time>2014-05-18T10:05:58Z</time>
      </trkpt>
      <trkpt lat="47.317" lon="-1.66601">
        <ele>48</ele>
        <time>2014-05-18T10:06:02Z</time>
      </trkpt>
      <trkpt lat="47.31718" lon="-1.66632">
        <ele>45</ele>
        <time>2014-05-18T10:06:06Z</time>
      </trkpt>
      <trkpt lat="47.31738" lon="-1.66661">
        <ele>45</ele>
        <time>2014-05-18T10:06:09Z</time>
      </trkpt>
      <trkpt lat="47.31763" lon="-1.66677">
        <ele>44</ele>
        <time>2014-05-18T10:06:13Z</time>
      </trkpt>
      <trkpt lat="47.31781" lon="-1.667">
        <ele>44</ele>
        <time>2014-05-18T10:06:17Z</time>
      </trkpt>
      <trkpt lat="47.31793" lon="-1.66725">
        <ele>45</ele>
        <time>2014-05-18T10:06:21Z</time>
      </trkpt>
      <trkpt lat="47.31804" lon="-1.66748">
        <ele>48</ele>
        <time>2014-05-18T10:06:25Z</time>
      </trkpt>
      <trkpt lat="47.31813" lon="-1.66767">
        <ele>48</ele>
        <time>2014-05-18T10:06:29Z</time>
      </trkpt>
      <trkpt lat="47.31822" lon="-1.66787">
        <ele>48</ele>
        <time>2014-05-18T10:06:33Z</time>
      </trkpt>
      <trkpt lat="47.31832" lon="-1.66804">
        <ele>50</ele>
        <time>2014-05-18T10:06:38Z</time>
      </trkpt>
      <trkpt lat="47.31841" lon="-1.66814">
        <ele>51</ele>
        <time>2014-05-18T10:06:42Z</time>
      </trkpt>
      <trkpt lat="47.3185" lon="-1.66804">
        <ele>51</ele>
        <time>2014-05-18T10:06:46Z</time>
      </trkpt>
      <trkpt lat="47.31861" lon="-1.66787">
        <ele>49</ele>
        <time>2014-05-18T10:06:50Z</time>
      </trkpt>
      <trkpt lat="47.31875" lon="-1.66767">
        <ele>48</ele>
        <time>2014-05-18T10:06:54Z</time>
      </trkpt>
      <trkpt lat="47.31892" lon="-1.66745">
        <ele>46</ele>
        <time>2014-05-18T10:06:58Z</time>
      </trkpt>
      <trkpt lat="47.31914" lon="-1.66708">
        <ele>44</ele>
        <time>2014-05-18T10:07:02Z</time>
      </trkpt>
      <trkpt lat="47.31925" lon="-1.6668">
        <ele>43</ele>
        <time>2014-05-18T10:07:05Z</time>
      </trkpt>
      <trkpt lat="47.31941" lon="-1.66643">
        <ele>41</ele>
        <time>2014-05-18T10:07:09Z</time>
      </trkpt>
      <trkpt lat="47.31961" lon="-1.66605">
        <ele>39</ele>
        <time>2014-05-18T10:07:13Z</time>
      </trkpt>
      <trkpt lat="47.31984" lon="-1.6657">
        <ele>37</ele>
        <time>2014-05-18T10:07:17Z</time>
      </trkpt>
      <trkpt lat="47.32013" lon="-1.66549">
        <ele>37</ele>
        <time>2014-05-18T10:07:21Z</time>
      </trkpt>
      <trkpt lat="47.32026" lon="-1.6651">
        <ele>35</ele>
        <time>2014-05-18T10:07:25Z</time>
      </trkpt>
      <trkpt lat="47.32035" lon="-1.66466">
        <ele>34</ele>
        <time>2014-05-18T10:07:30Z</time>
      </trkpt>
      <trkpt lat="47.32045" lon="-1.66427">
        <ele>35</ele>
        <time>2014-05-18T10:07:34Z</time>
      </trkpt>
      <trkpt lat="47.32058" lon="-1.66388">
        <ele>32</ele>
        <time>2014-05-18T10:07:38Z</time>
      </trkpt>
      <trkpt lat="47.32071" lon="-1.66347">
        <ele>33</ele>
        <time>2014-05-18T10:07:42Z</time>
      </trkpt>
      <trkpt lat="47.32084" lon="-1.66304">
        <ele>31</ele>
        <time>2014-05-18T10:07:46Z</time>
      </trkpt>
      <trkpt lat="47.32097" lon="-1.66249">
        <ele>30</ele>
        <time>2014-05-18T10:07:50Z</time>
      </trkpt>
      <trkpt lat="47.32104" lon="-1.66218">
        <ele>29</ele>
        <time>2014-05-18T10:07:53Z</time>
      </trkpt>
      <trkpt lat="47.32115" lon="-1.66191">
        <ele>29</ele>
        <time>2014-05-18T10:07:57Z</time>
      </trkpt>
      <trkpt lat="47.32136" lon="-1.66154">
        <ele>29</ele>
        <time>2014-05-18T10:08:01Z</time>
      </trkpt>
      <trkpt lat="47.32148" lon="-1.66138">
        <ele>29</ele>
        <time>2014-05-18T10:08:05Z</time>
      </trkpt>
      <trkpt lat="47.32147" lon="-1.66124">
        <ele>29</ele>
        <time>2014-05-18T10:08:09Z</time>
      </trkpt>
      <trkpt lat="47.32141" lon="-1.66103">
        <ele>31</ele>
        <time>2014-05-18T10:08:17Z</time>
      </trkpt>
      <trkpt lat="47.32138" lon="-1.66089">
        <ele>33</ele>
        <time>2014-05-18T10:08:22Z</time>
      </trkpt>
      <trkpt lat="47.32136" lon="-1.66075">
        <ele>34</ele>
        <time>2014-05-18T10:08:26Z</time>
      </trkpt>
      <trkpt lat="47.32132" lon="-1.66058">
        <ele>36</ele>
        <time>2014-05-18T10:08:34Z</time>
      </trkpt>
      <trkpt lat="47.32129" lon="-1.66041">
        <ele>38</ele>
        <time>2014-05-18T10:08:42Z</time>
      </trkpt>
      <trkpt lat="47.32124" lon="-1.66029">
        <ele>46</ele>
        <time>2014-05-18T10:09:01Z</time>
      </trkpt>
      <trkpt lat="47.32119" lon="-1.66012">
        <ele>49</ele>
        <time>2014-05-18T10:09:14Z</time>
      </trkpt>
      <trkpt lat="47.32113" lon="-1.66001">
        <ele>50</ele>
        <time>2014-05-18T10:09:29Z</time>
      </trkpt>
      <trkpt lat="47.32107" lon="-1.65982">
        <ele>53</ele>
        <time>2014-05-18T10:09:45Z</time>
      </trkpt>
      <trkpt lat="47.32103" lon="-1.6597">
        <ele>53</ele>
        <time>2014-05-18T10:09:54Z</time>
      </trkpt>
      <trkpt lat="47.321" lon="-1.65957">
        <ele>56</ele>
        <time>2014-05-18T10:10:02Z</time>
      </trkpt>
      <trkpt lat="47.32094" lon="-1.65947">
        <ele>56</ele>
        <time>2014-05-18T10:10:10Z</time>
      </trkpt>
      <trkpt lat="47.32087" lon="-1.65934">
        <ele>54</ele>
        <time>2014-05-18T10:10:21Z</time>
      </trkpt>
      <trkpt lat="47.32079" lon="-1.65919">
        <ele>54</ele>
        <time>2014-05-18T10:10:34Z</time>
      </trkpt>
      <trkpt lat="47.32071" lon="-1.65909">
        <ele>58</ele>
        <time>2014-05-18T10:10:42Z</time>
      </trkpt>
      <trkpt lat="47.32064" lon="-1.65897">
        <ele>58</ele>
        <time>2014-05-18T10:10:50Z</time>
      </trkpt>
      <trkpt lat="47.32056" lon="-1.65887">
        <ele>63</ele>
        <time>2014-05-18T10:10:57Z</time>
      </trkpt>
      <trkpt lat="47.32047" lon="-1.65872">
        <ele>59</ele>
        <time>2014-05-18T10:11:05Z</time>
      </trkpt>
      <trkpt lat="47.32038" lon="-1.65859">
        <ele>56</ele>
        <time>2014-05-18T10:11:13Z</time>
      </trkpt>
      <trkpt lat="47.32028" lon="-1.65846">
        <ele>59</ele>
        <time>2014-05-18T10:11:22Z</time>
      </trkpt>
      <trkpt lat="47.32018" lon="-1.65829">
        <ele>60</ele>
        <time>2014-05-18T10:11:30Z</time>
      </trkpt>
      <trkpt lat="47.3201" lon="-1.65822">
        <ele>60</ele>
        <time>2014-05-18T10:11:34Z</time>
      </trkpt>
      <trkpt lat="47.31998" lon="-1.65813">
        <ele>62</ele>
        <time>2014-05-18T10:11:41Z</time>
      </trkpt>
      <trkpt lat="47.31993" lon="-1.65797">
        <ele>62</ele>
        <time>2014-05-18T10:11:49Z</time>
      </trkpt>
      <trkpt lat="47.31982" lon="-1.65782">
        <ele>64</ele>
        <time>2014-05-18T10:11:53Z</time>
      </trkpt>
      <trkpt lat="47.31972" lon="-1.6577">
        <ele>65</ele>
        <time>2014-05-18T10:11:57Z</time>
      </trkpt>
      <trkpt lat="47.31963" lon="-1.65757">
        <ele>65</ele>
        <time>2014-05-18T10:12:01Z</time>
      </trkpt>
      <trkpt lat="47.31954" lon="-1.65743">
        <ele>65</ele>
        <time>2014-05-18T10:12:05Z</time>
      </trkpt>
      <trkpt lat="47.31944" lon="-1.6573">
        <ele>66</ele>
        <time>2014-05-18T10:12:10Z</time>
      </trkpt>
      <trkpt lat="47.31934" lon="-1.65715">
        <ele>65</ele>
        <time>2014-05-18T10:12:14Z</time>
      </trkpt>
      <trkpt lat="47.31925" lon="-1.65701">
        <ele>65</ele>
        <time>2014-05-18T10:12:18Z</time>
      </trkpt>
      <trkpt lat="47.31916" lon="-1.65686">
        <ele>65</ele>
        <time>2014-05-18T10:12:22Z</time>
      </trkpt>
      <trkpt lat="47.31905" lon="-1.65669">
        <ele>65</ele>
        <time>2014-05-18T10:12:26Z</time>
      </trkpt>
      <trkpt lat="47.31896" lon="-1.65656">
        <ele>66</ele>
        <time>2014-05-18T10:12:30Z</time>
      </trkpt>
      <trkpt lat="47.31889" lon="-1.65645">
        <ele>65</ele>
        <time>2014-05-18T10:12:33Z</time>
      </trkpt>
      <trkpt lat="47.31872" lon="-1.65616">
        <ele>65</ele>
        <time>2014-05-18T10:12:41Z</time>
      </trkpt>
      <trkpt lat="47.31863" lon="-1.65602">
        <ele>64</ele>
        <time>2014-05-18T10:12:45Z</time>
      </trkpt>
      <trkpt lat="47.31853" lon="-1.65585">
        <ele>65</ele>
        <time>2014-05-18T10:12:49Z</time>
      </trkpt>
      <trkpt lat="47.31842" lon="-1.65569">
        <ele>64</ele>
        <time>2014-05-18T10:12:53Z</time>
      </trkpt>
      <trkpt lat="47.31833" lon="-1.65552">
        <ele>64</ele>
        <time>2014-05-18T10:12:58Z</time>
      </trkpt>
      <trkpt lat="47.31824" lon="-1.65536">
        <ele>63</ele>
        <time>2014-05-18T10:13:02Z</time>
      </trkpt>
      <trkpt lat="47.31818" lon="-1.65518">
        <ele>64</ele>
        <time>2014-05-18T10:13:06Z</time>
      </trkpt>
      <trkpt lat="47.31811" lon="-1.65502">
        <ele>64</ele>
        <time>2014-05-18T10:13:10Z</time>
      </trkpt>
      <trkpt lat="47.31803" lon="-1.65485">
        <ele>62</ele>
        <time>2014-05-18T10:13:14Z</time>
      </trkpt>
      <trkpt lat="47.31793" lon="-1.65465">
        <ele>63</ele>
        <time>2014-05-18T10:13:18Z</time>
      </trkpt>
      <trkpt lat="47.3178" lon="-1.65439">
        <ele>61</ele>
        <time>2014-05-18T10:13:21Z</time>
      </trkpt>
      <trkpt lat="47.31764" lon="-1.65403">
        <ele>59</ele>
        <time>2014-05-18T10:13:25Z</time>
      </trkpt>
      <trkpt lat="47.31744" lon="-1.65364">
        <ele>59.5</ele>
        <time>2014-05-18T10:13:29Z</time>
      </trkpt>
      <trkpt lat="47.31725" lon="-1.65317">
        <ele>58.5</ele>
        <time>2014-05-18T10:13:33Z</time>
      </trkpt>
      <trkpt lat="47.31704" lon="-1.6527">
        <ele>53.5</ele>
        <time>2014-05-18T10:13:37Z</time>
      </trkpt>
      <trkpt lat="47.31676" lon="-1.65224">
        <ele>50.5</ele>
        <time>2014-05-18T10:13:42Z</time>
      </trkpt>
      <trkpt lat="47.31648" lon="-1.65185">
        <ele>48.5</ele>
        <time>2014-05-18T10:13:46Z</time>
      </trkpt>
      <trkpt lat="47.31628" lon="-1.65161">
        <ele>47.5</ele>
        <time>2014-05-18T10:13:50Z</time>
      </trkpt>
      <trkpt lat="47.31618" lon="-1.65142">
        <ele>49.5</ele>
        <time>2014-05-18T10:13:54Z</time>
      </trkpt>
      <trkpt lat="47.31609" lon="-1.65131">
        <ele>47.5</ele>
        <time>2014-05-18T10:13:58Z</time>
      </trkpt>
      <trkpt lat="47.31597" lon="-1.65119">
        <ele>49.5</ele>
        <time>2014-05-18T10:14:02Z</time>
      </trkpt>
      <trkpt lat="47.31583" lon="-1.6512">
        <ele>50.5</ele>
        <time>2014-05-18T10:14:06Z</time>
      </trkpt>
      <trkpt lat="47.31565" lon="-1.65118">
        <ele>51.5</ele>
        <time>2014-05-18T10:14:13Z</time>
      </trkpt>
      <trkpt lat="47.31556" lon="-1.6512">
        <ele>52.5</ele>
        <time>2014-05-18T10:14:17Z</time>
      </trkpt>
      <trkpt lat="47.31544" lon="-1.65116">
        <ele>58.5</ele>
        <time>2014-05-18T10:14:25Z</time>
      </trkpt>
      <trkpt lat="47.31535" lon="-1.65108">
        <ele>56.5</ele>
        <time>2014-05-18T10:14:29Z</time>
      </trkpt>
      <trkpt lat="47.31528" lon="-1.65099">
        <ele>58.5</ele>
        <time>2014-05-18T10:14:34Z</time>
      </trkpt>
      <trkpt lat="47.31525" lon="-1.65085">
        <ele>59.5</ele>
        <time>2014-05-18T10:14:38Z</time>
      </trkpt>
      <trkpt lat="47.31525" lon="-1.6507">
        <ele>58.5</ele>
        <time>2014-05-18T10:14:42Z</time>
      </trkpt>
      <trkpt lat="47.31525" lon="-1.65056">
        <ele>59.5</ele>
        <time>2014-05-18T10:14:46Z</time>
      </trkpt>
      <trkpt lat="47.31527" lon="-1.65027">
        <ele>60.5</ele>
        <time>2014-05-18T10:14:54Z</time>
      </trkpt>
      <trkpt lat="47.31528" lon="-1.65012">
        <ele>63.5</ele>
        <time>2014-05-18T10:14:57Z</time>
      </trkpt>
      <trkpt lat="47.31529" lon="-1.64997">
        <ele>64.5</ele>
        <time>2014-05-18T10:15:01Z</time>
      </trkpt>
      <trkpt lat="47.3153" lon="-1.64982">
        <ele>65.5</ele>
        <time>2014-05-18T10:15:05Z</time>
      </trkpt>
      <trkpt lat="47.3153" lon="-1.64967">
        <ele>64.5</ele>
        <time>2014-05-18T10:15:09Z</time>
      </trkpt>
      <trkpt lat="47.31527" lon="-1.64953">
        <ele>65.5</ele>
        <time>2014-05-18T10:15:13Z</time>
      </trkpt>
      <trkpt lat="47.31525" lon="-1.64938">
        <ele>67.5</ele>
        <time>2014-05-18T10:15:17Z</time>
      </trkpt>
      <trkpt lat="47.31522" lon="-1.64923">
        <ele>69.5</ele>
        <time>2014-05-18T10:15:21Z</time>
      </trkpt>
      <trkpt lat="47.31524" lon="-1.64909">
        <ele>68.5</ele>
        <time>2014-05-18T10:15:26Z</time>
      </trkpt>
      <trkpt lat="47.31532" lon="-1.64899">
        <ele>67.5</ele>
        <time>2014-05-18T10:15:30Z</time>
      </trkpt>
      <trkpt lat="47.31544" lon="-1.6489">
        <ele>66.5</ele>
        <time>2014-05-18T10:15:34Z</time>
      </trkpt>
      <trkpt lat="47.31558" lon="-1.64879">
        <ele>66.5</ele>
        <time>2014-05-18T10:15:38Z</time>
      </trkpt>
      <trkpt lat="47.31577" lon="-1.64865">
        <ele>65.5</ele>
        <time>2014-05-18T10:15:42Z</time>
      </trkpt>
      <trkpt lat="47.31591" lon="-1.64854">
        <ele>64.5</ele>
        <time>2014-05-18T10:15:46Z</time>
      </trkpt>
      <trkpt lat="47.31603" lon="-1.64847">
        <ele>64.5</ele>
        <time>2014-05-18T10:15:49Z</time>
      </trkpt>
      <trkpt lat="47.31616" lon="-1.64834">
        <ele>61.5</ele>
        <time>2014-05-18T10:15:53Z</time>
      </trkpt>
      <trkpt lat="47.31634" lon="-1.64817">
        <ele>59.5</ele>
        <time>2014-05-18T10:15:57Z</time>
      </trkpt>
      <trkpt lat="47.31651" lon="-1.64797">
        <ele>58.5</ele>
        <time>2014-05-18T10:16:01Z</time>
      </trkpt>
      <trkpt lat="47.3167" lon="-1.64774">
        <ele>59.5</ele>
        <time>2014-05-18T10:16:05Z</time>
      </trkpt>
      <trkpt lat="47.31691" lon="-1.64752">
        <ele>58.5</ele>
        <time>2014-05-18T10:16:10Z</time>
      </trkpt>
      <trkpt lat="47.31701" lon="-1.64741">
        <ele>58.5</ele>
        <time>2014-05-18T10:16:14Z</time>
      </trkpt>
      <trkpt lat="47.31732" lon="-1.64711">
        <ele>54.5</ele>
        <time>2014-05-18T10:16:18Z</time>
      </trkpt>
      <trkpt lat="47.31753" lon="-1.64696">
        <ele>52.5</ele>
        <time>2014-05-18T10:16:22Z</time>
      </trkpt>
      <trkpt lat="47.31775" lon="-1.64686">
        <ele>52.5</ele>
        <time>2014-05-18T10:16:26Z</time>
      </trkpt>
      <trkpt lat="47.31804" lon="-1.64676">
        <ele>54.5</ele>
        <time>2014-05-18T10:16:30Z</time>
      </trkpt>
      <trkpt lat="47.3183" lon="-1.64667">
        <ele>54.5</ele>
        <time>2014-05-18T10:16:34Z</time>
      </trkpt>
      <trkpt lat="47.31855" lon="-1.64658">
        <ele>54.5</ele>
        <time>2014-05-18T10:16:38Z</time>
      </trkpt>
      <trkpt lat="47.31874" lon="-1.64652">
        <ele>53.5</ele>
        <time>2014-05-18T10:16:41Z</time>
      </trkpt>
      <trkpt lat="47.319" lon="-1.64643">
        <ele>53.5</ele>
        <time>2014-05-18T10:16:45Z</time>
      </trkpt>
      <trkpt lat="47.31927" lon="-1.64631">
        <ele>52.5</ele>
        <time>2014-05-18T10:16:49Z</time>
      </trkpt>
      <trkpt lat="47.31954" lon="-1.64621">
        <ele>50.5</ele>
        <time>2014-05-18T10:16:53Z</time>
      </trkpt>
      <trkpt lat="47.31982" lon="-1.64614">
        <ele>51.5</ele>
        <time>2014-05-18T10:16:57Z</time>
      </trkpt>
      <trkpt lat="47.32011" lon="-1.64608">
        <ele>51.5</ele>
        <time>2014-05-18T10:17:02Z</time>
      </trkpt>
      <trkpt lat="47.32037" lon="-1.64597">
        <ele>52.5</ele>
        <time>2014-05-18T10:17:06Z</time>
      </trkpt>
      <trkpt lat="47.32065" lon="-1.64587">
        <ele>51.5</ele>
        <time>2014-05-18T10:17:10Z</time>
      </trkpt>
      <trkpt lat="47.32097" lon="-1.64578">
        <ele>49.5</ele>
        <time>2014-05-18T10:17:14Z</time>
      </trkpt>
      <trkpt lat="47.32134" lon="-1.64558">
        <ele>40.5</ele>
        <time>2014-05-18T10:17:18Z</time>
      </trkpt>
      <trkpt lat="47.32168" lon="-1.64529">
        <ele>37.5</ele>
        <time>2014-05-18T10:17:22Z</time>
      </trkpt>
      <trkpt lat="47.32201" lon="-1.64471">
        <ele>35.5</ele>
        <time>2014-05-18T10:17:26Z</time>
      </trkpt>
      <trkpt lat="47.32237" lon="-1.64385">
        <ele>29.5</ele>
        <time>2014-05-18T10:17:33Z</time>
      </trkpt>
      <trkpt lat="47.32246" lon="-1.64343">
        <ele>29.5</ele>
        <time>2014-05-18T10:17:37Z</time>
      </trkpt>
      <trkpt lat="47.32259" lon="-1.64308">
        <ele>28.5</ele>
        <time>2014-05-18T10:17:41Z</time>
      </trkpt>
      <trkpt lat="47.32285" lon="-1.6432">
        <ele>27.5</ele>
        <time>2014-05-18T10:17:45Z</time>
      </trkpt>
      <trkpt lat="47.32307" lon="-1.64328">
        <ele>26.5</ele>
        <time>2014-05-18T10:17:49Z</time>
      </trkpt>
      <trkpt lat="47.32335" lon="-1.64339">
        <ele>22.5</ele>
        <time>2014-05-18T10:17:53Z</time>
      </trkpt>
      <trkpt lat="47.32364" lon="-1.64344">
        <ele>21.5</ele>
        <time>2014-05-18T10:17:57Z</time>
      </trkpt>
      <trkpt lat="47.32391" lon="-1.64351">
        <ele>21.5</ele>
        <time>2014-05-18T10:18:02Z</time>
      </trkpt>
      <trkpt lat="47.32418" lon="-1.64356">
        <ele>20.5</ele>
        <time>2014-05-18T10:18:06Z</time>
      </trkpt>
      <trkpt lat="47.32442" lon="-1.64359">
        <ele>19.5</ele>
        <time>2014-05-18T10:18:10Z</time>
      </trkpt>
      <trkpt lat="47.32466" lon="-1.64371">
        <ele>19.5</ele>
        <time>2014-05-18T10:18:14Z</time>
      </trkpt>
      <trkpt lat="47.32492" lon="-1.64388">
        <ele>20.5</ele>
        <time>2014-05-18T10:18:18Z</time>
      </trkpt>
      <trkpt lat="47.32512" lon="-1.64397">
        <ele>19.5</ele>
        <time>2014-05-18T10:18:22Z</time>
      </trkpt>
      <trkpt lat="47.32541" lon="-1.64399">
        <ele>20.5</ele>
        <time>2014-05-18T10:18:29Z</time>
      </trkpt>
      <trkpt lat="47.32555" lon="-1.64396">
        <ele>20.5</ele>
        <time>2014-05-18T10:18:33Z</time>
      </trkpt>
      <trkpt lat="47.32566" lon="-1.64385">
        <ele>20.5</ele>
        <time>2014-05-18T10:18:37Z</time>
      </trkpt>
      <trkpt lat="47.3257" lon="-1.64363">
        <ele>20.5</ele>
        <time>2014-05-18T10:18:41Z</time>
      </trkpt>
      <trkpt lat="47.32573" lon="-1.64341">
        <ele>21.5</ele>
        <time>2014-05-18T10:18:46Z</time>
      </trkpt>
      <trkpt lat="47.32576" lon="-1.6432">
        <ele>23.5</ele>
        <time>2014-05-18T10:18:50Z</time>
      </trkpt>
      <trkpt lat="47.32581" lon="-1.64301">
        <ele>22.5</ele>
        <time>2014-05-18T10:18:54Z</time>
      </trkpt>
      <trkpt lat="47.32585" lon="-1.64282">
        <ele>22.5</ele>
        <time>2014-05-18T10:18:58Z</time>
      </trkpt>
      <trkpt lat="47.32591" lon="-1.64258">
        <ele>24.5</ele>
        <time>2014-05-18T10:19:02Z</time>
      </trkpt>
      <trkpt lat="47.32586" lon="-1.64239">
        <ele>26.5</ele>
        <time>2014-05-18T10:19:06Z</time>
      </trkpt>
      <trkpt lat="47.3258" lon="-1.64226">
        <ele>25.5</ele>
        <time>2014-05-18T10:19:09Z</time>
      </trkpt>
      <trkpt lat="47.32576" lon="-1.64206">
        <ele>25.5</ele>
        <time>2014-05-18T10:19:13Z</time>
      </trkpt>
      <trkpt lat="47.32577" lon="-1.64186">
        <ele>26.5</ele>
        <time>2014-05-18T10:19:17Z</time>
      </trkpt>
      <trkpt lat="47.32581" lon="-1.64168">
        <ele>26.5</ele>
        <time>2014-05-18T10:19:21Z</time>
      </trkpt>
      <trkpt lat="47.32582" lon="-1.64153">
        <ele>28.5</ele>
        <time>2014-05-18T10:19:25Z</time>
      </trkpt>
      <trkpt lat="47.32583" lon="-1.64137">
        <ele>28.5</ele>
        <time>2014-05-18T10:19:30Z</time>
      </trkpt>
      <trkpt lat="47.32584" lon="-1.64121">
        <ele>29.5</ele>
        <time>2014-05-18T10:19:34Z</time>
      </trkpt>
      <trkpt lat="47.32584" lon="-1.64104">
        <ele>29.5</ele>
        <time>2014-05-18T10:19:38Z</time>
      </trkpt>
      <trkpt lat="47.32585" lon="-1.64087">
        <ele>30.5</ele>
        <time>2014-05-18T10:19:42Z</time>
      </trkpt>
      <trkpt lat="47.32586" lon="-1.6407">
        <ele>30.5</ele>
        <time>2014-05-18T10:19:46Z</time>
      </trkpt>
      <trkpt lat="47.32588" lon="-1.64054">
        <ele>31.5</ele>
        <time>2014-05-18T10:19:50Z</time>
      </trkpt>
      <trkpt lat="47.32591" lon="-1.64035">
        <ele>32.5</ele>
        <time>2014-05-18T10:19:54Z</time>
      </trkpt>
      <trkpt lat="47.32595" lon="-1.64019">
        <ele>32.5</ele>
        <time>2014-05-18T10:19:58Z</time>
      </trkpt>
      <trkpt lat="47.326" lon="-1.63992">
        <ele>36.5</ele>
        <time>2014-05-18T10:20:05Z</time>
      </trkpt>
      <trkpt lat="47.32601" lon="-1.63975">
        <ele>36.5</ele>
        <time>2014-05-18T10:20:09Z</time>
      </trkpt>
      <trkpt lat="47.32602" lon="-1.6396">
        <ele>40.5</ele>
        <time>2014-05-18T10:20:13Z</time>
      </trkpt>
      <trkpt lat="47.32604" lon="-1.63944">
        <ele>40.5</ele>
        <time>2014-05-18T10:20:17Z</time>
      </trkpt>
      <trkpt lat="47.32605" lon="-1.63928">
        <ele>41.5</ele>
        <time>2014-05-18T10:20:21Z</time>
      </trkpt>
      <trkpt lat="47.32607" lon="-1.63911">
        <ele>42.5</ele>
        <time>2014-05-18T10:20:26Z</time>
      </trkpt>
      <trkpt lat="47.32609" lon="-1.63895">
        <ele>42.5</ele>
        <time>2014-05-18T10:20:30Z</time>
      </trkpt>
      <trkpt lat="47.32611" lon="-1.63879">
        <ele>43.5</ele>
        <time>2014-05-18T10:20:34Z</time>
      </trkpt>
      <trkpt lat="47.32615" lon="-1.63864">
        <ele>44.5</ele>
        <time>2014-05-18T10:20:38Z</time>
      </trkpt>
      <trkpt lat="47.32619" lon="-1.63851">
        <ele>44.5</ele>
        <time>2014-05-18T10:20:42Z</time>
      </trkpt>
      <trkpt lat="47.32626" lon="-1.6384">
        <ele>44.5</ele>
        <time>2014-05-18T10:20:46Z</time>
      </trkpt>
      <trkpt lat="47.32635" lon="-1.63832">
        <ele>44.5</ele>
        <time>2014-05-18T10:20:50Z</time>
      </trkpt>
      <trkpt lat="47.32648" lon="-1.63819">
        <ele>46.5</ele>
        <time>2014-05-18T10:20:58Z</time>
      </trkpt>
      <trkpt lat="47.32658" lon="-1.63803">
        <ele>48.5</ele>
        <time>2014-05-18T10:21:05Z</time>
      </trkpt>
      <trkpt lat="47.32665" lon="-1.6378">
        <ele>50.5</ele>
        <time>2014-05-18T10:21:13Z</time>
      </trkpt>
      <trkpt lat="47.32669" lon="-1.63755">
        <ele>50.5</ele>
        <time>2014-05-18T10:21:21Z</time>
      </trkpt>
      <trkpt lat="47.32672" lon="-1.6373">
        <ele>51.5</ele>
        <time>2014-05-18T10:21:30Z</time>
      </trkpt>
      <trkpt lat="47.32675" lon="-1.63711">
        <ele>52.5</ele>
        <time>2014-05-18T10:21:38Z</time>
      </trkpt>
      <trkpt lat="47.32675" lon="-1.63693">
        <ele>56.5</ele>
        <time>2014-05-18T10:21:42Z</time>
      </trkpt>
      <trkpt lat="47.32675" lon="-1.63678">
        <ele>56.5</ele>
        <time>2014-05-18T10:21:46Z</time>
      </trkpt>
      <trkpt lat="47.32676" lon="-1.63656">
        <ele>57.5</ele>
        <time>2014-05-18T10:21:53Z</time>
      </trkpt>
      <trkpt lat="47.32675" lon="-1.6363">
        <ele>57.5</ele>
        <time>2014-05-18T10:22:01Z</time>
      </trkpt>
      <trkpt lat="47.32673" lon="-1.63604">
        <ele>58.5</ele>
        <time>2014-05-18T10:22:09Z</time>
      </trkpt>
      <trkpt lat="47.32672" lon="-1.6359">
        <ele>57.5</ele>
        <time>2014-05-18T10:22:13Z</time>
      </trkpt>
      <trkpt lat="47.32671" lon="-1.63575">
        <ele>56.5</ele>
        <time>2014-05-18T10:22:18Z</time>
      </trkpt>
      <trkpt lat="47.32668" lon="-1.6356">
        <ele>55.5</ele>
        <time>2014-05-18T10:22:22Z</time>
      </trkpt>
      <trkpt lat="47.32663" lon="-1.63538">
        <ele>55.5</ele>
        <time>2014-05-18T10:22:26Z</time>
      </trkpt>
      <trkpt lat="47.32658" lon="-1.63514">
        <ele>55.5</ele>
        <time>2014-05-18T10:22:30Z</time>
      </trkpt>
      <trkpt lat="47.32651" lon="-1.63486">
        <ele>55.5</ele>
        <time>2014-05-18T10:22:34Z</time>
      </trkpt>
      <trkpt lat="47.32644" lon="-1.63454">
        <ele>55.5</ele>
        <time>2014-05-18T10:22:38Z</time>
      </trkpt>
      <trkpt lat="47.32638" lon="-1.63433">
        <ele>55.5</ele>
        <time>2014-05-18T10:22:42Z</time>
      </trkpt>
      <trkpt lat="47.32635" lon="-1.63406">
        <ele>55.5</ele>
        <time>2014-05-18T10:22:45Z</time>
      </trkpt>
      <trkpt lat="47.3265" lon="-1.63384">
        <ele>53.5</ele>
        <time>2014-05-18T10:22:49Z</time>
      </trkpt>
      <trkpt lat="47.32666" lon="-1.63368">
        <ele>52.5</ele>
        <time>2014-05-18T10:22:53Z</time>
      </trkpt>
      <trkpt lat="47.32682" lon="-1.63352">
        <ele>50.5</ele>
        <time>2014-05-18T10:22:57Z</time>
      </trkpt>
      <trkpt lat="47.327" lon="-1.63335">
        <ele>48.5</ele>
        <time>2014-05-18T10:23:01Z</time>
      </trkpt>
      <trkpt lat="47.32721" lon="-1.63317">
        <ele>46.5</ele>
        <time>2014-05-18T10:23:05Z</time>
      </trkpt>
      <trkpt lat="47.32744" lon="-1.63298">
        <ele>45.5</ele>
        <time>2014-05-18T10:23:10Z</time>
      </trkpt>
      <trkpt lat="47.32766" lon="-1.63276">
        <ele>44.5</ele>
        <time>2014-05-18T10:23:14Z</time>
      </trkpt>
      <trkpt lat="47.3279" lon="-1.63252">
        <ele>44.5</ele>
        <time>2014-05-18T10:23:18Z</time>
      </trkpt>
      <trkpt lat="47.32815" lon="-1.63237">
        <ele>42.5</ele>
        <time>2014-05-18T10:23:22Z</time>
      </trkpt>
      <trkpt lat="47.32833" lon="-1.63235">
        <ele>42.5</ele>
        <time>2014-05-18T10:23:26Z</time>
      </trkpt>
      <trkpt lat="47.3284" lon="-1.6322">
        <ele>40.5</ele>
        <time>2014-05-18T10:23:30Z</time>
      </trkpt>
      <trkpt lat="47.32834" lon="-1.63205">
        <ele>39.5</ele>
        <time>2014-05-18T10:23:33Z</time>
      </trkpt>
      <trkpt lat="47.32823" lon="-1.6318">
        <ele>39.5</ele>
        <time>2014-05-18T10:23:37Z</time>
      </trkpt>
      <trkpt lat="47.32812" lon="-1.63153">
        <ele>37.5</ele>
        <time>2014-05-18T10:23:41Z</time>
      </trkpt>
      <trkpt lat="47.32798" lon="-1.63122">
        <ele>36.5</ele>
        <time>2014-05-18T10:23:45Z</time>
      </trkpt>
      <trkpt lat="47.32784" lon="-1.63089">
        <ele>34.5</ele>
        <time>2014-05-18T10:23:49Z</time>
      </trkpt>
      <trkpt lat="47.32765" lon="-1.63065">
        <ele>33.5</ele>
        <time>2014-05-18T10:23:54Z</time>
      </trkpt>
      <trkpt lat="47.32747" lon="-1.63048">
        <ele>33.5</ele>
        <time>2014-05-18T10:23:58Z</time>
      </trkpt>
      <trkpt lat="47.32733" lon="-1.63036">
        <ele>34.5</ele>
        <time>2014-05-18T10:24:02Z</time>
      </trkpt>
      <trkpt lat="47.32708" lon="-1.63033">
        <ele>33.5</ele>
        <time>2014-05-18T10:24:06Z</time>
      </trkpt>
      <trkpt lat="47.32687" lon="-1.63033">
        <ele>33.5</ele>
        <time>2014-05-18T10:24:10Z</time>
      </trkpt>
      <trkpt lat="47.32668" lon="-1.63026">
        <ele>33.5</ele>
        <time>2014-05-18T10:24:14Z</time>
      </trkpt>
      <trkpt lat="47.32651" lon="-1.6302">
        <ele>35.5</ele>
        <time>2014-05-18T10:24:18Z</time>
      </trkpt>
      <trkpt lat="47.32637" lon="-1.6302">
        <ele>35.5</ele>
        <time>2014-05-18T10:24:21Z</time>
      </trkpt>
      <trkpt lat="47.3262" lon="-1.63015">
        <ele>35.5</ele>
        <time>2014-05-18T10:24:25Z</time>
      </trkpt>
      <trkpt lat="47.32604" lon="-1.62999">
        <ele>34.5</ele>
        <time>2014-05-18T10:24:29Z</time>
      </trkpt>
      <trkpt lat="47.3259" lon="-1.62968">
        <ele>31.5</ele>
        <time>2014-05-18T10:24:33Z</time>
      </trkpt>
      <trkpt lat="47.32583" lon="-1.62958">
        <ele>33.5</ele>
        <time>2014-05-18T10:24:37Z</time>
      </trkpt>
      <trkpt lat="47.32574" lon="-1.62959">
        <ele>32.5</ele>
        <time>2014-05-18T10:24:42Z</time>
      </trkpt>
      <trkpt lat="47.32561" lon="-1.62962">
        <ele>28.5</ele>
        <time>2014-05-18T10:24:50Z</time>
      </trkpt>
      <trkpt lat="47.32544" lon="-1.62969">
        <ele>25.5</ele>
        <time>2014-05-18T10:24:58Z</time>
      </trkpt>
      <trkpt lat="47.32529" lon="-1.62974">
        <ele>26.5</ele>
        <time>2014-05-18T10:25:06Z</time>
      </trkpt>
      <trkpt lat="47.3252" lon="-1.62975">
        <ele>25.5</ele>
        <time>2014-05-18T10:25:09Z</time>
      </trkpt>
      <trkpt lat="47.32503" lon="-1.62975">
        <ele>26.5</ele>
        <time>2014-05-18T10:25:17Z</time>
      </trkpt>
      <trkpt lat="47.32493" lon="-1.62963">
        <ele>27.5</ele>
        <time>2014-05-18T10:25:25Z</time>
      </trkpt>
      <trkpt lat="47.32475" lon="-1.62972">
        <ele>30.5</ele>
        <time>2014-05-18T10:25:34Z</time>
      </trkpt>
      <trkpt lat="47.32458" lon="-1.62984">
        <ele>27.5</ele>
        <time>2014-05-18T10:25:38Z</time>
      </trkpt>
      <trkpt lat="47.32441" lon="-1.62994">
        <ele>25.5</ele>
        <time>2014-05-18T10:25:42Z</time>
      </trkpt>
      <trkpt lat="47.3242" lon="-1.63004">
        <ele>25.5</ele>
        <time>2014-05-18T10:25:46Z</time>
      </trkpt>
      <trkpt lat="47.32405" lon="-1.63011">
        <ele>25.5</ele>
        <time>2014-05-18T10:25:50Z</time>
      </trkpt>
      <trkpt lat="47.3238" lon="-1.63003">
        <ele>23.5</ele>
        <time>2014-05-18T10:25:57Z</time>
      </trkpt>
      <trkpt lat="47.32369" lon="-1.62988">
        <ele>24.5</ele>
        <time>2014-05-18T10:26:01Z</time>
      </trkpt>
      <trkpt lat="47.32358" lon="-1.62977">
        <ele>23.5</ele>
        <time>2014-05-18T10:26:05Z</time>
      </trkpt>
      <trkpt lat="47.32349" lon="-1.62966">
        <ele>24.5</ele>
        <time>2014-05-18T10:26:09Z</time>
      </trkpt>
      <trkpt lat="47.32338" lon="-1.62954">
        <ele>24.5</ele>
        <time>2014-05-18T10:26:13Z</time>
      </trkpt>
      <trkpt lat="47.32326" lon="-1.62941">
        <ele>25.5</ele>
        <time>2014-05-18T10:26:17Z</time>
      </trkpt>
      <trkpt lat="47.32314" lon="-1.62929">
        <ele>26.5</ele>
        <time>2014-05-18T10:26:22Z</time>
      </trkpt>
      <trkpt lat="47.32302" lon="-1.62915">
        <ele>25.5</ele>
        <time>2014-05-18T10:26:26Z</time>
      </trkpt>
      <trkpt lat="47.3229" lon="-1.62901">
        <ele>26.5</ele>
        <time>2014-05-18T10:26:30Z</time>
      </trkpt>
      <trkpt lat="47.3228" lon="-1.62885">
        <ele>25.5</ele>
        <time>2014-05-18T10:26:34Z</time>
      </trkpt>
      <trkpt lat="47.32283" lon="-1.6287">
        <ele>26.5</ele>
        <time>2014-05-18T10:26:41Z</time>
      </trkpt>
      <trkpt lat="47.32293" lon="-1.62852">
        <ele>25.5</ele>
        <time>2014-05-18T10:26:49Z</time>
      </trkpt>
      <trkpt lat="47.32301" lon="-1.62834">
        <ele>27.5</ele>
        <time>2014-05-18T10:26:57Z</time>
      </trkpt>
      <trkpt lat="47.32309" lon="-1.62814">
        <ele>26.5</ele>
        <time>2014-05-18T10:27:05Z</time>
      </trkpt>
      <trkpt lat="47.32315" lon="-1.628">
        <ele>26.5</ele>
        <time>2014-05-18T10:27:14Z</time>
      </trkpt>
      <trkpt lat="47.32324" lon="-1.62776">
        <ele>29.5</ele>
        <time>2014-05-18T10:27:22Z</time>
      </trkpt>
      <trkpt lat="47.3233" lon="-1.62759">
        <ele>30.5</ele>
        <time>2014-05-18T10:27:30Z</time>
      </trkpt>
      <trkpt lat="47.32335" lon="-1.62746">
        <ele>30.5</ele>
        <time>2014-05-18T10:27:37Z</time>
      </trkpt>
      <trkpt lat="47.32344" lon="-1.62732">
        <ele>31.5</ele>
        <time>2014-05-18T10:27:45Z</time>
      </trkpt>
      <trkpt lat="47.32352" lon="-1.62714">
        <ele>34.5</ele>
        <time>2014-05-18T10:27:53Z</time>
      </trkpt>
      <trkpt lat="47.32357" lon="-1.62702">
        <ele>34.5</ele>
        <time>2014-05-18T10:28:02Z</time>
      </trkpt>
      <trkpt lat="47.32362" lon="-1.62689">
        <ele>36.5</ele>
        <time>2014-05-18T10:28:06Z</time>
      </trkpt>
      <trkpt lat="47.32362" lon="-1.62674">
        <ele>37.5</ele>
        <time>2014-05-18T10:28:10Z</time>
      </trkpt>
      <trkpt lat="47.32356" lon="-1.62657">
        <ele>41.5</ele>
        <time>2014-05-18T10:28:18Z</time>
      </trkpt>
      <trkpt lat="47.32348" lon="-1.62641">
        <ele>43.5</ele>
        <time>2014-05-18T10:28:25Z</time>
      </trkpt>
      <trkpt lat="47.32341" lon="-1.62624">
        <ele>45.5</ele>
        <time>2014-05-18T10:28:33Z</time>
      </trkpt>
      <trkpt lat="47.32345" lon="-1.62608">
        <ele>44.5</ele>
        <time>2014-05-18T10:28:41Z</time>
      </trkpt>
      <trkpt lat="47.32359" lon="-1.626">
        <ele>44.5</ele>
        <time>2014-05-18T10:28:50Z</time>
      </trkpt>
      <trkpt lat="47.32368" lon="-1.62596">
        <ele>44.5</ele>
        <time>2014-05-18T10:28:54Z</time>
      </trkpt>
      <trkpt lat="47.32377" lon="-1.62592">
        <ele>44.5</ele>
        <time>2014-05-18T10:28:58Z</time>
      </trkpt>
      <trkpt lat="47.32397" lon="-1.62582">
        <ele>45.5</ele>
        <time>2014-05-18T10:29:06Z</time>
      </trkpt>
      <trkpt lat="47.32406" lon="-1.62577">
        <ele>45.5</ele>
        <time>2014-05-18T10:29:10Z</time>
      </trkpt>
      <trkpt lat="47.3242" lon="-1.62563">
        <ele>45.5</ele>
        <time>2014-05-18T10:29:17Z</time>
      </trkpt>
      <trkpt lat="47.32426" lon="-1.62552">
        <ele>45.5</ele>
        <time>2014-05-18T10:29:21Z</time>
      </trkpt>
      <trkpt lat="47.32432" lon="-1.6254">
        <ele>45.5</ele>
        <time>2014-05-18T10:29:25Z</time>
      </trkpt>
      <trkpt lat="47.32438" lon="-1.62529">
        <ele>46.5</ele>
        <time>2014-05-18T10:29:29Z</time>
      </trkpt>
      <trkpt lat="47.32445" lon="-1.62519">
        <ele>46.5</ele>
        <time>2014-05-18T10:29:34Z</time>
      </trkpt>
      <trkpt lat="47.32452" lon="-1.62509">
        <ele>46.5</ele>
        <time>2014-05-18T10:29:38Z</time>
      </trkpt>
      <trkpt lat="47.32459" lon="-1.62499">
        <ele>46.5</ele>
        <time>2014-05-18T10:29:42Z</time>
      </trkpt>
      <trkpt lat="47.32467" lon="-1.62488">
        <ele>46.5</ele>
        <time>2014-05-18T10:29:46Z</time>
      </trkpt>
      <trkpt lat="47.32475" lon="-1.62475">
        <ele>47.5</ele>
        <time>2014-05-18T10:29:50Z</time>
      </trkpt>
      <trkpt lat="47.32483" lon="-1.62463">
        <ele>48.5</ele>
        <time>2014-05-18T10:29:54Z</time>
      </trkpt>
      <trkpt lat="47.32501" lon="-1.62439">
        <ele>49.5</ele>
        <time>2014-05-18T10:30:01Z</time>
      </trkpt>
      <trkpt lat="47.32509" lon="-1.62429">
        <ele>49.5</ele>
        <time>2014-05-18T10:30:05Z</time>
      </trkpt>
      <trkpt lat="47.32524" lon="-1.62413">
        <ele>49.5</ele>
        <time>2014-05-18T10:30:09Z</time>
      </trkpt>
      <trkpt lat="47.32538" lon="-1.6241">
        <ele>49.5</ele>
        <time>2014-05-18T10:30:13Z</time>
      </trkpt>
      <trkpt lat="47.32553" lon="-1.62412">
        <ele>50.5</ele>
        <time>2014-05-18T10:30:17Z</time>
      </trkpt>
      <trkpt lat="47.3257" lon="-1.62415">
        <ele>48.5</ele>
        <time>2014-05-18T10:30:21Z</time>
      </trkpt>
      <trkpt lat="47.32587" lon="-1.62418">
        <ele>47.5</ele>
        <time>2014-05-18T10:30:25Z</time>
      </trkpt>
      <trkpt lat="47.32604" lon="-1.62419">
        <ele>47.5</ele>
        <time>2014-05-18T10:30:30Z</time>
      </trkpt>
      <trkpt lat="47.32621" lon="-1.62421">
        <ele>46.5</ele>
        <time>2014-05-18T10:30:34Z</time>
      </trkpt>
      <trkpt lat="47.32639" lon="-1.62424">
        <ele>45.5</ele>
        <time>2014-05-18T10:30:38Z</time>
      </trkpt>
      <trkpt lat="47.32657" lon="-1.62424">
        <ele>44.5</ele>
        <time>2014-05-18T10:30:42Z</time>
      </trkpt>
      <trkpt lat="47.32678" lon="-1.62425">
        <ele>43.5</ele>
        <time>2014-05-18T10:30:46Z</time>
      </trkpt>
      <trkpt lat="47.32689" lon="-1.62426">
        <ele>43.5</ele>
        <time>2014-05-18T10:30:50Z</time>
      </trkpt>
      <trkpt lat="47.32699" lon="-1.62426">
        <ele>44.5</ele>
        <time>2014-05-18T10:30:53Z</time>
      </trkpt>
      <trkpt lat="47.32701" lon="-1.62398">
        <ele>48.5</ele>
        <time>2014-05-18T10:31:01Z</time>
      </trkpt>
      <trkpt lat="47.32699" lon="-1.62378">
        <ele>50.5</ele>
        <time>2014-05-18T10:31:05Z</time>
      </trkpt>
      <trkpt lat="47.32699" lon="-1.6236">
        <ele>51.5</ele>
        <time>2014-05-18T10:31:09Z</time>
      </trkpt>
      <trkpt lat="47.32699" lon="-1.62343">
        <ele>52.5</ele>
        <time>2014-05-18T10:31:13Z</time>
      </trkpt>
      <trkpt lat="47.32699" lon="-1.62327">
        <ele>53.5</ele>
        <time>2014-05-18T10:31:17Z</time>
      </trkpt>
      <trkpt lat="47.32699" lon="-1.6231">
        <ele>52.5</ele>
        <time>2014-05-18T10:31:22Z</time>
      </trkpt>
      <trkpt lat="47.32698" lon="-1.62293">
        <ele>52.5</ele>
        <time>2014-05-18T10:31:26Z</time>
      </trkpt>
      <trkpt lat="47.32697" lon="-1.62276">
        <ele>51.5</ele>
        <time>2014-05-18T10:31:30Z</time>
      </trkpt>
      <trkpt lat="47.32696" lon="-1.62258">
        <ele>51.5</ele>
        <time>2014-05-18T10:31:34Z</time>
      </trkpt>
      <trkpt lat="47.32692" lon="-1.62232">
        <ele>51.5</ele>
        <time>2014-05-18T10:31:38Z</time>
      </trkpt>
      <trkpt lat="47.32686" lon="-1.62211">
        <ele>52.5</ele>
        <time>2014-05-18T10:31:42Z</time>
      </trkpt>
      <trkpt lat="47.32683" lon="-1.62195">
        <ele>51.5</ele>
        <time>2014-05-18T10:31:46Z</time>
      </trkpt>
      <trkpt lat="47.32695" lon="-1.62178">
        <ele>55.5</ele>
        <time>2014-05-18T10:31:53Z</time>
      </trkpt>
      <trkpt lat="47.32687" lon="-1.62167">
        <ele>52.5</ele>
        <time>2014-05-18T10:32:01Z</time>
      </trkpt>
      <trkpt lat="47.32697" lon="-1.62169">
        <ele>54.5</ele>
        <time>2014-05-18T10:34:02Z</time>
      </trkpt>
      <trkpt lat="47.32697" lon="-1.62169">
        <ele>51</ele>
        <time>2014-05-18T10:34:21Z</time>
      </trkpt>
      <trkpt lat="47.32697" lon="-1.62169">
        <ele>51</ele>
        <time>2014-05-18T10:34:24Z</time>
      </trkpt>
    </trkseg>
  </trk>
</gpx>